# Wetter Temperatur Luftdruck Luftfeuchtigkeit Sichtweite Windgeschwindigkeit Windrichtung Zeit
1 Rain 16 1014 93 10000 3.1 80 20:19 17.10.2019
2 Rain 17 1015 88 10000 5.1 60 19:56 17.10.2019
3 Rain 16 1015 88 10000 5.1 60 19:37 17.10.2019
4 Rain 16 1015 88 10000 5.1 60 19:18 17.10.2019
5 Drizzle 17 1014 88 4000 5.1 80 18:42 17.10.2019
6 Drizzle 17 1014 88 4000 5.1 80 18:42 17.10.2019
7 Clouds 16 1015 88 10000 5.7 70 18:21 17.10.2019
8 Clouds 16 1016 93 10000 5.1 80 17:55 17.10.2019
9 Clouds 16 1016 93 10000 5.1 80 17:37 17.10.2019
10 Clouds 16 1016 93 10000 5.1 80 17:19 17.10.2019
11 Drizzle 16 1016 87 3500 5.7 80 16:55 17.10.2019
12 Drizzle 16 1016 87 1500 5.1 80 16:36 17.10.2019
13 Drizzle 16 1016 87 1500 5.1 80 16:18 17.10.2019
14 Mist 16 1017 77 3000 3.1 100 15:41 17.10.2019
15 Clouds 16 1017 77 3000 5.1 110 15:21 17.10.2019
16 Clouds 17 1016 82 10000 6.2 70 14:59 17.10.2019
17 Clouds 17 1016 82 10000 6.2 70 14:41 17.10.2019
18 Clouds 17 1016 82 10000 6.2 70 14:23 17.10.2019
19 Clouds 16 1017 87 10000 6.7 80 13:42 17.10.2019
20 Clouds 16 1017 87 10000 6.7 80 13:21 17.10.2019
21 Clouds 16 1018 82 10000 5.1 90 12:59 17.10.2019
22 Clouds 16 1018 82 10000 5.1 90 12:40 17.10.2019
23 Clouds 16 1018 82 10000 5.1 90 12:20 17.10.2019
24 Clouds 16 1018 82 10000 5.1 100 11:57 17.10.2019
25 Clouds 16 1018 82 10000 5.1 100 11:39 17.10.2019
26 Clouds 16 1018 82 10000 5.1 100 11:18 17.10.2019
27 Clouds 15 1018 87 10000 5.7 100 10:42 17.10.2019
28 Clouds 16 1018 87 10000 5.7 100 10:21 17.10.2019
29 Clouds 16 1018 87 10000 5.7 100 10:21 17.10.2019
30 Clouds 16 1019 87 10000 4.6 110 09:59 17.10.2019
31 Clouds 15 1019 87 10000 4.6 110 09:41 17.10.2019
32 Clouds 15 1019 87 10000 4.6 110 09:41 17.10.2019
33 Clouds 15 1019 87 10000 4.6 110 09:21 17.10.2019
34 Clouds 15 1020 87 10000 4.6 100 08:58 17.10.2019
35 Clouds 15 1020 87 10000 4.6 100 08:58 17.10.2019
36 Clouds 16 1020 87 10000 4.6 100 08:39 17.10.2019
37 Clouds 16 1020 87 10000 4.6 100 08:20 17.10.2019
38 Clouds 15 1020 87 10000 4.1 110 07:54 17.10.2019
39 Clouds 15 1020 87 10000 4.1 110 07:36 17.10.2019
40 Clouds 15 1020 87 10000 4.1 110 07:18 17.10.2019
41 Clouds 15 1021 87 10000 5.7 110 06:39 17.10.2019
42 Clouds 15 1021 87 10000 5.7 110 06:20 17.10.2019
43 Clouds 15 1021 82 10000 5.1 110 05:49 17.10.2019
44 Clouds 15 1021 82 10000 5.1 110 05:30 17.10.2019
45 Clouds 15 1021 87 10000 5.7 110 04:51 17.10.2019
46 Clouds 15 1022 82 10000 6.2 110 03:54 17.10.2019
47 Clouds 16 1022 87 10000 6.2 110 02:36 17.10.2019
48 Clouds 16 1021 87 10000 5.7 100 00:56 17.10.2019
49 Clouds 16 1021 87 10000 5.7 100 00:38 17.10.2019
50 Clouds 16 1021 87 10000 5.7 100 00:18 17.10.2019
51 Clouds 16 1021 82 10000 5.7 100 23:42 16.10.2019
52 Clouds 16 1021 82 10000 5.7 100 23:21 16.10.2019
53 Clouds 16 1021 82 10000 5.7 100 23:21 16.10.2019
54 Clouds 16 1021 77 10000 6.2 100 22:55 16.10.2019
55 Clouds 16 1021 77 10000 6.2 100 22:36 16.10.2019
56 Clouds 16 1021 77 10000 6.2 100 22:36 16.10.2019
57 Clouds 16 1021 77 10000 6.2 100 22:18 16.10.2019
58 Clouds 17 1021 77 10000 6.2 100 21:56 16.10.2019
59 Clouds 17 1021 77 10000 6.2 100 21:37 16.10.2019
60 Clouds 17 1021 77 10000 6.2 100 21:18 16.10.2019
61 Clouds 17 1022 72 10000 6.2 110 20:57 16.10.2019
62 Clouds 17 1022 72 10000 6.2 110 20:38 16.10.2019
63 Clouds 17 1022 72 10000 6.2 110 20:20 16.10.2019
64 Clouds 18 1022 72 10000 6.2 100 19:57 16.10.2019
65 Clouds 18 1022 72 10000 6.2 100 19:38 16.10.2019
66 Clouds 18 1022 72 10000 6.2 100 19:20 16.10.2019
67 -273 0 0 0 0 0 18:39 16.10.2019
68 Clouds 17 1023 72 10000 7.2 120 18:39 16.10.2019
69 Clouds 17 1023 72 10000 7.2 120 18:19 16.10.2019
70 Clouds 17 1023 68 10000 6.7 90 17:58 16.10.2019
71 Clouds 17 1023 68 10000 6.7 90 17:39 16.10.2019
72 Clouds 17 1023 68 10000 6.7 90 17:21 16.10.2019
73 Clouds 16 1024 77 10000 5.1 100 16:59 16.10.2019
74 Clouds 16 1024 77 10000 5.1 100 16:41 16.10.2019
75 Clouds 16 1024 77 10000 5.1 100 16:41 16.10.2019
76 Clouds 16 1024 77 10000 5.1 100 16:20 16.10.2019
77 Clouds 16 1024 77 10000 5.7 90 15:56 16.10.2019
78 Clouds 16 1024 77 10000 5.7 90 15:56 16.10.2019
79 Rain 17 1014 72 0 0.89 116 15:37 16.10.2019
80 Clouds 16 1025 82 10000 7.2 100 15:18 16.10.2019
81 Clouds 16 1025 82 10000 7.2 100 14:56 16.10.2019
82 Clouds 16 1025 82 10000 7.2 100 14:38 16.10.2019
83 Clouds 16 1025 82 10000 7.2 100 14:18 16.10.2019
84 Clouds 15 1025 87 10000 8.2 100 13:56 16.10.2019
85 Clouds 15 1025 87 10000 8.2 100 13:56 16.10.2019
86 Clouds 15 1025 87 10000 8.2 100 13:56 16.10.2019
87 Clouds 14 1025 87 10000 8.2 100 13:37 16.10.2019
88 Clouds 15 1025 87 10000 8.2 100 13:18 16.10.2019
89 Clouds 14 1025 93 10000 6.2 110 12:41 16.10.2019
90 Clouds 14 1025 93 10000 6.2 110 12:19 16.10.2019
91 Drizzle 14 1025 82 10000 6.2 110 11:43 16.10.2019
92 Drizzle 14 1025 82 10000 6.2 110 11:18 16.10.2019
93 Drizzle 13 1025 82 10000 7.2 120 10:41 16.10.2019
94 Drizzle 13 1025 82 10000 7.2 120 10:22 16.10.2019
95 Drizzle 13 1025 82 10000 5.1 130 09:58 16.10.2019
96 Drizzle 13 1025 82 10000 5.1 130 09:38 16.10.2019
97 Drizzle 13 1025 82 10000 5.1 130 09:20 16.10.2019
98 Drizzle 13 1026 82 10000 4.1 140 08:43 16.10.2019
99 Drizzle 13 1026 82 10000 4.1 140 08:25 16.10.2019
100 Drizzle 13 1026 82 10000 4.1 100 07:56 16.10.2019
101 Drizzle 13 1026 82 10000 4.1 100 07:56 16.10.2019
102 Drizzle 13 1026 82 10000 4.1 100 07:38 16.10.2019
103 Drizzle 13 1026 82 10000 4.1 100 07:19 16.10.2019
104 Drizzle 13 1026 76 10000 6.7 100 06:40 16.10.2019
105 Drizzle 13 1026 76 10000 6.7 100 06:19 16.10.2019
106 Drizzle 13 1028 76 10000 6.7 110 03:33 16.10.2019
107 Drizzle 13 1028 76 10000 6.7 120 02:50 16.10.2019
108 Rain 13 1027 76 10000 8.2 110 01:20 16.10.2019
109 -273 0 0 0 0 0 00:54 16.10.2019
110 Drizzle 13 1027 81 6000 6.2 90 00:35 16.10.2019
111 Rain 12 1027 81 6000 6.2 90 23:42 15.10.2019
112 Rain 12 1027 81 6000 6.2 90 23:22 15.10.2019
113 Rain 13 1027 76 4000 7.7 90 22:57 15.10.2019
114 Rain 13 1027 82 3000 8.2 120 22:38 15.10.2019
115 Drizzle 13 1027 76 8000 7.7 100 22:20 15.10.2019
116 Drizzle 13 1028 76 10000 6.2 110 21:57 15.10.2019
117 Drizzle 13 1028 76 10000 6.2 110 21:38 15.10.2019
118 Drizzle 13 1028 76 10000 6.2 110 21:20 15.10.2019
119 Clouds 13 1028 76 10000 6.7 110 20:58 15.10.2019
120 Clouds 13 1028 76 10000 6.7 110 20:39 15.10.2019
121 Clouds 13 1028 76 10000 6.7 110 20:21 15.10.2019
122 Clouds 14 1029 76 10000 6.7 110 19:59 15.10.2019
123 Clouds 14 1029 76 10000 6.7 110 19:40 15.10.2019
124 Clouds 14 1029 76 10000 6.7 110 19:20 15.10.2019
125 -273 0 0 0 0 0 18:55 15.10.2019
126 Clouds 13 1029 76 10000 6.2 100 18:36 15.10.2019
127 Clouds 13 1029 76 10000 6.2 100 18:18 15.10.2019
128 Clouds 13 1029 87 10000 5.7 110 17:41 15.10.2019
129 Clouds 13 1029 87 10000 5.7 110 17:41 15.10.2019
130 Clouds 13 1029 87 10000 5.7 110 17:20 15.10.2019
131 Clouds 13 1029 87 10000 5.7 110 17:20 15.10.2019
132 Drizzle 13 1030 71 8000 5.7 110 16:58 15.10.2019
133 Drizzle 13 1030 71 8000 5.7 110 16:39 15.10.2019
134 Clouds 13 1030 71 10000 6.2 120 16:20 15.10.2019
135 Clouds 13 1030 71 10000 5.1 120 15:55 15.10.2019
136 Clouds 13 1030 71 10000 5.1 120 15:55 15.10.2019
137 Clouds 13 1030 71 10000 5.1 120 15:36 15.10.2019
138 Clouds 13 1030 71 10000 5.1 120 15:18 15.10.2019
139 Rain 13 1031 71 10000 5.1 120 14:38 15.10.2019
140 Rain 13 1031 71 10000 5.1 120 14:38 15.10.2019
141 Rain 13 1031 71 10000 5.1 120 14:20 15.10.2019
142 Clouds 13 1030 76 10000 4.1 120 13:58 15.10.2019
143 Clouds 13 1030 76 10000 4.1 120 13:40 15.10.2019
144 Clouds 13 1030 76 10000 4.1 120 13:19 15.10.2019
145 Clouds 12 1030 71 10000 3.1 130 12:44 15.10.2019
146 Clouds 12 1030 71 10000 3.1 130 12:22 15.10.2019
147 Clouds 12 1030 66 10000 4.1 130 11:57 15.10.2019
148 Clouds 12 1030 66 10000 4.1 130 11:38 15.10.2019
149 Clouds 12 1030 66 10000 4.1 130 11:19 15.10.2019
150 Clouds 11 1030 62 10000 5.1 110 10:45 15.10.2019
151 Clouds 11 1030 62 10000 5.1 110 10:22 15.10.2019
152 Clouds 11 1030 62 10000 5.1 110 09:59 15.10.2019
153 Clouds 11 1030 62 10000 5.1 120 09:40 15.10.2019
154 Clouds 11 1030 62 10000 5.1 120 09:20 15.10.2019
155 -273 0 0 0 0 0 08:57 15.10.2019
156 Clouds 11 1030 62 10000 4.6 110 08:57 15.10.2019
157 Clouds 11 1030 62 10000 4.6 110 08:37 15.10.2019
158 Clouds 11 1030 62 10000 4.6 110 08:18 15.10.2019
159 Clouds 11 1030 62 10000 4.6 110 08:18 15.10.2019
160 Clouds 11 1030 62 10000 6.7 120 07:43 15.10.2019
161 Clouds 11 1030 62 10000 6.7 120 07:21 15.10.2019
162 -273 0 0 0 0 0 06:55 15.10.2019
163 Clouds 11 1031 66 10000 6.2 120 06:37 15.10.2019
164 Clouds 11 1031 71 10000 6.2 130 05:56 15.10.2019
165 Clouds 11 1031 71 10000 6.2 130 05:36 15.10.2019
166 Clouds 11 1031 71 10000 7.2 130 04:40 15.10.2019
167 Clouds 11 1031 76 10000 6.7 140 03:59 15.10.2019
168 Clouds 10 1031 76 10000 6.7 140 03:34 15.10.2019
169 Clouds 10 1030 66 10000 6.7 130 01:51 15.10.2019
170 Clouds 10 1030 66 10000 6.7 130 01:26 15.10.2019
171 Clouds 9 1029 66 10000 7.2 140 00:59 15.10.2019
172 Clouds 9 1029 66 10000 7.2 140 00:24 15.10.2019
173 Clouds 9 1029 66 10000 8.2 130 23:57 14.10.2019
174 Clouds 9 1029 66 10000 8.2 130 23:37 14.10.2019
175 Clouds 10 1029 66 10000 8.2 130 23:18 14.10.2019
176 Clouds 10 1029 61 10000 8.2 130 22:39 14.10.2019
177 Clouds 10 1029 61 10000 8.2 130 22:20 14.10.2019
178 Clouds 10 1029 61 10000 7.7 130 21:57 14.10.2019
179 Clouds 10 1029 61 10000 7.7 130 21:39 14.10.2019
180 Clouds 10 1029 61 10000 7.7 130 21:20 14.10.2019
181 Clouds 11 1029 57 10000 8.7 140 20:57 14.10.2019
182 -273 0 0 0 0 0 20:57 14.10.2019
183 Clouds 11 1029 57 10000 8.7 140 20:38 14.10.2019
184 Clouds 11 1029 57 10000 8.7 140 20:38 14.10.2019
185 Clouds 11 1029 57 10000 8.7 140 20:18 14.10.2019
186 Clouds 11 1029 57 10000 9.3 140 19:43 14.10.2019
187 Clouds 11 1029 57 10000 9.3 140 19:25 14.10.2019
188 Clouds 11 1030 57 10000 10.3 140 18:59 14.10.2019
189 Clouds 11 1030 57 10000 10.3 140 18:59 14.10.2019
190 Clouds 11 1030 57 10000 10.3 140 18:40 14.10.2019
191 Clouds 11 1030 57 10000 10.3 140 18:20 14.10.2019
192 Clouds 11 1030 57 10000 8.7 140 17:58 14.10.2019
193 Clouds 11 1030 57 10000 8.7 140 17:40 14.10.2019
194 Clouds 11 1030 57 10000 8.7 140 17:21 14.10.2019
195 Clouds 11 1030 57 10000 8.7 140 17:21 14.10.2019
196 Clouds 11 1030 57 10000 9.3 150 16:44 14.10.2019
197 Clouds 11 1030 57 10000 9.3 150 16:22 14.10.2019
198 Clouds 11 1030 57 10000 8.2 140 15:57 14.10.2019
199 Clouds 11 1030 57 10000 8.2 140 15:38 14.10.2019
200 Clouds 11 1030 57 10000 8.2 140 15:20 14.10.2019
201 Clouds 11 1030 61 10000 7.2 150 14:43 14.10.2019
202 Clouds 11 1030 61 10000 7.2 150 14:24 14.10.2019
203 Clouds 11 1029 66 10000 7.2 150 13:56 14.10.2019
204 Clouds 11 1029 66 10000 7.2 150 13:37 14.10.2019
205 Clouds 11 1029 66 10000 7.2 150 13:18 14.10.2019
206 Clouds 10 1028 57 10000 6.7 150 12:40 14.10.2019
207 Clouds 10 1028 57 10000 6.7 150 12:40 14.10.2019
208 Clouds 11 1028 57 10000 6.7 150 12:19 14.10.2019
209 Clouds 11 1028 57 10000 6.7 150 12:19 14.10.2019
210 Clouds 11 1028 61 10000 6.2 150 11:46 14.10.2019
211 Clouds 11 1028 61 10000 6.2 150 11:27 14.10.2019
212 Clouds 11 1027 57 10000 5.7 160 10:58 14.10.2019
213 Clouds 11 1027 57 10000 5.7 160 10:39 14.10.2019
214 Clouds 11 1027 57 10000 5.7 160 10:20 14.10.2019
215 Clouds 11 1027 53 10000 5.1 170 09:56 14.10.2019
216 Clouds 11 1027 53 10000 5.1 170 09:37 14.10.2019
217 Clouds 11 1027 53 10000 5.1 170 09:18 14.10.2019
218 Clouds 11 1027 57 10000 4.6 160 08:44 14.10.2019
219 Clouds 11 1027 57 10000 4.6 160 08:22 14.10.2019
220 Clouds 11 1026 53 10000 5.7 150 07:42 14.10.2019
221 Clouds 11 1026 53 10000 5.7 150 07:19 14.10.2019
222 Clouds 11 1026 57 10000 7.2 150 06:53 14.10.2019
223 Clouds 11 1026 57 10000 7.2 150 06:26 14.10.2019
224 Clouds 11 1025 57 10000 8.7 150 05:49 14.10.2019
225 Clouds 11 1025 57 10000 8.2 160 04:48 14.10.2019
226 Clouds 11 1025 61 10000 8.2 150 03:28 14.10.2019
227 Clouds 11 1024 62 10000 9.3 160 02:49 14.10.2019
228 Clouds 11 1024 66 10000 8.2 160 01:24 14.10.2019
229 Clouds 12 1022 71 10000 8.7 150 00:58 14.10.2019
230 Clouds 12 1022 71 10000 8.7 150 00:21 14.10.2019
231 Clouds 12 1022 62 10000 9.3 150 23:45 13.10.2019
232 Clouds 13 1022 62 10000 9.3 150 23:21 13.10.2019
233 Clouds 14 1020 67 10000 7.7 160 22:58 13.10.2019
234 Clouds 14 1020 67 10000 7.7 160 22:58 13.10.2019
235 Clouds 14 1020 67 10000 7.7 160 22:40 13.10.2019
236 Clouds 14 1020 67 10000 7.7 160 22:21 13.10.2019
237 Clouds 14 1020 67 10000 7.7 160 22:21 13.10.2019
238 Clouds 14 1019 58 10000 9.3 150 21:58 13.10.2019
239 Clouds 15 1019 58 10000 9.3 150 21:38 13.10.2019
240 Clouds 15 1019 58 10000 9.3 150 21:19 13.10.2019
241 Clouds 15 1018 62 10000 10.3 150 20:58 13.10.2019
242 Clouds 15 1018 62 10000 10.3 150 20:39 13.10.2019
243 Clouds 15 1018 62 10000 10.3 150 20:21 13.10.2019
244 Clouds 15 1018 67 10000 7.7 160 19:59 13.10.2019
245 Clouds 15 1018 67 10000 7.7 160 19:39 13.10.2019
246 Clouds 15 1018 67 10000 7.7 160 19:21 13.10.2019
247 Clouds 15 1016 82 10000 8.7 150 18:57 13.10.2019
248 -273 0 0 0 0 0 18:56 13.10.2019
249 Clouds 15 1016 82 10000 8.7 150 18:56 13.10.2019
250 Clouds 15 1016 82 10000 8.7 150 18:36 13.10.2019
251 Clouds 15 1016 82 10000 8.7 150 18:36 13.10.2019
252 Clouds 16 1016 82 10000 8.7 150 18:18 13.10.2019
253 Clouds 15 1016 87 10000 6.7 170 17:54 13.10.2019
254 Clouds 15 1016 87 10000 6.7 170 17:36 13.10.2019
255 Clouds 15 1016 87 10000 6.7 170 17:18 13.10.2019
256 Mist 15 1016 93 1200 6.7 160 16:41 13.10.2019
257 Mist 15 1016 93 1200 6.7 160 16:18 13.10.2019
258 Clouds 16 1016 93 1200 5.7 170 15:56 13.10.2019
259 Clouds 16 1016 93 1200 5.7 170 15:56 13.10.2019
260 Clouds 16 1016 93 1200 5.7 170 15:56 13.10.2019
261 Clouds 16 1016 93 1200 5.7 170 15:37 13.10.2019
262 Clouds 16 1016 93 1200 5.7 170 15:37 13.10.2019
263 Clouds 16 1016 93 1200 5.7 170 15:18 13.10.2019
264 Clouds 16 1016 93 1200 5.7 170 15:18 13.10.2019
265 Mist 16 1014 100 1200 10.27 154.998 14:56 13.10.2019
266 Mist 16 1014 100 1200 10.27 154.998 14:38 13.10.2019
267 Mist 16 1014 100 1200 10.27 154.998 14:18 13.10.2019
268 Fog 16 1012 100 500 3.1 180 13:41 13.10.2019
269 Fog 16 1012 100 500 3.1 180 13:22 13.10.2019
270 Fog 16 1012 100 500 11.47 150.095 12:59 13.10.2019
271 Fog 16 1012 100 200 11.47 150.095 12:39 13.10.2019
272 Fog 16 1012 100 200 5.74 164.787 12:20 13.10.2019
273 Fog 15 1012 100 500 1.5 280 11:58 13.10.2019
274 Fog 15 1012 100 500 1.5 280 11:39 13.10.2019
275 Fog 15 1012 100 500 1.5 280 11:20 13.10.2019
276 Fog 15 1010 100 700 5.74 164.787 10:56 13.10.2019
277 Fog 15 1010 100 700 5.74 164.787 10:38 13.10.2019
278 Fog 15 1010 100 700 5.74 164.787 10:19 13.10.2019
279 Mist 15 1009 100 5000 5.74 164.787 09:39 13.10.2019
280 Mist 15 1009 100 5000 6.49 148.347 09:21 13.10.2019
281 Mist 15 1009 100 5000 1.5 240 08:43 13.10.2019
282 -273 0 0 0 0 0 08:25 13.10.2019
283 Clouds 16 1009 100 10000 1.5 80 07:51 13.10.2019
284 Clouds 16 1009 100 10000 1.5 80 07:33 13.10.2019
285 Clouds 16 1009 100 10000 1.5 190 06:53 13.10.2019
286 Clouds 17 1009 100 10000 1.5 190 06:24 13.10.2019
287 Clouds 17 1007 93 10000 3.6 190 05:21 13.10.2019
288 Clouds 17 1008 93 10000 3.1 210 04:34 13.10.2019
289 Clouds 17 1008 93 10000 3.1 210 04:34 13.10.2019
290 Thunderstorm 18 1007 88 10000 1.5 320 03:24 13.10.2019
291 Thunderstorm 18 1005 88 10000 7.4 101.696 02:30 13.10.2019
292 Thunderstorm 18 1004 88 10000 3.6 40 01:37 13.10.2019
293 Thunderstorm 18 1004 88 10000 5.1 30 00:56 13.10.2019
294 Thunderstorm 18 1004 88 10000 5.1 30 00:56 13.10.2019
295 Thunderstorm 18 1004 88 3000 2.6 70 00:38 13.10.2019
296 Thunderstorm 18 1004 88 3000 2.6 70 00:19 13.10.2019
297 Rain 18 1004 93 3000 4.6 60 23:42 12.10.2019
298 Rain 18 1004 93 3000 4.6 60 23:23 12.10.2019
299 Rain 18 1004 100 10000 4.1 90 22:59 12.10.2019
300 Rain 18 1004 100 10000 4.1 90 22:40 12.10.2019
301 Rain 18 1007 93 2500 4.1 90 22:22 12.10.2019
302 Thunderstorm 17 1006 93 6000 4.1 80 21:58 12.10.2019
303 Thunderstorm 17 1006 93 6000 4.1 80 21:58 12.10.2019
304 Thunderstorm 17 1006 93 6000 4.1 80 21:39 12.10.2019
305 Thunderstorm 17 1006 93 2000 2.6 150 21:21 12.10.2019
306 Rain 18 1007 88 10000 3.6 160 20:54 12.10.2019
307 Rain 17 1005 100 3500 7.2 60 20:36 12.10.2019
308 Rain 17 1005 100 3500 7.2 60 20:18 12.10.2019
309 Rain 17 1008 100 1500 5.7 360 19:36 12.10.2019
310 Thunderstorm 17 1008 100 1500 5.7 360 19:18 12.10.2019
311 Thunderstorm 17 1010 88 2500 4.6 220 18:42 12.10.2019
312 Thunderstorm 17 1010 88 2500 4.6 220 18:24 12.10.2019
313 Rain 17 1006 100 3500 7.7 60 17:46 12.10.2019
314 Rain 17 1006 100 3500 7.7 60 17:21 12.10.2019
315 Clouds 17 1003 93 10000 16.5 80 16:59 12.10.2019
316 Clouds 17 1003 93 10000 16.5 80 16:40 12.10.2019
317 Thunderstorm 17 1010 100 2000 8.2 90 16:20 12.10.2019
318 Thunderstorm 17 1009 100 6000 7.7 90 15:56 12.10.2019
319 Thunderstorm 17 1009 100 6000 7.7 90 15:37 12.10.2019
320 Thunderstorm 17 1009 100 6000 7.7 90 15:18 12.10.2019
321 Thunderstorm 17 1011 100 1500 6.7 90 14:39 12.10.2019
322 Thunderstorm 17 1011 100 1500 6.7 90 14:20 12.10.2019
323 Thunderstorm 17 1011 100 1500 6.7 90 14:20 12.10.2019
324 Thunderstorm 16 1012 100 6000 4.1 110 13:50 12.10.2019
325 Thunderstorm 16 1010 100 2500 5.7 150 13:32 12.10.2019
326 Thunderstorm 16 1010 100 1500 5.7 150 12:55 12.10.2019
327 Thunderstorm 16 1010 100 1500 5.7 150 12:37 12.10.2019
328 Thunderstorm 16 1010 100 1500 5.7 150 12:19 12.10.2019
329 Thunderstorm 17 1011 93 5000 5.1 120 11:43 12.10.2019
330 Thunderstorm 17 1011 93 5000 5.1 120 11:43 12.10.2019
331 Thunderstorm 16 1010 100 8000 5.1 90 11:23 12.10.2019
332 Thunderstorm 16 1012 100 1500 5.1 180 10:58 12.10.2019
333 Thunderstorm 17 1009 100 4000 4.6 130 10:39 12.10.2019
334 Thunderstorm 17 1009 100 4000 4.6 130 10:20 12.10.2019
335 Thunderstorm 17 1009 100 4000 4.6 130 10:20 12.10.2019
336 Thunderstorm 17 1009 100 1500 6.2 180 09:57 12.10.2019
337 Thunderstorm 17 1009 100 1500 6.2 180 09:57 12.10.2019
338 Thunderstorm 17 1007 100 7000 6.2 80 09:37 12.10.2019
339 Thunderstorm 17 1007 100 7000 6.2 80 09:19 12.10.2019
340 Thunderstorm 17 1007 100 1500 3.6 140 08:44 12.10.2019
341 Thunderstorm 17 1008 100 7000 3.6 140 08:23 12.10.2019
342 Clouds 17 1010 100 10000 2.6 50 07:50 12.10.2019
343 Clouds 17 1010 100 10000 2.6 50 07:30 12.10.2019
344 Thunderstorm 17 1011 100 4000 5.1 100 06:27 12.10.2019
345 Thunderstorm 17 1011 100 5000 5.1 100 05:42 12.10.2019
346 Thunderstorm 18 1012 100 8000 1.5 140 04:34 12.10.2019
347 Thunderstorm 18 1011 100 4000 2.1 150 03:53 12.10.2019
348 Mist 18 1010 100 4000 2.1 110 02:45 12.10.2019
349 Mist 18 1010 100 2500 2.1 150 01:32 12.10.2019
350 Mist 18 1010 100 2500 2.1 150 01:32 12.10.2019
351 Mist 18 1010 100 3000 1.5 140 00:55 12.10.2019
352 Clouds 18 1009 100 3000 1.5 10 00:37 12.10.2019
353 Thunderstorm 19 1009 88 10000 1.5 320 23:55 11.10.2019
354 Thunderstorm 19 1009 88 10000 1.5 320 23:36 11.10.2019
355 Thunderstorm 19 1009 88 10000 1.5 320 23:18 11.10.2019
356 Rain 20 1008 94 10000 1.5 10 22:37 11.10.2019
357 Rain 20 1008 94 10000 1.5 10 22:19 11.10.2019
358 Thunderstorm 19 1008 100 10000 1 0 21:42 11.10.2019
359 Thunderstorm 18 1008 100 10000 1 0 21:21 11.10.2019
360 Thunderstorm 18 1008 100 9000 0.5 70 20:57 11.10.2019
361 Thunderstorm 18 1008 100 5000 1.5 0 20:38 11.10.2019
362 Thunderstorm 18 1008 100 5000 1.5 0 20:38 11.10.2019
363 Thunderstorm 18 1008 100 5000 1.5 0 20:19 11.10.2019
364 Thunderstorm 18 1009 100 5000 1 360 19:55 11.10.2019
365 Rain 18 1009 93 4000 1.5 250 19:36 11.10.2019
366 Rain 18 1009 93 4000 1.5 250 19:18 11.10.2019
367 Rain 18 1009 93 4000 1.5 250 19:18 11.10.2019
368 Rain 18 1009 93 4000 1.5 250 19:18 11.10.2019
369 Rain 18 1009 93 4000 1.5 250 19:18 11.10.2019
370 -273 0 0 0 0 0 18:54 11.10.2019
371 Rain 18 1008 93 10000 6.2 350 18:36 11.10.2019
372 Rain 18 1008 93 10000 6.2 350 18:36 11.10.2019
373 Rain 19 1008 93 10000 6.2 350 18:18 11.10.2019
374 Rain 18 1009 93 6000 4.1 340 17:54 11.10.2019
375 Rain 18 1009 93 6000 4.1 340 17:36 11.10.2019
376 Rain 18 1009 93 6000 4.1 340 17:18 11.10.2019
377 Rain 18 1009 93 6000 4.1 340 17:18 11.10.2019
378 Rain 18 1010 93 5000 2.1 320 16:39 11.10.2019
379 Clouds 18 1009 93 10000 4.1 360 16:19 11.10.2019
380 Rain 17 1008 93 10000 5.1 10 15:58 11.10.2019
381 Rain 17 1008 93 10000 5.1 10 15:38 11.10.2019
382 Rain 17 1008 93 10000 5.1 10 15:18 11.10.2019
383 Rain 17 1008 93 10000 6.2 350 14:44 11.10.2019
384 Rain 17 1008 93 6000 7.7 20 14:25 11.10.2019
385 Rain 20 1009 100 2500 3.6 40 13:47 11.10.2019
386 Rain 20 1010 54 6000 4.6 140 13:27 11.10.2019
387 Rain 20 1010 54 6000 4.6 140 12:59 11.10.2019
388 Rain 20 1010 54 6000 4.6 140 12:41 11.10.2019
389 Rain 17 1010 93 4000 2.6 140 12:22 11.10.2019
390 Rain 17 1011 100 3000 7.7 220 11:59 11.10.2019
391 Rain 17 1011 100 3000 7.7 220 11:39 11.10.2019
392 Rain 17 1011 100 3000 7.7 220 11:21 11.10.2019
393 Thunderstorm 17 1009 93 3000 7.2 180 10:56 11.10.2019
394 Thunderstorm 17 1009 93 3000 7.2 180 10:38 11.10.2019
395 Thunderstorm 18 1009 93 3000 7.2 180 10:19 11.10.2019
396 Thunderstorm 19 1007 68 10000 7.7 200 09:43 11.10.2019
397 Thunderstorm 20 1007 68 10000 7.7 200 09:22 11.10.2019
398 Thunderstorm 20 1004 68 10000 3.1 20 08:59 11.10.2019
399 Thunderstorm 22 1004 68 10000 3.1 20 08:39 11.10.2019
400 Thunderstorm 22 1004 68 10000 3.1 20 08:21 11.10.2019
401 Thunderstorm 22 1005 68 10000 3.6 20 07:58 11.10.2019
402 Thunderstorm 22 1005 68 10000 3.6 20 07:39 11.10.2019
403 Thunderstorm 21 1005 68 10000 3.6 20 07:20 11.10.2019
404 Thunderstorm 22 1005 64 10000 4.6 10 06:43 11.10.2019
405 Thunderstorm 22 1005 64 10000 4.6 10 06:20 11.10.2019
406 Clouds 22 1005 64 10000 3.6 20 05:32 11.10.2019
407 Clouds 22 1006 64 10000 3.6 20 04:59 11.10.2019
408 Clouds 23 1007 64 10000 3.1 30 03:46 11.10.2019
409 Clouds 23 1008 60 10000 3.1 40 01:57 11.10.2019
410 Clouds 24 1008 64 10000 1.5 20 00:42 11.10.2019
411 Clouds 24 1008 64 10000 1.5 20 00:22 11.10.2019
412 Clouds 24 1009 57 10000 1.5 340 23:42 10.10.2019
413 Clouds 25 1009 57 10000 1.5 340 23:20 10.10.2019
414 Drizzle 25 1008 41 10000 3.1 330 22:57 10.10.2019
415 Drizzle 25 1008 41 10000 3.1 330 22:38 10.10.2019
416 Drizzle 26 1008 41 10000 3.1 330 22:19 10.10.2019
417 Clouds 26 1009 39 10000 5.1 350 21:54 10.10.2019
418 Clouds 26 1009 39 10000 5.1 350 21:36 10.10.2019
419 Clouds 27 1009 39 10000 5.1 350 21:18 10.10.2019
420 Rain 27 1010 47 10000 5.7 340 20:41 10.10.2019
421 Rain 28 1010 47 10000 5.7 340 20:21 10.10.2019
422 Clear 28 1010 42 10000 6.7 350 19:58 10.10.2019
423 Clear 28 1010 42 10000 6.7 350 19:39 10.10.2019
424 Clear 28 1010 42 10000 6.7 350 19:20 10.10.2019
425 Clear 28 1010 45 10000 6.2 350 18:56 10.10.2019
426 Clear 28 1010 45 10000 6.2 350 18:38 10.10.2019
427 Clear 27 1010 45 10000 6.2 350 18:19 10.10.2019
428 Clear 25 1011 50 10000 3.6 340 17:41 10.10.2019
429 Clear 25 1011 50 10000 3.6 340 17:41 10.10.2019
430 Clear 24 1011 50 10000 3.6 340 17:20 10.10.2019
431 Clear 24 1012 57 10000 3.1 300 16:58 10.10.2019
432 Clear 25 1012 57 10000 3.1 300 16:40 10.10.2019
433 Clear 24 1012 57 10000 3.1 300 16:21 10.10.2019
434 Clouds 23 1012 64 10000 4.1 310 15:43 10.10.2019
435 Clouds 22 1012 64 10000 4.1 310 15:25 10.10.2019
436 Clear 21 1012 68 10000 0.5 90 14:59 10.10.2019
437 Clear 20 1012 68 10000 0.5 90 14:38 10.10.2019
438 Clear 20 1012 68 10000 0.5 90 14:38 10.10.2019
439 Clear 20 1012 68 10000 0.5 90 14:19 10.10.2019
440 Clear 19 1013 77 10000 2.1 340 13:59 10.10.2019
441 Clear 19 1013 77 10000 2.1 340 13:40 10.10.2019
442 Clear 18 1013 77 10000 2.1 340 13:19 10.10.2019
443 Clear 18 1013 77 10000 2.1 340 13:19 10.10.2019
444 Clear 17 1013 87 10000 1 50 12:56 10.10.2019
445 Clear 17 1013 87 10000 1 50 12:38 10.10.2019
446 Clear 17 1013 87 10000 1 50 12:19 10.10.2019
447 Clear 17 1012 82 10000 6 292.176 11:55 10.10.2019
448 Clear 16 1012 82 10000 6 292.176 11:36 10.10.2019
449 -273 0 0 0 0 0 11:18 10.10.2019
450 Clear 15 1011 77 10000 6 292.176 10:44 10.10.2019
451 Clear 15 1011 77 10000 6 292.176 10:25 10.10.2019
452 Clear 15 1011 77 10000 2.6 330 09:55 10.10.2019
453 Clear 15 1011 77 10000 2.6 330 09:37 10.10.2019
454 Clear 15 1011 77 10000 2.6 330 09:19 10.10.2019
455 Clear 16 1011 93 10000 2.6 300 08:41 10.10.2019
456 Clear 16 1011 93 10000 2.6 300 08:22 10.10.2019
457 Clear 17 1012 72 10000 2.6 330 07:58 10.10.2019
458 Clear 16 1012 72 10000 2.6 330 07:38 10.10.2019
459 Clear 17 1012 72 10000 2.6 330 07:19 10.10.2019
460 Clouds 17 1012 68 10000 3.6 340 06:45 10.10.2019
461 Clouds 19 1012 68 10000 4.6 340 05:57 10.10.2019
462 Clouds 19 1012 68 10000 4.6 340 05:23 10.10.2019
463 Clouds 19 1012 63 10000 3.6 330 04:37 10.10.2019
464 Clouds 20 1012 59 10000 6.48 331.306 02:54 10.10.2019
465 Clouds 20 1011 49 10000 2.1 40 01:42 10.10.2019
466 Clouds 21 1011 49 10000 2.1 40 01:23 10.10.2019
467 Clear 21 1012 56 10000 3.1 350 00:45 10.10.2019
468 Clear 22 1012 56 10000 3.1 350 00:19 10.10.2019
469 Clear 23 1012 46 10000 4.1 340 23:39 09.10.2019
470 Clear 23 1012 46 10000 4.1 340 23:19 09.10.2019
471 Clear 25 1012 38 10000 4.1 330 22:43 09.10.2019
472 Clear 25 1012 38 10000 4.1 330 22:24 09.10.2019
473 Clear 25 1013 38 10000 5.1 340 21:59 09.10.2019
474 Clear 25 1013 38 10000 5.1 340 21:39 09.10.2019
475 Clear 25 1013 38 10000 5.1 340 21:20 09.10.2019
476 Clear 26 1014 34 10000 6.7 340 20:56 09.10.2019
477 Clear 26 1014 34 10000 6.7 340 20:37 09.10.2019
478 Rain 26 1014 34 10000 6.7 340 20:18 09.10.2019
479 Clear 25 1015 31 10000 6.2 340 19:45 09.10.2019
480 Clear 24 1015 31 10000 6.2 340 19:24 09.10.2019
481 Clear 24 1016 36 10000 6.2 310 18:58 09.10.2019
482 Clear 24 1016 36 10000 6.2 310 18:38 09.10.2019
483 Clear 24 1016 36 10000 6.2 310 18:18 09.10.2019
484 Clear 24 1016 38 10000 5.1 300 17:55 09.10.2019
485 Clear 24 1016 38 10000 5.1 300 17:37 09.10.2019
486 Clear 24 1016 38 10000 5.1 300 17:18 09.10.2019
487 Clear 23 1017 43 10000 5.1 340 16:41 09.10.2019
488 Clear 23 1017 43 10000 5.1 340 16:23 09.10.2019
489 Clear 19 1017 55 10000 3.6 360 15:58 09.10.2019
490 Clear 20 1017 55 10000 3.6 360 15:39 09.10.2019
491 Clear 19 1017 55 10000 3.6 360 15:20 09.10.2019
492 Clear 17 1017 59 10000 4.1 20 14:58 09.10.2019
493 Clear 16 1017 59 10000 4.1 20 14:40 09.10.2019
494 Clear 17 1017 59 10000 4.1 20 14:18 09.10.2019
495 Clear 15 1017 62 10000 3.1 60 13:40 09.10.2019
496 Clear 15 1017 62 10000 3.1 60 13:21 09.10.2019
497 Clear 13 1017 76 10000 3.6 90 12:59 09.10.2019
498 Clear 13 1017 76 10000 3.6 90 12:40 09.10.2019
499 Clear 12 1017 76 10000 3.6 90 12:21 09.10.2019
500 Clear 12 1018 71 10000 2.6 70 11:55 09.10.2019
501 Clear 12 1018 71 10000 2.6 70 11:37 09.10.2019
502 Clear 12 1018 71 10000 2.6 70 11:18 09.10.2019
503 Clear 12 1017 66 10000 3.31 2.647 10:43 09.10.2019
504 Clear 12 1017 66 10000 3.31 2.647 10:43 09.10.2019
505 Clear 12 1017 66 10000 3.31 2.647 10:21 09.10.2019
506 Clear 13 1017 62 10000 2.6 90 09:58 09.10.2019
507 Clear 13 1017 62 10000 2.6 90 09:40 09.10.2019
508 Clear 13 1017 62 10000 2.6 90 09:40 09.10.2019
509 Clear 13 1017 62 10000 2.6 90 09:40 09.10.2019
510 Clear 14 1017 62 10000 2.6 90 09:18 09.10.2019
511 Clear 14 1017 67 10000 2.1 120 08:41 09.10.2019
512 Clear 13 1017 67 10000 2.1 120 08:21 09.10.2019
513 Clear 13 1017 67 10000 2.1 120 08:21 09.10.2019
514 Clear 14 1017 67 10000 3.6 110 07:56 09.10.2019
515 Clear 13 1017 67 10000 3.6 110 07:37 09.10.2019
516 Clear 14 1017 67 10000 3.6 110 07:19 09.10.2019
517 Clear 14 1017 67 10000 3.6 110 07:19 09.10.2019
518 Clear 14 1017 76 10000 2.6 120 06:49 09.10.2019
519 Clear 14 1017 76 10000 2.6 110 05:55 09.10.2019
520 Clear 14 1017 76 10000 2.6 110 05:28 09.10.2019
521 Clear 15 1017 67 10000 2.6 160 04:24 09.10.2019
522 Clear 17 1017 41 10000 2.6 350 02:50 09.10.2019
523 Clear 18 1016 31 10000 4.83 277.484 01:43 09.10.2019
524 Clear 19 1016 31 10000 2.8 241.769 01:20 09.10.2019
525 Clear 19 1016 31 10000 2.8 241.769 01:20 09.10.2019
526 Clear 18 1016 34 10000 1 290 00:56 09.10.2019
527 Clear 18 1016 34 10000 1 290 00:38 09.10.2019
528 Clear 20 1016 34 10000 1 290 00:19 09.10.2019
529 Clear 21 1016 26 10000 4.1 290 23:39 08.10.2019
530 Clear 21 1016 26 10000 4.1 290 23:19 08.10.2019
531 Clear 23 1016 58 10000 5.7 280 22:56 08.10.2019
532 Clear 23 1016 58 10000 5.7 280 22:38 08.10.2019
533 Clear 23 1016 58 10000 5.7 280 22:19 08.10.2019
534 Clear 23 1016 58 10000 5.7 270 21:57 08.10.2019
535 Clear 23 1016 58 10000 5.7 270 21:39 08.10.2019
536 Clear 23 1016 63 10000 5.7 270 21:19 08.10.2019
537 Clear 23 1016 63 10000 5.7 270 21:19 08.10.2019
538 Clear 23 1017 23 10000 4.6 260 20:56 08.10.2019
539 Clear 23 1017 23 10000 4.6 260 20:37 08.10.2019
540 Clear 23 1017 23 10000 4.6 260 20:19 08.10.2019
541 Clear 23 1017 21 10000 5.7 270 19:56 08.10.2019
542 Rain 23 1017 21 10000 5.7 270 19:37 08.10.2019
543 Rain 23 1017 21 10000 5.7 270 19:19 08.10.2019
544 Rain 23 1018 23 10000 5.7 270 18:46 08.10.2019
545 Clear 23 1018 23 10000 5.7 270 18:27 08.10.2019
546 Clear 23 1018 25 10000 5.1 260 17:59 08.10.2019
547 Clear 23 1018 25 10000 5.1 260 17:40 08.10.2019
548 Clear 23 1018 25 10000 5.1 260 17:40 08.10.2019
549 Clear 23 1018 25 10000 5.1 260 17:40 08.10.2019
550 Clear 23 1018 25 10000 5.1 260 17:20 08.10.2019
551 Clear 23 1018 25 10000 5.1 260 17:20 08.10.2019
552 Clear 22 1018 35 10000 4.6 270 16:56 08.10.2019
553 Clear 21 1018 35 10000 4.6 270 16:37 08.10.2019
554 Clear 21 1018 35 10000 4.6 270 16:19 08.10.2019
555 Clear 20 1018 52 10000 3.1 300 15:40 08.10.2019
556 Clear 20 1018 52 10000 3.1 300 15:21 08.10.2019
557 Clear 17 1017 77 10000 3.6 320 14:57 08.10.2019
558 Clear 17 1017 77 10000 3.6 320 14:39 08.10.2019
559 Clear 17 1017 77 10000 3.6 320 14:20 08.10.2019
560 Clear 15 1017 76 10000 3.1 350 13:56 08.10.2019
561 Clear 15 1017 76 10000 3.1 350 13:37 08.10.2019
562 Clear 14 1017 76 10000 3.1 350 13:18 08.10.2019
563 Mist 12 1016 93 5000 1 340 12:42 08.10.2019
564 Mist 12 1016 93 5000 1 340 12:21 08.10.2019
565 Clear 13 1016 87 10000 2.87 285 11:59 08.10.2019
566 Clear 11 1016 87 10000 2.87 285 11:40 08.10.2019
567 Clear 12 1016 87 10000 2.87 285 11:21 08.10.2019
568 Clear 11 1015 81 10000 2.87 285 10:55 08.10.2019
569 Clear 11 1015 81 10000 2.87 285 10:36 08.10.2019
570 Clear 11 1015 81 10000 2.87 285 10:18 08.10.2019
571 Clear 12 1015 76 10000 2.1 110 09:41 08.10.2019
572 Clear 13 1015 76 10000 2.1 110 09:22 08.10.2019
573 Clear 13 1016 71 10000 3.6 120 08:55 08.10.2019
574 Clear 13 1016 71 10000 3.6 120 08:36 08.10.2019
575 Clear 13 1016 71 10000 3.6 120 08:18 08.10.2019
576 Clear 14 1016 76 10000 5.1 130 07:41 08.10.2019
577 Clear 14 1016 76 10000 5.1 130 07:19 08.10.2019
578 Clear 14 1015 76 10000 1 300 06:46 08.10.2019
579 Clear 15 1015 76 10000 1 300 06:23 08.10.2019
580 Clear 15 1015 72 10000 3.9 280.806 05:44 08.10.2019
581 Clear 15 1015 72 10000 3.9 280.806 05:44 08.10.2019
582 Clear 15 1015 72 10000 3.9 280.806 05:21 08.10.2019
583 Clear 16 1015 72 10000 1.5 340 03:32 08.10.2019
584 Clear 16 1015 72 10000 1.5 320 02:46 08.10.2019
585 Clear 17 1015 72 10000 1.5 320 02:26 08.10.2019
586 Clear 16 1014 72 10000 2.42 189.835 01:42 08.10.2019
587 Clear 17 1014 72 10000 2.77 179.897 01:19 08.10.2019
588 Clear 17 1014 68 10000 1.5 270 00:38 08.10.2019
589 Clear 18 1014 68 10000 1.5 270 00:19 08.10.2019
590 Clear 19 1013 63 10000 2.6 280 23:39 07.10.2019
591 Clear 19 1013 63 10000 2.6 280 23:19 07.10.2019
592 Clear 20 1013 60 10000 5.1 250 22:55 07.10.2019
593 Clear 20 1013 60 10000 5.1 250 22:55 07.10.2019
594 Clear 20 1013 60 10000 5.1 250 22:37 07.10.2019
595 Clear 20 1013 60 10000 5.1 250 22:19 07.10.2019
596 Clouds 21 1013 56 10000 7.2 270 21:55 07.10.2019
597 Rain 21 1013 56 10000 7.2 270 21:37 07.10.2019
598 Rain 21 1013 56 10000 7.2 270 21:18 07.10.2019
599 Rain 21 1013 53 10000 8.2 270 20:57 07.10.2019
600 Clouds 21 1013 53 10000 8.2 270 20:38 07.10.2019
601 Clouds 21 1013 53 10000 8.2 270 20:38 07.10.2019
602 Clouds 21 1013 53 10000 8.2 270 20:19 07.10.2019
603 Clouds 21 1014 56 10000 7.7 270 19:55 07.10.2019
604 Clouds 21 1014 56 10000 7.7 270 19:54 07.10.2019
605 Clouds 21 1014 56 10000 7.7 270 19:54 07.10.2019
606 Clouds 21 1014 56 10000 7.7 270 19:36 07.10.2019
607 Clouds 22 1014 56 10000 7.7 270 19:18 07.10.2019
608 Clouds 22 1014 46 10000 6.7 300 18:41 07.10.2019
609 Clouds 23 1014 46 10000 6.7 300 18:19 07.10.2019
610 Clear 22 1014 49 10000 7.7 310 17:58 07.10.2019
611 Clear 22 1014 49 10000 7.7 310 17:40 07.10.2019
612 Clear 22 1014 49 10000 7.7 310 17:40 07.10.2019
613 Clear 22 1014 49 10000 7.7 310 17:40 07.10.2019
614 Clear 22 1014 49 10000 7.7 310 17:19 07.10.2019
615 Clear 21 1015 52 10000 7.7 340 16:46 07.10.2019
616 Clear 21 1015 52 10000 7.7 340 16:46 07.10.2019
617 Clear 20 1015 52 10000 7.7 340 16:28 07.10.2019
618 Rain 19 1015 59 10000 6.2 320 15:58 07.10.2019
619 Rain 19 1015 59 10000 6.2 320 15:39 07.10.2019
620 Clear 19 1015 59 10000 6.2 320 15:21 07.10.2019
621 Clear 16 1015 72 10000 6.2 340 14:41 07.10.2019
622 Clear 16 1015 72 10000 6.2 340 14:23 07.10.2019
623 Clear 14 1014 82 10000 8.2 360 13:45 07.10.2019
624 Clear 14 1014 82 10000 8.2 360 13:21 07.10.2019
625 Clear 13 1015 93 10000 7.7 260 12:58 07.10.2019
626 Clear 12 1015 93 10000 7.7 260 12:40 07.10.2019
627 Clear 12 1015 93 10000 7.7 260 12:40 07.10.2019
628 Clear 12 1015 93 10000 7.7 260 12:21 07.10.2019
629 Clear 12 1015 93 10000 7.7 260 12:21 07.10.2019
630 Clear 11 1015 93 10000 5.1 20 11:59 07.10.2019
631 Clear 11 1015 93 10000 5.1 20 11:40 07.10.2019
632 Clear 11 1015 93 10000 5.1 20 11:21 07.10.2019
633 Clear 11 1015 87 10000 6.2 10 10:57 07.10.2019
634 Clear 11 1015 87 10000 6.2 10 10:39 07.10.2019
635 Clear 11 1015 87 10000 6.2 10 10:20 07.10.2019
636 Clear 11 1015 87 10000 5.1 10 09:39 07.10.2019
637 Clear 11 1015 87 10000 5.1 10 09:39 07.10.2019
638 Clear 11 1015 87 10000 5.1 10 09:21 07.10.2019
639 Clear 11 1016 81 10000 4.1 20 08:44 07.10.2019
640 Clear 10 1016 81 10000 4.1 20 08:21 07.10.2019
641 Clear 10 1016 81 10000 2.6 20 07:59 07.10.2019
642 Clear 10 1016 81 10000 2.6 20 07:38 07.10.2019
643 Clear 11 1016 81 10000 2.6 20 07:19 07.10.2019
644 Clear 11 1017 76 10000 3.6 20 06:43 07.10.2019
645 Clear 11 1017 76 10000 3.6 20 06:22 07.10.2019
646 Clear 12 1018 71 10000 2.6 30 05:27 07.10.2019
647 Clear 12 1018 71 10000 3.1 30 04:56 07.10.2019
648 Rain 12 1018 71 10000 3.1 30 04:19 07.10.2019
649 Clear 13 1019 76 10000 3.6 60 03:39 07.10.2019
650 Clear 13 1018 76 10000 3.6 70 02:55 07.10.2019
651 Clear 13 1018 76 10000 3.6 70 02:20 07.10.2019
652 Clear 13 1018 76 10000 3.6 70 02:20 07.10.2019
653 Clear 14 1018 82 10000 4.6 90 01:24 07.10.2019
654 Clear 14 1019 63 10000 2.1 60 00:55 07.10.2019
655 Rain 15 1019 63 10000 2.1 60 00:36 07.10.2019
656 Rain 15 1019 63 10000 2.1 60 00:18 07.10.2019
657 Clear 17 1018 48 10000 3.1 30 23:42 06.10.2019
658 Clear 17 1018 48 10000 3.1 30 23:21 06.10.2019
659 Clear 17 1019 45 10000 4.1 110 22:58 06.10.2019
660 Clear 17 1019 45 10000 4.1 110 22:40 06.10.2019
661 Clear 18 1019 45 10000 4.1 110 22:21 06.10.2019
662 Clear 18 1019 48 10000 2.1 240 21:57 06.10.2019
663 Clear 18 1019 48 10000 2.1 240 21:37 06.10.2019
664 Clear 18 1019 48 10000 2.1 240 21:37 06.10.2019
665 Clear 18 1019 48 10000 2.1 240 21:19 06.10.2019
666 Clear 19 1020 45 10000 3.1 210 20:57 06.10.2019
667 Clear 18 1020 45 10000 3.1 210 20:38 06.10.2019
668 Clear 19 1020 45 10000 3.1 210 20:20 06.10.2019
669 Clear 18 1021 45 10000 2.6 90 19:57 06.10.2019
670 Rain 18 1021 45 10000 2.6 90 19:37 06.10.2019
671 Rain 18 1021 45 10000 2.6 90 19:19 06.10.2019
672 Clear 18 1022 52 10000 2.1 110 18:56 06.10.2019
673 Clear 18 1022 52 10000 2.1 110 18:38 06.10.2019
674 Clear 17 1022 52 10000 2.1 110 18:19 06.10.2019
675 Clear 17 1022 52 10000 2.1 110 18:19 06.10.2019
676 Rain 17 1023 48 10000 3.89 316.958 17:43 06.10.2019
677 Rain 17 1023 48 10000 3.89 316.958 17:43 06.10.2019
678 Rain 17 1023 48 10000 3.89 316.958 17:20 06.10.2019
679 Clear 18 1023 48 10000 0.5 350 16:58 06.10.2019
680 Clear 18 1023 48 10000 0.5 350 16:40 06.10.2019
681 Clear 17 1023 48 10000 0.5 350 16:22 06.10.2019
682 Clear 16 1024 72 10000 3.89 316.958 15:44 06.10.2019
683 Clear 16 1024 72 10000 4.65 346.006 15:22 06.10.2019
684 Clear 13 1024 93 10000 4.65 346.006 14:58 06.10.2019
685 Clear 13 1024 93 10000 4.65 346.006 14:40 06.10.2019
686 Rain 13 1024 93 10000 4.65 346.006 14:22 06.10.2019
687 Rain 10 1024 100 1500 1 10 13:55 06.10.2019
688 Rain 10 1024 100 800 4.65 346.006 13:37 06.10.2019
689 Haze 10 1024 100 800 4.4 341.812 13:18 06.10.2019
690 Fog 10 1024 100 800 4.4 341.812 12:55 06.10.2019
691 Fog 8 1024 100 100 0.5 20 12:37 06.10.2019
692 Fog 8 1024 100 100 0.5 20 12:19 06.10.2019
693 Fog 8 1024 100 100 1 340 11:43 06.10.2019
694 Fog 8 1023 100 100 1 320 11:24 06.10.2019
695 Fog 7 1023 100 200 1 310 10:58 06.10.2019
696 Fog 7 1023 100 200 1 310 10:39 06.10.2019
697 Fog 7 1023 100 200 1 310 10:21 06.10.2019
698 Fog 7 1023 100 200 1 20 09:42 06.10.2019
699 Rain 9 1023 100 200 1 20 09:21 06.10.2019
700 Rain 9 1023 100 100 1 10 08:57 06.10.2019
701 Rain 8 1023 100 100 1 10 08:38 06.10.2019
702 Fog 8 1023 100 100 1 10 08:19 06.10.2019
703 Fog 9 1023 100 200 1 360 07:41 06.10.2019
704 Fog 8 1023 100 600 0.5 360 06:59 06.10.2019
705 Fog 10 1023 100 1000 1 10 05:57 06.10.2019
706 Fog 9 1023 100 1500 1.5 350 04:44 06.10.2019
707 Clear 13 1022 81 10000 0.5 190 02:56 06.10.2019
708 Clear 13 1022 81 10000 0.5 190 02:37 06.10.2019
709 Clear 13 1022 81 10000 1 130 01:50 06.10.2019
710 Clear 13 1022 81 10000 1 130 01:31 06.10.2019
711 Clear 13 1021 76 10000 2.6 110 00:59 06.10.2019
712 Clear 13 1021 76 10000 2.6 110 00:40 06.10.2019
713 Clear 13 1021 76 10000 2.6 110 00:20 06.10.2019
714 Clear 13 1021 76 10000 2.6 180 23:42 05.10.2019
715 Clear 13 1021 76 10000 2.6 180 23:21 05.10.2019
716 Rain 14 1021 71 10000 3.6 180 22:56 05.10.2019
717 Rain 14 1021 71 10000 3.6 180 22:38 05.10.2019
718 Rain 14 1021 71 10000 3.6 180 22:38 05.10.2019
719 Rain 14 1021 71 10000 3.6 180 22:38 05.10.2019
720 Rain 14 1021 71 10000 3.6 180 22:19 05.10.2019
721 Clouds 14 1021 71 10000 2.6 180 21:42 05.10.2019
722 Clouds 15 1021 71 10000 2.6 180 21:24 05.10.2019
723 Clouds 14 1021 82 10000 4.6 200 20:58 05.10.2019
724 Clouds 14 1021 82 10000 4.6 200 20:40 05.10.2019
725 Clouds 15 1021 82 10000 4.6 200 20:20 05.10.2019
726 Clouds 15 1021 82 10000 5.1 190 19:57 05.10.2019
727 Rain 15 1021 82 10000 5.1 190 19:37 05.10.2019
728 Rain 15 1021 82 10000 5.1 190 19:18 05.10.2019
729 Clouds 15 1020 72 10000 3.6 200 18:55 05.10.2019
730 Clouds 15 1020 72 10000 3.6 200 18:55 05.10.2019
731 Clouds 15 1020 72 10000 3.6 200 18:36 05.10.2019
732 Clouds 15 1020 72 10000 3.6 200 18:18 05.10.2019
733 Clouds 15 1021 77 10000 6.2 190 17:42 05.10.2019
734 Clouds 15 1021 77 10000 6.2 190 17:22 05.10.2019
735 Clouds 15 1020 82 10000 5.1 210 16:56 05.10.2019
736 Clouds 15 1020 82 10000 5.1 210 16:37 05.10.2019
737 Clouds 15 1020 82 10000 5.1 210 16:18 05.10.2019
738 Clouds 15 1020 82 10000 5.1 210 16:18 05.10.2019
739 Clouds 14 1020 82 10000 6.2 210 15:55 05.10.2019
740 Clouds 14 1020 82 10000 6.2 210 15:37 05.10.2019
741 Clouds 14 1020 82 10000 6.2 210 15:18 05.10.2019
742 Clouds 14 1019 87 10000 5.1 210 14:42 05.10.2019
743 Clouds 14 1019 87 10000 5.1 210 14:23 05.10.2019
744 Clouds 14 1018 87 10000 4.6 190 13:44 05.10.2019
745 Clouds 14 1018 87 10000 4.6 190 13:26 05.10.2019
746 Clouds 13 1018 66 10000 3.1 120 12:59 05.10.2019
747 Clouds 12 1018 66 10000 3.1 120 12:41 05.10.2019
748 Clouds 12 1018 66 10000 3.1 120 12:19 05.10.2019
749 Clouds 12 1017 100 10000 8.2 200 11:41 05.10.2019
750 Clouds 12 1017 100 10000 8.2 200 11:41 05.10.2019
751 Rain 12 1016 100 10000 10.3 210 11:20 05.10.2019
752 Rain 12 1016 100 2500 8.7 220 10:57 05.10.2019
753 Drizzle 12 1016 100 2500 3.6 230 10:38 05.10.2019
754 Drizzle 13 1016 100 2500 3.6 230 10:19 05.10.2019
755 Drizzle 13 1015 100 8000 4.1 230 09:40 05.10.2019
756 Drizzle 13 1015 100 1500 3.6 240 09:22 05.10.2019
757 Drizzle 13 1015 100 1500 2.1 250 08:42 05.10.2019
758 Drizzle 13 1015 100 1500 2.1 250 08:23 05.10.2019
759 Mist 13 1015 100 2000 1 150 07:59 05.10.2019
760 Mist 13 1015 100 2000 1 150 07:39 05.10.2019
761 Mist 13 1015 100 2000 1 150 07:20 05.10.2019
762 Drizzle 13 1015 100 2000 1 170 06:52 05.10.2019
763 Rain 13 1015 100 2000 1 170 06:21 05.10.2019
764 Drizzle 13 1015 100 1500 2.1 160 04:46 05.10.2019
765 Drizzle 13 1016 100 8000 2.6 180 03:32 05.10.2019
766 Clouds 13 1015 100 10000 1 160 02:26 05.10.2019
767 Rain 13 1014 100 7000 2.6 160 01:25 05.10.2019
768 Rain 13 1014 100 2000 3.6 120 00:47 05.10.2019
769 Rain 13 1014 100 2000 3.6 120 00:47 05.10.2019
770 Rain 13 1014 100 2000 3.6 120 00:27 05.10.2019
771 Rain 14 1015 93 4000 2.6 120 23:56 04.10.2019
772 Rain 14 1015 93 4000 2.6 120 23:37 04.10.2019
773 Rain 14 1015 93 4000 2.6 120 23:18 04.10.2019
774 Rain 13 1015 100 4000 5.1 100 22:41 04.10.2019
775 Rain 13 1015 100 4000 5.1 100 22:23 04.10.2019
776 Rain 13 1016 100 6000 4.6 110 21:58 04.10.2019
777 Rain 13 1016 100 6000 4.6 110 21:40 04.10.2019
778 Rain 13 1016 100 6000 4.6 110 21:22 04.10.2019
779 Rain 14 1016 93 6000 6.2 100 20:58 04.10.2019
780 Rain 14 1016 93 6000 6.2 100 20:39 04.10.2019
781 Rain 14 1016 93 6000 6.2 100 20:21 04.10.2019
782 Rain 14 1018 87 1200 5.7 110 19:55 04.10.2019
783 Rain 14 1017 87 2500 6.2 110 19:37 04.10.2019
784 Rain 14 1017 87 2500 6.2 110 19:18 04.10.2019
785 Clouds 14 1019 87 8000 6.2 100 18:40 04.10.2019
786 Clouds 14 1019 87 8000 6.2 100 18:20 04.10.2019
787 Clouds 14 1019 87 8000 8.2 110 17:58 04.10.2019
788 Clouds 14 1019 87 8000 8.2 110 17:39 04.10.2019
789 Clouds 14 1019 87 8000 8.2 110 17:21 04.10.2019
790 Drizzle 14 1020 93 6000 6.7 110 16:55 04.10.2019
791 Drizzle 14 1020 93 6000 6.7 110 16:37 04.10.2019
792 Drizzle 14 1020 93 6000 6.7 110 16:18 04.10.2019
793 Drizzle 14 1021 100 6000 6.2 130 15:55 04.10.2019
794 Drizzle 14 1021 100 6000 6.2 130 15:55 04.10.2019
795 Drizzle 13 1021 93 3000 6.2 130 15:37 04.10.2019
796 Drizzle 13 1021 93 3000 6.2 130 15:19 04.10.2019
797 Drizzle 14 1021 82 7000 6.2 140 14:54 04.10.2019
798 Clouds 14 1021 82 10000 5.7 130 14:36 04.10.2019
799 Clouds 14 1021 82 10000 5.7 130 14:18 04.10.2019
800 Clouds 13 1021 87 10000 5.1 130 13:42 04.10.2019
801 Clouds 13 1021 87 10000 5.1 130 13:19 04.10.2019
802 Clouds 13 1021 87 10000 4.1 140 12:46 04.10.2019
803 Clouds 13 1021 87 10000 4.1 140 12:46 04.10.2019
804 Clouds 13 1021 87 10000 4.1 140 12:28 04.10.2019
805 Clear 13 1021 87 10000 5.7 110 11:58 04.10.2019
806 Clear 13 1021 87 10000 5.7 110 11:40 04.10.2019
807 Clear 13 1021 87 10000 5.7 110 11:40 04.10.2019
808 Clear 13 1021 87 10000 5.7 110 11:20 04.10.2019
809 Clear 13 1021 87 10000 5.1 110 10:40 04.10.2019
810 Clear 13 1021 87 10000 5.1 110 10:20 04.10.2019
811 Clear 13 1022 87 10000 5.1 120 09:45 04.10.2019
812 Clear 13 1022 87 10000 5.1 120 09:27 04.10.2019
813 Clear 13 1022 82 10000 6.7 110 08:56 04.10.2019
814 Clear 13 1022 82 10000 6.7 110 08:38 04.10.2019
815 Clear 13 1022 82 10000 6.7 110 08:19 04.10.2019
816 Clear 13 1022 82 10000 6.7 130 07:43 04.10.2019
817 Clear 13 1022 82 10000 6.7 130 07:22 04.10.2019
818 Clear 13 1025 82 10000 5.7 130 06:43 04.10.2019
819 Clear 13 1025 82 10000 5.7 130 06:24 04.10.2019
820 Rain 13 1025 82 10000 5.7 130 05:38 04.10.2019
821 Rain 13 1025 82 10000 5.7 130 05:18 04.10.2019
822 Clouds 12 1026 81 10000 6.7 110 03:47 04.10.2019
823 Clouds 13 1025 76 10000 8.7 110 02:53 04.10.2019
824 Clouds 12 1025 76 10000 7.7 110 01:55 04.10.2019
825 Clouds 12 1025 76 10000 7.7 110 01:55 04.10.2019
826 Clouds 12 1025 76 10000 7.7 110 01:30 04.10.2019
827 Clouds 12 1026 81 10000 8.2 120 00:57 04.10.2019
828 Clouds 13 1025 81 10000 7.7 130 23:55 03.10.2019
829 Clouds 13 1025 81 10000 7.7 130 23:37 03.10.2019
830 Clouds 13 1025 81 10000 7.7 130 23:18 03.10.2019
831 Clouds 13 1025 81 10000 7.7 130 23:18 03.10.2019
832 Clouds 13 1025 76 10000 8.7 130 22:55 03.10.2019
833 Clouds 13 1025 76 10000 8.7 130 22:37 03.10.2019
834 Clouds 13 1025 76 10000 8.7 130 22:18 03.10.2019
835 Rain 13 1025 76 10000 7.2 120 21:55 03.10.2019
836 Rain 13 1025 76 10000 7.2 120 21:36 03.10.2019
837 Rain 12 1025 76 10000 7.2 120 21:18 03.10.2019
838 Clouds 13 1026 76 10000 7.7 150 20:41 03.10.2019
839 Clouds 13 1026 76 10000 7.7 150 20:23 03.10.2019
840 Clouds 13 1026 87 10000 7.7 120 19:59 03.10.2019
841 Clouds 13 1026 87 10000 7.7 120 19:41 03.10.2019
842 Clouds 13 1026 87 10000 7.7 120 19:22 03.10.2019
843 Clouds 12 1027 76 10000 6.2 150 18:58 03.10.2019
844 Clouds 12 1027 76 10000 6.2 150 18:39 03.10.2019
845 Clouds 12 1027 76 10000 6.2 150 18:19 03.10.2019
846 -273 0 0 0 0 0 17:56 03.10.2019
847 Clouds 12 1027 76 10000 7.2 110 17:37 03.10.2019
848 Clouds 12 1027 76 10000 7.2 110 17:19 03.10.2019
849 Clouds 12 1027 76 10000 6.2 100 16:43 03.10.2019
850 Clouds 12 1027 76 10000 6.2 100 16:25 03.10.2019
851 Clouds 12 1027 62 10000 6.7 100 15:56 03.10.2019
852 Clouds 13 1027 62 10000 6.7 100 15:38 03.10.2019
853 Clouds 12 1027 62 10000 6.7 100 15:19 03.10.2019
854 Clear 12 1027 53 10000 6.2 110 14:45 03.10.2019
855 Clear 11 1027 53 10000 6.2 110 14:26 03.10.2019
856 Clear 11 1027 66 10000 5.7 140 13:57 03.10.2019
857 Clear 11 1027 66 10000 5.7 140 13:39 03.10.2019
858 Clear 11 1027 66 10000 5.7 140 13:19 03.10.2019
859 Clouds 9 1027 81 10000 3.1 140 12:56 03.10.2019
860 Clouds 9 1027 81 10000 3.1 140 12:37 03.10.2019
861 Clouds 9 1027 81 10000 3.1 140 12:19 03.10.2019
862 Clouds 9 1026 81 10000 4.1 150 11:41 03.10.2019
863 Clouds 9 1026 81 10000 4.1 150 11:41 03.10.2019
864 Clouds 9 1026 81 10000 4.1 150 11:22 03.10.2019
865 Clear 9 1027 80 0 7.15 181 10:58 03.10.2019
866 Clear 9 1027 81 0 7.15 143 10:40 03.10.2019
867 Clear 9 1027 82 0 8.05 157 10:19 03.10.2019
868 Clear 9 1027 84 0 8.05 162 09:58 03.10.2019
869 Clear 9 1026 84 0 8.05 176 09:39 03.10.2019
870 Clouds 9 1026 84 0 8.49 169 09:20 03.10.2019
871 Clouds 9 1026 84 0 8.05 176 08:45 03.10.2019
872 Clear 10 1026 76 10000 4.6 170 08:27 03.10.2019
873 Clear 10 1026 76 10000 4.6 170 08:27 03.10.2019
874 Clear 10 1026 76 10000 4.6 170 07:57 03.10.2019
875 Clear 10 1026 76 10000 4.6 170 07:39 03.10.2019
876 Clear 10 1026 76 10000 4.6 170 07:19 03.10.2019
877 Clear 10 1026 76 10000 4.6 170 07:19 03.10.2019
878 Clear 11 1025 66 10000 6.7 150 06:47 03.10.2019
879 Clear 11 1025 66 10000 6.7 150 06:24 03.10.2019
880 Clear 11 1025 62 10000 5.7 150 05:44 03.10.2019
881 Clear 11 1025 57 10000 6.2 150 04:56 03.10.2019
882 Clear 12 1025 57 10000 6.2 150 04:25 03.10.2019
883 Rain 12 1026 54 10000 6.7 150 03:24 03.10.2019
884 Rain 12 1025 58 10000 7.2 150 02:38 03.10.2019
885 Clouds 12 1024 66 10000 8.2 150 01:51 03.10.2019
886 Clouds 12 1024 66 10000 8.2 150 01:32 03.10.2019
887 Clear 12 1022 71 10000 8.7 150 00:47 03.10.2019
888 Clear 12 1022 71 10000 8.7 150 00:19 03.10.2019
889 Clear 12 1021 81 10000 7.7 140 23:43 02.10.2019
890 Clear 12 1021 81 10000 7.7 140 23:21 02.10.2019
891 Rain 13 1020 76 10000 9.8 140 22:44 02.10.2019
892 Rain 13 1020 76 10000 9.8 140 22:22 02.10.2019
893 Clouds 13 1020 82 10000 9.3 140 21:57 02.10.2019
894 Clouds 13 1020 82 10000 9.3 140 21:57 02.10.2019
895 Clouds 13 1020 82 10000 9.3 140 21:38 02.10.2019
896 Clouds 13 1020 82 10000 9.3 140 21:20 02.10.2019
897 Clouds 13 1020 81 10000 8.2 150 20:57 02.10.2019
898 Clouds 13 1020 81 10000 8.2 150 20:38 02.10.2019
899 Clouds 13 1020 81 10000 8.2 150 20:20 02.10.2019
900 Clouds 13 1019 87 7000 9.8 160 19:55 02.10.2019
901 Clouds 13 1019 87 7000 9.8 160 19:37 02.10.2019
902 Rain 13 1019 87 7000 9.8 160 19:18 02.10.2019
903 Rain 13 1019 100 3000 8.2 160 18:56 02.10.2019
904 Rain 13 1019 100 3000 8.2 160 18:37 02.10.2019
905 Rain 13 1019 100 3000 8.2 160 18:19 02.10.2019
906 Drizzle 13 1018 87 7000 8.7 150 17:42 02.10.2019
907 Drizzle 13 1018 87 7000 8.7 150 17:21 02.10.2019
908 Drizzle 13 1017 87 4000 8.7 140 16:59 02.10.2019
909 Drizzle 13 1017 87 4000 8.7 140 16:39 02.10.2019
910 Drizzle 13 1017 87 2500 8.7 140 16:20 02.10.2019
911 Drizzle 13 1017 87 2500 8.7 140 15:57 02.10.2019
912 Rain 13 1017 87 2500 8.7 140 15:38 02.10.2019
913 Rain 13 1017 87 2500 8.7 140 15:18 02.10.2019
914 Rain 13 1017 87 8000 9.3 150 14:55 02.10.2019
915 Rain 13 1016 87 3000 7.7 150 14:36 02.10.2019
916 Rain 13 1016 87 3000 7.7 150 14:18 02.10.2019
917 Rain 13 1016 87 2500 6.7 150 13:41 02.10.2019
918 Rain 13 1016 87 2500 6.7 150 13:22 02.10.2019
919 Mist 13 1014 100 5000 9.8 170 12:56 02.10.2019
920 Mist 13 1014 100 5000 9.8 170 12:37 02.10.2019
921 Mist 13 1014 100 5000 9.8 170 12:18 02.10.2019
922 Rain 13 1014 100 7000 8.7 160 11:42 02.10.2019
923 Rain 13 1014 100 7000 8.7 160 11:21 02.10.2019
924 Rain 13 1014 93 4000 7.7 170 10:41 02.10.2019
925 Rain 13 1014 93 4000 7.7 170 10:19 02.10.2019
926 Rain 13 1013 93 7000 7.2 170 09:42 02.10.2019
927 Rain 13 1013 93 7000 7.2 170 09:21 02.10.2019
928 Rain 13 1011 100 6000 7.7 150 08:59 02.10.2019
929 Rain 13 1011 100 6000 7.7 150 08:41 02.10.2019
930 Rain 13 1011 100 6000 7.7 150 08:22 02.10.2019
931 Rain 13 1012 93 5000 6.7 150 07:55 02.10.2019
932 Rain 13 1012 93 5000 6.7 150 07:37 02.10.2019
933 Thunderstorm 12 1011 100 7000 8.2 150 07:18 02.10.2019
934 Thunderstorm 12 1011 100 7000 8.2 150 07:18 02.10.2019
935 Thunderstorm 13 1011 100 7000 8.2 150 06:29 02.10.2019
936 Rain 13 1011 100 7000 8.2 160 05:51 02.10.2019
937 Thunderstorm 13 1011 100 7000 8.2 160 05:22 02.10.2019
938 Rain 13 1012 100 6000 6.2 150 04:18 02.10.2019
939 Drizzle 13 1012 100 5000 7.2 140 03:50 02.10.2019
940 Rain 13 1010 100 8000 7.7 160 02:39 02.10.2019
941 Rain 13 1010 100 8000 7.7 160 02:20 02.10.2019
942 Rain 12 1010 100 2500 7.2 150 01:18 02.10.2019
943 Rain 12 1008 100 2000 9.3 140 00:30 02.10.2019
944 Thunderstorm 12 1008 100 5000 7.7 140 23:59 01.10.2019
945 Thunderstorm 13 1009 100 2000 8.7 150 23:41 01.10.2019
946 Rain 13 1009 100 2000 8.7 150 23:22 01.10.2019
947 Rain 13 1006 100 2000 8.2 140 22:58 01.10.2019
948 Rain 13 1006 100 2000 8.2 140 22:38 01.10.2019
949 Rain 13 1006 100 2000 8.2 140 22:18 01.10.2019
950 Rain 13 1006 100 1400 7.7 160 21:44 01.10.2019
951 Rain 13 1006 100 1400 7.7 160 21:24 01.10.2019
952 Rain 13 1008 93 1400 6.2 200 20:59 01.10.2019
953 Rain 13 1008 93 1400 6.2 200 20:39 01.10.2019
954 Thunderstorm 13 1008 93 1400 6.2 200 20:21 01.10.2019
955 Rain 14 1004 93 1200 6.2 140 19:59 01.10.2019
956 Rain 13 1004 93 1200 6.2 140 19:41 01.10.2019
957 Rain 13 1004 93 1200 6.2 140 19:41 01.10.2019
958 Rain 14 1004 93 1200 6.2 140 19:23 01.10.2019
959 Rain 14 1004 100 3500 7.2 140 18:56 01.10.2019
960 Rain 14 1004 100 3500 7.2 140 18:38 01.10.2019
961 Rain 14 1004 100 3500 7.2 140 18:19 01.10.2019
962 Rain 14 1006 93 1500 5.7 150 17:43 01.10.2019
963 Rain 14 1006 93 1500 5.7 150 17:25 01.10.2019
964 Rain 14 1004 93 2000 5.1 150 16:59 01.10.2019
965 -273 0 0 0 0 0 16:41 01.10.2019
966 Rain 14 1004 93 2000 5.1 150 16:22 01.10.2019
967 Thunderstorm 14 1004 93 2000 7.7 100 15:55 01.10.2019
968 Thunderstorm 14 1004 93 2000 7.7 100 15:37 01.10.2019
969 Rain 13 1004 93 2000 7.7 100 15:18 01.10.2019
970 Rain 13 1004 93 2000 7.7 100 15:18 01.10.2019
971 Rain 14 1007 100 2500 7.7 170 14:40 01.10.2019
972 Rain 14 1007 100 2500 7.7 170 14:20 01.10.2019
973 Rain 13 1006 100 3000 7.2 170 13:56 01.10.2019
974 Rain 13 1005 100 1500 7.2 170 13:37 01.10.2019
975 Rain 13 1005 100 1500 7.2 170 13:18 01.10.2019
976 Rain 13 1005 100 1500 7.2 170 13:18 01.10.2019
977 Rain 13 1004 100 3000 3.6 180 12:56 01.10.2019
978 Rain 13 1004 100 3000 3.6 180 12:37 01.10.2019
979 Rain 13 1004 100 4000 5.1 140 12:18 01.10.2019
980 Rain 13 1004 100 4000 5.1 140 11:56 01.10.2019
981 Rain 13 1004 100 4000 5.1 140 11:56 01.10.2019
982 Rain 13 1004 100 4000 5.1 140 11:36 01.10.2019
983 Rain 13 1004 100 4000 5.1 140 11:18 01.10.2019
984 Rain 14 1004 100 3000 4.6 160 10:46 01.10.2019
985 Rain 14 1004 100 3000 4.6 160 10:28 01.10.2019
986 Rain 14 1002 100 1500 6.2 150 09:45 01.10.2019
987 Rain 15 1002 100 1500 6.2 150 09:26 01.10.2019
988 Rain 16 1003 100 3000 5.7 150 08:45 01.10.2019
989 Rain 16 1002 100 5000 7.7 150 08:27 01.10.2019
990 Thunderstorm 16 1001 100 4000 7.7 160 07:56 01.10.2019
991 Thunderstorm 16 1001 100 4000 7.7 160 07:38 01.10.2019
992 Thunderstorm 16 1001 100 4000 7.7 160 07:19 01.10.2019
993 Mist 16 1001 93 5000 5.7 140 06:41 01.10.2019
994 Mist 16 1002 93 5000 5.7 160 06:18 01.10.2019
995 Mist 16 1002 93 5000 5.7 160 05:43 01.10.2019
996 Thunderstorm 16 1002 87 9000 3.6 180 04:42 01.10.2019
997 Thunderstorm 15 1002 87 10000 2.6 180 03:46 01.10.2019
998 Thunderstorm 17 1002 87 9000 3.1 160 02:20 01.10.2019
999 Thunderstorm 16 1002 93 8000 2.6 150 01:56 01.10.2019
1000 Thunderstorm 16 1002 93 8000 2.6 150 01:56 01.10.2019
1001 Clouds 15 1002 93 6000 5.1 120 00:46 01.10.2019
1002 Clouds 15 1002 93 6000 5.1 120 00:25 01.10.2019
1003 Clouds 15 1001 87 8000 6.7 120 23:42 30.09.2019
1004 Rain 16 1001 87 8000 6.7 120 23:23 30.09.2019
1005 Rain 16 1002 87 10000 5.1 110 22:59 30.09.2019
1006 Rain 16 1002 87 10000 5.1 110 22:59 30.09.2019
1007 Thunderstorm 16 1002 82 5000 5.1 140 22:40 30.09.2019
1008 Thunderstorm 16 1002 82 5000 5.1 140 22:22 30.09.2019
1009 Thunderstorm 17 1001 72 8000 6.2 130 21:56 30.09.2019
1010 Thunderstorm 17 1001 72 8000 6.2 130 21:37 30.09.2019
1011 Thunderstorm 17 1001 72 8000 6.2 130 21:19 30.09.2019
1012 Clouds 18 1002 72 8000 6.2 150 20:55 30.09.2019
1013 Clouds 18 1002 72 8000 6.2 150 20:37 30.09.2019
1014 Clouds 17 1002 72 8000 6.2 150 20:19 30.09.2019
1015 Rain 20 1002 42 10000 4.6 180 19:55 30.09.2019
1016 Rain 20 1002 42 10000 4.6 180 19:55 30.09.2019
1017 Rain 20 1002 42 10000 4.6 180 19:37 30.09.2019
1018 Rain 22 1002 42 10000 4.6 180 19:18 30.09.2019
1019 Rain 23 1002 42 10000 7.7 230 18:41 30.09.2019
1020 Thunderstorm 25 1002 42 10000 7.7 230 18:22 30.09.2019
1021 Clear 25 1001 57 10000 7.7 20 17:59 30.09.2019
1022 Clear 27 1001 57 10000 7.7 20 17:39 30.09.2019
1023 -273 0 0 0 0 0 17:39 30.09.2019
1024 Clear 27 1001 57 10000 7.7 20 17:21 30.09.2019
1025 Clear 26 1002 47 10000 7.2 10 16:55 30.09.2019
1026 Clear 26 1002 47 10000 7.2 10 16:37 30.09.2019
1027 Clear 26 1002 47 10000 7.2 10 16:18 30.09.2019
1028 Clear 24 1004 53 10000 10.3 20 15:55 30.09.2019
1029 Clear 24 1004 53 10000 10.3 20 15:55 30.09.2019
1030 Clear 24 1004 53 10000 10.3 20 15:36 30.09.2019
1031 Clear 24 1004 53 10000 10.3 20 15:18 30.09.2019
1032 Clear 22 1003 56 10000 8.7 20 14:55 30.09.2019
1033 Clear 21 1003 56 10000 8.7 20 14:36 30.09.2019
1034 Clear 21 1003 56 10000 8.7 20 14:18 30.09.2019
1035 Clear 18 1003 63 10000 9.3 20 13:44 30.09.2019
1036 Clear 18 1003 63 10000 9.3 20 13:22 30.09.2019
1037 Clear 17 1004 72 10000 7.7 30 12:58 30.09.2019
1038 Clear 17 1004 72 10000 7.7 30 12:40 30.09.2019
1039 Clear 17 1004 72 10000 7.7 30 12:20 30.09.2019
1040 Clear 17 1005 72 10000 6.2 30 11:43 30.09.2019
1041 Clear 17 1005 72 10000 6.2 30 11:22 30.09.2019
1042 Clear 17 1005 72 10000 7.7 30 10:59 30.09.2019
1043 Clear 17 1005 72 10000 7.7 30 10:39 30.09.2019
1044 Clear 17 1005 72 10000 7.7 30 10:19 30.09.2019
1045 Clear 17 1005 77 10000 6.7 30 09:58 30.09.2019
1046 Clear 17 1005 77 10000 6.7 30 09:39 30.09.2019
1047 Clear 17 1005 77 10000 6.7 30 09:39 30.09.2019
1048 Clear 17 1005 77 10000 6.7 30 09:19 30.09.2019
1049 Clear 17 1006 72 10000 5.7 30 08:46 30.09.2019
1050 Clear 17 1006 72 10000 5.7 30 08:28 30.09.2019
1051 Clear 18 1006 72 10000 7.2 30 07:44 30.09.2019
1052 Clear 18 1006 72 10000 7.2 30 07:26 30.09.2019
1053 Clear 18 1007 68 10000 8.2 40 06:50 30.09.2019
1054 Clear 18 1007 68 10000 8.2 40 06:50 30.09.2019
1055 Clear 18 1007 68 10000 8.2 40 06:32 30.09.2019
1056 Clear 19 1007 63 10000 7.7 30 05:47 30.09.2019
1057 Clear 19 1007 63 10000 7.7 30 05:47 30.09.2019
1058 Clear 19 1007 63 10000 7.7 30 05:47 30.09.2019
1059 Clear 20 1008 60 10000 5.1 40 03:45 30.09.2019
1060 Clear 21 1009 56 10000 4.6 40 02:48 30.09.2019
1061 Clear 22 1008 56 10000 3.6 40 01:37 30.09.2019
1062 Clear 23 1009 57 10000 5.7 30 00:42 30.09.2019
1063 Clear 23 1009 57 10000 5.7 30 00:21 30.09.2019
1064 Clear 25 1009 47 10000 5.1 30 23:47 29.09.2019
1065 Clear 25 1009 47 10000 5.1 30 23:23 29.09.2019
1066 Clear 26 1009 44 10000 6.7 30 22:59 29.09.2019
1067 Clear 27 1009 44 10000 6.7 30 22:40 29.09.2019
1068 Clear 27 1009 44 10000 6.7 30 22:22 29.09.2019
1069 Clear 27 1010 42 10000 7.2 20 21:57 29.09.2019
1070 Clear 27 1010 42 10000 7.2 20 21:37 29.09.2019
1071 Clear 27 1010 42 10000 7.2 20 21:19 29.09.2019
1072 Clear 27 1010 42 10000 7.2 30 20:45 29.09.2019
1073 Clear 27 1010 42 10000 7.2 30 20:20 29.09.2019
1074 Clear 26 1011 54 10000 6.2 30 19:59 29.09.2019
1075 Clear 26 1011 54 10000 6.2 30 19:38 29.09.2019
1076 Clear 26 1011 54 10000 6.2 30 19:19 29.09.2019
1077 Clear 24 1013 64 10000 6.2 30 18:56 29.09.2019
1078 Clear 24 1013 64 10000 6.2 30 18:38 29.09.2019
1079 Clear 24 1013 64 10000 6.2 30 18:19 29.09.2019
1080 Clear 23 1014 60 10000 5.1 40 17:58 29.09.2019
1081 Clear 23 1014 60 10000 5.1 40 17:40 29.09.2019
1082 Clear 23 1014 60 10000 5.1 40 17:20 29.09.2019
1083 Clear 21 1015 60 10000 5.7 30 16:59 29.09.2019
1084 Clear 20 1015 60 10000 5.7 30 16:40 29.09.2019
1085 Clear 20 1015 60 10000 5.7 30 16:19 29.09.2019
1086 Clear 19 1015 68 10000 6.7 30 15:57 29.09.2019
1087 Clear 19 1015 68 10000 6.7 30 15:36 29.09.2019
1088 Clear 19 1015 68 10000 6.7 30 15:18 29.09.2019
1089 Clear 17 1015 77 10000 6.7 60 14:55 29.09.2019
1090 Clear 17 1015 77 10000 6.7 60 14:36 29.09.2019
1091 Clear 16 1015 77 10000 6.7 60 14:18 29.09.2019
1092 Clear 16 1015 77 10000 6.7 60 14:18 29.09.2019
1093 Clear 15 1014 93 10000 5.1 30 13:42 29.09.2019
1094 Clear 13 1014 93 10000 5.1 30 13:19 29.09.2019
1095 Clouds 13 1014 93 10000 3.1 60 12:58 29.09.2019
1096 Clouds 12 1014 93 10000 3.1 60 12:40 29.09.2019
1097 Clouds 12 1014 93 10000 3.1 60 12:21 29.09.2019
1098 Clear 12 1015 93 10000 3.1 20 11:59 29.09.2019
1099 Clear 12 1015 93 10000 3.1 20 11:40 29.09.2019
1100 Clear 12 1015 93 10000 3.1 20 11:19 29.09.2019
1101 Clear 12 1014 93 10000 5.7 30 10:57 29.09.2019
1102 Clear 12 1014 93 10000 5.7 30 10:38 29.09.2019
1103 Clear 12 1014 93 10000 5.7 30 10:19 29.09.2019
1104 Clear 12 1014 93 10000 5.7 40 09:56 29.09.2019
1105 Clear 12 1014 93 10000 5.7 40 09:37 29.09.2019
1106 Clear 12 1014 93 10000 5.7 40 09:18 29.09.2019
1107 Clear 12 1015 93 10000 5.1 30 08:42 29.09.2019
1108 Clear 12 1015 93 10000 5.1 30 08:21 29.09.2019
1109 Clear 13 1015 87 10000 5.7 40 07:43 29.09.2019
1110 Clear 13 1015 87 10000 5.7 40 07:25 29.09.2019
1111 Clear 13 1016 82 10000 5.7 50 06:46 29.09.2019
1112 Clear 13 1016 82 10000 5.7 50 05:54 29.09.2019
1113 Clear 14 1016 71 10000 4.1 50 04:41 29.09.2019
1114 Clear 15 1016 71 10000 4.1 50 04:23 29.09.2019
1115 Clear 16 1016 59 10000 4.1 50 02:55 29.09.2019
1116 Clear 17 1016 63 10000 3.1 60 02:19 29.09.2019
1117 Clear 17 1016 63 10000 3.1 60 01:40 29.09.2019
1118 Clear 17 1015 55 10000 3.6 40 00:55 29.09.2019
1119 Clear 17 1015 55 10000 3.6 40 00:36 29.09.2019
1120 Clear 17 1015 55 10000 3.6 40 00:18 29.09.2019
1121 Clear 19 1015 46 10000 3.6 30 23:37 28.09.2019
1122 Clear 19 1015 46 10000 3.6 30 23:19 28.09.2019
1123 Clear 20 1015 43 10000 5.1 60 22:40 28.09.2019
1124 Clear 20 1015 43 10000 5.1 60 22:21 28.09.2019
1125 Clouds 20 1016 46 10000 2.1 60 21:58 28.09.2019
1126 Clouds 19 1016 46 10000 2.1 60 21:40 28.09.2019
1127 Clouds 19 1016 46 10000 2.1 60 21:21 28.09.2019
1128 Clear 20 1016 46 10000 4.1 90 20:57 28.09.2019
1129 Clear 20 1016 46 10000 4.1 90 20:38 28.09.2019
1130 Clear 19 1016 46 10000 4.1 90 20:19 28.09.2019
1131 Clear 19 1016 46 10000 4.1 90 20:19 28.09.2019
1132 Clear 20 1018 46 10000 6.2 50 19:56 28.09.2019
1133 Clear 20 1018 46 10000 6.2 50 19:38 28.09.2019
1134 Clear 19 1018 46 10000 6.2 50 19:20 28.09.2019
1135 Clear 19 1017 43 10000 7.2 40 18:55 28.09.2019
1136 Clear 19 1018 52 10000 7.2 30 18:37 28.09.2019
1137 Clear 19 1018 52 10000 7.2 30 18:18 28.09.2019
1138 Clear 18 1020 63 10000 7.7 30 17:55 28.09.2019
1139 Clear 18 1020 63 10000 7.7 30 17:55 28.09.2019
1140 Clear 19 1020 63 10000 7.7 30 17:37 28.09.2019
1141 Clear 19 1020 63 10000 7.7 30 17:18 28.09.2019
1142 Clear 18 1021 67 10000 7.7 60 16:41 28.09.2019
1143 Clear 17 1021 67 10000 7.7 60 16:23 28.09.2019
1144 Clear 16 1022 67 10000 6.2 90 15:41 28.09.2019
1145 Clear 16 1022 67 10000 6.2 90 15:23 28.09.2019
1146 Clear 15 1022 71 10000 5.7 90 14:56 28.09.2019
1147 Clear 14 1022 71 10000 5.7 90 14:38 28.09.2019
1148 Clear 14 1022 71 10000 5.7 90 14:38 28.09.2019
1149 Clear 14 1022 71 10000 5.7 90 14:20 28.09.2019
1150 Clear 13 1022 76 10000 4.1 90 13:56 28.09.2019
1151 Clear 13 1022 76 10000 4.1 90 13:37 28.09.2019
1152 Clear 13 1022 76 10000 4.1 90 13:37 28.09.2019
1153 Clear 11 1022 76 10000 4.1 90 13:19 28.09.2019
1154 Clear 10 1022 75 10000 4.1 120 12:40 28.09.2019
1155 Clear 10 1022 81 10000 3.1 90 12:19 28.09.2019
1156 Clear 10 1022 81 10000 3.1 90 11:55 28.09.2019
1157 Clear 10 1022 81 10000 3.1 90 11:36 28.09.2019
1158 Clear 10 1022 81 10000 3.1 90 11:18 28.09.2019
1159 Clear 10 1021 87 10000 1.5 100 10:40 28.09.2019
1160 Clear 10 1021 87 10000 1.5 100 10:20 28.09.2019
1161 Clear 10 1021 81 10000 2.6 90 09:54 28.09.2019
1162 Clear 10 1021 81 10000 2.6 90 09:36 28.09.2019
1163 Clear 10 1021 81 10000 2.6 90 09:18 28.09.2019
1164 Clear 10 1021 81 10000 1.5 70 08:42 28.09.2019
1165 Clear 10 1021 81 10000 1.5 70 08:23 28.09.2019
1166 Clear 10 1022 87 10000 2.6 90 07:45 28.09.2019
1167 Clear 11 1022 87 10000 2.6 90 07:21 28.09.2019
1168 Clear 11 1022 76 10000 2.6 80 06:53 28.09.2019
1169 Clear 11 1022 76 10000 2.6 80 06:31 28.09.2019
1170 Clear 12 1022 71 10000 4.6 80 05:47 28.09.2019
1171 Clear 12 1022 71 10000 4.6 80 05:20 28.09.2019
1172 Clear 13 1022 71 10000 4.6 80 04:39 28.09.2019
1173 Clear 14 1023 66 10000 5.7 70 03:56 28.09.2019
1174 Clear 14 1023 66 10000 5.7 70 03:22 28.09.2019
1175 Clear 15 1023 67 10000 3.6 90 02:48 28.09.2019
1176 Clear 15 1023 67 10000 3.6 90 02:29 28.09.2019
1177 Clear 15 1022 67 10000 4.6 90 01:48 28.09.2019
1178 Mist 14 1022 67 10000 4.6 90 01:26 28.09.2019
1179 Mist 14 1022 87 5000 4.6 100 00:52 28.09.2019
1180 Mist 14 1022 87 5000 4.6 100 00:31 28.09.2019
1181 Clear 16 1022 72 10000 5.1 100 23:58 27.09.2019
1182 Clear 16 1022 72 10000 5.1 100 23:37 27.09.2019
1183 Clear 17 1022 72 10000 5.1 100 23:19 27.09.2019
1184 Clear 17 1022 63 10000 6.2 110 22:45 27.09.2019
1185 Clear 17 1022 63 10000 6.2 110 22:45 27.09.2019
1186 Clear 17 1022 63 10000 6.2 110 22:19 27.09.2019
1187 Clear 18 1022 59 10000 5.1 120 21:57 27.09.2019
1188 Clear 18 1022 59 10000 5.1 120 21:37 27.09.2019
1189 Clear 18 1022 59 10000 5.1 120 21:37 27.09.2019
1190 Clear 18 1022 59 10000 5.1 120 21:19 27.09.2019
1191 Clear 18 1022 55 10000 5.1 100 20:56 27.09.2019
1192 Clear 18 1022 55 10000 5.1 100 20:38 27.09.2019
1193 Clear 18 1022 55 10000 5.1 100 20:19 27.09.2019
1194 Clear 18 1023 52 10000 4.6 80 19:44 27.09.2019
1195 Clear 17 1023 52 10000 4.6 80 19:24 27.09.2019
1196 Clear 18 1024 55 10000 5.7 80 18:59 27.09.2019
1197 Clear 18 1024 55 10000 5.7 80 18:40 27.09.2019
1198 Clear 17 1024 55 10000 5.7 80 18:21 27.09.2019
1199 Clear 17 1025 63 10000 5.1 90 17:55 27.09.2019
1200 Clear 17 1025 63 10000 5.1 90 17:37 27.09.2019
1201 Clear 16 1025 63 10000 5.1 90 17:18 27.09.2019
1202 -273 0 0 0 0 0 16:55 27.09.2019
1203 -273 0 0 0 0 0 16:55 27.09.2019
1204 Clear 16 1025 63 10000 5.1 90 16:36 27.09.2019
1205 Clear 15 1025 63 10000 5.1 90 16:18 27.09.2019
1206 Clouds 15 1025 76 10000 6.7 90 15:43 27.09.2019
1207 Clouds 15 1025 76 10000 6.7 90 15:20 27.09.2019
1208 Clouds 14 1025 82 8000 5.1 100 14:56 27.09.2019
1209 Clouds 13 1025 82 8000 5.1 100 14:38 27.09.2019
1210 Clouds 13 1025 82 8000 5.1 100 14:38 27.09.2019
1211 Clouds 13 1025 82 8000 5.1 100 14:20 27.09.2019
1212 Clouds 12 1025 87 8000 3.1 90 13:57 27.09.2019
1213 Clouds 12 1025 87 8000 3.1 90 13:38 27.09.2019
1214 Clouds 12 1025 87 8000 3.1 90 13:19 27.09.2019
1215 Clouds 11 1025 93 8000 3.1 90 12:44 27.09.2019
1216 Clouds 11 1025 93 8000 3.1 90 12:22 27.09.2019
1217 Clouds 11 1024 81 10000 4.6 120 11:55 27.09.2019
1218 Clouds 11 1024 81 10000 4.6 120 11:37 27.09.2019
1219 Clouds 11 1024 81 10000 4.6 120 11:19 27.09.2019
1220 Clouds 11 1024 81 10000 5.1 120 10:41 27.09.2019
1221 Clouds 11 1024 81 10000 5.1 120 10:21 27.09.2019
1222 Clouds 11 1024 81 10000 4.1 120 09:44 27.09.2019
1223 Clouds 12 1024 81 10000 4.1 120 09:23 27.09.2019
1224 Clouds 12 1024 81 10000 3.6 120 08:59 27.09.2019
1225 Clouds 12 1024 81 10000 3.6 120 08:40 27.09.2019
1226 Clouds 12 1024 81 10000 3.6 120 08:20 27.09.2019
1227 Clouds 10 1024 81 10000 4.1 130 07:49 27.09.2019
1228 Clouds 11 1024 81 10000 4.1 130 07:24 27.09.2019
1229 Clouds 12 1025 81 10000 3.6 130 06:46 27.09.2019
1230 Clouds 12 1025 81 10000 3.6 130 06:27 27.09.2019
1231 Clouds 12 1025 76 10000 4.1 130 05:52 27.09.2019
1232 Clouds 12 1025 76 10000 4.1 130 05:33 27.09.2019
1233 Clear 14 1025 76 10000 2.1 140 03:59 27.09.2019
1234 Clear 14 1025 76 10000 2.1 140 03:37 27.09.2019
1235 Clear 15 1024 76 10000 3.1 150 01:53 27.09.2019
1236 Clear 15 1024 76 10000 3.1 150 01:29 27.09.2019
1237 Clear 15 1024 72 10000 2.6 160 00:34 27.09.2019
1238 Clear 16 1024 72 10000 3.1 150 23:57 26.09.2019
1239 Clear 16 1023 67 10000 5.1 160 23:38 26.09.2019
1240 Clear 17 1023 67 10000 5.1 160 23:19 26.09.2019
1241 Clear 18 1022 52 10000 5.1 170 22:58 26.09.2019
1242 Clear 18 1022 52 10000 5.1 170 22:58 26.09.2019
1243 Clear 18 1022 52 10000 5.1 170 22:39 26.09.2019
1244 Clear 18 1022 52 10000 5.1 170 22:18 26.09.2019
1245 Clear 18 1022 52 10000 5.1 170 22:18 26.09.2019
1246 Clear 18 1022 55 10000 6.2 170 21:58 26.09.2019
1247 Clear 18 1022 55 10000 6.2 170 21:37 26.09.2019
1248 Clear 18 1022 55 10000 6.2 170 21:19 26.09.2019
1249 Clear 19 1022 48 10000 8.7 160 20:58 26.09.2019
1250 Clear 19 1022 48 10000 8.7 160 20:39 26.09.2019
1251 Clear 19 1022 48 10000 8.7 160 20:21 26.09.2019
1252 Clear 20 1022 46 10000 6.7 170 19:56 26.09.2019
1253 Clear 20 1022 46 10000 6.7 170 19:38 26.09.2019
1254 Clear 19 1023 49 10000 5.1 170 19:18 26.09.2019
1255 Clear 19 1022 40 10000 6.7 170 18:43 26.09.2019
1256 Clear 19 1022 40 10000 6.7 170 18:22 26.09.2019
1257 Clear 20 1023 52 10000 4.6 170 17:59 26.09.2019
1258 Clear 20 1023 52 10000 4.6 170 17:59 26.09.2019
1259 Clear 20 1022 43 10000 5.7 180 17:38 26.09.2019
1260 Clear 19 1022 43 10000 5.7 180 17:19 26.09.2019
1261 Clear 19 1022 45 10000 3.1 160 16:56 26.09.2019
1262 Clear 19 1022 45 10000 3.1 160 16:37 26.09.2019
1263 Clear 19 1022 45 10000 3.1 160 16:37 26.09.2019
1264 Clear 19 1022 45 10000 3.1 160 16:19 26.09.2019
1265 Clear 19 1021 63 10000 1.5 160 15:42 26.09.2019
1266 Clear 19 1021 63 10000 1.5 160 15:42 26.09.2019
1267 Clear 19 1021 63 10000 1.5 160 15:24 26.09.2019
1268 Clear 18 1021 82 7000 0.5 140 14:59 26.09.2019
1269 Clear 18 1021 82 7000 0.5 140 14:41 26.09.2019
1270 Clear 17 1021 82 7000 0.5 140 14:22 26.09.2019
1271 Mist 15 1022 100 5000 1.5 190 13:58 26.09.2019
1272 Mist 14 1021 100 7000 1.47 266.991 13:39 26.09.2019
1273 Mist 13 1021 100 3000 1.17 299.278 13:19 26.09.2019
1274 Mist 13 1021 100 3000 1.17 299.278 12:55 26.09.2019
1275 Mist 13 1021 100 3000 1.17 299.278 12:55 26.09.2019
1276 Mist 13 1021 100 3000 1.17 299.278 12:55 26.09.2019
1277 Fog 12 1020 100 3000 1.17 299.278 12:36 26.09.2019
1278 Fog 11 1020 100 3000 1.13 172.881 12:18 26.09.2019
1279 Fog 12 1019 100 300 1.5 10 11:41 26.09.2019
1280 Fog 12 1019 100 300 1.5 10 11:20 26.09.2019
1281 Fog 10 1018 100 150 1.5 330 10:43 26.09.2019
1282 Fog 10 1018 100 150 1.5 330 10:25 26.09.2019
1283 Fog 10 1018 100 150 1.5 330 10:25 26.09.2019
1284 Fog 11 1018 100 300 1.13 172.881 09:59 26.09.2019
1285 Fog 11 1018 100 300 1.13 172.881 09:59 26.09.2019
1286 Fog 11 1018 100 300 1.13 172.881 09:41 26.09.2019
1287 Fog 13 1018 100 300 1.73 123.865 09:22 26.09.2019
1288 Fog 13 1018 100 300 1.73 123.865 08:54 26.09.2019
1289 Fog 13 1018 100 300 1.15 101.778 08:32 26.09.2019
1290 Fog 14 1018 100 500 1.15 101.778 07:58 26.09.2019
1291 Fog 12 1019 100 1000 1.15 101.778 07:40 26.09.2019
1292 Fog 12 1019 93 2000 1.15 101.778 07:19 26.09.2019
1293 Clear 13 1019 93 10000 1.5 190 06:43 26.09.2019
1294 Clear 14 1019 93 10000 1.5 190 06:24 26.09.2019
1295 Clear 14 1019 87 10000 2.1 170 05:40 26.09.2019
1296 Clear 14 1019 87 10000 2.1 170 05:20 26.09.2019
1297 Clear 17 1018 59 10000 2.1 210 02:38 26.09.2019
1298 Clear 18 1018 48 10000 3.4 151.95 01:49 26.09.2019
1299 Clear 19 1018 48 10000 3.1 151.136 01:26 26.09.2019
1300 Clear 20 1017 49 10000 3.1 151.136 00:48 26.09.2019
1301 Clear 20 1017 49 10000 3.1 151.136 00:28 26.09.2019
1302 Clear 21 1018 43 10000 2.6 250 23:45 25.09.2019
1303 Clear 23 1018 43 10000 2.6 250 23:26 25.09.2019
1304 Clear 23 1018 43 10000 2.6 250 23:26 25.09.2019
1305 Clear 24 1018 40 10000 4.1 300 22:56 25.09.2019
1306 Clear 24 1018 40 10000 4.1 300 22:56 25.09.2019
1307 Clear 24 1018 40 10000 4.1 300 22:38 25.09.2019
1308 Clear 24 1018 40 10000 4.1 300 22:19 25.09.2019
1309 Clear 25 1018 38 10000 2.1 300 21:56 25.09.2019
1310 Clear 25 1018 38 10000 2.1 300 21:37 25.09.2019
1311 Clear 25 1018 38 10000 2.1 300 21:18 25.09.2019
1312 Clear 25 1018 36 10000 5.1 280 20:56 25.09.2019
1313 Clear 25 1018 36 10000 5.1 280 20:37 25.09.2019
1314 Clear 25 1018 36 10000 5.1 280 20:19 25.09.2019
1315 Clear 25 1018 36 10000 5.1 280 20:19 25.09.2019
1316 Clear 25 1017 33 10000 5.7 280 19:41 25.09.2019
1317 Clear 25 1017 33 10000 5.7 280 19:21 25.09.2019
1318 Clear 24 1018 27 10000 4.6 270 18:57 25.09.2019
1319 Clear 25 1019 60 10000 3.6 270 18:39 25.09.2019
1320 Clear 25 1019 60 10000 3.6 270 18:20 25.09.2019
1321 Clear 25 1019 26 10000 4.6 280 17:58 25.09.2019
1322 Clear 25 1020 61 10000 6.2 270 17:36 25.09.2019
1323 Clear 25 1020 61 10000 6.2 270 17:18 25.09.2019
1324 Clear 23 1020 43 10000 5.1 300 16:44 25.09.2019
1325 -273 0 0 0 0 0 16:26 25.09.2019
1326 Clear 21 1020 49 10000 4.1 320 15:57 25.09.2019
1327 Clear 21 1020 49 10000 4.1 320 15:39 25.09.2019
1328 Clear 21 1020 49 10000 4.1 320 15:20 25.09.2019
1329 Clear 21 1020 49 10000 4.1 320 15:20 25.09.2019
1330 Clear 18 1020 55 10000 4.6 320 14:43 25.09.2019
1331 Clear 18 1020 55 10000 4.6 320 14:25 25.09.2019
1332 Clear 16 1021 71 10000 2.6 40 13:59 25.09.2019
1333 Clear 16 1021 71 10000 2.6 40 13:40 25.09.2019
1334 Clear 15 1021 71 10000 2.6 40 13:20 25.09.2019
1335 Clear 15 1020 71 10000 5.49 303.129 12:58 25.09.2019
1336 Clear 15 1020 71 10000 5.49 303.129 12:38 25.09.2019
1337 Clear 13 1020 71 10000 5.18 312.904 12:20 25.09.2019
1338 Clear 13 1020 71 10000 2.6 350 11:41 25.09.2019
1339 Clear 12 1020 71 10000 2.6 350 11:21 25.09.2019
1340 Clear 13 1020 71 10000 5.18 312.904 10:56 25.09.2019
1341 Clear 13 1020 71 10000 5.18 312.904 10:38 25.09.2019
1342 Clear 13 1020 71 10000 5.18 312.904 10:19 25.09.2019
1343 Clear 13 1020 76 10000 5.18 312.904 09:43 25.09.2019
1344 Clear 13 1020 76 10000 4.05 324.877 09:23 25.09.2019
1345 Clear 14 1020 71 10000 2.64 330.322 08:59 25.09.2019
1346 Clear 14 1020 71 10000 2.64 330.322 08:41 25.09.2019
1347 Clear 14 1020 71 10000 2.64 330.322 08:20 25.09.2019
1348 Clear 14 1020 71 10000 2.64 330.322 08:20 25.09.2019
1349 Clear 14 1021 71 10000 2.64 330.322 07:55 25.09.2019
1350 Clear 14 1021 71 10000 2.64 330.322 07:54 25.09.2019
1351 Clear 14 1021 71 10000 2.64 330.322 07:36 25.09.2019
1352 Clear 14 1021 71 10000 2.64 330.322 07:18 25.09.2019
1353 Clear 13 1021 62 10000 2.64 330.322 06:37 25.09.2019
1354 Clear 15 1021 62 10000 4.08 340.152 05:52 25.09.2019
1355 Clear 15 1021 62 10000 4.08 340.152 05:27 25.09.2019
1356 Clear 15 1021 71 10000 4.08 340.152 04:46 25.09.2019
1357 Clear 16 1021 63 10000 2.44 304.792 01:54 25.09.2019
1358 Clear 18 1021 45 10000 2.38 309.408 00:43 25.09.2019
1359 Clear 18 1021 45 10000 2.78 316.746 00:23 25.09.2019
1360 Clear 19 1021 48 10000 2.78 316.746 23:54 24.09.2019
1361 Clear 19 1021 48 10000 2.78 316.746 23:54 24.09.2019
1362 Clear 19 1020 35 10000 1.5 260 23:36 24.09.2019
1363 Clear 19 1020 35 10000 1.5 260 23:18 24.09.2019
1364 Clear 21 1020 35 10000 2.6 280 22:38 24.09.2019
1365 Clear 21 1020 35 10000 2.6 280 22:20 24.09.2019
1366 Clear 21 1020 37 10000 2.6 250 21:56 24.09.2019
1367 Clear 22 1020 37 10000 2.6 250 21:37 24.09.2019
1368 Clear 22 1020 37 10000 2.6 250 21:19 24.09.2019
1369 Clear 22 1021 37 10000 2.6 280 20:57 24.09.2019
1370 Clear 22 1021 37 10000 2.6 280 20:38 24.09.2019
1371 Clear 22 1021 37 10000 2.6 280 20:20 24.09.2019
1372 Clear 22 1022 35 10000 3.6 240 19:43 24.09.2019
1373 Clear 22 1022 35 10000 3.6 240 19:21 24.09.2019
1374 Clear 22 1022 31 10000 2.6 320 18:59 24.09.2019
1375 Clear 22 1023 35 10000 4.1 250 18:40 24.09.2019
1376 Clear 21 1023 35 10000 4.1 250 18:22 24.09.2019
1377 Clear 21 1023 35 10000 4.1 250 18:22 24.09.2019
1378 Clear 21 1023 33 10000 1.5 0 17:58 24.09.2019
1379 Clear 21 1023 33 10000 1.5 0 17:58 24.09.2019
1380 Clear 21 1023 40 10000 4.1 280 17:38 24.09.2019
1381 Clear 21 1023 40 10000 4.1 280 17:20 24.09.2019
1382 Clear 20 1023 52 10000 3.1 300 16:57 24.09.2019
1383 Clear 19 1023 52 10000 3.1 300 16:39 24.09.2019
1384 Clear 20 1023 52 10000 3.1 300 16:18 24.09.2019
1385 Clear 17 1024 67 10000 3.1 340 15:42 24.09.2019
1386 Clear 17 1024 67 10000 3.1 340 15:23 24.09.2019
1387 Clear 14 1024 82 10000 3.6 360 14:45 24.09.2019
1388 Clear 14 1024 82 10000 3.6 360 14:20 24.09.2019
1389 Clear 14 1024 82 10000 3.6 360 14:20 24.09.2019
1390 Clear 12 1024 93 10000 2.6 360 13:57 24.09.2019
1391 Clear 12 1024 93 10000 2.6 360 13:38 24.09.2019
1392 Clear 11 1024 93 10000 2.6 360 13:20 24.09.2019
1393 Clear 10 1024 93 10000 4.1 10 12:40 24.09.2019
1394 Clear 10 1024 93 10000 4.1 10 12:21 24.09.2019
1395 Clear 9 1024 100 10000 1 10 11:56 24.09.2019
1396 -273 0 0 0 0 0 11:55 24.09.2019
1397 Clear 9 1023 93 10000 6.53 339.292 11:37 24.09.2019
1398 Clear 9 1023 93 10000 6.53 339.292 11:18 24.09.2019
1399 Clear 10 1023 87 10000 3.1 360 10:39 24.09.2019
1400 Clear 10 1023 87 10000 3.1 360 10:21 24.09.2019
1401 Clear 10 1023 87 10000 3.6 10 09:56 24.09.2019
1402 Clear 11 1023 87 10000 3.6 10 09:37 24.09.2019
1403 Clear 11 1023 87 10000 3.6 10 09:18 24.09.2019
1404 Clear 11 1023 93 10000 3.6 10 08:41 24.09.2019
1405 Clear 11 1023 93 10000 3.6 10 08:41 24.09.2019
1406 Clear 11 1023 93 10000 3.6 10 08:23 24.09.2019
1407 Clear 11 1023 87 10000 2.6 10 07:58 24.09.2019
1408 Clear 11 1023 87 10000 2.6 10 07:40 24.09.2019
1409 Clear 11 1023 87 10000 2.6 10 07:22 24.09.2019
1410 Clear 12 1023 81 10000 2.6 20 06:40 24.09.2019
1411 Clear 12 1023 81 10000 2.6 20 06:19 24.09.2019
1412 Clear 13 1024 71 10000 4.1 30 05:23 24.09.2019
1413 Clear 15 1024 50 10000 1.5 30 03:46 24.09.2019
1414 Clear 15 1024 50 10000 1.5 30 03:26 24.09.2019
1415 Clear 17 1023 38 10000 1.5 30 02:45 24.09.2019
1416 Clear 18 1024 34 10000 2.1 30 01:42 24.09.2019
1417 Clear 17 1024 42 10000 3.1 30 00:42 24.09.2019
1418 Clear 17 1024 42 10000 3.1 30 00:23 24.09.2019
1419 Clear 18 1024 34 10000 2.1 40 23:43 23.09.2019
1420 Clear 18 1024 34 10000 2.1 40 23:23 23.09.2019
1421 Clear 19 1024 32 10000 3.1 350 22:56 23.09.2019
1422 Clear 19 1024 32 10000 3.1 350 22:37 23.09.2019
1423 Clear 19 1024 32 10000 3.1 350 22:37 23.09.2019
1424 Clear 20 1024 32 10000 3.1 350 22:18 23.09.2019
1425 Clear 20 1024 28 10000 3.6 360 21:54 23.09.2019
1426 Clear 20 1024 28 10000 3.6 360 21:36 23.09.2019
1427 Clear 20 1024 30 10000 6.2 10 21:18 23.09.2019
1428 Clear 20 1024 30 10000 6.2 10 20:40 23.09.2019
1429 Clear 20 1024 30 10000 6.2 10 20:19 23.09.2019
1430 Clear 20 1024 30 10000 6.2 10 20:19 23.09.2019
1431 Clear 19 1025 29 10000 7.2 10 19:55 23.09.2019
1432 Clear 19 1025 29 10000 7.2 10 19:55 23.09.2019
1433 Clear 19 1025 29 10000 7.2 10 19:36 23.09.2019
1434 Clear 19 1025 24 10000 5.7 20 19:18 23.09.2019
1435 Clear 19 1026 34 10000 7.7 20 18:42 23.09.2019
1436 Clear 19 1026 34 10000 7.7 20 18:42 23.09.2019
1437 Clear 18 1026 34 10000 7.7 20 18:20 23.09.2019
1438 Clear 18 1027 39 10000 4.1 10 17:58 23.09.2019
1439 Clear 17 1027 39 10000 4.1 10 17:39 23.09.2019
1440 Clear 17 1027 39 10000 4.1 10 17:20 23.09.2019
1441 Clear 15 1028 41 10000 8.7 30 16:57 23.09.2019
1442 Clear 15 1028 41 10000 8.7 30 16:37 23.09.2019
1443 Clear 14 1029 43 10000 8.7 20 16:18 23.09.2019
1444 Clear 14 1029 43 10000 8.7 20 15:56 23.09.2019
1445 Clear 13 1029 43 10000 8.7 20 15:38 23.09.2019
1446 Clear 11 1029 53 10000 6.2 20 15:18 23.09.2019
1447 Clear 11 1029 53 10000 6.2 20 14:40 23.09.2019
1448 Clear 10 1029 53 10000 6.2 20 14:21 23.09.2019
1449 Clear 7 1030 75 10000 6.2 20 13:59 23.09.2019
1450 Clear 7 1030 75 10000 6.2 20 13:59 23.09.2019
1451 Clear 6 1030 75 10000 6.2 20 13:39 23.09.2019
1452 Clear 5 1030 70 10000 4.1 20 13:18 23.09.2019
1453 Clear 5 1030 70 10000 4.1 20 12:55 23.09.2019
1454 Clear 5 1029 80 10000 5.7 20 12:36 23.09.2019
1455 Clear 5 1029 65 10000 2.1 20 12:18 23.09.2019
1456 Clear 4 1029 60 10000 3.1 30 11:43 23.09.2019
1457 Clear 4 1029 60 10000 3.1 30 11:25 23.09.2019
1458 Clear 5 1028 52 10000 4.1 40 10:49 23.09.2019
1459 Clear 5 1028 52 10000 4.1 40 10:22 23.09.2019
1460 Clear 4 1029 64 10000 1.5 20 09:59 23.09.2019
1461 Clear 5 1029 64 10000 1.5 20 09:38 23.09.2019
1462 Clear 5 1029 64 10000 1.5 20 09:20 23.09.2019
1463 Clear 5 1029 69 10000 7.53 30.286 08:50 23.09.2019
1464 Clear 5 1029 69 10000 7.57 27.516 08:30 23.09.2019
1465 Clear 6 1029 52 10000 7.57 27.516 07:58 23.09.2019
1466 Clear 6 1029 52 10000 7.57 27.516 07:31 23.09.2019
1467 Clear 6 1030 56 10000 2.1 70 06:42 23.09.2019
1468 Clear 6 1030 56 10000 2.1 70 05:56 23.09.2019
1469 Clear 8 1030 61 10000 2.6 70 05:22 23.09.2019
1470 Clear 9 1030 53 10000 2.6 80 04:54 23.09.2019
1471 Clear 11 1030 62 10000 3.6 110 03:34 23.09.2019
1472 Clear 13 1030 57 10000 5.97 69.42 01:19 23.09.2019
1473 Clear 13 1030 41 10000 3.83 109.579 00:23 23.09.2019
1474 Clear 13 1030 50 10000 2.6 120 23:57 22.09.2019
1475 Clear 14 1030 41 10000 4.1 120 23:33 22.09.2019
1476 Clear 16 1030 38 10000 4.6 90 22:59 22.09.2019
1477 Clear 16 1030 38 10000 4.6 90 22:41 22.09.2019
1478 Clear 16 1030 38 10000 4.6 90 22:22 22.09.2019
1479 Clear 16 1030 41 10000 4.1 120 21:55 22.09.2019
1480 Clear 16 1030 41 10000 4.1 120 21:55 22.09.2019
1481 Clear 16 1030 41 10000 4.1 120 21:36 22.09.2019
1482 Clear 16 1030 41 10000 4.1 120 21:18 22.09.2019
1483 Clear 16 1030 44 10000 5.7 180 20:41 22.09.2019
1484 Clear 16 1030 44 10000 5.7 180 20:23 22.09.2019
1485 Clear 16 1031 48 10000 4.6 210 19:55 22.09.2019
1486 Clear 16 1031 48 10000 4.6 210 19:37 22.09.2019
1487 Clear 16 1031 38 10000 2.6 180 19:18 22.09.2019
1488 Clear 16 1031 51 10000 2.6 150 18:42 22.09.2019
1489 Clear 16 1031 44 10000 2.1 180 18:20 22.09.2019
1490 Clear 16 1031 44 10000 2.1 180 17:59 22.09.2019
1491 Clear 16 1031 38 10000 2.6 200 17:41 22.09.2019
1492 Clear 14 1031 54 10000 3.42 148.772 17:20 22.09.2019
1493 Clear 15 1031 54 10000 3.42 148.772 16:46 22.09.2019
1494 Clear 15 1031 54 10000 3.42 148.772 16:27 22.09.2019
1495 Clear 13 1031 58 10000 4.1 180 15:58 22.09.2019
1496 Clear 13 1031 58 10000 4.1 180 15:40 22.09.2019
1497 Clear 13 1031 58 10000 4.1 180 15:21 22.09.2019
1498 Clear 13 1031 58 10000 4.1 180 15:21 22.09.2019
1499 Clear 13 1030 66 10000 3.1 210 14:45 22.09.2019
1500 Clear 13 1030 66 10000 3.1 210 14:26 22.09.2019
1501 Clouds 10 1029 75 10000 5.4 169.092 13:59 22.09.2019
1502 Clouds 10 1029 75 10000 5.4 169.092 13:41 22.09.2019
1503 Clouds 10 1029 75 10000 5.14 171.684 13:22 22.09.2019
1504 Clouds 8 1029 75 10000 5.14 171.684 12:56 22.09.2019
1505 Clear 6 1028 81 10000 5.14 171.684 12:37 22.09.2019
1506 Clear 6 1027 81 10000 7.34 185.58 12:18 22.09.2019
1507 Clear 6 1027 81 10000 7.34 185.58 11:42 22.09.2019
1508 Clear 6 1027 81 10000 7.34 185.58 11:24 22.09.2019
1509 Clear 10 1025 66 10000 1.5 170 10:55 22.09.2019
1510 Clear 10 1025 66 10000 1.5 170 10:37 22.09.2019
1511 Clear 10 1025 61 10000 2.1 170 10:18 22.09.2019
1512 Clear 10 1025 61 10000 2.1 170 09:41 22.09.2019
1513 Clear 10 1025 61 10000 2.1 170 09:20 22.09.2019
1514 Clear 11 1025 57 10000 2.6 160 08:47 22.09.2019
1515 Clear 11 1025 57 10000 2.6 160 08:26 22.09.2019
1516 Clear 10 1025 53 10000 3.1 170 07:57 22.09.2019
1517 Clear 10 1025 53 10000 3.1 170 07:39 22.09.2019
1518 Clear 10 1025 53 10000 4.1 170 07:19 22.09.2019
1519 Clear 10 1025 53 10000 4.1 170 06:55 22.09.2019
1520 Clear 11 1024 54 10000 5.7 160 05:36 22.09.2019
1521 Clear 12 1022 62 10000 6.2 160 03:49 22.09.2019
1522 Clear 13 1022 54 10000 6.2 170 02:38 22.09.2019
1523 Clear 13 1022 54 10000 6.2 170 02:20 22.09.2019
1524 Haze 17 1020 44 10000 3.1 270 01:23 22.09.2019
1525 Haze 17 1019 42 2000 2.6 300 00:37 22.09.2019
1526 Haze 17 1019 42 2000 2.6 300 00:18 22.09.2019
1527 Haze 18 1019 41 7000 3.6 300 00:18 22.09.2019
1528 Haze 19 1018 40 5000 6.2 300 23:41 21.09.2019
1529 Haze 19 1018 40 5000 6.2 300 23:22 21.09.2019
1530 Haze 20 1018 40 8000 6.2 300 22:39 21.09.2019
1531 Haze 20 1018 40 8000 6.2 300 22:21 21.09.2019
1532 Clear 20 1018 40 10000 7.7 300 21:55 21.09.2019
1533 Clear 20 1018 40 10000 7.7 300 21:37 21.09.2019
1534 Clear 20 1018 40 10000 7.7 300 21:18 21.09.2019
1535 Clear 20 1018 40 10000 7.2 300 20:39 21.09.2019
1536 Clear 20 1018 40 10000 7.2 300 20:39 21.09.2019
1537 Clear 20 1018 40 10000 7.2 300 20:21 21.09.2019
1538 Clear 20 1018 34 10000 6.7 330 19:48 21.09.2019
1539 Clear 20 1018 34 10000 6.7 330 19:25 21.09.2019
1540 Smoke 20 1018 26 7000 8.7 290 18:59 21.09.2019
1541 Smoke 20 1019 32 8000 6.2 330 18:38 21.09.2019
1542 Smoke 20 1019 32 8000 6.2 330 18:20 21.09.2019
1543 Smoke 19 1019 42 9000 8.2 330 17:42 21.09.2019
1544 Smoke 20 1019 42 9000 8.2 330 17:23 21.09.2019
1545 Smoke 19 1020 45 8000 5.1 330 16:44 21.09.2019
1546 Smoke 19 1020 45 8000 5.1 330 16:44 21.09.2019
1547 Smoke 19 1020 45 8000 5.1 330 16:24 21.09.2019
1548 Clear 17 1021 48 10000 7.2 330 15:59 21.09.2019
1549 Clear 17 1021 48 10000 7.2 330 15:40 21.09.2019
1550 Clear 16 1021 48 10000 7.2 330 15:20 21.09.2019
1551 Clear 14 1021 81 10000 5.1 360 14:44 21.09.2019
1552 Clear 13 1021 81 10000 5.1 360 14:26 21.09.2019
1553 Clear 10 1020 70 10000 3.6 360 13:43 21.09.2019
1554 Clear 9 1020 70 10000 3.6 360 13:25 21.09.2019
1555 Clear 9 1020 70 10000 3.6 360 13:25 21.09.2019
1556 Clear 9 1020 57 10000 4.1 330 12:58 21.09.2019
1557 Clear 8 1020 70 10000 2.1 360 12:39 21.09.2019
1558 Clear 8 1020 70 10000 2.1 360 12:39 21.09.2019
1559 Clear 7 1020 70 10000 2.1 360 12:20 21.09.2019
1560 Clear 7 1019 69 10000 2.6 350 11:51 21.09.2019
1561 Clear 8 1019 69 10000 2.6 350 11:26 21.09.2019
1562 Clear 8 1019 69 10000 2.6 340 10:57 21.09.2019
1563 Clear 8 1019 69 10000 2.6 340 10:38 21.09.2019
1564 Clear 9 1019 69 10000 2.6 340 10:20 21.09.2019
1565 Clear 9 1019 69 10000 2.1 330 09:55 21.09.2019
1566 Clear 9 1019 69 10000 2.1 330 09:37 21.09.2019
1567 Clear 9 1019 70 10000 2.1 330 09:18 21.09.2019
1568 Clear 9 1019 68 10000 2.6 330 08:43 21.09.2019
1569 Clear 9 1019 68 10000 3.1 330 07:59 21.09.2019
1570 Clear 10 1019 68 10000 3.1 330 07:40 21.09.2019
1571 Clear 9 1019 68 10000 3.1 330 07:20 21.09.2019
1572 Clear 10 1019 68 10000 3.1 330 06:36 21.09.2019
1573 Clear 11 1019 49 10000 1.5 330 05:51 21.09.2019
1574 Clear 12 1019 45 10000 2.1 330 04:39 21.09.2019
1575 Clear 13 1019 43 10000 2.6 320 03:34 21.09.2019
1576 Clear 14 1019 40 10000 1.5 350 02:25 21.09.2019
1577 Clear 14 1019 40 10000 1.5 360 01:48 21.09.2019
1578 Clear 14 1019 40 10000 1.5 360 01:25 21.09.2019
1579 Clear 15 1018 43 10000 3.1 310 00:25 21.09.2019
1580 Clear 17 1018 33 10000 4.1 300 23:56 20.09.2019
1581 Clear 17 1018 33 10000 4.1 300 23:30 20.09.2019
1582 Clear 17 1018 33 10000 4.1 300 23:30 20.09.2019
1583 Clear 17 1018 25 10000 6.2 280 22:56 20.09.2019
1584 Clear 18 1018 25 10000 6.2 280 22:37 20.09.2019
1585 Clear 18 1018 25 10000 6.2 280 22:19 20.09.2019
1586 Clear 18 1018 25 10000 7.7 280 21:55 20.09.2019
1587 Clear 18 1018 25 10000 7.7 280 21:36 20.09.2019
1588 Clear 18 1018 25 10000 7.7 280 21:18 20.09.2019
1589 Clear 18 1018 27 10000 7.7 270 20:41 20.09.2019
1590 Clear 18 1018 27 10000 7.7 270 20:21 20.09.2019
1591 Clouds 18 1018 25 10000 6.7 280 19:57 20.09.2019
1592 Clouds 18 1018 25 10000 6.7 280 19:38 20.09.2019
1593 Clouds 17 1018 25 10000 6.7 280 19:19 20.09.2019
1594 Clear 17 1019 36 10000 7.2 270 18:39 20.09.2019
1595 Clear 17 1019 36 10000 7.2 270 18:20 20.09.2019
1596 Clear 17 1019 52 10000 6.7 280 17:57 20.09.2019
1597 Clear 16 1019 44 10000 6.7 300 17:39 20.09.2019
1598 Clear 16 1019 44 10000 6.7 300 17:20 20.09.2019
1599 Clear 16 1019 47 10000 6.7 300 16:41 20.09.2019
1600 Clear 16 1019 47 10000 6.7 300 16:41 20.09.2019
1601 Clear 16 1019 47 10000 6.7 300 16:19 20.09.2019
1602 Clear 15 1019 47 10000 4.6 310 15:43 20.09.2019
1603 Clear 13 1019 47 10000 4.6 310 15:23 20.09.2019
1604 Clear 13 1019 71 10000 4.1 320 14:58 20.09.2019
1605 Clear 12 1019 71 10000 4.1 320 14:38 20.09.2019
1606 Clear 12 1019 71 10000 4.1 320 14:18 20.09.2019
1607 Clouds 11 1009 70 0 0.89 356 13:47 20.09.2019
1608 Clear 8 1018 93 9000 6.82 265.608 13:27 20.09.2019
1609 Clear 8 1018 93 9000 6.82 265.608 12:57 20.09.2019
1610 Clear 8 1018 93 9000 6.82 265.608 12:36 20.09.2019
1611 Clear 7 1018 93 10000 1.5 340 12:18 20.09.2019
1612 Clear 7 1018 93 10000 1.5 340 11:48 20.09.2019
1613 Clear 8 1018 93 10000 1.5 340 11:20 20.09.2019
1614 Clear 8 1017 87 10000 6.85 264.898 10:43 20.09.2019
1615 Clear 9 1017 87 10000 6.85 264.898 10:24 20.09.2019
1616 Clear 8 1017 87 10000 6.85 264.898 09:55 20.09.2019
1617 Clear 7 1017 87 10000 6.85 264.898 09:36 20.09.2019
1618 Clear 7 1017 87 10000 6.85 264.898 09:36 20.09.2019
1619 Clear 10 1017 76 10000 5.1 225.151 09:18 20.09.2019
1620 Clear 10 1017 76 10000 5.1 225.151 08:41 20.09.2019
1621 Clear 9 1017 76 10000 5.1 225.151 08:22 20.09.2019
1622 Clear 10 1017 71 10000 1.5 180 07:45 20.09.2019
1623 Clear 10 1017 71 10000 1.5 180 07:26 20.09.2019
1624 Clear 11 1017 71 10000 4.31 222.744 06:44 20.09.2019
1625 Clear 11 1017 71 10000 8.05 198.75 06:21 20.09.2019
1626 Clear 11 1016 66 10000 2.6 150 05:44 20.09.2019
1627 Clear 12 1014 34 10000 4.6 210 03:36 20.09.2019
1628 Clear 13 1014 34 10000 4.6 210 03:18 20.09.2019
1629 Clear 13 1013 37 10000 7.2 200 01:44 20.09.2019
1630 Clear 13 1011 58 10000 6.7 200 00:52 20.09.2019
1631 Clear 13 1011 58 10000 6.7 200 00:21 20.09.2019
1632 Clear 14 1011 50 10000 6.2 200 23:42 19.09.2019
1633 Clear 14 1011 50 10000 6.2 200 23:19 19.09.2019
1634 Clouds 14 1009 54 10000 5.1 180 22:55 19.09.2019
1635 Clouds 15 1009 54 10000 5.1 180 22:37 19.09.2019
1636 Clouds 15 1009 58 10000 7.2 190 22:18 19.09.2019
1637 Clouds 15 1009 58 10000 7.2 190 21:55 19.09.2019
1638 Clouds 15 1009 58 10000 7.2 190 21:36 19.09.2019
1639 Clouds 15 1009 58 10000 7.2 190 21:18 19.09.2019
1640 Clouds 16 1008 51 10000 7.2 190 20:43 19.09.2019
1641 Clouds 16 1008 51 10000 7.2 190 20:22 19.09.2019
1642 Clear 17 1007 63 10000 6.2 220 19:55 19.09.2019
1643 Clear 17 1007 63 10000 6.2 220 19:37 19.09.2019
1644 Clear 17 1007 63 10000 6.2 220 19:19 19.09.2019
1645 Clear 18 1007 49 10000 5.1 210 18:42 19.09.2019
1646 Clear 18 1007 49 10000 5.1 210 18:24 19.09.2019
1647 Clear 19 1007 45 10000 8.7 270 17:54 19.09.2019
1648 Clear 19 1007 45 10000 8.7 270 17:36 19.09.2019
1649 Clear 19 1007 52 10000 8.2 290 17:18 19.09.2019
1650 Clear 20 1007 52 10000 8.2 290 16:43 19.09.2019
1651 Clear 20 1007 52 10000 8.2 290 16:20 19.09.2019
1652 Clouds 18 1007 63 10000 6.7 270 15:56 19.09.2019
1653 Clouds 18 1007 63 10000 6.7 270 15:38 19.09.2019
1654 Clouds 18 1007 63 10000 6.7 270 15:18 19.09.2019
1655 Clear 17 1006 67 10000 5.7 270 14:41 19.09.2019
1656 Clear 16 1006 67 10000 5.7 270 14:22 19.09.2019
1657 Clear 15 1004 76 10000 5.1 330 13:58 19.09.2019
1658 Clear 15 1004 76 10000 5.1 330 13:38 19.09.2019
1659 Clear 15 1004 76 10000 5.1 330 13:38 19.09.2019
1660 Clear 14 1003 76 10000 6.2 360 13:19 19.09.2019
1661 Clear 13 1003 76 10000 6.2 360 12:38 19.09.2019
1662 Clear 13 1003 71 10000 5.7 10 12:18 19.09.2019
1663 Clear 13 1003 71 10000 5.7 10 11:56 19.09.2019
1664 Clear 13 1002 76 10000 5.7 20 11:37 19.09.2019
1665 Clear 12 1003 76 10000 4.6 10 11:18 19.09.2019
1666 Clear 12 1003 76 10000 4.6 10 10:40 19.09.2019
1667 Clear 12 1003 76 10000 4.6 10 10:21 19.09.2019
1668 Clear 12 1003 76 10000 5.1 20 09:58 19.09.2019
1669 Clear 12 1003 76 10000 5.1 20 09:40 19.09.2019
1670 Clear 12 1003 76 10000 5.1 20 09:20 19.09.2019
1671 Clear 12 1003 71 10000 4.6 20 08:51 19.09.2019
1672 Clear 13 1003 71 10000 4.6 20 08:26 19.09.2019
1673 Clear 13 1004 71 10000 4.1 20 07:45 19.09.2019
1674 Clear 13 1004 71 10000 4.1 20 07:24 19.09.2019
1675 Clear 13 1004 71 10000 4.1 20 06:59 19.09.2019
1676 Clear 13 1004 71 10000 3.1 20 06:40 19.09.2019
1677 Clear 13 1004 71 10000 3.1 20 06:21 19.09.2019
1678 Clear 13 1004 71 10000 3.1 20 06:21 19.09.2019
1679 Clear 13 1005 71 10000 2.1 20 05:49 19.09.2019
1680 Clear 13 1005 71 10000 1 30 04:23 19.09.2019
1681 Clear 12 1005 76 10000 6.06 23.333 03:20 19.09.2019
1682 Clear 13 1006 76 10000 6.06 23.333 01:40 19.09.2019
1683 Clear 13 1006 76 10000 5.87 22.986 01:19 19.09.2019
1684 Clear 13 1006 58 10000 1.5 0 00:43 19.09.2019
1685 Clear 14 1006 58 10000 1.5 0 00:19 19.09.2019
1686 Clear 15 1007 55 10000 1.5 350 23:38 18.09.2019
1687 Clear 16 1007 42 10000 3.1 300 23:19 18.09.2019
1688 Clear 16 1007 42 10000 3.1 300 22:41 18.09.2019
1689 Clear 16 1008 45 10000 2.6 300 22:19 18.09.2019
1690 Clear 16 1008 45 10000 2.6 300 21:57 18.09.2019
1691 Clear 16 1008 45 10000 2.6 300 21:39 18.09.2019
1692 Clear 16 1008 45 10000 2.6 300 21:18 18.09.2019
1693 Clear 16 1009 48 10000 2.6 300 20:57 18.09.2019
1694 Clear 16 1009 48 10000 2.6 300 20:39 18.09.2019
1695 Clear 16 1009 58 10000 2.6 180 20:21 18.09.2019
1696 Clear 16 1009 58 10000 2.6 180 19:57 18.09.2019
1697 Clouds 16 1010 51 10000 3.6 270 19:38 18.09.2019
1698 Clouds 15 1011 51 10000 2.1 0 19:19 18.09.2019
1699 Clouds 15 1011 51 10000 2.1 0 19:19 18.09.2019
1700 Clouds 15 1011 51 10000 2.1 0 19:19 18.09.2019
1701 Clouds 15 1011 51 10000 2.1 0 18:55 18.09.2019
1702 Clouds 15 1011 51 10000 2.1 0 18:37 18.09.2019
1703 Clouds 15 1011 51 10000 2.1 0 18:18 18.09.2019
1704 Clouds 14 1011 58 10000 4.1 210 17:56 18.09.2019
1705 Clouds 14 1011 58 10000 4.1 210 17:56 18.09.2019
1706 Clouds 14 1011 58 10000 4.1 210 17:38 18.09.2019
1707 Clouds 14 1011 58 10000 4.1 210 17:18 18.09.2019
1708 Clear 14 1011 62 10000 6.2 200 16:43 18.09.2019
1709 Clear 14 1011 62 10000 6.2 200 16:23 18.09.2019
1710 Clear 14 1012 66 10000 4.1 240 15:59 18.09.2019
1711 Clear 14 1012 66 10000 4.1 240 15:41 18.09.2019
1712 Clear 14 1012 66 10000 4.1 240 15:21 18.09.2019
1713 Clear 14 1012 62 10000 5.1 220 14:59 18.09.2019
1714 -273 0 0 0 0 0 14:40 18.09.2019
1715 Clear 14 1012 62 10000 5.1 220 14:22 18.09.2019
1716 Clear 14 1012 62 10000 5.1 220 14:22 18.09.2019
1717 Clear 13 1011 87 10000 2.1 240 13:59 18.09.2019
1718 Clear 12 1011 87 10000 2.1 240 13:39 18.09.2019
1719 Clear 12 1011 50 10000 2.6 230 13:18 18.09.2019
1720 Clear 10 1011 87 10000 2.1 250 12:47 18.09.2019
1721 Clear 11 1011 87 10000 2.1 250 12:29 18.09.2019
1722 Clear 11 1010 76 10000 1.5 320 11:55 18.09.2019
1723 Clear 10 1010 76 10000 1.5 320 11:37 18.09.2019
1724 Clear 11 1009 70 10000 1.5 240 11:19 18.09.2019
1725 Clear 11 1009 70 10000 1.5 240 10:40 18.09.2019
1726 Clear 11 1009 70 10000 1.5 240 10:21 18.09.2019
1727 Clear 12 1009 76 10000 2.1 230 09:58 18.09.2019
1728 Clear 11 1009 76 10000 2.1 230 09:38 18.09.2019
1729 Clear 12 1009 76 10000 2.1 230 09:20 18.09.2019
1730 Clear 12 1009 76 10000 6.49 182.136 08:42 18.09.2019
1731 Clear 12 1009 76 10000 6.49 182.136 08:24 18.09.2019
1732 Clear 11 1009 70 10000 1 300 07:57 18.09.2019
1733 Clear 11 1009 70 10000 1 300 07:39 18.09.2019
1734 Clear 11 1009 70 10000 2.1 310 07:21 18.09.2019
1735 Clear 12 1009 70 10000 2.1 310 06:38 18.09.2019
1736 Clear 12 1008 62 10000 3.1 330 05:50 18.09.2019
1737 Clear 12 1008 58 10000 2.6 330 04:52 18.09.2019
1738 Clear 14 1007 50 10000 3.6 350 02:54 18.09.2019
1739 Clear 14 1007 50 10000 3.6 350 02:28 18.09.2019
1740 Clear 15 1007 44 10000 4.1 350 01:21 18.09.2019
1741 Clear 16 1007 51 10000 4.1 320 00:48 18.09.2019
1742 Clear 17 1007 38 10000 2.6 360 00:20 18.09.2019
1743 Clear 18 1007 31 10000 4.1 320 23:44 17.09.2019
1744 Clear 19 1007 31 10000 4.1 320 23:22 17.09.2019
1745 Clear 20 1007 28 10000 4.6 320 22:43 17.09.2019
1746 Clear 20 1007 28 10000 4.6 320 22:24 17.09.2019
1747 Clear 21 1008 22 10000 6.2 300 21:55 17.09.2019
1748 Clear 21 1008 22 10000 6.2 300 21:37 17.09.2019
1749 Clear 20 1009 24 10000 5.7 280 21:19 17.09.2019
1750 Clear 20 1009 24 10000 5.7 280 20:58 17.09.2019
1751 Clear 20 1009 24 10000 5.7 280 20:40 17.09.2019
1752 Clear 20 1009 24 10000 5.7 280 20:21 17.09.2019
1753 Clear 19 1010 19 10000 5.7 280 19:58 17.09.2019
1754 Clear 19 1010 19 10000 5.7 280 19:39 17.09.2019
1755 Clear 19 1010 19 10000 5.7 280 19:19 17.09.2019
1756 Clear 19 1010 19 10000 5.7 280 18:56 17.09.2019
1757 Clear 19 1011 64 10000 5.1 300 18:38 17.09.2019
1758 Clear 19 1011 67 10000 5.1 300 18:20 17.09.2019
1759 Clear 19 1011 67 10000 5.1 300 18:20 17.09.2019
1760 Clear 18 1012 33 10000 3.6 300 17:45 17.09.2019
1761 Clear 17 1012 33 10000 3.6 300 17:20 17.09.2019
1762 Clear 17 1013 39 10000 5.1 300 16:57 17.09.2019
1763 Clear 17 1013 39 10000 5.1 300 16:39 17.09.2019
1764 Clear 16 1013 39 10000 5.1 300 16:21 17.09.2019
1765 Clear 16 1013 39 10000 5.1 300 16:21 17.09.2019
1766 Clear 16 1013 39 10000 5.1 300 16:21 17.09.2019
1767 Clear 15 1014 62 10000 4.1 10 15:40 17.09.2019
1768 Clear 14 1014 62 10000 4.1 10 15:20 17.09.2019
1769 Clear 12 1015 76 10000 2.1 360 14:57 17.09.2019
1770 Clear 12 1015 76 10000 2.1 360 14:38 17.09.2019
1771 Clear 12 1015 76 10000 2.1 360 14:19 17.09.2019
1772 Clear 9 1014 81 10000 2.1 340 13:57 17.09.2019
1773 Clear 9 1014 81 10000 2.1 340 13:38 17.09.2019
1774 Clear 8 1014 81 10000 2.1 340 13:20 17.09.2019
1775 Clear 7 1015 86 10000 1.5 30 12:42 17.09.2019
1776 Clear 7 1015 80 10000 6.37 268.382 12:19 17.09.2019
1777 Clear 7 1015 80 10000 6.37 268.382 11:46 17.09.2019
1778 Clear 7 1015 80 10000 6.37 268.382 11:26 17.09.2019
1779 Clear 7 1015 80 10000 6.37 268.382 10:59 17.09.2019
1780 Clear 8 1015 80 10000 6.37 268.382 10:41 17.09.2019
1781 Clear 8 1015 80 10000 6.37 268.382 10:20 17.09.2019
1782 Clear 7 1017 80 10000 6.37 268.382 09:55 17.09.2019
1783 Clear 8 1017 80 10000 6.37 268.382 09:37 17.09.2019
1784 Clear 7 1017 80 10000 5.85 292.744 09:19 17.09.2019
1785 Clear 7 1017 80 10000 5.85 292.744 08:43 17.09.2019
1786 Clear 7 1017 80 10000 5.61 267.566 08:25 17.09.2019
1787 Clear 6 1018 75 10000 5.61 267.566 07:44 17.09.2019
1788 Clear 7 1018 75 10000 5.61 267.566 07:26 17.09.2019
1789 Clear 7 1019 80 10000 5.61 267.566 06:54 17.09.2019
1790 Clear 7 1019 80 10000 5.61 267.566 06:35 17.09.2019
1791 Clear 8 1019 75 10000 4.87 284.244 05:53 17.09.2019
1792 Clear 8 1019 75 10000 0.5 20 04:55 17.09.2019
1793 Clear 9 1019 70 10000 0.5 30 03:42 17.09.2019
1794 Clear 11 1019 61 10000 1.47 331.498 02:39 17.09.2019
1795 Clear 11 1019 62 10000 1.47 331.498 01:50 17.09.2019
1796 Clear 12 1018 50 10000 1.5 100 00:50 17.09.2019
1797 Clear 13 1018 58 10000 3.1 180 23:41 16.09.2019
1798 Clear 13 1018 58 10000 3.1 180 23:20 16.09.2019
1799 Clear 14 1018 44 10000 4.1 170 22:59 16.09.2019
1800 Clear 15 1018 44 10000 4.1 170 22:40 16.09.2019
1801 Clear 15 1018 44 10000 4.1 170 22:22 16.09.2019
1802 Clear 15 1018 47 10000 4.6 170 21:56 16.09.2019
1803 Clear 15 1018 47 10000 4.6 170 21:38 16.09.2019
1804 Clear 15 1018 47 10000 4.6 170 21:19 16.09.2019
1805 Clear 15 1018 48 10000 5.1 180 20:42 16.09.2019
1806 Clear 15 1018 48 10000 5.1 180 20:23 16.09.2019
1807 Clear 15 1019 51 10000 5.1 170 19:58 16.09.2019
1808 Clear 16 1019 51 10000 5.1 170 19:39 16.09.2019
1809 Clear 16 1019 58 10000 3.6 170 19:20 16.09.2019
1810 Clear 15 1019 58 10000 3.6 170 18:56 16.09.2019
1811 Clear 16 1019 55 10000 6.2 170 18:37 16.09.2019
1812 Clear 15 1019 59 10000 4.1 170 18:18 16.09.2019
1813 Clear 15 1019 62 10000 6.7 160 17:42 16.09.2019
1814 Clear 15 1019 62 10000 6.7 160 17:24 16.09.2019
1815 Clear 15 1018 62 10000 6.2 150 16:58 16.09.2019
1816 Clear 14 1018 62 10000 6.2 150 16:38 16.09.2019
1817 Clear 15 1018 62 10000 6.2 150 16:20 16.09.2019
1818 Clear 14 1018 76 10000 5.1 150 15:56 16.09.2019
1819 Clear 14 1018 76 10000 5.1 150 15:37 16.09.2019
1820 Clear 14 1018 76 10000 5.1 150 15:18 16.09.2019
1821 Clear 14 1016 76 10000 7.7 170 14:44 16.09.2019
1822 Clear 14 1016 76 10000 7.7 170 14:23 16.09.2019
1823 Clouds 13 1016 82 10000 6.7 180 13:59 16.09.2019
1824 Clouds 14 1016 82 10000 6.7 180 13:39 16.09.2019
1825 Clouds 14 1016 82 10000 6.7 180 13:39 16.09.2019
1826 Clouds 13 1016 82 10000 6.7 180 13:21 16.09.2019
1827 Clear 13 1015 76 10000 4.1 170 12:45 16.09.2019
1828 Clear 13 1015 76 10000 4.1 170 12:27 16.09.2019
1829 Clear 14 1015 71 10000 3.1 170 11:56 16.09.2019
1830 Clear 14 1015 71 10000 3.1 170 11:56 16.09.2019
1831 Clear 14 1015 71 10000 3.1 170 11:56 16.09.2019
1832 Clear 14 1015 71 10000 3.1 170 11:37 16.09.2019
1833 Clear 14 1013 71 10000 4.6 170 11:19 16.09.2019
1834 Clear 14 1013 71 10000 4.6 170 10:39 16.09.2019
1835 Clear 14 1013 71 10000 4.6 170 10:20 16.09.2019
1836 Clear 14 1014 71 10000 3.6 160 09:58 16.09.2019
1837 Clear 14 1014 71 10000 3.6 160 09:39 16.09.2019
1838 Clear 14 1014 71 10000 3.6 160 09:19 16.09.2019
1839 Clear 13 1013 82 10000 3.6 160 08:46 16.09.2019
1840 Clear 13 1013 82 10000 3.6 160 08:26 16.09.2019
1841 Clouds 13 1014 87 10000 4.1 160 07:56 16.09.2019
1842 Clouds 13 1014 87 10000 4.1 160 07:56 16.09.2019
1843 Clouds 13 1014 87 10000 4.1 160 07:37 16.09.2019
1844 Clouds 14 1014 87 10000 4.1 160 07:19 16.09.2019
1845 Clouds 14 1014 93 7000 5.1 160 06:45 16.09.2019
1846 Clouds 14 1014 93 7000 5.1 160 06:26 16.09.2019
1847 Mist 14 1014 93 5000 5.7 170 05:49 16.09.2019
1848 Mist 14 1014 93 5000 5.7 170 05:29 16.09.2019
1849 Clouds 14 1014 93 8000 3.6 150 04:38 16.09.2019
1850 Fog 14 1011 100 800 2.1 140 02:36 16.09.2019
1851 Mist 14 1009 93 7000 1.5 140 00:44 16.09.2019
1852 Mist 14 1009 93 7000 1.5 140 00:44 16.09.2019
1853 Mist 15 1009 93 7000 1.5 140 00:25 16.09.2019
1854 Mist 15 1009 100 5000 2.1 180 23:44 15.09.2019
1855 Mist 15 1009 100 5000 2.1 180 23:21 15.09.2019
1856 Mist 15 1008 93 5000 3.6 210 22:56 15.09.2019
1857 Mist 15 1008 93 5000 3.6 210 22:36 15.09.2019
1858 Mist 15 1008 93 5000 3.6 210 22:18 15.09.2019
1859 Mist 16 1009 88 8000 3.6 210 21:55 15.09.2019
1860 Mist 16 1009 88 8000 3.6 210 21:55 15.09.2019
1861 Mist 16 1009 88 8000 3.6 210 21:55 15.09.2019
1862 Mist 16 1009 88 8000 3.6 210 21:36 15.09.2019
1863 Mist 16 1009 88 8000 3.6 210 21:36 15.09.2019
1864 Mist 17 1009 88 8000 3.6 210 21:18 15.09.2019
1865 Clouds 17 1009 72 10000 2.6 240 20:42 15.09.2019
1866 Clouds 17 1009 72 10000 2.6 240 20:42 15.09.2019
1867 Clouds 17 1009 72 10000 2.6 240 20:24 15.09.2019
1868 Clouds 18 1009 87 8000 3.6 200 19:47 15.09.2019
1869 Mist 18 1009 64 10000 4.1 240 19:26 15.09.2019
1870 Clouds 19 1010 64 10000 4.6 330 18:55 15.09.2019
1871 Clouds 20 1010 64 10000 4.6 330 18:36 15.09.2019
1872 Clouds 18 1009 64 10000 4.1 310 18:18 15.09.2019
1873 Clouds 19 1010 72 10000 3.1 360 17:41 15.09.2019
1874 Clouds 19 1010 72 10000 3.1 360 17:21 15.09.2019
1875 Clouds 19 1009 77 10000 1.8 305.308 16:55 15.09.2019
1876 Clouds 19 1009 77 10000 1.8 305.308 16:37 15.09.2019
1877 Clouds 19 1009 77 10000 1.8 305.308 16:37 15.09.2019
1878 Clouds 19 1009 77 10000 1.8 305.308 16:18 15.09.2019
1879 Clouds 19 1009 77 10000 1.8 305.308 16:18 15.09.2019
1880 Clouds 18 1010 88 10000 1.8 305.308 15:41 15.09.2019
1881 Clouds 18 1010 88 10000 1.8 305.308 15:41 15.09.2019
1882 Clouds 17 1010 88 10000 3.18 310.494 15:21 15.09.2019
1883 Clouds 16 1010 93 10000 2.6 330 14:59 15.09.2019
1884 Clouds 16 1010 93 10000 2.6 330 14:40 15.09.2019
1885 Clouds 16 1010 93 10000 2.6 330 14:22 15.09.2019
1886 Fog 16 1010 93 500 4.6 30 13:47 15.09.2019
1887 Fog 15 1010 93 500 4.6 30 13:25 15.09.2019
1888 Mist 15 1010 93 1500 3.1 30 12:58 15.09.2019
1889 Mist 15 1010 93 1500 3.1 30 12:40 15.09.2019
1890 Mist 15 1010 93 1500 3.1 30 12:20 15.09.2019
1891 Clouds 15 1010 93 10000 1.5 360 11:43 15.09.2019
1892 Clouds 15 1010 93 10000 1.5 360 11:23 15.09.2019
1893 Clouds 15 1009 93 10000 1.5 20 10:59 15.09.2019
1894 Clouds 15 1009 93 10000 1.5 20 10:40 15.09.2019
1895 Clouds 15 1009 93 10000 1.5 20 10:21 15.09.2019
1896 Clouds 15 1010 93 10000 2.6 20 09:43 15.09.2019
1897 Clouds 15 1010 93 10000 2.6 20 09:21 15.09.2019
1898 Clouds 15 1010 93 10000 4.49 8.251 08:58 15.09.2019
1899 Clouds 15 1010 93 10000 4.45 21.321 08:39 15.09.2019
1900 Clouds 15 1010 93 10000 4.45 21.321 08:19 15.09.2019
1901 Clouds 15 1011 93 10000 4.45 21.321 07:41 15.09.2019
1902 Clouds 16 1012 87 10000 4.45 21.321 06:44 15.09.2019
1903 Clouds 16 1012 82 10000 5.09 22.219 05:58 15.09.2019
1904 Clouds 17 1012 72 10000 3.6 70 03:19 15.09.2019
1905 Clouds 17 1012 72 10000 3.6 70 02:19 15.09.2019
1906 Clouds 17 1013 72 10000 3.6 50 01:36 15.09.2019
1907 Clouds 17 1013 72 10000 3.6 50 01:36 15.09.2019
1908 Clouds 17 1013 72 10000 2.6 60 00:57 15.09.2019
1909 Clouds 17 1013 72 10000 2.6 60 00:57 15.09.2019
1910 Clouds 17 1013 72 10000 2.6 60 00:37 15.09.2019
1911 Clouds 17 1013 72 10000 4.1 60 00:18 15.09.2019
1912 Clouds 18 1013 72 10000 4.1 60 23:56 14.09.2019
1913 Clouds 18 1013 72 10000 4.1 60 23:37 14.09.2019
1914 Clouds 18 1013 72 10000 4.1 60 23:19 14.09.2019
1915 Clouds 18 1013 72 10000 4.1 60 23:19 14.09.2019
1916 -273 0 0 0 0 0 22:55 14.09.2019
1917 Clouds 18 1014 72 10000 5.1 60 22:37 14.09.2019
1918 Clouds 18 1014 72 10000 5.1 60 22:18 14.09.2019
1919 Clouds 18 1014 59 10000 4.1 40 21:40 14.09.2019
1920 Clouds 18 1014 59 10000 4.1 40 21:20 14.09.2019
1921 Clouds 19 1014 55 10000 6.7 60 20:58 14.09.2019
1922 Clouds 19 1014 55 10000 6.7 60 20:39 14.09.2019
1923 Clouds 19 1014 55 10000 6.7 60 20:21 14.09.2019
1924 Clouds 19 1015 52 10000 7.2 90 19:47 14.09.2019
1925 Clouds 18 1015 52 10000 7.2 90 19:23 14.09.2019
1926 Clear 18 1016 52 10000 6.2 60 18:58 14.09.2019
1927 Clear 19 1016 52 10000 6.2 60 18:38 14.09.2019
1928 Clear 18 1016 52 10000 6.2 60 18:20 14.09.2019
1929 Clear 16 1018 55 10000 6.2 60 17:45 14.09.2019
1930 Clear 16 1018 55 10000 6.2 60 17:24 14.09.2019
1931 Clear 15 1018 87 10000 7.7 90 16:56 14.09.2019
1932 Clear 15 1018 87 10000 7.7 90 16:38 14.09.2019
1933 Clear 15 1018 87 10000 7.7 90 16:18 14.09.2019
1934 Clouds 14 1019 93 10000 4.1 80 15:42 14.09.2019
1935 Clouds 13 1019 93 10000 4.1 80 15:22 14.09.2019
1936 Clouds 13 1019 93 10000 4.1 80 15:22 14.09.2019
1937 Clear 12 1020 87 10000 3.1 90 14:55 14.09.2019
1938 Clear 11 1020 87 10000 3.1 90 14:36 14.09.2019
1939 Clear 11 1020 87 10000 3.1 90 14:18 14.09.2019
1940 Clear 11 1020 87 10000 3.1 90 14:18 14.09.2019
1941 Clear 9 1021 93 10000 3.6 90 13:44 14.09.2019
1942 Clear 9 1021 93 10000 3.6 90 13:20 14.09.2019
1943 Fog 8 1021 87 10000 3.1 60 12:45 14.09.2019
1944 Fog 8 1021 87 10000 3.1 60 12:23 14.09.2019
1945 Mist 8 1021 100 3000 6.6 24.997 11:41 14.09.2019
1946 Mist 8 1021 100 3000 6.6 24.997 11:41 14.09.2019
1947 Mist 8 1021 100 3000 6.6 24.997 11:20 14.09.2019
1948 Fog 8 1020 100 300 3.1 40 10:40 14.09.2019
1949 Fog 8 1020 100 300 3.1 40 10:22 14.09.2019
1950 Fog 8 1021 100 4000 6.6 24.997 09:58 14.09.2019
1951 Fog 9 1021 100 4000 6.6 24.997 09:40 14.09.2019
1952 Fog 9 1021 100 4000 6.03 33.371 09:21 14.09.2019
1953 Fog 9 1021 93 6000 1.5 90 08:56 14.09.2019
1954 Fog 9 1021 93 6000 1.5 90 08:38 14.09.2019
1955 Fog 9 1021 93 6000 1.5 90 08:19 14.09.2019
1956 Fog 9 1022 100 7000 1 80 07:43 14.09.2019
1957 Clouds 10 1022 93 8000 2.1 100 07:21 14.09.2019
1958 Clouds 10 1022 93 8000 2.1 100 06:33 14.09.2019
1959 Clouds 10 1022 100 7000 2.6 110 05:53 14.09.2019
1960 Clouds 10 1023 93 10000 3.6 110 04:27 14.09.2019
1961 Clouds 11 1023 93 10000 4.1 110 03:20 14.09.2019
1962 Clouds 11 1023 93 10000 4.6 120 02:42 14.09.2019
1963 Clouds 11 1023 87 10000 4.6 130 01:45 14.09.2019
1964 Clouds 11 1023 93 8000 6.2 120 01:19 14.09.2019
1965 Clouds 11 1023 93 8000 6.2 120 00:40 14.09.2019
1966 Clouds 11 1023 93 8000 6.2 120 00:21 14.09.2019
1967 Clouds 11 1023 87 10000 3.6 130 23:55 13.09.2019
1968 Clear 12 1022 81 10000 6.7 120 23:36 13.09.2019
1969 Clear 11 1022 81 10000 6.7 120 23:18 13.09.2019
1970 Clear 12 1022 87 10000 6.2 120 22:40 13.09.2019
1971 Clear 12 1022 87 10000 6.2 120 22:22 13.09.2019
1972 Clouds 13 1023 76 10000 5.1 120 21:59 13.09.2019
1973 Clouds 13 1023 76 10000 5.1 120 21:39 13.09.2019
1974 Clouds 13 1023 76 10000 5.1 120 21:19 13.09.2019
1975 Clouds 14 1023 72 10000 5.7 140 20:57 13.09.2019
1976 Clouds 14 1023 72 10000 5.7 140 20:57 13.09.2019
1977 Clouds 14 1023 72 10000 5.7 140 20:57 13.09.2019
1978 Clouds 14 1023 72 10000 5.7 140 20:37 13.09.2019
1979 Clouds 14 1023 72 10000 5.7 140 20:19 13.09.2019
1980 Clouds 13 1024 71 10000 5.1 140 19:44 13.09.2019
1981 Clouds 14 1024 71 10000 5.1 140 19:23 13.09.2019
1982 Clouds 14 1024 71 10000 5.1 140 18:59 13.09.2019
1983 Clouds 15 1025 67 10000 2.1 190 18:38 13.09.2019
1984 Clouds 13 1025 72 10000 2.6 140 18:19 13.09.2019
1985 Clouds 13 1025 72 10000 2.6 140 18:19 13.09.2019
1986 Clouds 14 1026 72 10000 3.6 150 17:44 13.09.2019
1987 Clouds 14 1026 72 10000 3.6 150 17:22 13.09.2019
1988 Clouds 13 1025 67 10000 1.5 0 16:59 13.09.2019
1989 Clouds 14 1025 67 10000 1.5 0 16:40 13.09.2019
1990 Clouds 13 1025 71 10000 1.5 0 16:19 13.09.2019
1991 Clouds 13 1025 71 10000 1.5 0 15:43 13.09.2019
1992 Clouds 13 1025 71 10000 1.5 0 15:24 13.09.2019
1993 Clouds 11 1025 71 10000 2.1 330 14:56 13.09.2019
1994 Clouds 11 1025 71 10000 2.1 330 14:37 13.09.2019
1995 Clouds 11 1025 71 10000 2.1 330 14:37 13.09.2019
1996 Clouds 11 1025 71 10000 2.1 330 14:19 13.09.2019
1997 Clear 9 1024 75 10000 2.1 10 13:44 13.09.2019
1998 Clear 8 1024 75 10000 2.1 10 13:22 13.09.2019
1999 Clear 8 1023 87 10000 2.1 10 12:46 13.09.2019
2000 Clear 8 1023 87 10000 2.1 10 12:26 13.09.2019
2001 Clear 9 1024 70 10000 2.92 214.103 11:57 13.09.2019
2002 Clear 6 1023 75 10000 2.92 214.103 11:21 13.09.2019
2003 Clear 8 1023 80 10000 1 350 10:59 13.09.2019
2004 Clear 8 1023 80 10000 1 350 10:37 13.09.2019
2005 Clear 7 1023 75 10000 2.92 214.103 10:18 13.09.2019
2006 Clear 8 1023 75 10000 2.92 214.103 09:43 13.09.2019
2007 Clear 8 1023 75 10000 5.91 306.599 09:23 13.09.2019
2008 Clear 7 1023 75 10000 1 360 08:58 13.09.2019
2009 Clear 8 1023 75 10000 1 360 08:39 13.09.2019
2010 Clear 8 1023 75 10000 1 360 08:20 13.09.2019
2011 Clear 8 1023 75 10000 5.43 297.81 07:43 13.09.2019
2012 Clear 8 1023 75 10000 5.43 297.81 07:24 13.09.2019
2013 Clear 9 1023 70 10000 1.5 360 06:39 13.09.2019
2014 Clear 7 1023 70 10000 5.98 322.704 05:39 13.09.2019
2015 Clear 7 1023 70 10000 5.98 322.704 04:39 13.09.2019
2016 Clear 10 1022 61 10000 5.98 322.704 03:37 13.09.2019
2017 Clear 10 1022 66 10000 5.12 330.751 02:20 13.09.2019
2018 Clear 9 1022 50 10000 5.12 330.751 01:38 13.09.2019
2019 Clear 9 1022 50 10000 4.68 332.218 01:18 13.09.2019
2020 Clear 11 1022 70 10000 1.5 310 00:36 13.09.2019
2021 Clear 12 1021 68 10000 1.5 250 23:54 12.09.2019
2022 Clear 12 1021 68 10000 1.5 250 23:35 12.09.2019
2023 Clear 13 1021 54 10000 3.1 240 22:59 12.09.2019
2024 Clear 13 1021 54 10000 3.1 240 22:40 12.09.2019
2025 Clear 13 1021 54 10000 3.1 240 22:22 12.09.2019
2026 Clouds 13 1021 66 10000 4.6 240 21:56 12.09.2019
2027 Clouds 13 1021 66 10000 4.6 240 21:37 12.09.2019
2028 Clouds 13 1021 66 10000 4.6 240 21:19 12.09.2019
2029 Clouds 13 1020 66 10000 4.1 240 20:55 12.09.2019
2030 Clouds 13 1020 66 10000 4.1 240 20:54 12.09.2019
2031 Clouds 13 1020 66 10000 4.1 240 20:36 12.09.2019
2032 Clouds 13 1020 66 10000 4.1 240 20:18 12.09.2019
2033 Clouds 13 1021 76 10000 4.1 240 19:41 12.09.2019
2034 Clouds 14 1021 71 10000 4.1 230 19:20 12.09.2019
2035 Clouds 13 1021 71 10000 4.1 230 18:57 12.09.2019
2036 Clouds 13 1021 71 10000 3.6 230 18:36 12.09.2019
2037 Clouds 13 1021 71 10000 3.6 230 18:18 12.09.2019
2038 Clouds 13 1021 76 10000 3.1 230 17:41 12.09.2019
2039 Clouds 13 1021 76 10000 3.1 230 17:21 12.09.2019
2040 Clouds 13 1021 87 10000 3.1 230 16:58 12.09.2019
2041 Clouds 13 1021 87 10000 3.1 230 16:40 12.09.2019
2042 Clouds 13 1021 87 10000 3.1 230 16:20 12.09.2019
2043 Clouds 13 1020 87 10000 3.1 220 15:42 12.09.2019
2044 Clouds 13 1020 87 10000 3.1 220 15:23 12.09.2019
2045 Clouds 13 1020 87 10000 3.1 220 15:23 12.09.2019
2046 Clouds 12 1021 87 10000 2.6 200 14:48 12.09.2019
2047 Clouds 12 1020 87 10000 2.6 210 14:23 12.09.2019
2048 Clouds 11 1020 93 10000 2.1 200 13:59 12.09.2019
2049 Clouds 11 1020 93 10000 2.1 200 13:39 12.09.2019
2050 Clouds 11 1020 93 10000 2.1 200 13:20 12.09.2019
2051 Clouds 10 1018 93 10000 2.1 180 12:48 12.09.2019
2052 Clouds 10 1018 93 10000 2.1 180 12:19 12.09.2019
2053 Clouds 10 1018 93 10000 2.6 200 11:58 12.09.2019
2054 Clouds 9 1018 93 10000 2.6 200 11:39 12.09.2019
2055 Clouds 9 1018 93 10000 2.6 200 11:21 12.09.2019
2056 Clouds 9 1018 93 10000 2.6 200 11:21 12.09.2019
2057 Clouds 11 1018 93 9000 2.1 220 10:48 12.09.2019
2058 Clouds 10 1018 93 9000 2.1 220 10:26 12.09.2019
2059 Rain 9 1017 100 8000 2.6 220 09:56 12.09.2019
2060 Rain 10 1017 100 8000 2.6 220 09:38 12.09.2019
2061 Rain 10 1017 100 8000 2.6 220 09:18 12.09.2019
2062 Rain 10 1017 100 8000 2.6 220 09:18 12.09.2019
2063 Rain 10 1017 100 4000 3.6 190 08:43 12.09.2019
2064 Rain 11 1017 100 4000 3.6 190 08:23 12.09.2019
2065 Mist 11 1017 100 3000 3.6 220 07:47 12.09.2019
2066 Clouds 11 1017 100 6000 2.1 170 07:20 12.09.2019
2067 Clouds 11 1017 100 6000 2.1 170 06:52 12.09.2019
2068 Clouds 11 1017 100 6000 2.1 170 06:32 12.09.2019
2069 Clouds 11 1017 100 6000 2.1 170 06:32 12.09.2019
2070 Mist 11 1017 100 4000 3.1 170 05:53 12.09.2019
2071 Mist 11 1017 100 4000 3.1 170 05:35 12.09.2019
2072 Drizzle 11 1017 100 5000 2.6 190 04:42 12.09.2019
2073 Drizzle 11 1017 100 4000 2.1 160 03:23 12.09.2019
2074 Clouds 11 1017 100 10000 3.6 150 01:43 12.09.2019
2075 Mist 11 1017 100 10000 3.6 150 01:21 12.09.2019
2076 Mist 11 1016 100 3000 4.1 150 00:45 12.09.2019
2077 Mist 11 1016 100 3000 4.1 150 00:27 12.09.2019
2078 Clouds 12 1016 100 10000 3.1 140 23:43 11.09.2019
2079 Drizzle 11 1016 100 10000 3.1 140 23:25 11.09.2019
2080 Drizzle 11 1016 93 2000 3.6 130 22:57 11.09.2019
2081 Drizzle 11 1016 93 2000 3.6 130 22:38 11.09.2019
2082 Drizzle 11 1016 93 2000 3.6 130 22:19 11.09.2019
2083 Drizzle 11 1016 100 1500 4.1 130 21:57 11.09.2019
2084 Drizzle 11 1016 100 3000 4.6 150 21:38 11.09.2019
2085 Drizzle 11 1016 100 3000 4.6 150 21:38 11.09.2019
2086 Drizzle 11 1016 100 3000 4.6 150 21:38 11.09.2019
2087 Mist 12 1017 100 3000 4.6 150 21:19 11.09.2019
2088 Mist 11 1017 100 3000 4.6 150 20:54 11.09.2019
2089 Mist 11 1017 100 3000 4.6 150 20:36 11.09.2019
2090 Mist 11 1017 100 3000 4.6 150 20:18 11.09.2019
2091 Clouds 11 1017 100 6000 5.7 170 19:55 11.09.2019
2092 Clouds 12 1017 87 7000 4.6 170 19:37 11.09.2019
2093 Clouds 12 1017 93 10000 5.1 160 19:18 11.09.2019
2094 Clouds 12 1018 82 10000 5.1 130 18:42 11.09.2019
2095 Clouds 13 1018 82 10000 5.1 130 18:23 11.09.2019
2096 Clouds 12 1018 87 10000 5.1 130 17:58 11.09.2019
2097 Clouds 12 1018 87 10000 5.1 130 17:39 11.09.2019
2098 Clouds 12 1018 87 10000 5.1 130 17:20 11.09.2019
2099 Clouds 12 1018 93 10000 6.2 130 16:54 11.09.2019
2100 Clouds 12 1018 93 10000 6.2 130 16:54 11.09.2019
2101 Clouds 11 1018 87 10000 6.2 110 16:36 11.09.2019
2102 Clouds 11 1019 93 10000 6.2 120 16:18 11.09.2019
2103 Clouds 11 1019 93 10000 6.2 120 15:45 11.09.2019
2104 Clouds 11 1019 93 10000 6.2 120 15:22 11.09.2019
2105 Clouds 10 1019 87 10000 5.7 100 14:57 11.09.2019
2106 Clouds 10 1019 87 10000 5.7 100 14:38 11.09.2019
2107 Clouds 10 1019 87 10000 5.7 100 14:19 11.09.2019
2108 Clouds 10 1019 93 10000 5.7 130 13:54 11.09.2019
2109 Clouds 10 1019 93 10000 5.7 130 13:36 11.09.2019
2110 Clouds 9 1019 93 10000 5.1 110 13:18 11.09.2019
2111 Clouds 10 1019 93 10000 5.1 110 12:40 11.09.2019
2112 Clouds 9 1019 93 10000 5.1 110 12:21 11.09.2019
2113 -273 0 0 0 0 0 11:55 11.09.2019
2114 Clouds 9 1019 93 10000 5.1 130 11:36 11.09.2019
2115 Clouds 9 1019 93 10000 5.1 130 11:36 11.09.2019
2116 Clouds 10 1019 93 10000 5.1 130 11:18 11.09.2019
2117 Clouds 10 1019 87 10000 4.1 150 10:40 11.09.2019
2118 Clouds 10 1019 87 10000 4.1 150 10:21 11.09.2019
2119 Clouds 10 1019 81 10000 3.6 130 09:40 11.09.2019
2120 Clouds 10 1019 81 10000 3.6 130 09:20 11.09.2019
2121 Clouds 10 1020 87 10000 4.1 130 08:59 11.09.2019
2122 Clouds 10 1020 87 10000 4.1 130 08:39 11.09.2019
2123 Clouds 10 1020 87 10000 4.1 130 08:20 11.09.2019
2124 Clouds 10 1021 87 10000 3.1 130 07:45 11.09.2019
2125 Clouds 10 1021 87 10000 3.1 130 07:23 11.09.2019
2126 Clouds 10 1021 93 10000 2.6 140 06:52 11.09.2019
2127 Clouds 10 1021 93 10000 2.6 140 06:33 11.09.2019
2128 Clouds 10 1022 93 10000 1.5 160 05:46 11.09.2019
2129 Clouds 11 1022 93 10000 1.5 160 05:28 11.09.2019
2130 Clouds 9 1021 93 10000 1.5 150 04:46 11.09.2019
2131 Clouds 11 1021 87 10000 2.1 140 03:36 11.09.2019
2132 Clouds 11 1021 87 10000 2.6 130 02:49 11.09.2019
2133 Clouds 11 1021 87 10000 2.6 130 02:20 11.09.2019
2134 Clouds 11 1020 87 10000 3.1 140 00:53 11.09.2019
2135 Clouds 11 1020 87 10000 3.1 140 00:26 11.09.2019
2136 Clouds 11 1020 81 10000 4.1 150 23:56 10.09.2019
2137 Clouds 12 1019 81 10000 4.6 120 23:38 10.09.2019
2138 Clouds 12 1019 81 10000 4.6 120 23:20 10.09.2019
2139 Clouds 12 1019 87 10000 4.6 140 22:41 10.09.2019
2140 Clouds 12 1019 87 10000 4.6 140 22:20 10.09.2019
2141 Clouds 12 1018 82 10000 3.6 160 21:56 10.09.2019
2142 Clouds 12 1018 82 10000 3.6 160 21:38 10.09.2019
2143 Clouds 12 1018 82 10000 3.6 160 21:20 10.09.2019
2144 Clouds 12 1019 87 10000 4.1 150 20:58 10.09.2019
2145 Clouds 12 1019 87 10000 4.1 150 20:39 10.09.2019
2146 Clouds 12 1019 87 10000 4.1 150 20:21 10.09.2019
2147 Clouds 13 1019 82 10000 4.1 150 19:57 10.09.2019
2148 Clouds 13 1019 82 10000 4.1 150 19:37 10.09.2019
2149 Clouds 13 1019 82 10000 3.6 170 19:19 10.09.2019
2150 Clouds 13 1019 82 10000 3.6 170 18:55 10.09.2019
2151 Clouds 13 1019 87 10000 4.6 180 18:37 10.09.2019
2152 Clouds 13 1019 93 10000 4.6 170 18:19 10.09.2019
2153 Clouds 12 1019 93 10000 4.6 170 17:43 10.09.2019
2154 Clouds 13 1019 93 10000 4.6 170 17:23 10.09.2019
2155 Clouds 12 1019 93 10000 4.6 170 16:59 10.09.2019
2156 Clouds 12 1019 93 10000 4.6 170 16:39 10.09.2019
2157 Clouds 12 1019 93 10000 4.6 170 16:21 10.09.2019
2158 Clouds 11 1019 93 10000 3.1 160 15:59 10.09.2019
2159 Clouds 11 1019 93 10000 3.1 160 15:40 10.09.2019
2160 Clouds 11 1019 93 10000 3.1 160 15:20 10.09.2019
2161 Drizzle 11 1019 100 3000 3.6 190 14:42 10.09.2019
2162 Drizzle 11 1019 100 3000 3.6 190 14:24 10.09.2019
2163 Drizzle 11 1019 100 2500 3.6 180 13:56 10.09.2019
2164 Drizzle 11 1019 100 1000 4.6 190 13:37 10.09.2019
2165 Drizzle 11 1019 100 1000 4.6 190 13:19 10.09.2019
2166 Drizzle 11 1017 100 2000 4.1 180 12:43 10.09.2019
2167 Drizzle 11 1017 100 2000 4.1 180 12:24 10.09.2019
2168 Drizzle 11 1016 100 4000 4.1 180 11:57 10.09.2019
2169 Drizzle 11 1016 100 4000 4.1 180 11:57 10.09.2019
2170 Clouds 11 1015 100 10000 4.6 190 11:39 10.09.2019
2171 Clouds 11 1015 100 10000 3.6 190 11:20 10.09.2019
2172 Clouds 11 1015 100 10000 3.6 190 10:42 10.09.2019
2173 Clouds 11 1015 100 10000 2.1 160 10:19 10.09.2019
2174 Clouds 11 1015 100 10000 2.1 160 09:56 10.09.2019
2175 Clouds 11 1015 100 10000 2.1 160 09:37 10.09.2019
2176 Clouds 11 1015 100 10000 2.1 160 09:18 10.09.2019
2177 Clouds 11 1015 100 10000 3.6 190 08:44 10.09.2019
2178 Clouds 11 1015 100 10000 3.6 190 08:26 10.09.2019
2179 Clouds 11 1015 100 10000 3.1 190 07:45 10.09.2019
2180 Clouds 11 1015 100 10000 3.1 190 07:26 10.09.2019
2181 Clouds 11 1014 100 10000 5.7 190 06:53 10.09.2019
2182 Clouds 11 1014 100 10000 5.7 190 06:35 10.09.2019
2183 Rain 12 1013 100 2000 4.6 220 05:27 10.09.2019
2184 Drizzle 12 1013 100 2500 4.6 220 03:57 10.09.2019
2185 Drizzle 12 1012 100 8000 4.6 250 02:23 10.09.2019
2186 Drizzle 12 1012 100 8000 4.6 250 02:23 10.09.2019
2187 Drizzle 12 1012 100 8000 4.6 250 02:23 10.09.2019
2188 Drizzle 12 1012 100 8000 4.6 250 02:23 10.09.2019
2189 Drizzle 12 1012 100 8000 4.6 250 02:23 10.09.2019
2190 Clouds 12 1009 100 10000 5.7 210 01:58 10.09.2019
2191 Clouds 12 1009 100 10000 5.7 210 01:40 10.09.2019
2192 Clouds 12 1009 100 10000 5.7 210 00:54 10.09.2019
2193 Clouds 12 1007 100 8000 6.2 200 00:25 10.09.2019
2194 Rain 12 1006 100 3000 7.7 220 23:47 09.09.2019
2195 Rain 12 1005 100 2000 10.3 220 23:20 09.09.2019
2196 Rain 12 1005 100 2000 10.3 220 22:57 09.09.2019
2197 Rain 12 1004 100 2000 10.3 230 22:39 09.09.2019
2198 Rain 12 1003 100 1500 7.7 230 22:20 09.09.2019
2199 Rain 12 1003 100 1500 7.7 230 21:57 09.09.2019
2200 Rain 12 1003 100 1500 7.7 230 21:39 09.09.2019
2201 Rain 12 1002 100 800 7.7 230 21:20 09.09.2019
2202 Rain 12 1002 100 800 7.7 230 20:56 09.09.2019
2203 Rain 12 1001 100 1200 8.2 220 20:37 09.09.2019
2204 Rain 12 1001 100 2000 7.7 200 20:19 09.09.2019
2205 Rain 12 1001 100 2000 7.7 200 20:19 09.09.2019
2206 Rain 12 1001 100 2000 7.7 200 20:19 09.09.2019
2207 Rain 12 1001 100 2000 7.7 200 19:58 09.09.2019
2208 Rain 12 998 100 1500 10.3 140 19:39 09.09.2019
2209 Mist 12 998 100 1500 10.3 140 19:19 09.09.2019
2210 Mist 12 998 100 1500 10.3 140 19:19 09.09.2019
2211 Rain 12 1006 100 1500 5.7 200 18:57 09.09.2019
2212 Rain 12 1006 100 1500 5.7 200 18:39 09.09.2019
2213 Rain 12 1004 100 1500 5.1 210 18:21 09.09.2019
2214 Rain 12 1004 100 1500 5.1 210 17:58 09.09.2019
2215 Rain 12 1006 100 3500 4.1 180 17:40 09.09.2019
2216 Rain 12 1005 100 2000 4.6 140 17:21 09.09.2019
2217 Rain 12 1005 100 2000 4.6 140 17:21 09.09.2019
2218 Rain 12 1007 100 3000 4.6 120 16:55 09.09.2019
2219 Rain 12 1007 100 3000 4.6 120 16:37 09.09.2019
2220 Rain 12 1008 100 3500 4.1 140 16:19 09.09.2019
2221 Rain 12 1008 100 3500 4.1 140 15:55 09.09.2019
2222 -273 0 0 0 0 0 15:55 09.09.2019
2223 Rain 12 1008 100 3500 4.1 140 15:36 09.09.2019
2224 Rain 12 1009 100 2000 5.1 120 15:18 09.09.2019
2225 Rain 12 1008 93 3500 5.1 120 14:40 09.09.2019
2226 Rain 12 1008 93 3500 5.1 120 14:22 09.09.2019
2227 Rain 12 1009 100 2000 6.7 130 14:00 09.09.2019
2228 Rain 12 1009 100 3500 2.6 130 13:41 09.09.2019
2229 Drizzle 12 1009 100 2500 5.1 140 13:19 09.09.2019
2230 Drizzle 12 1009 100 2500 5.1 140 12:57 09.09.2019
2231 Drizzle 12 1009 100 2000 4.1 140 12:38 09.09.2019
2232 Thunderstorm 12 1010 100 3000 4.1 150 12:19 09.09.2019
2233 Thunderstorm 12 1009 100 0 3.6 160 11:43 09.09.2019
2234 Rain 12 1009 100 500 3.6 180 11:20 09.09.2019
2235 Rain 11 1009 100 500 3.6 180 10:57 09.09.2019
2236 Rain 12 1009 100 400 3.6 140 10:39 09.09.2019
2237 Fog 12 1010 100 300 2.1 140 10:19 09.09.2019
2238 Fog 12 1010 100 300 2.1 140 09:49 09.09.2019
2239 Fog 12 1010 100 300 2.1 140 09:30 09.09.2019
2240 Fog 12 1009 100 400 2.6 140 08:57 09.09.2019
2241 Fog 12 1009 100 400 2.6 140 08:38 09.09.2019
2242 Fog 11 1010 100 300 1.5 170 08:19 09.09.2019
2243 Fog 11 1010 100 300 1.5 170 07:44 09.09.2019
2244 Fog 11 1010 100 500 4.35 126.274 07:22 09.09.2019
2245 Fog 11 1010 100 500 4.35 126.274 06:56 09.09.2019
2246 Mist 11 1011 100 3000 1.5 150 06:31 09.09.2019
2247 Mist 11 1012 100 2000 2.6 120 04:45 09.09.2019
2248 Mist 11 1011 100 2000 2.6 120 02:43 09.09.2019
2249 Mist 11 1012 100 3000 1.5 180 01:47 09.09.2019
2250 Fog 11 1013 100 1000 2.1 210 00:39 09.09.2019
2251 Mist 11 1013 100 3000 1.5 200 00:20 09.09.2019
2252 Mist 11 1012 93 3000 2.1 190 23:41 08.09.2019
2253 Mist 11 1012 93 3000 2.1 190 23:23 08.09.2019
2254 Mist 12 1012 100 3500 3.76 163.965 22:43 08.09.2019
2255 Mist 12 1012 100 3500 3.76 163.965 22:23 08.09.2019
2256 Mist 12 1012 82 7000 3.1 210 21:59 08.09.2019
2257 Mist 12 1012 93 5000 3.1 240 21:40 08.09.2019
2258 Mist 12 1012 93 5000 3.1 240 21:22 08.09.2019
2259 Clouds 13 1012 82 8000 4.1 220 20:56 08.09.2019
2260 Clouds 13 1012 93 7000 3.6 270 20:37 08.09.2019
2261 Mist 13 1012 87 8000 1.5 210 20:19 08.09.2019
2262 Mist 13 1012 87 8000 1.5 210 20:19 08.09.2019
2263 Mist 13 1012 87 8000 1.5 210 19:56 08.09.2019
2264 Mist 13 1013 93 5000 2.6 240 19:37 08.09.2019
2265 Mist 13 1013 87 8000 2.1 220 19:18 08.09.2019
2266 Mist 13 1013 87 8000 2.1 220 19:18 08.09.2019
2267 Mist 13 1013 87 8000 2.1 220 18:55 08.09.2019
2268 Mist 13 1014 93 2000 2.1 220 18:37 08.09.2019
2269 Fog 12 1014 100 3000 2.6 220 18:18 08.09.2019
2270 Fog 12 1013 100 800 3.1 270 17:38 08.09.2019
2271 Mist 13 1014 100 1200 2.45 183.159 17:19 08.09.2019
2272 Mist 12 1014 100 1200 2.45 183.159 16:58 08.09.2019
2273 Mist 12 1014 100 1200 2.45 183.159 16:40 08.09.2019
2274 Mist 12 1014 93 4000 1.5 340 16:20 08.09.2019
2275 Mist 12 1014 93 4000 1.5 340 16:20 08.09.2019
2276 Mist 13 1014 93 4000 1.5 340 15:57 08.09.2019
2277 Clouds 12 1015 100 7000 2.6 20 15:39 08.09.2019
2278 Mist 12 1014 100 5000 1.5 220 15:20 08.09.2019
2279 Mist 12 1014 100 5000 1.5 220 14:41 08.09.2019
2280 Mist 12 1014 100 5000 1.5 220 14:22 08.09.2019
2281 Fog 12 1013 100 2000 3.6 180 13:58 08.09.2019
2282 Fog 12 1013 100 2000 3.6 180 13:40 08.09.2019
2283 Fog 12 1013 100 2000 3.6 180 13:40 08.09.2019
2284 Fog 12 1013 100 2000 3.6 180 13:40 08.09.2019
2285 Fog 11 1013 100 1500 1.5 60 13:22 08.09.2019
2286 Fog 11 1013 100 1500 1.5 60 12:58 08.09.2019
2287 Fog 11 1013 100 800 2.1 30 12:40 08.09.2019
2288 Mist 11 1013 100 2500 1 70 12:22 08.09.2019
2289 Mist 11 1013 100 2500 1 70 11:57 08.09.2019
2290 Mist 11 1013 100 3000 0.5 280 11:37 08.09.2019
2291 Mist 11 1014 100 3000 1 320 11:19 08.09.2019
2292 Mist 11 1014 100 3000 1 320 10:43 08.09.2019
2293 Mist 11 1014 100 3000 1 320 10:23 08.09.2019
2294 Mist 11 1014 100 3000 5.52 197.581 09:58 08.09.2019
2295 Mist 11 1014 100 3000 5.52 197.581 09:37 08.09.2019
2296 Mist 11 1014 100 3000 5.62 219.243 09:19 08.09.2019
2297 Mist 10 1014 100 3000 5.74 207.766 08:40 08.09.2019
2298 Mist 10 1014 100 3000 5.74 207.766 08:40 08.09.2019
2299 Mist 10 1014 100 3000 5.74 207.766 08:40 08.09.2019
2300 Drizzle 10 1014 100 2500 0.5 280 08:19 08.09.2019
2301 Drizzle 10 1014 100 2500 0.5 280 07:59 08.09.2019
2302 Fog 10 1014 100 700 1 300 07:37 08.09.2019
2303 Fog 10 1014 100 50 1.5 280 07:19 08.09.2019
2304 Fog 10 1014 100 50 1.5 280 06:44 08.09.2019
2305 Fog 10 1014 100 50 1 330 05:45 08.09.2019
2306 Fog 10 1014 100 50 1 330 05:27 08.09.2019
2307 Mist 12 1013 100 1000 2.2 226.584 03:39 08.09.2019
2308 Clouds 13 1013 93 7000 2.91 247.362 02:51 08.09.2019
2309 Clouds 13 1013 93 10000 0.5 260 01:57 08.09.2019
2310 Clouds 13 1013 93 10000 0.5 260 01:57 08.09.2019
2311 Mist 13 1013 93 10000 0.5 260 01:34 08.09.2019
2312 Mist 13 1013 100 1200 2.1 210 00:53 08.09.2019
2313 Mist 13 1013 100 1200 2.1 210 00:34 08.09.2019
2314 Mist 13 1013 100 1200 2.1 210 23:59 07.09.2019
2315 Mist 13 1013 100 1200 2.6 270 23:38 07.09.2019
2316 Fog 13 1012 100 500 3.1 240 23:19 07.09.2019
2317 Fog 13 1012 100 500 3.1 240 22:57 07.09.2019
2318 Fog 14 1012 100 500 3.1 240 22:37 07.09.2019
2319 Mist 14 1012 93 2500 3.6 210 22:18 07.09.2019
2320 Mist 14 1012 93 2500 3.6 210 21:41 07.09.2019
2321 Mist 14 1012 93 2500 3.6 210 21:23 07.09.2019
2322 Clouds 16 1012 88 10000 2.6 210 20:42 07.09.2019
2323 Clouds 16 1012 88 10000 2.6 210 20:22 07.09.2019
2324 Mist 16 1012 93 2000 2.1 120 19:58 07.09.2019
2325 Mist 16 1012 93 2000 2.1 120 19:39 07.09.2019
2326 Mist 16 1012 82 10000 2.1 170 19:21 07.09.2019
2327 Mist 16 1012 82 10000 2.1 170 18:59 07.09.2019
2328 Mist 16 1013 100 1600 4.88 205.046 18:40 07.09.2019
2329 Mist 15 1015 100 1600 1.77 144.376 18:22 07.09.2019
2330 Mist 15 1015 100 1600 1.77 144.376 17:59 07.09.2019
2331 Mist 15 1015 100 1600 1.77 144.376 17:59 07.09.2019
2332 Mist 15 1015 100 1600 1.77 144.376 17:40 07.09.2019
2333 Mist 14 1015 100 1600 1.77 144.376 17:19 07.09.2019
2334 Mist 14 1015 100 1600 1.77 144.376 17:19 07.09.2019
2335 Mist 14 1015 100 1600 1.77 144.376 16:59 07.09.2019
2336 Mist 14 1015 100 1600 1.77 144.376 16:40 07.09.2019
2337 Fog 14 1015 100 1000 1.77 144.376 16:20 07.09.2019
2338 Fog 14 1015 100 1000 1.77 144.376 15:47 07.09.2019
2339 Fog 13 1015 100 1000 1.77 144.376 15:26 07.09.2019
2340 Fog 13 1014 100 8000 2.6 120 14:57 07.09.2019
2341 Fog 13 1014 100 3000 3.1 120 14:37 07.09.2019
2342 Mist 13 1015 100 4000 3.1 100 14:19 07.09.2019
2343 Mist 13 1015 100 4000 3.1 100 13:57 07.09.2019
2344 Mist 14 1015 100 4000 3.1 100 13:39 07.09.2019
2345 Mist 14 1015 100 4000 3.1 100 13:39 07.09.2019
2346 Mist 14 1015 100 4000 3.1 100 13:39 07.09.2019
2347 Fog 14 1014 100 800 3.6 120 13:20 07.09.2019
2348 Fog 14 1014 100 800 3.6 120 12:44 07.09.2019
2349 Fog 12 1014 100 800 3.6 120 12:25 07.09.2019
2350 -273 0 0 0 0 0 11:55 07.09.2019
2351 Mist 12 1015 100 1000 3.1 130 11:36 07.09.2019
2352 Mist 13 1015 100 1000 3.1 130 11:18 07.09.2019
2353 Mist 12 1015 100 1000 3.1 130 10:38 07.09.2019
2354 Clouds 12 1015 96 0 3.13 133 10:20 07.09.2019
2355 Mist 13 1015 100 1500 3.1 130 09:43 07.09.2019
2356 Mist 12 1015 100 1500 3.1 130 09:25 07.09.2019
2357 Mist 13 1015 100 1500 3.1 130 08:59 07.09.2019
2358 Drizzle 13 1016 93 3000 3.6 130 08:40 07.09.2019
2359 Drizzle 13 1016 93 3000 3.6 130 08:22 07.09.2019
2360 Clouds 13 1016 93 10000 3.1 130 07:45 07.09.2019
2361 Clouds 13 1016 93 10000 3.1 130 07:25 07.09.2019
2362 Clouds 13 1016 93 10000 3.1 120 06:47 07.09.2019
2363 Clouds 13 1016 93 10000 3.1 120 06:19 07.09.2019
2364 Clouds 13 1017 87 10000 5.7 120 04:45 07.09.2019
2365 Clouds 13 1017 87 10000 5.7 120 04:19 07.09.2019
2366 Clouds 13 1018 82 10000 7.2 110 02:45 07.09.2019
2367 Clouds 13 1019 82 10000 7.2 110 01:44 07.09.2019
2368 Clouds 13 1019 82 10000 7.2 110 01:18 07.09.2019
2369 Clouds 13 1019 82 10000 5.7 110 00:39 07.09.2019
2370 Clouds 13 1019 82 10000 5.7 110 00:19 07.09.2019
2371 Clouds 13 1018 76 10000 5.1 120 23:40 06.09.2019
2372 Clouds 13 1018 76 10000 5.1 120 23:40 06.09.2019
2373 Clouds 14 1018 76 10000 5.1 120 23:21 06.09.2019
2374 Clouds 14 1018 76 10000 5.1 120 23:21 06.09.2019
2375 Clouds 15 1018 59 10000 4.6 90 22:57 06.09.2019
2376 Clouds 14 1018 59 10000 4.6 90 22:37 06.09.2019
2377 Clouds 14 1018 59 10000 4.6 90 22:37 06.09.2019
2378 Clouds 15 1019 76 10000 5.1 120 22:19 06.09.2019
2379 Clouds 15 1019 76 10000 5.1 120 21:57 06.09.2019
2380 Clear 15 1019 55 10000 5.1 70 21:38 06.09.2019
2381 Clouds 15 1019 71 10000 4.1 140 21:20 06.09.2019
2382 Clouds 15 1019 71 10000 4.1 140 20:57 06.09.2019
2383 Clouds 16 1020 55 10000 5.1 60 20:38 06.09.2019
2384 Clouds 16 1020 67 10000 4.6 130 20:18 06.09.2019
2385 Clouds 16 1021 52 10000 5.1 90 19:42 06.09.2019
2386 Clouds 16 1021 52 10000 5.1 90 19:24 06.09.2019
2387 Clouds 16 1021 67 10000 4.6 140 18:59 06.09.2019
2388 Clouds 16 1021 52 10000 6.2 60 18:40 06.09.2019
2389 Clouds 16 1022 67 10000 5.1 140 18:22 06.09.2019
2390 Clouds 16 1022 51 10000 6.2 90 17:57 06.09.2019
2391 Clouds 16 1022 51 10000 6.2 90 17:57 06.09.2019
2392 Clouds 16 1022 51 10000 6.2 90 17:37 06.09.2019
2393 Clouds 14 1022 62 10000 6.2 110 17:18 06.09.2019
2394 Clear 13 1023 67 10000 5.7 100 16:39 06.09.2019
2395 Clouds 13 1023 71 10000 7.2 110 16:18 06.09.2019
2396 Clear 13 1024 66 10000 5.1 120 15:42 06.09.2019
2397 Clear 13 1024 66 10000 5.1 120 15:23 06.09.2019
2398 Clear 12 1025 81 10000 3.6 130 14:48 06.09.2019
2399 Clear 11 1025 81 10000 6.2 110 14:20 06.09.2019
2400 Clear 10 1025 81 10000 6.2 110 13:59 06.09.2019
2401 Clear 10 1025 93 10000 3.6 120 13:41 06.09.2019
2402 Mist 9 1025 87 10000 4.6 120 13:19 06.09.2019
2403 Mist 9 1025 100 6000 2.1 130 12:38 06.09.2019
2404 Mist 9 1025 100 6000 2.1 130 12:38 06.09.2019
2405 Clear 9 1025 87 10000 4.1 120 12:19 06.09.2019
2406 Clear 9 1025 87 10000 4.1 120 11:54 06.09.2019
2407 Clear 8 1026 93 10000 3.1 110 11:36 06.09.2019
2408 Clear 8 1026 87 10000 3.1 110 11:18 06.09.2019
2409 Clear 9 1026 87 10000 3.1 110 10:40 06.09.2019
2410 Clear 9 1026 87 10000 3.1 110 10:21 06.09.2019
2411 Clear 8 1026 87 10000 3.1 100 09:57 06.09.2019
2412 Clear 9 1026 87 10000 3.1 100 09:36 06.09.2019
2413 Clouds 9 1027 87 10000 4.6 110 09:18 06.09.2019
2414 Clouds 8 1027 87 10000 4.6 110 08:42 06.09.2019
2415 Clouds 9 1027 87 10000 4.6 110 08:24 06.09.2019
2416 Clouds 8 1028 93 10000 3.6 110 07:47 06.09.2019
2417 Clouds 8 1028 93 10000 3.6 110 07:27 06.09.2019
2418 Clouds 8 1028 93 10000 3.6 110 06:57 06.09.2019
2419 Clouds 8 1029 87 10000 4.1 100 06:21 06.09.2019
2420 Clouds 8 1029 87 10000 4.1 100 05:43 06.09.2019
2421 Clouds 8 1030 81 10000 4.6 90 04:49 06.09.2019
2422 Clear 9 1030 81 10000 6.2 90 03:53 06.09.2019
2423 Clear 9 1030 75 10000 7.2 100 02:23 06.09.2019
2424 Clouds 9 1030 81 10000 5.1 120 00:45 06.09.2019
2425 Clouds 9 1030 70 10000 7.7 110 23:56 05.09.2019
2426 Clouds 9 1030 70 10000 6.2 120 23:38 05.09.2019
2427 Clouds 10 1030 66 10000 7.7 150 23:19 05.09.2019
2428 Clouds 10 1030 66 10000 7.7 150 22:43 05.09.2019
2429 Clouds 9 1030 66 10000 7.7 150 22:24 05.09.2019
2430 Clouds 10 1030 61 10000 7.7 110 21:56 05.09.2019
2431 Clear 10 1030 57 10000 6.2 110 21:38 05.09.2019
2432 Clear 10 1030 57 10000 6.2 110 21:38 05.09.2019
2433 Clouds 10 1030 57 10000 6.2 130 21:19 05.09.2019
2434 Clouds 10 1030 57 10000 6.2 130 20:57 05.09.2019
2435 Clouds 10 1030 57 10000 6.2 130 20:37 05.09.2019
2436 Clear 10 1032 57 10000 6.2 130 20:19 05.09.2019
2437 Clear 10 1032 57 10000 6.2 130 19:55 05.09.2019
2438 Clouds 10 1032 57 10000 5.7 110 19:37 05.09.2019
2439 Clear 10 1032 57 10000 5.1 130 19:18 05.09.2019
2440 Clear 10 1032 57 10000 5.1 130 19:18 05.09.2019
2441 Clouds 9 1033 53 10000 6.2 110 18:40 05.09.2019
2442 Clouds 9 1033 53 10000 6.2 110 18:21 05.09.2019
2443 Clouds 9 1033 53 10000 6.2 110 17:56 05.09.2019
2444 Clouds 9 1033 57 10000 6.7 120 17:38 05.09.2019
2445 Clouds 9 1033 70 10000 5.7 110 17:20 05.09.2019
2446 Clouds 9 1033 65 10000 5.7 110 16:42 05.09.2019
2447 Clouds 8 1034 65 10000 5.7 120 16:21 05.09.2019
2448 Clouds 8 1034 65 10000 5.7 120 15:58 05.09.2019
2449 Clouds 8 1034 65 10000 5.7 120 15:39 05.09.2019
2450 Clouds 8 1034 64 10000 4.6 130 15:19 05.09.2019
2451 Clouds 8 1034 64 10000 4.6 130 14:55 05.09.2019
2452 Clouds 8 1034 64 10000 4.6 130 14:37 05.09.2019
2453 Clouds 7 1034 64 10000 2.6 140 14:18 05.09.2019
2454 Clouds 7 1034 64 10000 2.6 140 13:41 05.09.2019
2455 Clouds 7 1033 64 10000 2.1 120 13:18 05.09.2019
2456 Clouds 7 1033 64 10000 2.1 120 12:42 05.09.2019
2457 Clouds 6 1034 60 10000 3.1 150 12:24 05.09.2019
2458 Clouds 7 1034 60 10000 3.1 150 11:56 05.09.2019
2459 Clouds 7 1033 56 10000 3.1 160 11:36 05.09.2019
2460 Clouds 7 1033 56 10000 3.1 160 11:18 05.09.2019
2461 Clouds 7 1033 56 10000 3.6 150 10:37 05.09.2019
2462 Clouds 7 1033 56 10000 3.6 150 10:19 05.09.2019
2463 Clouds 7 1033 56 10000 3.6 150 09:57 05.09.2019
2464 Clouds 7 1033 52 10000 2.1 160 09:38 05.09.2019
2465 Clouds 7 1033 52 10000 2.1 160 09:18 05.09.2019
2466 Clouds 7 1033 56 10000 3.6 160 08:43 05.09.2019
2467 Clouds 7 1033 56 10000 3.6 160 08:24 05.09.2019
2468 Clouds 6 1033 52 10000 3.6 160 07:44 05.09.2019
2469 Clouds 7 1033 52 10000 3.6 160 07:25 05.09.2019
2470 Clouds 7 1033 56 10000 3.6 160 06:50 05.09.2019
2471 Clouds 7 1033 56 10000 3.6 160 06:29 05.09.2019
2472 Clouds 7 1033 56 10000 3.6 170 05:49 05.09.2019
2473 Clouds 7 1033 56 10000 3.6 170 05:28 05.09.2019
2474 Clouds 7 1033 48 10000 5.1 160 04:45 05.09.2019
2475 Clouds 7 1033 48 10000 5.1 160 04:19 05.09.2019
2476 Clouds 9 1032 52 10000 5.1 180 03:27 05.09.2019
2477 Clouds 9 1032 70 10000 5.1 170 02:42 05.09.2019
2478 Clouds 9 1031 61 10000 4.1 180 02:18 05.09.2019
2479 Clouds 8 1031 61 10000 4.1 180 01:25 05.09.2019
2480 Clouds 8 1031 65 10000 2.1 220 00:42 05.09.2019
2481 Clouds 8 1031 65 10000 2.1 220 00:20 05.09.2019
2482 Clouds 8 1030 61 10000 4.1 210 23:45 04.09.2019
2483 Clouds 9 1030 61 10000 4.1 210 23:23 04.09.2019
2484 Clouds 9 1030 49 10000 5.1 200 22:57 04.09.2019
2485 Clouds 9 1030 49 10000 5.1 200 22:38 04.09.2019
2486 Clouds 9 1030 49 10000 5.1 210 22:18 04.09.2019
2487 Clouds 9 1029 52 10000 6.7 200 21:39 04.09.2019
2488 Clouds 9 1029 49 10000 7.7 200 21:20 04.09.2019
2489 Clouds 9 1029 49 10000 7.7 200 20:56 04.09.2019
2490 Clouds 9 1029 49 10000 7.7 200 20:37 04.09.2019
2491 Clouds 10 1029 45 10000 6.7 210 20:18 04.09.2019
2492 -273 0 0 0 0 0 19:55 04.09.2019
2493 Clouds 10 1029 58 10000 7.7 210 19:36 04.09.2019
2494 Clouds 10 1029 58 10000 7.7 210 19:18 04.09.2019
2495 Clouds 9 1029 61 10000 7.2 230 18:38 04.09.2019
2496 Clouds 9 1029 61 10000 7.2 230 18:19 04.09.2019
2497 Clouds 9 1029 65 10000 7.7 230 17:41 04.09.2019
2498 Clouds 9 1029 65 10000 7.7 230 17:23 04.09.2019
2499 Clouds 9 1029 61 10000 6.2 220 16:58 04.09.2019
2500 Clouds 9 1029 61 10000 6.2 220 16:39 04.09.2019
2501 Clouds 9 1029 61 10000 6.2 220 16:21 04.09.2019
2502 Clouds 9 1029 49 10000 6.2 230 15:55 04.09.2019
2503 Clouds 9 1028 61 10000 5.1 220 15:37 04.09.2019
2504 Clouds 8 1028 70 10000 6.2 220 15:18 04.09.2019
2505 Clouds 8 1028 70 10000 6.2 220 14:54 04.09.2019
2506 Clouds 8 1028 70 10000 6.2 220 14:36 04.09.2019
2507 Clouds 8 1027 61 10000 5.7 220 14:18 04.09.2019
2508 Clouds 7 1026 75 10000 4.6 220 13:39 04.09.2019
2509 Clouds 7 1026 67 10000 5.1 220 13:21 04.09.2019
2510 Clouds 7 1026 75 10000 3.6 220 12:46 04.09.2019
2511 Clouds 7 1025 64 10000 4.6 220 12:27 04.09.2019
2512 Clouds 7 1025 64 10000 4.6 220 12:27 04.09.2019
2513 Clouds 7 1025 64 10000 4.6 220 11:59 04.09.2019
2514 Clouds 7 1025 64 10000 5.1 230 11:41 04.09.2019
2515 Clouds 7 1024 64 10000 5.1 220 11:21 04.09.2019
2516 Clouds 7 1024 64 10000 5.1 220 10:58 04.09.2019
2517 Clouds 7 1024 64 10000 5.1 220 10:39 04.09.2019
2518 Clouds 7 1024 64 10000 5.1 220 10:21 04.09.2019
2519 Clouds 7 1024 65 10000 5.1 220 09:46 04.09.2019
2520 Clouds 7 1024 62 10000 5.1 220 09:22 04.09.2019
2521 Clouds 8 1024 61 10000 6.2 210 08:57 04.09.2019
2522 Clouds 8 1024 61 10000 6.2 210 08:38 04.09.2019
2523 Clear 8 1023 62 10000 6.7 210 08:19 04.09.2019
2524 Clear 8 1023 62 10000 6.7 210 07:43 04.09.2019
2525 Clouds 7 1023 65 10000 1.5 270 07:24 04.09.2019
2526 Clouds 8 1023 65 10000 1.5 270 06:39 04.09.2019
2527 Clear 9 1022 69 10000 2.1 330 04:56 04.09.2019
2528 Clear 9 1022 69 10000 2.1 330 04:25 04.09.2019
2529 Clear 8 1022 69 10000 1 330 03:39 04.09.2019
2530 Clouds 7 1021 65 10000 2.6 310 01:21 04.09.2019
2531 Clouds 7 1021 52 10000 4.1 300 00:46 04.09.2019
2532 Clouds 8 1021 52 10000 4.1 300 00:27 04.09.2019
2533 Clouds 9 1021 49 10000 5.7 290 23:54 03.09.2019
2534 Clouds 9 1021 49 10000 5.7 290 23:27 03.09.2019
2535 Clouds 9 1021 52 10000 4.6 300 22:57 03.09.2019
2536 Clouds 9 1021 49 10000 6.7 280 22:39 03.09.2019
2537 Clouds 9 1021 49 10000 6.7 280 22:21 03.09.2019
2538 Clouds 9 1021 49 10000 6.7 280 21:55 03.09.2019
2539 Clouds 10 1021 55 10000 6.7 270 21:36 03.09.2019
2540 Clouds 10 1021 43 10000 6.7 280 21:18 03.09.2019
2541 Clouds 9 1022 49 10000 7.7 280 20:42 03.09.2019
2542 Clouds 9 1021 39 10000 7.2 280 20:24 03.09.2019
2543 Clouds 9 1022 57 10000 7.2 260 19:55 03.09.2019
2544 Clouds 9 1022 57 10000 7.2 260 19:37 03.09.2019
2545 Clouds 9 1022 57 10000 7.2 260 19:18 03.09.2019
2546 Clouds 10 1023 57 10000 6.2 260 18:44 03.09.2019
2547 Clouds 9 1023 57 10000 6.2 260 18:25 03.09.2019
2548 Clouds 9 1023 57 10000 6.2 260 18:25 03.09.2019
2549 Clouds 9 1023 61 10000 6.2 250 17:57 03.09.2019
2550 Clouds 9 1023 61 10000 6.2 250 17:39 03.09.2019
2551 Clouds 8 1023 61 10000 6.7 240 17:19 03.09.2019
2552 Clouds 8 1023 61 10000 6.7 240 16:54 03.09.2019
2553 Clouds 8 1023 61 10000 6.7 240 16:36 03.09.2019
2554 Clouds 8 1022 57 10000 5.7 270 16:18 03.09.2019
2555 Clouds 8 1022 70 10000 5.7 250 15:39 03.09.2019
2556 Clouds 7 1023 70 10000 5.1 240 15:21 03.09.2019
2557 Clouds 7 1023 70 10000 5.1 240 14:58 03.09.2019
2558 Clouds 7 1023 70 10000 5.1 240 14:40 03.09.2019
2559 Clouds 7 1022 65 10000 4.1 250 14:20 03.09.2019
2560 Clouds 7 1022 65 10000 4.1 250 13:56 03.09.2019
2561 Clouds 6 1022 80 10000 2.1 240 13:37 03.09.2019
2562 Clouds 6 1022 75 10000 2.1 260 13:19 03.09.2019
2563 Clouds 6 1022 70 10000 6.2 240 12:48 03.09.2019
2564 Clouds 6 1022 70 10000 6.2 240 12:30 03.09.2019
2565 Clouds 6 1022 70 10000 6.2 240 11:58 03.09.2019
2566 Clouds 6 1022 70 10000 4.1 240 11:38 03.09.2019
2567 Clouds 6 1022 70 10000 3.1 250 11:19 03.09.2019
2568 Clouds 7 1022 70 10000 3.1 250 10:54 03.09.2019
2569 Clouds 7 1022 70 10000 3.1 250 10:36 03.09.2019
2570 Clouds 7 1022 65 10000 3.6 250 10:18 03.09.2019
2571 Clouds 7 1022 65 10000 3.6 250 10:18 03.09.2019
2572 Clouds 7 1022 65 10000 3.6 250 09:41 03.09.2019
2573 Clouds 7 1022 65 10000 3.6 250 09:23 03.09.2019
2574 Clouds 8 1022 56 10000 6.2 250 08:39 03.09.2019
2575 Clouds 8 1022 52 10000 5.7 240 08:21 03.09.2019
2576 Clouds 8 1022 52 10000 5.7 240 07:54 03.09.2019
2577 Clouds 8 1022 52 10000 5.7 240 07:36 03.09.2019
2578 Clouds 8 1022 52 10000 5.7 240 07:18 03.09.2019
2579 Clouds 8 1022 52 10000 6.2 230 06:41 03.09.2019
2580 Clouds 9 1020 65 10000 5.1 230 03:45 03.09.2019
2581 Clouds 9 1020 61 10000 5.7 210 02:59 03.09.2019
2582 Clouds 10 1020 61 10000 5.7 210 02:38 03.09.2019
2583 Clouds 9 1019 66 10000 5.7 220 02:20 03.09.2019
2584 Clouds 10 1019 66 10000 5.7 220 01:43 03.09.2019
2585 Clouds 9 1019 66 10000 5.7 220 01:25 03.09.2019
2586 Clouds 9 1019 66 10000 5.7 220 01:25 03.09.2019
2587 Rain 9 1018 93 10000 4.1 200 00:31 03.09.2019
2588 Rain 9 1018 93 10000 4.1 200 23:58 02.09.2019
2589 Rain 11 1017 62 7000 7.2 200 23:37 02.09.2019
2590 Rain 11 1017 62 7000 7.2 200 23:37 02.09.2019
2591 Clouds 12 1016 54 10000 4.6 310 23:19 02.09.2019
2592 Clouds 12 1016 54 10000 4.6 310 22:55 02.09.2019
2593 Clouds 13 1016 54 10000 4.6 310 22:36 02.09.2019
2594 Clouds 13 1016 43 10000 6.7 270 22:18 02.09.2019
2595 Clouds 13 1016 43 10000 6.7 270 21:55 02.09.2019
2596 Clouds 13 1016 43 10000 6.7 270 21:37 02.09.2019
2597 Clouds 13 1016 54 10000 6.2 260 21:18 02.09.2019
2598 Clouds 13 1016 43 10000 5.7 280 20:42 02.09.2019
2599 Clouds 13 1016 43 10000 5.7 280 20:42 02.09.2019
2600 Clouds 14 1016 54 10000 5.7 260 20:23 02.09.2019
2601 Clouds 14 1016 54 10000 5.7 260 19:59 02.09.2019
2602 Clouds 14 1016 35 10000 5.7 260 19:40 02.09.2019
2603 Clouds 13 1016 33 10000 5.7 260 19:22 02.09.2019
2604 Clear 13 1017 54 10000 5.7 300 18:57 02.09.2019
2605 Clear 13 1017 54 10000 5.7 300 18:57 02.09.2019
2606 Clear 13 1017 54 10000 5.7 300 18:37 02.09.2019
2607 Clear 13 1017 65 10000 5.7 300 18:18 02.09.2019
2608 Clouds 13 1017 46 10000 6.2 330 17:40 02.09.2019
2609 Clouds 12 1017 58 10000 5.7 310 17:21 02.09.2019
2610 Clouds 12 1017 58 10000 5.7 310 16:59 02.09.2019
2611 Clouds 12 1017 58 10000 5.7 310 16:39 02.09.2019
2612 Clouds 11 1017 65 10000 7.2 330 16:20 02.09.2019
2613 Clouds 11 1017 61 10000 4.6 320 15:49 02.09.2019
2614 Clouds 10 1017 61 10000 4.6 320 15:29 02.09.2019
2615 Clouds 9 1017 53 10000 4.1 320 14:58 02.09.2019
2616 Clouds 8 1017 70 10000 3.6 330 14:40 02.09.2019
2617 Clouds 7 1017 70 10000 1.5 350 14:22 02.09.2019
2618 Clouds 6 1017 70 10000 1.5 350 13:56 02.09.2019
2619 Clouds 6 1016 64 10000 1.5 20 13:38 02.09.2019
2620 Clouds 5 1017 60 10000 1.5 350 13:20 02.09.2019
2621 Clear 4 1017 60 10000 3.6 20 12:45 02.09.2019
2622 Clear 4 1017 60 10000 3.6 20 12:25 02.09.2019
2623 Clouds 6 1017 55 10000 4.25 274.572 11:59 02.09.2019
2624 Clouds 6 1017 80 10000 4.25 274.572 11:39 02.09.2019
2625 Clouds 5 1017 80 10000 4.25 274.572 11:21 02.09.2019
2626 Clouds 5 1017 80 10000 4.25 274.572 10:57 02.09.2019
2627 Clouds 6 1017 55 10000 4.25 274.572 10:38 02.09.2019
2628 Clouds 6 1017 55 10000 4.25 274.572 10:20 02.09.2019
2629 Clouds 6 1017 55 10000 4.25 274.572 09:55 02.09.2019
2630 Clouds 6 1017 80 10000 4.85 272.684 09:37 02.09.2019
2631 Clouds 6 1017 80 10000 4.09 248.787 09:18 02.09.2019
2632 Clouds 7 1017 80 10000 4.09 248.787 08:39 02.09.2019
2633 Clouds 7 1017 80 10000 4.09 248.787 08:39 02.09.2019
2634 Clouds 7 1018 75 10000 4.09 248.787 08:18 02.09.2019
2635 Clouds 5 1018 75 10000 4.09 248.787 07:41 02.09.2019
2636 Clouds 6 1018 75 10000 4.09 248.787 07:21 02.09.2019
2637 Clouds 6 1018 80 10000 4.09 248.787 06:48 02.09.2019
2638 Clouds 6 1018 80 10000 4.09 248.787 06:29 02.09.2019
2639 Clouds 6 1018 80 10000 4.57 235.302 05:49 02.09.2019
2640 Clouds 6 1018 80 10000 4.57 235.302 05:19 02.09.2019
2641 Clouds 6 1018 75 10000 4.57 235.302 04:21 02.09.2019
2642 Clear 9 1018 61 10000 5.55 229.098 01:48 02.09.2019
2643 Clouds 9 1019 70 10000 5.61 229.359 00:49 02.09.2019
2644 Clouds 9 1019 70 10000 5.61 229.359 00:31 02.09.2019
2645 Clouds 11 1018 53 10000 3.1 240 23:46 01.09.2019
2646 Clouds 10 1018 53 10000 3.1 240 23:23 01.09.2019
2647 Clouds 10 1018 53 10000 3.1 240 22:59 01.09.2019
2648 Clouds 11 1019 57 10000 4.1 240 22:40 01.09.2019
2649 Clouds 11 1019 53 10000 5.1 240 22:19 01.09.2019
2650 Clouds 11 1019 53 10000 5.1 240 21:57 01.09.2019
2651 Clouds 11 1019 53 10000 5.1 240 21:39 01.09.2019
2652 Clouds 12 1018 53 10000 6.2 230 21:20 01.09.2019
2653 Clouds 12 1018 53 10000 6.2 230 20:57 01.09.2019
2654 Clouds 12 1019 54 10000 5.1 300 20:38 01.09.2019
2655 Clouds 12 1019 54 10000 5.1 300 20:38 01.09.2019
2656 Clouds 12 1019 54 10000 5.1 300 20:38 01.09.2019
2657 Clouds 12 1019 53 10000 6.2 240 20:18 01.09.2019
2658 Clouds 12 1019 53 10000 6.2 240 19:58 01.09.2019
2659 Clouds 12 1020 58 10000 5.1 270 19:37 01.09.2019
2660 Clouds 12 1020 58 10000 5.1 270 19:19 01.09.2019
2661 Clouds 11 1020 66 10000 4.1 240 18:43 01.09.2019
2662 Clouds 11 1020 57 10000 6.2 240 18:25 01.09.2019
2663 Clouds 12 1020 66 10000 5.1 240 17:55 01.09.2019
2664 Clouds 12 1020 66 10000 5.1 240 17:55 01.09.2019
2665 Clouds 11 1020 66 10000 5.1 240 17:37 01.09.2019
2666 Clouds 12 1020 58 10000 6.7 230 17:19 01.09.2019
2667 Clouds 12 1020 71 10000 8.2 240 16:39 01.09.2019
2668 Clouds 12 1019 58 10000 5.7 230 16:19 01.09.2019
2669 Clouds 12 1020 71 10000 4.1 240 15:48 01.09.2019
2670 Clouds 12 1020 71 10000 4.1 240 15:29 01.09.2019
2671 Rain 10 1019 62 10000 6.7 210 14:59 01.09.2019
2672 Rain 10 1019 87 10000 3.1 300 14:40 01.09.2019
2673 Rain 9 1018 76 10000 4.1 300 14:20 01.09.2019
2674 Clouds 8 1018 76 10000 4.1 300 13:54 01.09.2019
2675 Clouds 7 1019 93 10000 2.1 330 13:36 01.09.2019
2676 Clouds 7 1018 87 10000 3.6 330 13:18 01.09.2019
2677 Clouds 7 1018 86 10000 2.6 330 12:41 01.09.2019
2678 Clouds 7 1018 93 0 2.6 350 12:22 01.09.2019
2679 Clear 7 1018 87 10000 2.1 350 11:41 01.09.2019
2680 Clear 7 1018 87 10000 2.1 350 11:20 01.09.2019
2681 Clear 7 1018 87 10000 2.1 350 10:58 01.09.2019
2682 Clear 7 1018 87 10000 2.1 350 10:40 01.09.2019
2683 Clear 7 1018 87 10000 3.1 360 10:21 01.09.2019
2684 Clear 7 1018 87 10000 3.1 360 09:43 01.09.2019
2685 Clear 8 1018 87 10000 3.1 360 09:25 01.09.2019
2686 Clear 8 1019 87 10000 2.6 360 08:44 01.09.2019
2687 Clear 8 1019 87 10000 2.6 360 08:24 01.09.2019
2688 Clear 8 1019 93 10000 2.1 20 07:51 01.09.2019
2689 Clear 8 1019 93 10000 2.1 20 07:33 01.09.2019
2690 Clouds 7 1019 93 8000 2.1 30 06:47 01.09.2019
2691 Mist 7 1020 87 4000 7.19 314.774 06:26 01.09.2019
2692 Mist 8 1020 87 4000 5.59 323.921 05:56 01.09.2019
2693 Mist 8 1020 87 4000 5.59 323.921 05:56 01.09.2019
2694 Mist 7 1020 81 5000 5.59 323.921 04:31 01.09.2019
2695 Fog 10 1020 81 6000 5.59 323.921 03:42 01.09.2019
2696 Clear 11 1019 76 8000 2.33 344.193 02:58 01.09.2019
2697 Clear 11 1019 76 8000 2.33 344.193 02:26 01.09.2019
2698 Clear 12 1019 71 10000 2.33 344.193 01:50 01.09.2019
2699 Clear 12 1019 71 10000 2.33 344.193 01:50 01.09.2019
2700 Clear 11 1019 71 10000 1.74 358.352 01:23 01.09.2019
2701 Clouds 11 1019 87 10000 2.1 180 00:46 01.09.2019
2702 Clouds 11 1019 87 10000 2.1 180 00:22 01.09.2019
2703 Clouds 12 1019 81 10000 2.1 210 23:54 31.08.2019
2704 Clouds 12 1019 81 10000 2.1 210 23:36 31.08.2019
2705 Clouds 13 1018 76 10000 3.1 240 23:18 31.08.2019
2706 Clouds 13 1018 76 10000 3.1 240 23:18 31.08.2019
2707 Clouds 14 1018 76 10000 3.1 240 22:43 31.08.2019
2708 Clouds 14 1018 76 10000 3.1 240 22:25 31.08.2019
2709 Clouds 14 1018 71 10000 4.1 240 21:57 31.08.2019
2710 Clouds 14 1018 71 10000 4.1 240 21:38 31.08.2019
2711 Clouds 14 1017 71 10000 3.6 190 21:19 31.08.2019
2712 Clouds 14 1018 71 10000 4.6 270 20:47 31.08.2019
2713 Clouds 14 1018 71 10000 4.6 270 20:29 31.08.2019
2714 Clouds 15 1019 62 10000 4.1 180 19:56 31.08.2019
2715 Clouds 15 1018 63 10000 4.1 300 19:38 31.08.2019
2716 Clouds 15 1018 63 10000 4.1 300 19:38 31.08.2019
2717 Clouds 15 1018 62 10000 4.6 190 19:20 31.08.2019
2718 Clouds 15 1019 72 10000 2.6 300 18:40 31.08.2019
2719 Clouds 15 1019 55 10000 2.6 260 18:21 31.08.2019
2720 Clouds 15 1019 55 10000 2.6 260 17:57 31.08.2019
2721 Clouds 15 1019 63 10000 2.1 330 17:37 31.08.2019
2722 Clouds 15 1019 63 10000 2.1 330 17:37 31.08.2019
2723 Clouds 14 1019 76 10000 2.6 330 17:19 31.08.2019
2724 Clouds 14 1019 76 10000 2.6 330 17:19 31.08.2019
2725 Clouds 14 1019 76 10000 2.6 330 16:58 31.08.2019
2726 Clouds 14 1019 76 10000 2.6 330 16:40 31.08.2019
2727 Clouds 12 1018 93 10000 2.1 330 16:21 31.08.2019
2728 Clouds 12 1018 93 10000 2.1 330 16:21 31.08.2019
2729 Clouds 12 1018 93 10000 2.1 330 15:57 31.08.2019
2730 Clouds 12 1018 93 10000 2.1 330 15:36 31.08.2019
2731 Fog 11 1018 81 10000 3.11 241.886 15:18 31.08.2019
2732 Fog 9 1018 100 200 2.6 360 14:41 31.08.2019
2733 Fog 9 1018 100 200 2.6 360 14:22 31.08.2019
2734 Fog 8 1018 100 10000 2.1 360 13:42 31.08.2019
2735 Fog 8 1017 100 2000 3.6 30 13:23 31.08.2019
2736 Fog 8 1017 100 2000 3.6 30 12:59 31.08.2019
2737 Fog 8 1017 100 1500 2.82 228.726 12:40 31.08.2019
2738 Fog 7 1017 100 500 2.61 315.248 12:20 31.08.2019
2739 Fog 8 1017 100 500 2.61 315.248 11:56 31.08.2019
2740 Mist 7 1017 100 2000 1.5 330 11:38 31.08.2019
2741 Mist 7 1017 100 1500 2.61 315.248 11:20 31.08.2019
2742 Mist 8 1017 100 1500 2.61 315.248 10:43 31.08.2019
2743 Fog 8 1017 100 300 2.61 315.248 10:19 31.08.2019
2744 Fog 8 1017 100 300 2.61 315.248 10:19 31.08.2019
2745 Fog 8 1017 100 300 2.61 315.248 09:59 31.08.2019
2746 Fog 8 1017 100 300 2.75 241.517 09:38 31.08.2019
2747 Fog 8 1018 93 300 1.52 251.279 09:19 31.08.2019
2748 Fog 8 1018 93 400 1.52 251.279 08:43 31.08.2019
2749 Fog 8 1018 93 400 1.52 251.279 08:25 31.08.2019
2750 Clouds 8 1018 93 8000 1.52 251.279 07:42 31.08.2019
2751 Clouds 8 1018 93 8000 1.52 251.279 07:23 31.08.2019
2752 Clear 9 1018 87 10000 1.52 251.279 06:44 31.08.2019
2753 Clear 9 1018 87 10000 1.32 146.286 06:20 31.08.2019
2754 Clear 10 1018 81 10000 1.32 146.286 05:34 31.08.2019
2755 Clear 10 1017 81 10000 1.32 146.286 04:36 31.08.2019
2756 Clear 10 1017 76 10000 2.6 180 03:50 31.08.2019
2757 Clear 11 1017 81 10000 1.5 180 02:50 31.08.2019
2758 Clear 11 1016 87 10000 4.17 161.661 01:56 31.08.2019
2759 Clear 11 1016 87 10000 4.17 161.661 01:36 31.08.2019
2760 Clear 11 1016 87 10000 4.07 150.363 01:18 31.08.2019
2761 Clear 11 1016 81 10000 4.1 180 00:41 31.08.2019
2762 Clear 11 1016 81 10000 4.1 180 00:41 31.08.2019
2763 Clear 11 1016 81 10000 4.1 180 00:23 31.08.2019
2764 Clear 12 1015 71 10000 5.1 170 23:47 30.08.2019
2765 Clear 12 1015 76 10000 3.1 160 23:18 30.08.2019
2766 Clear 12 1015 76 10000 3.1 160 22:55 30.08.2019
2767 -273 0 0 0 0 0 22:55 30.08.2019
2768 Clouds 12 1014 76 10000 2.6 130 22:37 30.08.2019
2769 Clouds 13 1015 62 10000 3.6 150 22:18 30.08.2019
2770 Clouds 13 1015 62 10000 3.6 150 21:54 30.08.2019
2771 Clouds 13 1015 62 10000 3.6 150 21:36 30.08.2019
2772 Clouds 13 1015 71 10000 3.6 170 21:18 30.08.2019
2773 Clouds 13 1015 50 10000 3.1 120 20:41 30.08.2019
2774 Clear 14 1014 54 10000 5.1 100 20:21 30.08.2019
2775 Clear 14 1014 54 10000 5.1 100 19:59 30.08.2019
2776 Clear 14 1014 54 10000 5.1 100 19:40 30.08.2019
2777 Clear 14 1014 54 10000 5.1 100 19:40 30.08.2019
2778 Clear 13 1014 54 10000 5.1 100 19:21 30.08.2019
2779 Clouds 13 1017 66 10000 3.6 120 18:55 30.08.2019
2780 Clouds 13 1017 66 10000 3.6 120 18:37 30.08.2019
2781 Clouds 13 1017 66 10000 3.6 120 18:18 30.08.2019
2782 Clear 13 1017 76 10000 3.6 100 17:55 30.08.2019
2783 Clear 13 1017 76 10000 3.6 100 17:37 30.08.2019
2784 Clouds 13 1017 71 10000 5.1 110 17:18 30.08.2019
2785 Clouds 13 1017 71 10000 5.1 110 16:43 30.08.2019
2786 Clouds 13 1017 71 10000 5.1 110 16:24 30.08.2019
2787 Clear 13 1017 81 10000 4.1 130 15:45 30.08.2019
2788 Clear 12 1017 81 10000 4.1 130 15:25 30.08.2019
2789 Clear 12 1016 81 10000 3.6 120 14:59 30.08.2019
2790 Clear 12 1016 81 10000 3.6 120 14:41 30.08.2019
2791 Clear 12 1016 81 10000 3.6 120 14:23 30.08.2019
2792 Clear 12 1015 87 10000 3.1 120 13:44 30.08.2019
2793 Clear 12 1015 87 10000 3.1 120 13:23 30.08.2019
2794 Clear 11 1016 81 10000 2.6 130 12:58 30.08.2019
2795 Clear 11 1015 93 10000 1.5 140 12:40 30.08.2019
2796 Clear 11 1015 87 10000 3.1 140 12:22 30.08.2019
2797 Clear 11 1015 87 10000 3.1 140 11:42 30.08.2019
2798 Clear 11 1015 87 10000 3.1 140 11:24 30.08.2019
2799 Clear 11 1015 81 10000 3.1 140 10:43 30.08.2019
2800 Clear 11 1015 81 10000 3.1 140 10:24 30.08.2019
2801 Clear 11 1015 81 10000 3.1 140 09:59 30.08.2019
2802 Clear 11 1015 81 10000 3.6 150 09:40 30.08.2019
2803 Clear 12 1016 81 10000 3.6 160 09:19 30.08.2019
2804 Clear 12 1016 81 10000 3.6 160 08:56 30.08.2019
2805 Clear 12 1016 81 10000 3.6 160 08:38 30.08.2019
2806 Clear 12 1016 87 10000 2.6 160 08:20 30.08.2019
2807 Clear 12 1016 87 10000 2.6 160 07:40 30.08.2019
2808 Clear 12 1016 87 10000 2.6 160 07:21 30.08.2019
2809 Clear 12 1015 87 10000 2.6 140 06:47 30.08.2019
2810 Clear 11 1015 87 10000 2.6 140 06:28 30.08.2019
2811 Clear 11 1016 87 10000 3.1 150 05:44 30.08.2019
2812 Clear 12 1015 82 10000 2.6 140 03:59 30.08.2019
2813 Clear 12 1015 82 10000 2.6 140 03:38 30.08.2019
2814 Clear 13 1015 87 10000 2.6 140 02:56 30.08.2019
2815 Clear 12 1015 87 10000 2.6 140 02:29 30.08.2019
2816 Clouds 13 1014 76 10000 3.1 170 01:29 30.08.2019
2817 Clouds 13 1013 87 10000 4.1 150 00:38 30.08.2019
2818 Clouds 13 1013 87 10000 4.1 150 00:18 30.08.2019
2819 Clouds 14 1012 87 10000 3.6 180 23:40 29.08.2019
2820 Thunderstorm 14 1011 87 8000 6.2 180 23:20 29.08.2019
2821 Thunderstorm 14 1011 87 8000 6.2 180 22:44 29.08.2019
2822 Thunderstorm 14 1011 87 8000 6.2 180 22:25 29.08.2019
2823 Thunderstorm 15 1011 93 10000 5.1 180 21:56 29.08.2019
2824 Rain 16 1010 93 8000 2.1 180 21:38 29.08.2019
2825 Mist 16 1010 88 8000 2.6 220 21:20 29.08.2019
2826 Mist 17 1010 88 8000 2.6 220 20:54 29.08.2019
2827 Mist 17 1010 93 6000 1 250 20:36 29.08.2019
2828 Mist 17 1010 93 6000 1 250 20:18 29.08.2019
2829 Mist 17 1010 100 1500 1 210 19:44 29.08.2019
2830 Mist 17 1010 100 1500 1 210 19:25 29.08.2019
2831 Mist 16 1010 93 3500 4.1 200 18:45 29.08.2019
2832 Mist 16 1010 93 3500 4.1 200 18:21 29.08.2019
2833 Mist 17 1010 93 5000 6.2 220 17:58 29.08.2019
2834 Clouds 17 1010 88 7000 2.1 180 17:39 29.08.2019
2835 Mist 17 1009 93 5000 3.6 170 17:20 29.08.2019
2836 Clouds 17 1010 88 7000 2.1 180 17:20 29.08.2019
2837 Mist 17 1009 93 5000 3.6 170 17:20 29.08.2019
2838 Mist 18 1009 93 5000 3.6 170 16:59 29.08.2019
2839 Rain 18 1009 93 5000 4.6 200 16:40 29.08.2019
2840 Rain 17 1009 93 5000 4.6 200 16:22 29.08.2019
2841 Rain 17 1009 93 5000 4.6 200 15:40 29.08.2019
2842 Mist 17 1008 100 3000 3.6 270 15:21 29.08.2019
2843 Mist 17 1008 100 3000 3.6 270 14:56 29.08.2019
2844 Mist 18 1008 100 3000 3.6 270 14:37 29.08.2019
2845 Thunderstorm 18 1008 100 5000 3.1 310 14:19 29.08.2019
2846 Thunderstorm 18 1008 100 5000 3.1 310 13:54 29.08.2019
2847 Thunderstorm 18 1008 93 10000 3.6 280 13:36 29.08.2019
2848 Thunderstorm 19 1008 88 6000 5.1 300 13:18 29.08.2019
2849 Thunderstorm 19 1008 88 6000 5.1 300 12:55 29.08.2019
2850 Thunderstorm 19 1005 77 1400 8.2 300 12:36 29.08.2019
2851 Thunderstorm 20 1005 72 10000 6.2 340 12:18 29.08.2019
2852 Thunderstorm 20 1005 68 10000 4.6 320 11:40 29.08.2019
2853 Thunderstorm 20 1005 68 10000 4.6 320 11:20 29.08.2019
2854 Thunderstorm 20 1005 68 10000 4.6 320 10:55 29.08.2019
2855 Thunderstorm 20 1004 68 10000 8.2 360 10:37 29.08.2019
2856 Thunderstorm 20 1004 68 10000 8.2 360 10:19 29.08.2019
2857 Thunderstorm 21 1005 68 10000 8.2 10 09:41 29.08.2019
2858 Clouds 21 1006 72 10000 7.2 10 09:18 29.08.2019
2859 Clouds 21 1006 72 10000 7.2 10 08:41 29.08.2019
2860 Clouds 20 1006 72 10000 7.2 10 08:23 29.08.2019
2861 Clear 21 1007 72 10000 6.2 20 07:54 29.08.2019
2862 Clear 21 1007 72 10000 6.2 20 07:34 29.08.2019
2863 Clear 21 1007 72 10000 6.2 20 06:57 29.08.2019
2864 Clear 20 1007 77 10000 5.1 20 06:37 29.08.2019
2865 Clear 20 1007 77 10000 4.6 20 05:52 29.08.2019
2866 Clear 20 1007 77 10000 4.6 20 05:29 29.08.2019
2867 Clear 21 1008 77 10000 4.6 30 04:48 29.08.2019
2868 Clear 21 1008 77 10000 4.6 30 04:27 29.08.2019
2869 Clear 22 1009 64 10000 3.6 30 01:54 29.08.2019
2870 Clear 22 1009 64 10000 3.6 30 01:35 29.08.2019
2871 Clear 22 1009 68 10000 5.1 20 00:47 29.08.2019
2872 Clear 22 1009 68 10000 5.1 20 00:23 29.08.2019
2873 Clear 22 1009 68 10000 5.1 20 23:59 28.08.2019
2874 Clear 23 1010 60 10000 5.7 20 23:39 28.08.2019
2875 Clear 24 1010 61 10000 6.7 10 23:21 28.08.2019
2876 Clear 24 1010 61 10000 6.7 10 22:56 28.08.2019
2877 Clear 25 1010 61 10000 6.7 10 22:38 28.08.2019
2878 Clear 25 1010 53 10000 4.6 10 22:18 28.08.2019
2879 Clear 26 1011 57 10000 6.2 20 21:41 28.08.2019
2880 Clear 26 1011 57 10000 6.2 20 21:23 28.08.2019
2881 Clear 26 1011 54 10000 5.7 20 20:57 28.08.2019
2882 Clear 26 1012 54 10000 6.7 360 20:38 28.08.2019
2883 Clear 25 1012 54 10000 5.1 360 20:20 28.08.2019
2884 Clear 25 1013 64 10000 6.2 10 19:42 28.08.2019
2885 Clear 25 1013 64 10000 6.2 10 19:22 28.08.2019
2886 Clear 23 1015 68 10000 6.2 10 18:59 28.08.2019
2887 Clear 23 1015 68 10000 6.2 10 18:39 28.08.2019
2888 Clear 23 1015 60 10000 6.7 360 18:21 28.08.2019
2889 Clear 22 1016 68 10000 7.7 10 17:39 28.08.2019
2890 Clear 20 1016 77 10000 8.2 360 17:19 28.08.2019
2891 Clear 20 1016 77 10000 8.2 360 16:55 28.08.2019
2892 Clear 20 1016 77 10000 8.2 360 16:37 28.08.2019
2893 Clear 18 1017 77 10000 5.7 10 16:18 28.08.2019
2894 Clear 18 1016 87 10000 7.7 10 15:38 28.08.2019
2895 Clear 16 1016 87 10000 8.2 20 15:20 28.08.2019
2896 Clear 16 1016 87 10000 8.2 20 14:57 28.08.2019
2897 Clear 16 1016 87 10000 8.2 20 14:39 28.08.2019
2898 Clear 15 1017 93 10000 6.7 20 14:20 28.08.2019
2899 Clear 15 1017 93 10000 6.7 20 13:58 28.08.2019
2900 Clear 15 1017 93 10000 6.7 20 13:38 28.08.2019
2901 Clouds 14 1017 100 10000 3.6 20 13:19 28.08.2019
2902 Clouds 14 1017 100 10000 4.6 20 12:42 28.08.2019
2903 Clouds 13 1017 100 10000 4.6 20 12:24 28.08.2019
2904 Clear 13 1017 100 10000 5.1 20 11:57 28.08.2019
2905 Clear 14 1017 100 10000 4.6 10 11:39 28.08.2019
2906 Clear 14 1016 100 10000 5.1 20 11:20 28.08.2019
2907 -273 0 0 0 0 0 10:55 28.08.2019
2908 Clear 14 1016 100 10000 5.1 20 10:37 28.08.2019
2909 Clear 14 1017 93 10000 6.2 30 10:18 28.08.2019
2910 Clear 14 1017 93 10000 6.2 30 09:41 28.08.2019
2911 Clear 15 1018 93 10000 4.1 30 09:20 28.08.2019
2912 Clear 15 1018 93 10000 4.1 30 08:40 28.08.2019
2913 Clear 15 1019 93 10000 3.1 30 08:21 28.08.2019
2914 Clear 15 1019 93 10000 3.1 30 07:59 28.08.2019
2915 Clear 15 1019 93 10000 3.1 30 07:37 28.08.2019
2916 Clear 15 1019 93 10000 3.6 20 07:18 28.08.2019
2917 Clear 15 1019 93 10000 3.6 20 06:44 28.08.2019
2918 Clear 16 1019 87 10000 4.1 40 05:52 28.08.2019
2919 Clear 16 1020 93 8000 3.1 40 04:28 28.08.2019
2920 Mist 14 1022 100 2000 0.5 90 01:56 28.08.2019
2921 Mist 15 1022 100 2000 0.5 90 01:30 28.08.2019
2922 Fog 15 1022 88 5000 3.6 120 00:43 28.08.2019
2923 Smoke 16 1022 100 500 3.1 110 00:21 28.08.2019
2924 Smoke 16 1022 93 400 2.6 120 23:43 27.08.2019
2925 Smoke 17 1022 93 400 2.6 120 23:22 27.08.2019
2926 Smoke 17 1022 93 400 2.6 120 23:22 27.08.2019
2927 Mist 17 1022 87 5000 3.1 110 22:57 27.08.2019
2928 Mist 17 1022 72 5000 3.6 100 22:39 27.08.2019
2929 Mist 17 1022 72 5000 3.6 100 22:39 27.08.2019
2930 Mist 18 1022 82 5000 3.1 130 22:20 27.08.2019
2931 Mist 17 1022 82 5000 3.1 130 21:56 27.08.2019
2932 Mist 17 1022 72 5000 4.1 110 21:37 27.08.2019
2933 Mist 18 1022 68 5000 3.6 180 21:18 27.08.2019
2934 Mist 18 1022 68 5000 3.6 180 20:42 27.08.2019
2935 Mist 20 1023 73 5000 2.1 160 20:22 27.08.2019
2936 Mist 20 1023 73 5000 2.1 160 19:59 27.08.2019
2937 Mist 20 1023 73 5000 2.1 160 19:40 27.08.2019
2938 Mist 20 1023 73 5000 2.1 160 19:22 27.08.2019
2939 Mist 21 1024 68 5000 3.1 180 18:55 27.08.2019
2940 Mist 21 1024 68 5000 3.1 180 18:36 27.08.2019
2941 Mist 19 1024 68 7000 2.1 140 18:18 27.08.2019
2942 Mist 20 1024 77 5000 1.5 180 17:42 27.08.2019
2943 Mist 19 1024 77 5000 1.5 180 17:22 27.08.2019
2944 Clouds 19 1025 77 10000 6.71 108.999 16:48 27.08.2019
2945 Clouds 19 1025 77 10000 6.71 108.999 16:28 27.08.2019
2946 Clear 17 1025 82 10000 6.71 108.999 15:58 27.08.2019
2947 Clouds 16 1025 100 3500 1 40 15:40 27.08.2019
2948 Clouds 16 1025 100 10000 1.13 133.092 15:21 27.08.2019
2949 Clouds 16 1025 100 10000 1.13 133.092 14:58 27.08.2019
2950 Mist 15 1025 93 1500 1.5 30 14:40 27.08.2019
2951 Mist 13 1025 100 3000 1 360 14:20 27.08.2019
2952 Mist 13 1025 100 3000 1 360 14:20 27.08.2019
2953 Fog 13 1024 100 200 0.5 30 13:42 27.08.2019
2954 Fog 12 1024 100 200 1 20 13:23 27.08.2019
2955 Fog 12 1024 100 200 1 20 13:23 27.08.2019
2956 Fog 11 1023 100 200 0.5 70 12:55 27.08.2019
2957 Fog 11 1023 100 200 0.5 70 12:37 27.08.2019
2958 Fog 11 1023 100 500 1.76 0.715 12:18 27.08.2019
2959 Fog 12 1023 100 200 1.76 0.715 11:43 27.08.2019
2960 Fog 12 1023 100 200 1.76 0.715 11:24 27.08.2019
2961 Fog 13 1022 100 200 1.76 0.715 10:42 27.08.2019
2962 Fog 13 1022 100 200 1.76 0.715 10:21 27.08.2019
2963 Fog 13 1022 100 200 1.76 0.715 09:58 27.08.2019
2964 Fog 13 1021 100 400 1.76 0.715 09:38 27.08.2019
2965 Fog 13 1021 100 200 1 344.424 09:20 27.08.2019
2966 Fog 13 1021 100 200 1 344.424 08:54 27.08.2019
2967 Fog 13 1021 100 100 1 344.424 08:36 27.08.2019
2968 Fog 13 1021 100 100 1 344.424 08:18 27.08.2019
2969 Fog 12 1021 100 100 1 344.424 07:39 27.08.2019
2970 Fog 12 1021 100 100 1 344.424 07:19 27.08.2019
2971 Fog 12 1021 100 50 1 344.424 06:51 27.08.2019
2972 Fog 13 1021 100 50 0.78 297.717 06:23 27.08.2019
2973 Fog 13 1021 100 100 0.78 297.717 05:36 27.08.2019
2974 Fog 13 1020 100 50 0.78 297.717 04:37 27.08.2019
2975 Mist 15 1020 93 4000 2.1 70 03:34 27.08.2019
2976 Clear 15 1020 93 10000 2.6 100 02:23 27.08.2019
2977 Clear 16 1019 87 10000 2.6 120 01:40 27.08.2019
2978 Clouds 15 1018 93 6000 2.6 120 00:58 27.08.2019
2979 Clouds 15 1018 93 6000 2.6 120 00:39 27.08.2019
2980 Clear 16 1018 87 10000 3.1 110 00:19 27.08.2019
2981 Clear 16 1018 82 10000 2.1 190 23:37 26.08.2019
2982 Clouds 18 1018 77 10000 3.1 150 23:19 26.08.2019
2983 Clouds 19 1017 68 10000 3.1 250 22:39 26.08.2019
2984 Clouds 19 1017 68 10000 3.1 250 22:19 26.08.2019
2985 Clouds 20 1017 68 10000 2.6 320 21:57 26.08.2019
2986 Clouds 19 1017 68 10000 2.6 320 21:37 26.08.2019
2987 Clouds 19 1017 68 10000 3.1 310 21:19 26.08.2019
2988 Clouds 19 1017 68 10000 3.1 310 20:55 26.08.2019
2989 Clouds 20 1017 68 10000 3.1 310 20:37 26.08.2019
2990 Clouds 20 1017 68 10000 3.1 310 20:37 26.08.2019
2991 Clouds 20 1017 68 10000 3.1 310 20:37 26.08.2019
2992 Clouds 19 1018 77 10000 3.1 360 20:18 26.08.2019
2993 Clouds 19 1018 77 10000 3.1 360 19:42 26.08.2019
2994 Clouds 19 1018 77 10000 3.1 360 19:19 26.08.2019
2995 Clouds 18 1019 88 10000 4.1 360 18:58 26.08.2019
2996 Clouds 18 1019 88 10000 4.1 360 18:38 26.08.2019
2997 Clouds 17 1019 88 10000 4.1 360 18:19 26.08.2019
2998 Clouds 16 1019 93 10000 5.1 20 17:44 26.08.2019
2999 Clouds 16 1019 93 10000 5.1 20 17:20 26.08.2019
3000 Drizzle 15 1020 100 3000 5.7 10 16:57 26.08.2019
3001 Drizzle 15 1020 100 3000 5.7 10 16:57 26.08.2019
3002 Drizzle 15 1020 87 10000 6.2 20 16:39 26.08.2019
3003 Drizzle 15 1020 87 10000 6.2 20 16:19 26.08.2019
3004 -273 0 0 0 0 0 15:55 26.08.2019
3005 Clouds 15 1020 87 10000 5.7 10 15:37 26.08.2019
3006 Clouds 15 1020 87 10000 5.7 10 15:18 26.08.2019
3007 Clouds 15 1019 87 10000 5.7 20 14:43 26.08.2019
3008 Clouds 15 1019 87 10000 5.7 20 14:23 26.08.2019
3009 Clouds 15 1019 87 10000 5.7 10 13:56 26.08.2019
3010 Clouds 15 1019 87 10000 5.7 10 13:36 26.08.2019
3011 Clouds 15 1019 100 10000 4.6 10 13:18 26.08.2019
3012 Clouds 15 1019 100 10000 4.6 10 12:42 26.08.2019
3013 Clouds 15 1019 100 10000 4.6 10 12:21 26.08.2019
3014 Clear 15 1018 87 10000 4.1 20 11:43 26.08.2019
3015 Clear 15 1018 87 10000 4.1 20 11:25 26.08.2019
3016 Clear 15 1018 87 10000 4.1 20 11:25 26.08.2019
3017 Clear 15 1018 87 10000 2.6 30 10:58 26.08.2019
3018 Clear 15 1018 87 10000 2.6 30 10:40 26.08.2019
3019 Clear 15 1018 87 10000 2.6 30 10:19 26.08.2019
3020 Clear 15 1018 87 10000 2.6 30 10:19 26.08.2019
3021 Clear 15 1018 87 10000 3.6 20 09:45 26.08.2019
3022 Clear 15 1018 87 10000 3.6 20 09:25 26.08.2019
3023 Clear 15 1019 87 10000 3.1 30 08:59 26.08.2019
3024 Clear 15 1019 87 10000 3.1 30 08:41 26.08.2019
3025 Clear 15 1019 87 10000 3.1 30 08:22 26.08.2019
3026 Clear 15 1020 82 10000 5.7 20 07:45 26.08.2019
3027 Clear 15 1020 82 10000 5.7 20 07:25 26.08.2019
3028 Clear 15 1020 82 10000 5.1 30 06:58 26.08.2019
3029 Clear 15 1020 82 10000 5.1 30 06:39 26.08.2019
3030 Clear 15 1020 82 10000 5.7 40 06:19 26.08.2019
3031 Clear 15 1020 82 10000 5.7 40 05:48 26.08.2019
3032 Clear 16 1019 77 10000 3.1 50 04:22 26.08.2019
3033 Clear 15 1020 77 10000 4.1 50 02:42 26.08.2019
3034 Clear 15 1020 77 10000 2.6 60 01:25 26.08.2019
3035 Clear 15 1019 87 10000 4.1 90 00:45 26.08.2019
3036 Clear 15 1019 87 10000 4.1 90 00:27 26.08.2019
3037 Clear 16 1019 77 10000 6.2 90 23:55 25.08.2019
3038 Clear 16 1019 77 10000 6.2 90 23:36 25.08.2019
3039 Clear 16 1019 77 10000 6.2 90 23:18 25.08.2019
3040 Clouds 17 1019 67 10000 8.2 80 22:41 25.08.2019
3041 Clouds 17 1019 67 10000 8.2 80 22:21 25.08.2019
3042 Clouds 18 1019 63 10000 3.6 60 21:59 25.08.2019
3043 Clouds 18 1019 63 10000 3.6 60 21:41 25.08.2019
3044 Clouds 18 1019 63 10000 3.6 60 21:41 25.08.2019
3045 Clouds 19 1020 59 10000 5.1 60 21:19 25.08.2019
3046 Clouds 19 1020 59 10000 5.1 60 20:57 25.08.2019
3047 Clouds 19 1020 59 10000 5.1 60 20:39 25.08.2019
3048 Clouds 19 1020 59 10000 5.1 60 20:19 25.08.2019
3049 Clouds 19 1020 59 10000 6.2 60 19:55 25.08.2019
3050 Clouds 19 1020 59 10000 6.2 60 19:36 25.08.2019
3051 Clouds 19 1020 59 10000 6.2 60 19:18 25.08.2019
3052 Clouds 19 1021 59 10000 6.7 60 18:55 25.08.2019
3053 Clouds 18 1021 59 10000 6.7 60 18:37 25.08.2019
3054 Clouds 18 1022 59 10000 6.2 60 18:18 25.08.2019
3055 Clouds 18 1022 59 10000 6.2 60 17:40 25.08.2019
3056 Clouds 18 1022 59 10000 6.2 60 17:40 25.08.2019
3057 Clouds 17 1022 59 10000 6.2 60 17:21 25.08.2019
3058 Clear 17 1022 59 10000 6.7 50 16:41 25.08.2019
3059 Clear 16 1022 59 10000 6.7 50 16:23 25.08.2019
3060 Clouds 15 1023 71 10000 4.1 60 15:57 25.08.2019
3061 Clouds 15 1023 71 10000 4.1 60 15:38 25.08.2019
3062 Clouds 14 1023 71 10000 4.1 60 15:20 25.08.2019
3063 Clear 13 1023 71 10000 4.6 80 14:40 25.08.2019
3064 Clear 13 1023 71 10000 4.6 80 14:22 25.08.2019
3065 Clear 12 1023 81 10000 3.6 90 13:46 25.08.2019
3066 Clear 12 1023 81 10000 3.6 90 13:22 25.08.2019
3067 Clear 11 1023 87 10000 4.1 90 12:56 25.08.2019
3068 Clear 11 1023 87 10000 4.1 90 12:38 25.08.2019
3069 Clear 11 1023 87 10000 4.1 90 12:20 25.08.2019
3070 Clear 11 1023 81 10000 3.6 80 11:56 25.08.2019
3071 Clear 11 1023 81 10000 3.6 80 11:36 25.08.2019
3072 Clear 11 1023 81 10000 3.6 80 11:18 25.08.2019
3073 Clear 11 1023 87 10000 2.6 100 10:55 25.08.2019
3074 Clear 10 1023 87 10000 2.6 100 10:36 25.08.2019
3075 Clear 10 1023 87 10000 2.6 100 10:18 25.08.2019
3076 Clear 11 1023 87 10000 7.36 35.29 09:42 25.08.2019
3077 Clear 11 1023 87 10000 6.61 34.764 09:23 25.08.2019
3078 Clear 11 1024 81 10000 6.61 34.764 08:44 25.08.2019
3079 Clear 11 1024 81 10000 6.61 34.764 08:23 25.08.2019
3080 Clear 11 1023 76 10000 2.1 50 07:46 25.08.2019
3081 Clear 12 1023 76 10000 2.1 50 07:23 25.08.2019
3082 Clear 12 1023 76 10000 3.1 50 06:37 25.08.2019
3083 Clear 12 1023 76 10000 6.2 60 05:27 25.08.2019
3084 Clear 13 1023 62 10000 7.2 60 03:43 25.08.2019
3085 Clear 13 1024 66 10000 5.1 70 02:42 25.08.2019
3086 Clear 14 1023 58 10000 5.1 70 01:45 25.08.2019
3087 Clear 15 1024 51 10000 3.6 90 00:44 25.08.2019
3088 Clear 15 1024 51 10000 3.6 90 00:22 25.08.2019
3089 Clear 15 1023 48 10000 3.6 90 23:54 24.08.2019
3090 Clear 16 1023 48 10000 3.6 90 23:24 24.08.2019
3091 Clear 16 1024 39 10000 3.6 60 22:59 24.08.2019
3092 Clear 17 1024 39 10000 3.6 60 22:40 24.08.2019
3093 Clear 17 1023 36 10000 5.1 60 22:19 24.08.2019
3094 Clear 17 1023 36 10000 5.1 60 22:19 24.08.2019
3095 Clear 17 1023 36 10000 5.1 60 21:58 24.08.2019
3096 Clear 17 1023 36 10000 5.1 60 21:39 24.08.2019
3097 Clear 16 1023 36 10000 5.1 60 21:21 24.08.2019
3098 Clear 17 1024 39 10000 5.1 60 20:57 24.08.2019
3099 Clear 17 1024 39 10000 5.1 60 20:38 24.08.2019
3100 Clear 17 1024 42 10000 6.2 60 20:19 24.08.2019
3101 Clear 16 1024 42 10000 6.2 60 19:57 24.08.2019
3102 Clear 16 1024 42 10000 6.2 60 19:38 24.08.2019
3103 Clear 17 1025 55 10000 4.6 60 19:20 24.08.2019
3104 Clear 16 1025 55 10000 4.6 60 18:46 24.08.2019
3105 Clear 16 1025 55 10000 4.6 60 18:24 24.08.2019
3106 Clear 15 1026 62 10000 3.6 60 17:46 24.08.2019
3107 Clear 16 1026 62 10000 3.6 60 17:27 24.08.2019
3108 Clear 14 1026 71 10000 6.2 30 16:56 24.08.2019
3109 Clear 14 1026 71 10000 6.2 30 16:37 24.08.2019
3110 Clear 14 1026 71 10000 6.2 30 16:19 24.08.2019
3111 Clear 13 1027 76 10000 6.2 50 15:44 24.08.2019
3112 Clear 13 1027 76 10000 6.2 50 15:25 24.08.2019
3113 Clear 11 1026 87 10000 5.7 30 14:57 24.08.2019
3114 Clear 11 1026 87 10000 5.7 30 14:39 24.08.2019
3115 Clear 10 1026 87 10000 5.7 30 14:18 24.08.2019
3116 Clear 9 1026 93 10000 4.1 60 13:54 24.08.2019
3117 Clear 9 1026 93 10000 4.1 60 13:36 24.08.2019
3118 Clear 9 1026 87 10000 2.1 30 13:18 24.08.2019
3119 Clear 8 1026 87 10000 2.1 30 12:40 24.08.2019
3120 Clear 7 1026 87 10000 2.1 30 12:22 24.08.2019
3121 Clear 8 1025 87 10000 0.5 30 11:52 24.08.2019
3122 Clear 8 1025 87 10000 0.5 30 11:32 24.08.2019
3123 Clear 7 1025 93 10000 6.07 12.426 10:59 24.08.2019
3124 Clear 8 1025 93 10000 6.07 12.426 10:40 24.08.2019
3125 Clear 8 1025 93 10000 6.07 12.426 10:21 24.08.2019
3126 Clear 8 1024 87 10000 6.07 12.426 09:42 24.08.2019
3127 Clear 8 1024 87 10000 4.53 21.823 09:19 24.08.2019
3128 Clear 8 1024 87 10000 4.53 21.823 09:19 24.08.2019
3129 Clear 8 1025 87 10000 4.53 21.823 08:43 24.08.2019
3130 Clear 8 1025 87 10000 4.53 21.823 08:25 24.08.2019
3131 Clear 9 1025 81 10000 4.53 21.823 07:53 24.08.2019
3132 Clear 9 1025 81 10000 4.53 21.823 07:30 24.08.2019
3133 Clear 9 1025 81 10000 4.53 21.823 06:52 24.08.2019
3134 Clear 9 1025 81 10000 4.15 45.811 06:21 24.08.2019
3135 Clear 9 1025 76 10000 4.15 45.811 05:36 24.08.2019
3136 Clear 10 1025 87 10000 0.5 110 03:48 24.08.2019
3137 Clear 10 1025 87 10000 0.5 110 03:28 24.08.2019
3138 Clear 10 1025 76 10000 1 120 02:19 24.08.2019
3139 Clear 11 1024 76 10000 0.5 120 01:29 24.08.2019
3140 Clear 11 1025 71 10000 2.6 120 00:48 24.08.2019
3141 Clear 11 1025 71 10000 2.6 120 00:24 24.08.2019
3142 Clear 12 1024 54 10000 2.6 140 23:47 23.08.2019
3143 Clear 12 1024 54 10000 2.6 140 23:21 23.08.2019
3144 Clear 13 1024 58 10000 3.1 160 22:46 23.08.2019
3145 Clear 13 1024 58 10000 3.1 160 22:27 23.08.2019
3146 Clear 14 1025 48 10000 3.1 170 21:56 23.08.2019
3147 Clear 15 1025 48 10000 3.1 170 21:37 23.08.2019
3148 Clear 15 1025 51 10000 1.5 0 21:19 23.08.2019
3149 Clear 15 1025 51 10000 1.5 0 20:53 23.08.2019
3150 Clear 15 1025 51 10000 1.5 0 20:35 23.08.2019
3151 Clear 16 1026 51 10000 1 0 19:54 23.08.2019
3152 Clear 15 1026 51 10000 1 0 19:36 23.08.2019
3153 Clear 16 1026 51 10000 1 0 19:18 23.08.2019
3154 Clear 16 1026 51 10000 1 0 19:18 23.08.2019
3155 Clear 15 1026 51 10000 1 0 18:42 23.08.2019
3156 Clear 15 1026 51 10000 1 0 18:24 23.08.2019
3157 Clear 13 1027 66 10000 1 0 17:46 23.08.2019
3158 Clear 13 1027 66 10000 1 0 17:28 23.08.2019
3159 Clouds 12 1027 76 8000 1 0 16:59 23.08.2019
3160 Clouds 12 1027 76 8000 1 0 16:40 23.08.2019
3161 Clouds 12 1027 76 8000 1 0 16:22 23.08.2019
3162 Mist 9 1027 93 5000 1.5 350 15:41 23.08.2019
3163 Mist 8 1027 93 5000 1.5 350 15:22 23.08.2019
3164 Mist 7 1027 100 2000 1.5 360 14:58 23.08.2019
3165 Mist 7 1027 100 2000 1.5 360 14:39 23.08.2019
3166 Mist 6 1027 100 2000 1.5 360 14:20 23.08.2019
3167 Fog 4 1027 100 50 2.1 360 13:56 23.08.2019
3168 Fog 5 1027 100 50 2.1 360 13:37 23.08.2019
3169 Fog 5 1027 100 50 2.1 360 13:19 23.08.2019
3170 Clear 4 1027 100 50 1.5 30 12:42 23.08.2019
3171 Clear 4 1027 100 50 1.5 30 12:24 23.08.2019
3172 Clear 4 1026 94 0 0.45 1 11:59 23.08.2019
3173 Clear 4 1020 100 0 0.89 351 11:40 23.08.2019
3174 Clear 4 1020 100 0 0.89 336 11:20 23.08.2019
3175 Clear 4 1026 96 0 0.45 1 10:57 23.08.2019
3176 Mist 3 1026 100 2500 1.5 10 10:39 23.08.2019
3177 Mist 3 1026 100 2500 1.5 10 10:20 23.08.2019
3178 Mist 3 1026 100 0 1.5 10 09:44 23.08.2019
3179 Mist 5 1026 100 0 1.5 10 09:25 23.08.2019
3180 Fog 4 1026 100 300 1.5 10 08:56 23.08.2019
3181 Clear 7 1026 96 0 3.06 295.227 08:37 23.08.2019
3182 Clear 7 1026 96 0 3.06 295.227 08:37 23.08.2019
3183 Clear 4 1026 96 0 3.06 295.227 08:18 23.08.2019
3184 Clear 5 1027 96 0 3.06 295.227 07:41 23.08.2019
3185 Clear 5 1021 97 0 3.06 295.227 07:23 23.08.2019
3186 Clear 4 1027 96 0 1.34 1 06:43 23.08.2019
3187 Clear 7 1027 96 0 0.89 11 06:23 23.08.2019
3188 Clear 6 1028 96 0 1.34 64 05:46 23.08.2019
3189 Clear 6 1028 95 0 0.89 110 05:27 23.08.2019
3190 Clear 7 1028 95 0 0.45 117 04:19 23.08.2019
3191 Fog 8 1027 100 250 0.35 274.885 02:41 23.08.2019
3192 Fog 8 1027 100 250 0.35 274.885 02:21 23.08.2019
3193 Fog 9 1027 100 250 0.35 274.885 01:37 23.08.2019
3194 Clear 9 1027 87 10000 2.1 140 00:44 23.08.2019
3195 Clear 10 1027 76 10000 2.6 200 00:18 23.08.2019
3196 Clear 10 1027 76 10000 2.6 200 23:43 22.08.2019
3197 Clear 11 1027 76 10000 2.6 200 23:23 22.08.2019
3198 Clear 13 1027 51 10000 1.5 300 22:55 22.08.2019
3199 Clear 13 1027 51 10000 1.5 300 22:37 22.08.2019
3200 Clouds 13 1027 51 10000 2.6 360 22:19 22.08.2019
3201 Clear 13 1027 51 10000 1.5 300 22:19 22.08.2019
3202 Clouds 13 1027 51 10000 2.6 360 21:42 22.08.2019
3203 Clouds 13 1027 51 10000 2.6 360 21:23 22.08.2019
3204 Clouds 12 1027 67 10000 1.5 350 20:59 22.08.2019
3205 Clouds 13 1027 67 10000 1.5 350 20:41 22.08.2019
3206 Clouds 13 1027 67 10000 1.5 350 20:20 22.08.2019
3207 Clouds 13 1028 71 9000 1.5 100 19:59 22.08.2019
3208 Clouds 12 1028 71 9000 1.5 100 19:40 22.08.2019
3209 Clouds 12 1028 71 9000 1.5 100 19:21 22.08.2019
3210 Clouds 11 1029 81 6000 2.1 120 18:59 22.08.2019
3211 Clouds 11 1029 81 6000 2.1 120 18:40 22.08.2019
3212 Clouds 11 1029 81 6000 2.1 120 18:20 22.08.2019
3213 Mist 10 1030 87 5000 1.5 150 17:57 22.08.2019
3214 Mist 10 1030 87 5000 1.5 150 17:57 22.08.2019
3215 Mist 11 1030 87 5000 1.5 150 17:39 22.08.2019
3216 Mist 10 1031 93 10000 1.5 160 17:19 22.08.2019
3217 Mist 10 1031 93 10000 1.5 160 16:56 22.08.2019
3218 Mist 10 1030 93 3000 1.5 130 16:37 22.08.2019
3219 Mist 9 1030 93 3000 1.5 130 16:19 22.08.2019
3220 Mist 9 1030 93 3000 1.5 130 16:19 22.08.2019
3221 Mist 9 1030 93 3000 1.5 130 16:19 22.08.2019
3222 Mist 9 1030 93 3000 1.5 130 16:19 22.08.2019
3223 Mist 9 1030 100 3000 1.5 130 15:42 22.08.2019
3224 Mist 8 1030 100 3000 1.5 130 15:24 22.08.2019
3225 Mist 8 1030 100 3000 1.5 130 15:24 22.08.2019
3226 Mist 8 1029 100 5000 2.1 100 14:59 22.08.2019
3227 Mist 8 1029 100 5000 2.1 100 14:41 22.08.2019
3228 Mist 8 1029 100 5000 2.1 100 14:22 22.08.2019
3229 Mist 7 1028 100 1600 2.1 110 13:59 22.08.2019
3230 Fog 7 1029 100 2500 2.1 100 13:40 22.08.2019
3231 Fog 7 1029 100 2500 2.1 100 13:20 22.08.2019
3232 Fog 7 1029 100 2500 2.1 100 13:20 22.08.2019
3233 Fog 7 1029 100 4000 1.5 80 12:56 22.08.2019
3234 Fog 6 1028 100 400 2.1 90 12:38 22.08.2019
3235 Fog 6 1028 100 400 2.1 90 12:19 22.08.2019
3236 Clouds 6 1028 93 0 4.92 67 11:42 22.08.2019
3237 Clouds 7 1028 93 0 4.02 53 11:21 22.08.2019
3238 Clouds 7 1022 100 0 0.89 104 10:58 22.08.2019
3239 Clouds 7 1028 93 0 4.92 51 10:40 22.08.2019
3240 Clouds 7 1028 93 0 4.92 51 10:40 22.08.2019
3241 Clouds 7 1028 92 0 4.02 60 10:22 22.08.2019
3242 Clouds 7 1028 92 0 4.02 53 09:57 22.08.2019
3243 Clouds 7 1028 92 0 3.58 68 09:39 22.08.2019
3244 Clouds 7 1028 92 0 3.13 64 09:20 22.08.2019
3245 Clouds 7 1022 100 0 0.89 124 08:54 22.08.2019
3246 Clouds 7 1022 100 0 0.89 101 08:36 22.08.2019
3247 Clouds 7 1028 93 10000 2.1 100 08:18 22.08.2019
3248 Clouds 7 1028 93 10000 2.1 100 07:39 22.08.2019
3249 Clear 7 1028 93 10000 2.1 100 07:19 22.08.2019
3250 Clear 7 1028 93 10000 2.1 100 06:48 22.08.2019
3251 Clear 7 1028 93 10000 2.1 100 06:23 22.08.2019
3252 Clear 7 1028 87 10000 3.6 100 05:36 22.08.2019
3253 Clouds 8 1029 87 10000 4.1 110 04:20 22.08.2019
3254 Clear 8 1029 87 10000 4.1 120 02:38 22.08.2019
3255 Clear 8 1029 81 10000 3.6 130 01:45 22.08.2019
3256 Clear 8 1029 81 10000 3.6 130 01:21 22.08.2019
3257 Clear 8 1028 75 10000 5.1 120 00:41 22.08.2019
3258 Clear 8 1028 75 10000 5.1 120 00:22 22.08.2019
3259 Clear 8 1028 70 10000 5.1 110 23:48 21.08.2019
3260 Clear 9 1028 70 10000 5.1 110 23:29 21.08.2019
3261 Clear 9 1029 71 10000 4.1 120 22:59 21.08.2019
3262 Clear 9 1029 71 10000 4.1 120 22:40 21.08.2019
3263 Clear 9 1029 71 10000 4.1 120 22:21 21.08.2019
3264 Clouds 10 1029 66 10000 5.1 120 21:58 21.08.2019
3265 Clouds 10 1029 66 10000 5.1 120 21:38 21.08.2019
3266 Clouds 10 1029 66 10000 5.1 120 21:20 21.08.2019
3267 Clouds 10 1029 62 10000 4.6 120 20:58 21.08.2019
3268 Clouds 10 1029 62 10000 4.6 120 20:39 21.08.2019
3269 Clouds 10 1029 62 10000 4.6 120 20:20 21.08.2019
3270 Clouds 10 1030 62 10000 4.6 110 19:44 21.08.2019
3271 -273 0 0 0 0 0 19:25 21.08.2019
3272 Clouds 11 1030 57 10000 4.1 120 18:59 21.08.2019
3273 Clouds 11 1030 57 10000 4.1 120 18:40 21.08.2019
3274 Clouds 11 1030 57 10000 4.1 120 18:22 21.08.2019
3275 Clouds 10 1031 61 10000 3.1 120 17:45 21.08.2019
3276 Clouds 10 1031 61 10000 3.1 120 17:25 21.08.2019
3277 Clouds 10 1031 66 10000 4.1 150 16:59 21.08.2019
3278 Clouds 9 1031 66 10000 4.1 150 16:40 21.08.2019
3279 Clouds 10 1031 66 10000 4.1 150 16:21 21.08.2019
3280 Clouds 9 1031 65 10000 5.1 140 15:58 21.08.2019
3281 Clouds 9 1031 65 10000 5.1 140 15:39 21.08.2019
3282 Clouds 9 1031 65 10000 5.1 140 15:20 21.08.2019
3283 Clouds 8 1031 70 10000 4.1 140 14:57 21.08.2019
3284 Clouds 9 1031 70 10000 4.1 140 14:38 21.08.2019
3285 Clouds 8 1031 81 10000 1 0 14:19 21.08.2019
3286 Clouds 8 1031 81 10000 1 0 14:19 21.08.2019
3287 Clouds 8 1031 81 10000 1 0 13:44 21.08.2019
3288 Clouds 7 1031 81 10000 1 0 13:21 21.08.2019
3289 Clouds 6 1031 93 10000 1 0 12:59 21.08.2019
3290 Clouds 6 1031 93 10000 1 0 12:40 21.08.2019
3291 Clouds 6 1031 93 10000 1 0 12:21 21.08.2019
3292 Clouds 8 1030 65 10000 2.6 150 11:57 21.08.2019
3293 Clouds 7 1030 65 10000 2.6 150 11:39 21.08.2019
3294 Clouds 7 1030 65 10000 2.6 150 11:20 21.08.2019
3295 Clouds 7 1030 65 10000 2.1 150 10:56 21.08.2019
3296 Clouds 7 1030 65 10000 2.1 150 10:37 21.08.2019
3297 Clouds 7 1030 65 10000 2.1 150 10:19 21.08.2019
3298 Clouds 7 1030 65 10000 2.1 140 09:42 21.08.2019
3299 Clouds 7 1030 65 10000 2.1 140 09:23 21.08.2019
3300 Clouds 7 1030 70 10000 2.1 160 08:58 21.08.2019
3301 Clouds 7 1030 70 10000 2.1 160 08:39 21.08.2019
3302 Clouds 7 1030 70 10000 2.1 160 08:20 21.08.2019
3303 Clouds 7 1031 65 10000 3.1 150 07:40 21.08.2019
3304 Clouds 7 1031 65 10000 3.1 150 07:20 21.08.2019
3305 Clouds 8 1031 65 10000 3.1 150 06:48 21.08.2019
3306 Clouds 8 1031 65 10000 3.1 150 06:21 21.08.2019
3307 Clouds 8 1031 65 10000 3.1 160 05:42 21.08.2019
3308 Clouds 8 1031 65 10000 3.1 160 05:23 21.08.2019
3309 Clouds 7 1031 65 10000 3.1 140 03:28 21.08.2019
3310 Clouds 8 1032 61 10000 2.6 150 01:47 21.08.2019
3311 Clouds 8 1031 70 10000 2.6 130 00:45 21.08.2019
3312 Clouds 8 1031 70 10000 2.6 130 00:24 21.08.2019
3313 Clouds 8 1031 65 10000 3.6 180 23:57 20.08.2019
3314 Clouds 8 1031 65 10000 3.6 180 23:38 20.08.2019
3315 Clouds 8 1031 65 10000 3.6 180 23:18 20.08.2019
3316 Clouds 8 1031 65 10000 4.6 180 22:56 20.08.2019
3317 Clouds 8 1031 65 10000 4.6 180 22:37 20.08.2019
3318 Clouds 8 1031 65 10000 4.6 180 22:18 20.08.2019
3319 Clouds 8 1031 65 10000 3.6 180 21:57 20.08.2019
3320 Clouds 8 1031 65 10000 3.6 180 21:37 20.08.2019
3321 Clouds 8 1031 65 10000 3.6 180 21:19 20.08.2019
3322 Clouds 9 1030 65 10000 4.1 140 20:43 20.08.2019
3323 Clouds 9 1030 65 10000 4.1 140 20:24 20.08.2019
3324 Clouds 9 1031 61 10000 4.1 170 19:56 20.08.2019
3325 Clouds 9 1031 61 10000 4.1 170 19:38 20.08.2019
3326 Clouds 9 1031 61 10000 4.1 170 19:20 20.08.2019
3327 Clouds 8 1030 65 10000 4.1 150 18:55 20.08.2019
3328 Clouds 8 1030 65 10000 4.1 150 18:55 20.08.2019
3329 Clouds 8 1030 65 10000 4.1 150 18:55 20.08.2019
3330 Clouds 10 1031 75 0 4.02 163 18:36 20.08.2019
3331 Clouds 9 1031 65 10000 3.6 170 18:18 20.08.2019
3332 Clouds 8 1031 65 10000 3.6 170 17:39 20.08.2019
3333 Clouds 8 1032 70 10000 4.6 140 17:20 20.08.2019
3334 Clouds 8 1032 70 10000 4.6 140 16:58 20.08.2019
3335 Clouds 8 1032 70 10000 4.6 140 16:40 20.08.2019
3336 Clouds 8 1032 70 10000 4.6 140 16:22 20.08.2019
3337 Clouds 8 1032 75 10000 3.1 180 15:41 20.08.2019
3338 Clouds 8 1032 78 0 4.02 150 15:18 20.08.2019
3339 Clouds 8 1026 72 0 1.34 193 14:56 20.08.2019
3340 Clouds 8 1026 69 0 1.79 210 14:38 20.08.2019
3341 Clouds 8 1025 71 0 1.34 211 14:18 20.08.2019
3342 Clouds 8 1025 70 0 1.34 182 13:55 20.08.2019
3343 Clouds 8 1031 78 0 3.58 186 13:36 20.08.2019
3344 Clouds 7 1031 77 0 2.24 194 13:18 20.08.2019
3345 Clouds 7 1031 76 0 4.47 172 12:45 20.08.2019
3346 Clouds 7 1024 71 0 0.89 208 12:24 20.08.2019
3347 Clouds 7 1024 71 0 1.34 217 11:55 20.08.2019
3348 Clouds 7 1024 72 0 1.34 224 11:37 20.08.2019
3349 Clouds 7 1030 75 0 2.68 181 11:18 20.08.2019
3350 Clouds 7 1024 71 0 0.89 192 10:55 20.08.2019
3351 Clouds 7 1030 75 0 4.47 190 10:37 20.08.2019
3352 Clouds 7 1030 74 0 2.68 176 10:18 20.08.2019
3353 Clouds 7 1023 72 0 0.89 200 09:41 20.08.2019
3354 Clouds 7 1023 73 0 0.89 188 09:22 20.08.2019
3355 Clouds 7 1029 77 0 3.58 158 08:43 20.08.2019
3356 Clouds 7 1023 72 0 0.89 169 08:43 20.08.2019
3357 Clouds 7 1029 76 0 4.02 158 08:24 20.08.2019
3358 Clouds 7 1023 72 0 1.79 145 07:58 20.08.2019
3359 Clouds 7 1029 78 0 3.13 172 07:40 20.08.2019
3360 Clouds 7 1029 77 0 4.47 176 07:22 20.08.2019
3361 Clouds 7 1023 71 0 0.89 179 06:48 20.08.2019
3362 Clouds 7 1023 70 0 0.89 171 06:22 20.08.2019
3363 Clouds 7 1030 74 0 4.02 144 05:48 20.08.2019
3364 Clouds 7 1030 67 10000 0.5 160 04:45 20.08.2019
3365 Clouds 7 1030 67 10000 2.6 190 03:26 20.08.2019
3366 Clouds 7 1029 60 10000 2.6 180 02:25 20.08.2019
3367 Clouds 6 1029 64 10000 3.6 160 01:22 20.08.2019
3368 Clouds 6 1029 75 10000 3.6 180 00:45 20.08.2019
3369 Clouds 6 1029 75 10000 3.6 180 00:26 20.08.2019
3370 Clouds 7 1028 63 10000 4.1 180 23:52 19.08.2019
3371 Clouds 7 1028 63 10000 4.1 180 23:52 19.08.2019
3372 Clouds 7 1028 56 10000 2.6 180 23:19 19.08.2019
3373 Clouds 7 1028 56 10000 2.6 180 22:59 19.08.2019
3374 Clouds 8 1028 65 10000 4.1 160 22:41 19.08.2019
3375 Clouds 8 1028 65 10000 3.1 180 22:21 19.08.2019
3376 Clouds 8 1028 65 10000 3.1 180 21:58 19.08.2019
3377 Clouds 8 1028 65 10000 3.1 180 21:39 19.08.2019
3378 Clouds 8 1029 65 10000 5.1 210 21:20 19.08.2019
3379 Clouds 8 1029 65 10000 5.1 210 20:58 19.08.2019
3380 Clouds 8 1029 65 10000 5.1 210 20:38 19.08.2019
3381 Clouds 8 1030 63 10000 3.6 200 20:19 19.08.2019
3382 Clouds 8 1030 63 10000 3.6 200 19:55 19.08.2019
3383 Clouds 8 1030 63 10000 3.6 200 19:55 19.08.2019
3384 Clouds 8 1030 63 10000 3.6 200 19:37 19.08.2019
3385 Clouds 8 1030 63 10000 3.6 200 19:18 19.08.2019
3386 Clouds 8 1030 70 10000 3.1 180 18:42 19.08.2019
3387 Clouds 8 1030 49 10000 3.1 210 18:24 19.08.2019
3388 Clouds 8 1030 49 10000 3.1 210 17:58 19.08.2019
3389 Clouds 8 1030 52 10000 3.6 180 17:40 19.08.2019
3390 Clouds 8 1030 52 10000 3.6 180 17:19 19.08.2019
3391 Clouds 8 1030 52 10000 3.6 180 16:56 19.08.2019
3392 Clouds 8 1030 56 10000 4.6 190 16:37 19.08.2019
3393 Clouds 8 1030 56 10000 4.6 190 16:18 19.08.2019
3394 Clouds 8 1029 56 10000 2.6 160 15:45 19.08.2019
3395 Clouds 7 1029 56 10000 2.6 160 15:20 19.08.2019
3396 Clouds 7 1029 60 10000 2.1 210 14:57 19.08.2019
3397 Clouds 7 1029 60 10000 2.1 210 14:37 19.08.2019
3398 Clouds 7 1029 60 10000 2.1 210 14:19 19.08.2019
3399 Clouds 6 1029 65 10000 2.6 180 13:56 19.08.2019
3400 Clouds 6 1029 65 10000 2.6 180 13:36 19.08.2019
3401 Clouds 6 1029 65 10000 2.6 180 13:18 19.08.2019
3402 Clouds 6 1028 52 10000 4.1 220 12:43 19.08.2019
3403 Clouds 6 1028 52 10000 4.1 220 12:23 19.08.2019
3404 Clouds 6 1028 52 10000 4.1 220 11:56 19.08.2019
3405 Clouds 6 1029 56 10000 3.6 210 11:36 19.08.2019
3406 Clouds 6 1028 52 10000 3.6 200 11:18 19.08.2019
3407 Clouds 6 1028 52 10000 3.6 200 10:40 19.08.2019
3408 Clouds 6 1028 52 10000 3.6 200 10:19 19.08.2019
3409 Clouds 6 1028 56 10000 3.1 200 09:56 19.08.2019
3410 Clouds 6 1028 56 10000 3.1 200 09:38 19.08.2019
3411 Clouds 6 1028 56 10000 3.1 200 09:20 19.08.2019
3412 Clouds 7 1029 52 10000 4.6 180 08:45 19.08.2019
3413 Clouds 7 1029 52 10000 4.6 180 08:25 19.08.2019
3414 Clouds 7 1029 60 10000 4.6 170 07:57 19.08.2019
3415 Clouds 7 1029 60 10000 4.6 170 07:39 19.08.2019
3416 Clouds 7 1029 70 10000 4.6 180 07:19 19.08.2019
3417 Clouds 7 1029 70 10000 4.6 180 07:19 19.08.2019
3418 Clouds 7 1029 70 10000 4.6 180 06:36 19.08.2019
3419 Clouds 7 1029 70 10000 5.1 190 05:28 19.08.2019
3420 Clouds 7 1029 52 10000 5.1 180 04:34 19.08.2019
3421 Rain 7 1028 70 10000 4.1 180 03:58 19.08.2019
3422 Rain 7 1028 70 10000 4.1 180 03:18 19.08.2019
3423 Clouds 7 1027 56 10000 4.1 210 01:45 19.08.2019
3424 Clouds 7 1027 52 10000 7.7 180 00:59 19.08.2019
3425 Clouds 7 1027 52 10000 7.7 180 00:37 19.08.2019
3426 Clouds 8 1027 52 10000 7.7 180 00:18 19.08.2019
3427 Clouds 8 1026 63 10000 7.2 190 23:39 18.08.2019
3428 Clouds 8 1026 63 10000 7.2 190 23:20 18.08.2019
3429 Clouds 8 1026 52 10000 7.2 190 22:40 18.08.2019
3430 Drizzle 9 1026 52 10000 7.2 190 22:21 18.08.2019
3431 Drizzle 9 1025 76 10000 6.7 220 21:57 18.08.2019
3432 Drizzle 9 1025 76 10000 6.7 220 21:39 18.08.2019
3433 Drizzle 9 1025 76 10000 6.7 220 21:20 18.08.2019
3434 Clouds 9 1025 70 10000 8.2 220 20:57 18.08.2019
3435 Clouds 9 1025 70 10000 8.2 220 20:38 18.08.2019
3436 Clouds 9 1025 70 10000 8.2 220 20:20 18.08.2019
3437 Rain 9 1025 71 10000 7.2 220 19:42 18.08.2019
3438 Rain 9 1025 71 10000 7.2 220 19:23 18.08.2019
3439 Clouds 10 1025 70 10000 6.2 210 18:57 18.08.2019
3440 Clouds 10 1025 70 10000 6.2 210 18:39 18.08.2019
3441 Clouds 10 1025 70 10000 6.2 210 18:21 18.08.2019
3442 Clouds 10 1024 76 10000 5.1 210 17:55 18.08.2019
3443 Clouds 10 1024 76 10000 5.1 210 17:36 18.08.2019
3444 Clouds 10 1024 76 10000 5.1 210 17:18 18.08.2019
3445 Clouds 10 1024 76 10000 6.2 220 16:43 18.08.2019
3446 Clouds 10 1024 76 10000 6.2 220 16:24 18.08.2019
3447 Clouds 10 1023 81 10000 7.2 220 15:59 18.08.2019
3448 Clouds 10 1023 81 10000 7.2 220 15:39 18.08.2019
3449 Clouds 10 1023 81 10000 7.2 220 15:20 18.08.2019
3450 Clouds 10 1023 81 10000 5.1 220 14:58 18.08.2019
3451 Clouds 10 1023 81 10000 5.1 220 14:38 18.08.2019
3452 Clouds 9 1023 81 10000 5.1 220 14:19 18.08.2019
3453 Clouds 9 1022 87 10000 2.1 240 13:56 18.08.2019
3454 Clouds 9 1022 87 10000 2.1 240 13:38 18.08.2019
3455 Clouds 9 1021 93 10000 4.1 210 13:19 18.08.2019
3456 Clouds 9 1021 93 10000 4.1 210 12:45 18.08.2019
3457 Clouds 9 1021 93 10000 4.1 210 12:22 18.08.2019
3458 Clouds 9 1019 76 10000 5.1 200 11:56 18.08.2019
3459 Clouds 9 1019 76 10000 5.1 200 11:37 18.08.2019
3460 Clouds 9 1019 76 10000 5.1 200 11:19 18.08.2019
3461 Clouds 9 1018 81 10000 4.1 210 10:41 18.08.2019
3462 Clouds 9 1018 81 10000 4.6 190 10:22 18.08.2019
3463 Clouds 9 1018 81 10000 4.6 190 09:53 18.08.2019
3464 Clouds 9 1018 81 10000 4.6 190 09:24 18.08.2019
3465 Clouds 9 1017 76 10000 5.1 180 08:59 18.08.2019
3466 Clouds 9 1017 76 10000 5.1 180 08:41 18.08.2019
3467 Clouds 9 1017 76 10000 5.1 180 08:23 18.08.2019
3468 Clouds 9 1017 81 10000 5.1 190 07:49 18.08.2019
3469 Clouds 9 1017 81 10000 5.1 190 07:29 18.08.2019
3470 Clouds 9 1016 87 10000 4.1 190 05:49 18.08.2019
3471 Clouds 9 1015 87 10000 4.6 190 04:55 18.08.2019
3472 Clouds 10 1014 87 10000 5.1 180 03:43 18.08.2019
3473 Clouds 11 1013 93 10000 3.6 220 02:48 18.08.2019
3474 Clouds 11 1013 93 10000 3.6 220 02:25 18.08.2019
3475 Clouds 10 1012 93 10000 2.1 240 01:47 18.08.2019
3476 Clouds 10 1012 93 10000 2.1 240 01:20 18.08.2019
3477 Clouds 11 1011 93 10000 5.8 162.747 00:38 18.08.2019
3478 Clouds 11 1011 93 10000 5.99 180.641 00:19 18.08.2019
3479 Clouds 11 1011 93 10000 5.99 180.641 23:57 17.08.2019
3480 Clouds 11 1011 93 10000 5.99 180.641 23:37 17.08.2019
3481 Clouds 11 1011 93 10000 5.99 180.641 23:18 17.08.2019
3482 Clouds 11 1010 93 10000 2.6 200 22:56 17.08.2019
3483 Clouds 11 1010 93 10000 2.6 200 22:38 17.08.2019
3484 Clouds 11 1010 93 10000 2.6 200 22:20 17.08.2019
3485 Clouds 12 1009 93 10000 4.1 180 21:42 17.08.2019
3486 Clouds 12 1009 93 10000 4.1 180 21:23 17.08.2019
3487 Clouds 12 1008 93 4000 3.1 210 20:56 17.08.2019
3488 Clouds 12 1008 93 4000 3.1 210 20:36 17.08.2019
3489 Rain 11 1007 100 5000 3.6 140 20:18 17.08.2019
3490 Rain 11 1007 100 3500 4.6 120 19:41 17.08.2019
3491 Rain 11 1007 100 3500 4.6 120 19:22 17.08.2019
3492 Rain 11 1007 100 3500 4.6 120 19:22 17.08.2019
3493 Rain 11 1007 100 5000 5.7 100 18:54 17.08.2019
3494 Rain 11 1007 100 3500 5.1 150 18:36 17.08.2019
3495 Thunderstorm 11 1010 100 2000 5.1 180 18:18 17.08.2019
3496 Thunderstorm 11 1010 100 2000 5.1 180 18:18 17.08.2019
3497 Thunderstorm 11 1010 100 2000 5.1 180 17:42 17.08.2019
3498 Thunderstorm 11 1010 100 2000 5.1 180 17:21 17.08.2019
3499 Rain 12 1008 100 1200 5.7 180 16:56 17.08.2019
3500 Rain 12 1008 100 3000 6.7 170 16:37 17.08.2019
3501 Rain 12 1008 100 3500 5.7 150 16:19 17.08.2019
3502 Rain 12 1008 100 3500 5.7 150 15:42 17.08.2019
3503 Rain 12 1008 100 3500 5.7 150 15:22 17.08.2019
3504 Thunderstorm 12 1007 100 3000 5.7 140 14:58 17.08.2019
3505 Rain 12 1008 100 3000 5.1 150 14:39 17.08.2019
3506 Rain 12 1008 100 3000 5.1 150 14:21 17.08.2019
3507 Thunderstorm 12 1007 100 3000 4.1 150 13:44 17.08.2019
3508 Thunderstorm 12 1007 100 3000 4.1 150 13:19 17.08.2019
3509 Thunderstorm 13 1007 93 7000 3.6 180 12:44 17.08.2019
3510 Thunderstorm 13 1007 93 7000 3.6 180 12:20 17.08.2019
3511 Thunderstorm 13 1006 87 5000 4.1 150 11:58 17.08.2019
3512 Thunderstorm 14 1006 87 5000 4.1 150 11:38 17.08.2019
3513 Thunderstorm 14 1006 87 5000 4.1 150 11:20 17.08.2019
3514 Thunderstorm 14 1006 87 10000 4.92 148.916 10:42 17.08.2019
3515 Thunderstorm 14 1006 87 10000 4.92 148.916 10:21 17.08.2019
3516 Thunderstorm 14 1008 87 10000 4.92 148.916 09:57 17.08.2019
3517 Thunderstorm 15 1008 87 10000 4.92 148.916 09:38 17.08.2019
3518 Thunderstorm 15 1008 87 10000 1.47 240.105 09:20 17.08.2019
3519 Clouds 16 1009 82 10000 1.47 240.105 08:50 17.08.2019
3520 Clouds 16 1009 82 10000 1.47 240.105 08:21 17.08.2019
3521 Clouds 16 1009 87 10000 1.47 240.105 07:42 17.08.2019
3522 Clear 16 1010 82 10000 1.47 240.105 07:20 17.08.2019
3523 Clouds 16 1009 87 10000 1.47 240.105 07:20 17.08.2019
3524 Clear 17 1010 82 10000 4.05 352.828 06:25 17.08.2019
3525 Clouds 15 1011 76 10000 4.05 352.828 04:36 17.08.2019
3526 Clouds 15 1011 76 10000 4.05 352.828 04:18 17.08.2019
3527 Clear 15 1011 77 10000 1.5 110 02:38 17.08.2019
3528 Clear 15 1011 77 10000 3.1 110 01:39 17.08.2019
3529 Clear 16 1011 72 10000 3.1 130 01:20 17.08.2019
3530 Clear 16 1011 72 10000 3.1 130 00:46 17.08.2019
3531 Clear 16 1011 72 10000 3.1 130 00:21 17.08.2019
3532 Clear 17 1011 68 10000 2.6 170 23:44 16.08.2019
3533 Clear 17 1011 68 10000 2.6 170 23:24 16.08.2019
3534 Clear 19 1011 56 10000 1 0 22:43 16.08.2019
3535 Clear 19 1011 56 10000 1 0 22:20 16.08.2019
3536 Clear 20 1011 56 10000 2.6 350 21:58 16.08.2019
3537 Clear 20 1011 56 10000 2.6 350 21:38 16.08.2019
3538 Clear 20 1012 52 10000 2.6 350 21:18 16.08.2019
3539 Clear 20 1012 52 10000 2.6 350 20:43 16.08.2019
3540 Clear 19 1012 52 10000 2.6 350 20:20 16.08.2019
3541 Clear 20 1013 52 10000 3.6 350 19:58 16.08.2019
3542 Clear 19 1013 52 10000 3.6 350 19:39 16.08.2019
3543 Clear 20 1015 56 10000 4.1 30 19:19 16.08.2019
3544 Clear 20 1015 56 10000 4.1 30 18:42 16.08.2019
3545 Clear 20 1015 56 10000 4.1 30 18:23 16.08.2019
3546 Clear 18 1016 59 10000 1 20 17:48 16.08.2019
3547 Clear 18 1016 59 10000 1 20 17:28 16.08.2019
3548 Clear 18 1017 72 10000 3.1 40 16:59 16.08.2019
3549 Clear 18 1017 72 10000 3.1 40 16:59 16.08.2019
3550 Clear 18 1017 72 10000 3.1 40 16:40 16.08.2019
3551 Clear 17 1017 72 10000 3.1 40 16:19 16.08.2019
3552 Clear 16 1017 76 10000 3.1 50 15:56 16.08.2019
3553 Clear 15 1017 76 10000 3.1 50 15:38 16.08.2019
3554 Clear 13 1017 76 10000 3.1 50 15:19 16.08.2019
3555 Clear 13 1017 76 10000 3.1 50 14:56 16.08.2019
3556 Clear 13 1017 76 10000 3.1 50 14:37 16.08.2019
3557 Clear 13 1017 76 10000 3.1 50 14:18 16.08.2019
3558 Clear 13 1017 76 10000 3.1 50 14:18 16.08.2019
3559 Clear 12 1017 81 10000 3.1 60 13:40 16.08.2019
3560 Clear 12 1017 81 10000 3.1 60 13:21 16.08.2019
3561 Clear 11 1017 87 10000 2.1 60 12:41 16.08.2019
3562 Clear 11 1017 87 10000 2.1 60 12:41 16.08.2019
3563 Clear 11 1017 87 10000 2.1 60 12:22 16.08.2019
3564 Clear 11 1017 81 10000 2.72 351.506 11:58 16.08.2019
3565 Clear 12 1017 81 10000 2.72 351.506 11:39 16.08.2019
3566 Clear 12 1017 81 10000 2.72 351.506 11:21 16.08.2019
3567 Clear 11 1017 81 10000 2.72 351.506 10:43 16.08.2019
3568 Clear 11 1017 81 10000 2.72 351.506 10:21 16.08.2019
3569 Clear 11 1018 93 10000 2.72 351.506 09:39 16.08.2019
3570 Clear 11 1018 93 10000 3.14 8.843 09:20 16.08.2019
3571 Clear 11 1018 87 10000 3.14 8.843 08:59 16.08.2019
3572 Clear 11 1018 87 10000 3.14 8.843 08:39 16.08.2019
3573 Clear 11 1018 87 10000 3.14 8.843 08:20 16.08.2019
3574 Clear 11 1019 81 10000 3.14 8.843 07:49 16.08.2019
3575 Clear 11 1019 81 10000 3.14 8.843 07:28 16.08.2019
3576 Clear 11 1019 81 10000 3.14 8.843 06:55 16.08.2019
3577 Clear 11 1019 81 10000 4.2 20.002 06:19 16.08.2019
3578 Clouds 11 1020 87 7000 4.2 20.002 05:34 16.08.2019
3579 Clear 11 1021 87 10000 3.23 63.84 03:21 16.08.2019
3580 Clear 11 1022 87 10000 3.23 63.84 01:54 16.08.2019
3581 Clear 11 1022 87 10000 2.77 63.463 01:28 16.08.2019
3582 Clear 11 1022 81 10000 2.6 120 00:55 16.08.2019
3583 Clear 11 1022 81 10000 2.6 120 00:55 16.08.2019
3584 Clear 11 1022 81 10000 2.6 120 00:36 16.08.2019
3585 Clear 11 1022 81 10000 2.6 120 00:18 16.08.2019
3586 Clear 12 1022 71 10000 2.1 160 23:42 15.08.2019
3587 Clear 12 1022 71 10000 2.1 160 23:19 15.08.2019
3588 Clear 12 1022 71 10000 2.6 180 22:55 15.08.2019
3589 Clear 12 1022 71 10000 2.6 180 22:36 15.08.2019
3590 Clear 13 1022 71 10000 2.6 180 22:18 15.08.2019
3591 Clear 14 1022 54 10000 1.5 0 21:40 15.08.2019
3592 Clear 14 1022 54 10000 1.5 0 21:20 15.08.2019
3593 Clear 15 1023 55 10000 2.1 360 20:59 15.08.2019
3594 Clear 15 1023 55 10000 2.1 360 20:40 15.08.2019
3595 Clear 15 1023 55 10000 2.1 360 20:21 15.08.2019
3596 Clear 16 1023 54 10000 3.1 360 19:54 15.08.2019
3597 Clear 16 1023 54 10000 3.1 360 19:36 15.08.2019
3598 Clear 15 1023 54 10000 3.1 360 19:18 15.08.2019
3599 Clear 15 1024 58 10000 6.2 20 18:41 15.08.2019
3600 Clear 14 1024 58 10000 6.2 20 18:21 15.08.2019
3601 Clear 13 1026 66 10000 6.2 20 17:55 15.08.2019
3602 Clear 13 1026 66 10000 6.2 20 17:37 15.08.2019
3603 Clear 13 1026 66 10000 6.2 20 17:19 15.08.2019
3604 Clear 13 1026 71 10000 6.7 20 16:47 15.08.2019
3605 Clear 12 1026 71 10000 6.7 20 16:25 15.08.2019
3606 Clear 11 1027 76 10000 6.2 40 15:56 15.08.2019
3607 Clear 11 1027 76 10000 6.2 40 15:38 15.08.2019
3608 Clear 9 1027 76 10000 6.2 40 15:18 15.08.2019
3609 Clear 7 1027 75 10000 4.6 50 14:42 15.08.2019
3610 Clear 7 1027 75 10000 4.6 50 14:42 15.08.2019
3611 Clear 7 1027 75 10000 4.6 50 14:23 15.08.2019
3612 Clear 6 1027 86 10000 4.1 50 13:57 15.08.2019
3613 Clear 6 1027 86 10000 4.1 50 13:39 15.08.2019
3614 Clear 6 1027 86 10000 4.1 50 13:20 15.08.2019
3615 Clear 6 1027 86 10000 4.1 50 13:20 15.08.2019
3616 Clear 5 1027 93 10000 3.1 40 12:56 15.08.2019
3617 Clear 5 1027 93 10000 3.1 40 12:38 15.08.2019
3618 Clear 5 1027 93 10000 3.1 40 12:18 15.08.2019
3619 Clear 5 1027 93 10000 7.8 1.241 11:57 15.08.2019
3620 Clear 5 1027 93 10000 7.8 1.241 11:36 15.08.2019
3621 Clear 5 1027 93 10000 7.8 1.241 11:18 15.08.2019
3622 Clear 5 1027 93 10000 7.8 1.241 11:18 15.08.2019
3623 Clear 5 1027 93 10000 7.8 1.241 10:39 15.08.2019
3624 Clear 5 1027 93 10000 7.8 1.241 10:39 15.08.2019
3625 Clear 5 1027 93 10000 7.8 1.241 10:20 15.08.2019
3626 Clear 5 1027 93 10000 7.8 1.241 09:55 15.08.2019
3627 Clear 5 1027 93 10000 7.8 1.241 09:37 15.08.2019
3628 Clear 5 1028 86 10000 7.68 5.546 09:18 15.08.2019
3629 Clear 5 1028 86 10000 7.68 5.546 08:37 15.08.2019
3630 Clear 5 1028 86 10000 7.68 5.546 08:19 15.08.2019
3631 Clear 6 1028 80 10000 7.68 5.546 07:45 15.08.2019
3632 Clear 6 1028 80 10000 7.68 5.546 07:27 15.08.2019
3633 Clear 6 1028 75 10000 7.68 5.546 06:55 15.08.2019
3634 Clear 6 1028 75 10000 7.68 5.546 06:33 15.08.2019
3635 Clear 6 1028 70 10000 1.5 30 05:54 15.08.2019
3636 Clear 6 1028 70 10000 1.5 30 05:29 15.08.2019
3637 Clear 6 1028 70 10000 3.6 40 04:39 15.08.2019
3638 Clear 7 1029 70 10000 6.95 5.274 03:48 15.08.2019
3639 Clear 7 1029 65 10000 6.62 1.914 02:47 15.08.2019
3640 Clear 8 1029 65 10000 2.1 70 01:58 15.08.2019
3641 Clear 8 1029 65 10000 2.1 70 01:38 15.08.2019
3642 Clear 8 1030 65 10000 3.1 40 00:42 15.08.2019
3643 Clear 8 1030 65 10000 3.1 40 00:22 15.08.2019
3644 Clear 9 1030 70 10000 2.1 90 23:59 14.08.2019
3645 Clear 9 1030 70 10000 2.1 90 23:40 14.08.2019
3646 Clear 10 1031 53 10000 4.6 360 23:20 14.08.2019
3647 Clear 11 1031 53 10000 4.6 360 22:59 14.08.2019
3648 Clear 11 1031 53 10000 4.6 360 22:40 14.08.2019
3649 Clear 11 1031 53 10000 4.6 360 22:21 14.08.2019
3650 Clear 10 1031 53 10000 3.6 20 21:57 14.08.2019
3651 Clear 10 1031 53 10000 3.6 20 21:38 14.08.2019
3652 Clear 10 1032 50 10000 3.6 20 21:19 14.08.2019
3653 Clear 10 1032 50 10000 3.6 20 20:42 14.08.2019
3654 Clear 10 1032 50 10000 3.6 20 20:23 14.08.2019
3655 Clouds 10 1032 57 10000 5.1 110 19:59 14.08.2019
3656 Clear 10 1033 50 10000 3.1 10 19:39 14.08.2019
3657 Clouds 10 1033 53 10000 3.6 140 19:21 14.08.2019
3658 Clouds 10 1033 53 10000 3.6 140 18:57 14.08.2019
3659 Clear 10 1034 53 10000 3.6 10 18:39 14.08.2019
3660 Clear 10 1034 53 10000 3.6 10 18:20 14.08.2019
3661 Clear 10 1035 57 10000 2.6 350 17:58 14.08.2019
3662 Clear 10 1035 57 10000 2.6 350 17:37 14.08.2019
3663 Clear 10 1035 57 10000 2.6 350 17:19 14.08.2019
3664 Clear 10 1035 57 10000 2.6 350 17:19 14.08.2019
3665 Clear 9 1035 65 10000 2.1 130 16:55 14.08.2019
3666 Clear 9 1035 65 10000 2.1 130 16:36 14.08.2019
3667 Clear 9 1035 65 10000 2.1 130 16:18 14.08.2019
3668 Clear 8 1036 65 10000 2.6 160 15:42 14.08.2019
3669 Clear 8 1036 65 10000 2.6 160 15:18 14.08.2019
3670 Clear 8 1035 65 10000 1.5 0 14:54 14.08.2019
3671 Clear 8 1035 65 10000 1.5 0 14:36 14.08.2019
3672 Clear 8 1035 65 10000 1.5 0 14:18 14.08.2019
3673 Clear 6 1034 75 10000 2.6 90 13:43 14.08.2019
3674 Clear 6 1034 75 10000 2.6 90 13:24 14.08.2019
3675 Clear 6 1035 60 10000 1 0 12:57 14.08.2019
3676 Clear 6 1035 60 10000 1 0 12:38 14.08.2019
3677 Clear 6 1035 60 10000 1 0 12:20 14.08.2019
3678 Clouds 6 1035 70 10000 3.33 151.678 11:55 14.08.2019
3679 Clouds 7 1035 56 10000 3.33 151.678 11:37 14.08.2019
3680 Clouds 7 1035 56 10000 3.33 151.678 11:18 14.08.2019
3681 Clouds 7 1035 65 10000 1.5 190 10:42 14.08.2019
3682 Clouds 7 1035 65 10000 1.5 190 10:23 14.08.2019
3683 Clouds 7 1035 56 10000 1.5 180 09:55 14.08.2019
3684 Clouds 7 1035 56 10000 1.5 180 09:36 14.08.2019
3685 Clouds 7 1035 56 10000 1.5 180 09:18 14.08.2019
3686 Clouds 7 1035 56 10000 1.5 200 08:36 14.08.2019
3687 Clouds 7 1036 52 10000 3.57 176.801 08:18 14.08.2019
3688 Clouds 7 1036 52 10000 3.57 176.801 07:45 14.08.2019
3689 Clouds 7 1036 52 10000 3.57 176.801 07:27 14.08.2019
3690 Clouds 7 1036 56 10000 1.5 180 06:44 14.08.2019
3691 Clouds 7 1036 56 10000 1.5 200 05:48 14.08.2019
3692 Clouds 7 1036 52 10000 4.1 210 04:45 14.08.2019
3693 Clouds 6 1035 70 10000 2.6 230 02:56 14.08.2019
3694 Clouds 6 1035 70 10000 2.6 230 02:32 14.08.2019
3695 Clouds 7 1035 52 10000 4.1 220 01:38 14.08.2019
3696 Clouds 7 1035 60 10000 5.1 220 00:54 14.08.2019
3697 Clouds 8 1034 56 10000 2.1 230 23:50 13.08.2019
3698 Clouds 8 1034 56 10000 2.1 230 23:25 13.08.2019
3699 Clouds 7 1034 56 10000 5.1 220 22:58 13.08.2019
3700 Clouds 7 1034 56 10000 5.1 220 22:39 13.08.2019
3701 Clouds 7 1034 56 10000 5.1 220 22:21 13.08.2019
3702 Clouds 8 1033 61 10000 6.7 240 21:58 13.08.2019
3703 Clouds 8 1033 61 10000 6.7 240 21:37 13.08.2019
3704 Clouds 8 1033 64 10000 6.7 240 21:19 13.08.2019
3705 Clouds 9 1033 64 10000 6.7 240 20:46 13.08.2019
3706 Clouds 9 1033 64 10000 6.7 240 20:20 13.08.2019
3707 Clouds 8 1033 64 10000 8.7 210 19:59 13.08.2019
3708 Clouds 8 1033 64 10000 8.7 210 19:59 13.08.2019
3709 Clouds 8 1033 64 10000 8.7 210 19:40 13.08.2019
3710 Clouds 8 1033 64 10000 8.7 210 19:21 13.08.2019
3711 Clouds 8 1033 61 10000 5.7 240 18:42 13.08.2019
3712 Clouds 8 1033 61 10000 5.7 240 18:23 13.08.2019
3713 Clouds 8 1033 70 10000 7.7 240 17:58 13.08.2019
3714 Clouds 8 1033 70 10000 7.7 240 17:40 13.08.2019
3715 Clouds 8 1033 70 10000 7.7 240 17:21 13.08.2019
3716 Clouds 8 1032 66 10000 7.7 240 16:56 13.08.2019
3717 Clouds 8 1032 66 10000 7.7 240 16:38 13.08.2019
3718 Clouds 8 1032 66 10000 7.7 240 16:38 13.08.2019
3719 Clouds 8 1032 66 10000 7.7 240 16:19 13.08.2019
3720 Clouds 7 1032 66 10000 7.7 240 15:39 13.08.2019
3721 Clouds 7 1032 69 10000 7.7 240 15:20 13.08.2019
3722 Clouds 7 1031 69 10000 8.2 210 14:58 13.08.2019
3723 Clouds 7 1031 69 10000 5.1 240 14:38 13.08.2019
3724 Clouds 6 1031 69 10000 5.1 240 14:18 13.08.2019
3725 Clouds 6 1030 75 10000 7.2 240 13:42 13.08.2019
3726 Clouds 6 1030 75 10000 7.2 240 13:21 13.08.2019
3727 Rain 6 1029 68 10000 7.2 220 12:59 13.08.2019
3728 Clouds 6 1029 80 10000 5.7 240 12:40 13.08.2019
3729 Clouds 6 1029 80 10000 5.7 240 12:22 13.08.2019
3730 Clouds 7 1027 70 10000 10.24 206.237 11:58 13.08.2019
3731 Clouds 7 1027 70 10000 10.24 206.237 11:38 13.08.2019
3732 Clouds 7 1027 70 10000 10.24 206.237 11:19 13.08.2019
3733 Clouds 7 1027 70 10000 10.24 206.237 10:56 13.08.2019
3734 Clouds 7 1027 70 10000 10.24 206.237 10:37 13.08.2019
3735 Clouds 7 1027 70 10000 10.24 206.237 10:18 13.08.2019
3736 Clouds 7 1027 70 10000 10.24 206.237 09:43 13.08.2019
3737 Clouds 7 1027 64 10000 10.24 204.387 09:23 13.08.2019
3738 Clouds 7 1027 64 10000 10.24 204.387 08:44 13.08.2019
3739 Clouds 7 1027 64 10000 10.24 204.387 08:44 13.08.2019
3740 Clear 8 1027 72 0 4.47 223 08:23 13.08.2019
3741 Clouds 8 1027 64 10000 10.24 204.387 07:58 13.08.2019
3742 Clouds 8 1027 64 10000 10.24 204.387 07:34 13.08.2019
3743 Clouds 8 1027 64 10000 6.7 220 06:59 13.08.2019
3744 Clouds 8 1027 64 10000 6.7 220 06:40 13.08.2019
3745 Clouds 8 1027 64 10000 8.2 210 05:35 13.08.2019
3746 Clouds 8 1025 75 10000 9.3 210 03:35 13.08.2019
3747 Drizzle 9 1024 87 5000 7.2 210 02:19 13.08.2019
3748 Drizzle 9 1024 87 5000 7.2 210 01:19 13.08.2019
3749 Drizzle 9 1023 87 10000 6.7 210 00:47 13.08.2019
3750 Drizzle 9 1022 93 5000 7.7 210 23:57 12.08.2019
3751 Drizzle 9 1022 81 10000 6.7 240 23:38 12.08.2019
3752 Drizzle 10 1021 76 4000 8.7 230 23:19 12.08.2019
3753 Drizzle 9 1022 81 10000 6.7 240 23:19 12.08.2019
3754 Drizzle 10 1021 76 8000 6.7 240 22:40 12.08.2019
3755 Drizzle 10 1021 76 8000 6.7 240 22:20 12.08.2019
3756 Drizzle 10 1021 76 8000 6.7 240 22:20 12.08.2019
3757 Clouds 10 1021 81 10000 6.7 270 21:56 12.08.2019
3758 Clouds 10 1021 81 10000 6.7 270 21:37 12.08.2019
3759 Clouds 11 1020 71 0 7.2 270 21:19 12.08.2019
3760 Clouds 11 1020 71 0 7.2 270 20:57 12.08.2019
3761 Clouds 11 1020 71 0 7.2 270 20:38 12.08.2019
3762 Clouds 11 1019 62 10000 8.2 250 20:20 12.08.2019
3763 Clouds 12 1019 62 10000 8.2 250 19:56 12.08.2019
3764 Clouds 12 1019 62 10000 8.2 250 19:56 12.08.2019
3765 Clouds 12 1019 76 0 6.7 240 19:37 12.08.2019
3766 Clouds 12 1019 76 0 6.7 240 19:19 12.08.2019
3767 Clouds 13 1019 76 0 4.6 270 18:55 12.08.2019
3768 Clouds 13 1019 76 0 4.6 270 18:37 12.08.2019
3769 Clouds 13 1019 76 0 4.6 270 18:37 12.08.2019
3770 Clouds 13 1019 76 0 4.6 270 18:19 12.08.2019
3771 Clouds 13 1019 76 0 4.1 240 17:46 12.08.2019
3772 Clouds 13 1019 76 0 4.1 240 17:28 12.08.2019
3773 Clear 13 1017 81 10000 2.6 270 16:57 12.08.2019
3774 Clear 13 1017 81 10000 2.6 270 16:39 12.08.2019
3775 Clear 13 1017 81 10000 2.6 270 16:20 12.08.2019
3776 Clear 13 1017 81 10000 2.1 260 15:58 12.08.2019
3777 Clear 13 1017 81 10000 2.1 260 15:40 12.08.2019
3778 -273 0 0 0 0 0 15:39 12.08.2019
3779 Clear 12 1017 81 10000 2.1 260 15:20 12.08.2019
3780 Clear 10 1017 93 10000 1 250 14:55 12.08.2019
3781 Clear 10 1017 93 10000 1 250 14:37 12.08.2019
3782 Clear 10 1017 93 10000 1 250 14:37 12.08.2019
3783 Clouds 9 1016 93 8000 1 10 14:18 12.08.2019
3784 Clouds 10 1016 93 8000 1 10 13:42 12.08.2019
3785 Clouds 10 1016 93 8000 1 10 13:23 12.08.2019
3786 Clear 10 1016 87 10000 2.1 350 12:44 12.08.2019
3787 Clear 7 1016 87 10000 2.1 350 12:22 12.08.2019
3788 -273 0 0 0 0 0 11:56 12.08.2019
3789 Clear 7 1015 93 10000 7.03 282.935 11:56 12.08.2019
3790 Clear 7 1015 93 10000 7.03 282.935 11:38 12.08.2019
3791 Clear 7 1015 93 10000 7.03 282.935 11:19 12.08.2019
3792 Clear 11 1015 93 10000 7.03 282.935 10:41 12.08.2019
3793 Clear 11 1015 93 10000 7.03 282.935 10:23 12.08.2019
3794 Clear 10 1015 93 10000 7.03 282.935 09:56 12.08.2019
3795 Clear 11 1015 93 10000 7.03 282.935 09:37 12.08.2019
3796 Clear 6 1015 93 10000 5.73 316.798 09:19 12.08.2019
3797 Clear 7 1016 93 10000 5.73 316.798 08:55 12.08.2019
3798 Clear 7 1016 93 10000 5.73 316.798 08:37 12.08.2019
3799 Clear 7 1016 93 10000 5.73 316.798 08:19 12.08.2019
3800 Clear 8 1015 93 10000 5.73 316.798 07:42 12.08.2019
3801 Clear 8 1015 93 10000 5.73 316.798 07:20 12.08.2019
3802 Clear 7 1016 87 10000 5.73 316.798 06:44 12.08.2019
3803 Clear 13 1016 81 10000 5.3 329.459 05:37 12.08.2019
3804 Clear 13 1015 76 10000 4.72 358.98 02:44 12.08.2019
3805 Clear 13 1015 66 10000 1 70 01:53 12.08.2019
3806 Clear 13 1015 66 10000 1 70 01:20 12.08.2019
3807 Clear 13 1015 76 10000 2.6 60 00:57 12.08.2019
3808 Clear 14 1015 76 10000 2.6 60 00:38 12.08.2019
3809 Clear 14 1015 76 10000 2.6 60 00:19 12.08.2019
3810 Clear 14 1015 62 10000 2.1 60 23:42 11.08.2019
3811 Clear 14 1015 62 10000 2.1 60 23:20 11.08.2019
3812 Clouds 15 1015 55 10000 2.6 360 22:58 11.08.2019
3813 Clouds 15 1015 55 10000 2.6 360 22:39 11.08.2019
3814 Clouds 15 1015 55 10000 2.6 360 22:19 11.08.2019
3815 Clouds 15 1015 55 10000 2.6 360 21:58 11.08.2019
3816 Clouds 15 1015 55 10000 2.6 360 21:39 11.08.2019
3817 Clouds 15 1015 55 10000 2.6 360 21:20 11.08.2019
3818 Clouds 16 1016 63 10000 3.6 30 20:56 11.08.2019
3819 Clouds 16 1016 63 10000 3.6 30 20:38 11.08.2019
3820 Clouds 16 1016 63 10000 3.6 30 20:19 11.08.2019
3821 Clear 16 1017 59 10000 3.6 10 19:42 11.08.2019
3822 Clear 16 1019 59 10000 2.6 30 19:18 11.08.2019
3823 Clear 16 1019 59 10000 2.6 30 19:18 11.08.2019
3824 Clear 16 1019 59 10000 2.6 30 18:41 11.08.2019
3825 Clear 16 1019 59 10000 2.6 30 18:21 11.08.2019
3826 Clear 14 1019 62 10000 4.6 330 17:57 11.08.2019
3827 Clear 15 1019 62 10000 4.6 330 17:39 11.08.2019
3828 Clear 14 1019 62 10000 4.6 330 17:20 11.08.2019
3829 Clear 14 1019 62 10000 4.6 330 17:20 11.08.2019
3830 Clear 13 1019 71 10000 5.1 30 16:56 11.08.2019
3831 Clear 13 1019 71 10000 5.1 30 16:37 11.08.2019
3832 Clear 13 1019 71 10000 5.1 30 16:18 11.08.2019
3833 Clear 12 1019 70 10000 4.1 30 15:43 11.08.2019
3834 Clear 10 1019 70 10000 4.1 30 15:24 11.08.2019
3835 Clear 8 1019 81 10000 2.6 30 14:58 11.08.2019
3836 Clear 8 1019 81 10000 2.6 30 14:39 11.08.2019
3837 Clear 8 1019 81 10000 2.6 30 14:19 11.08.2019
3838 Clear 7 1019 93 10000 3.6 30 13:44 11.08.2019
3839 Clear 7 1019 93 10000 3.6 30 13:25 11.08.2019
3840 Clear 6 1019 93 10000 4.1 30 12:49 11.08.2019
3841 Clear 7 1019 93 10000 4.1 30 12:25 11.08.2019
3842 Clear 7 1018 86 10000 2.6 350 11:57 11.08.2019
3843 Clear 7 1018 86 10000 2.6 350 11:38 11.08.2019
3844 Clear 7 1018 86 10000 2.6 350 11:20 11.08.2019
3845 Clear 8 1018 81 10000 2.6 350 10:55 11.08.2019
3846 Clear 8 1018 81 10000 2.6 350 10:36 11.08.2019
3847 Clear 8 1018 81 10000 2.6 350 10:18 11.08.2019
3848 Clear 8 1018 81 10000 2.6 350 10:18 11.08.2019
3849 Clear 8 1019 87 10000 3.1 330 09:40 11.08.2019
3850 Clear 8 1019 87 10000 3.1 330 09:22 11.08.2019
3851 Clear 8 1019 87 10000 2.6 340 08:48 11.08.2019
3852 Clear 8 1019 87 10000 2.6 340 08:29 11.08.2019
3853 Clear 9 1018 81 10000 3.1 340 07:56 11.08.2019
3854 Clear 9 1018 81 10000 3.1 340 07:27 11.08.2019
3855 Clear 9 1018 81 10000 3.6 340 06:45 11.08.2019
3856 Clear 9 1018 81 10000 3.6 340 06:21 11.08.2019
3857 Clear 10 1018 75 10000 4.1 330 04:37 11.08.2019
3858 Clear 10 1018 75 10000 3.6 340 02:49 11.08.2019
3859 Clear 11 1018 70 10000 3.6 340 01:53 11.08.2019
3860 Clear 11 1018 70 10000 3.6 340 01:26 11.08.2019
3861 Clear 11 1018 71 10000 2.6 360 00:54 11.08.2019
3862 Clear 11 1018 71 10000 2.6 360 00:34 11.08.2019
3863 Clear 12 1018 54 10000 3.1 330 23:49 10.08.2019
3864 Clear 12 1018 54 10000 3.1 330 23:29 10.08.2019
3865 Clear 14 1017 50 10000 2.1 330 22:48 10.08.2019
3866 Clear 14 1017 50 10000 2.1 330 22:27 10.08.2019
3867 Clear 14 1017 50 10000 5.1 300 21:59 10.08.2019
3868 Clear 14 1017 50 10000 5.1 300 21:59 10.08.2019
3869 Clear 14 1017 50 10000 5.1 300 21:39 10.08.2019
3870 Clear 14 1017 50 10000 5.1 300 21:21 10.08.2019
3871 Clear 14 1018 50 10000 5.1 200 20:57 10.08.2019
3872 Clear 14 1018 50 10000 5.1 200 20:39 10.08.2019
3873 Clear 14 1018 50 10000 5.1 200 20:19 10.08.2019
3874 Clear 14 1018 54 10000 5.1 300 19:43 10.08.2019
3875 Clear 14 1018 54 10000 5.1 300 19:24 10.08.2019
3876 Clear 13 1019 62 10000 4.1 300 18:42 10.08.2019
3877 Clear 13 1019 62 10000 4.1 300 18:24 10.08.2019
3878 Clear 13 1019 71 10000 6.2 300 17:56 10.08.2019
3879 Clear 13 1019 71 10000 6.2 300 17:38 10.08.2019
3880 Clear 12 1019 71 10000 6.2 300 17:19 10.08.2019
3881 Clear 12 1019 81 10000 4.1 300 16:42 10.08.2019
3882 Clear 12 1019 81 10000 4.1 300 16:22 10.08.2019
3883 Clear 11 1019 87 10000 7.7 281.643 15:45 10.08.2019
3884 Clear 11 1019 87 10000 6.89 246.894 15:22 10.08.2019
3885 Clear 10 1019 93 10000 3.6 270 14:44 10.08.2019
3886 Clouds 8 1018 93 10000 6.89 246.894 14:19 10.08.2019
3887 Clouds 8 1018 93 10000 6.89 246.894 13:41 10.08.2019
3888 Clouds 8 1018 93 10000 6.2 243.926 13:20 10.08.2019
3889 Clouds 8 1016 93 10000 2.1 270 12:54 10.08.2019
3890 Clouds 8 1016 93 10000 2.1 270 12:36 10.08.2019
3891 Clouds 8 1016 93 10000 2.1 270 12:18 10.08.2019
3892 Clouds 9 1017 81 10000 4.1 220 11:41 10.08.2019
3893 Clouds 10 1017 81 10000 4.1 220 11:22 10.08.2019
3894 Clouds 10 1017 81 10000 4.1 220 10:55 10.08.2019
3895 Clouds 10 1017 81 10000 4.1 220 10:36 10.08.2019
3896 Clouds 10 1017 81 10000 4.1 220 10:18 10.08.2019
3897 Clouds 10 1017 87 10000 4.6 200 09:40 10.08.2019
3898 Clouds 10 1017 87 10000 4.6 200 09:22 10.08.2019
3899 Clouds 10 1016 87 10000 5.1 210 08:42 10.08.2019
3900 Clouds 10 1016 87 10000 5.1 210 08:20 10.08.2019
3901 Clouds 10 1017 87 10000 6.7 210 07:54 10.08.2019
3902 Clouds 10 1017 87 10000 6.7 210 07:29 10.08.2019
3903 Clouds 11 1016 87 10000 5.7 200 06:49 10.08.2019
3904 Clouds 11 1016 87 10000 5.7 200 06:28 10.08.2019
3905 Rain 11 1016 93 10000 5.7 190 05:26 10.08.2019
3906 Clouds 11 1016 93 10000 6.7 190 04:35 10.08.2019
3907 Clouds 11 1015 93 10000 7.7 180 02:56 10.08.2019
3908 Clouds 11 1015 93 10000 7.7 180 02:26 10.08.2019
3909 Clouds 11 1016 100 10000 6.7 170 01:42 10.08.2019
3910 Clouds 11 1016 100 10000 6.7 170 01:22 10.08.2019
3911 Clouds 11 1015 100 10000 6.7 160 00:49 10.08.2019
3912 Clouds 11 1015 100 10000 6.7 160 00:25 10.08.2019
3913 Drizzle 11 1015 100 2500 7.2 150 23:45 09.08.2019
3914 Drizzle 10 1015 100 2500 7.2 150 23:24 09.08.2019
3915 Drizzle 10 1015 93 2500 6.7 150 22:58 09.08.2019
3916 Drizzle 10 1015 93 2500 6.7 150 22:39 09.08.2019
3917 Drizzle 10 1015 93 2500 6.7 150 22:21 09.08.2019
3918 Drizzle 10 1015 100 2500 6.7 150 21:55 09.08.2019
3919 Drizzle 10 1015 100 2500 6.7 150 21:36 09.08.2019
3920 Drizzle 10 1015 100 2500 6.7 150 21:18 09.08.2019
3921 Rain 10 1016 100 3000 7.2 150 20:54 09.08.2019
3922 Rain 10 1016 100 3000 7.2 150 20:36 09.08.2019
3923 Rain 10 1016 100 2000 6.7 140 20:18 09.08.2019
3924 Rain 10 1016 100 2000 6.7 140 19:41 09.08.2019
3925 Rain 10 1016 100 2000 6.7 140 19:20 09.08.2019
3926 Rain 11 1017 93 6000 8.2 130 18:42 09.08.2019
3927 Rain 11 1017 93 6000 8.2 130 18:22 09.08.2019
3928 Rain 11 1017 93 6000 7.7 140 17:58 09.08.2019
3929 Rain 10 1018 93 3000 7.2 130 17:40 09.08.2019
3930 Rain 10 1018 93 3000 7.2 130 17:22 09.08.2019
3931 -273 0 0 0 0 0 16:42 09.08.2019
3932 -273 0 0 0 0 0 16:42 09.08.2019
3933 Rain 10 1019 100 2500 7.2 140 16:23 09.08.2019
3934 Rain 10 1020 100 4000 7.2 130 15:58 09.08.2019
3935 Rain 10 1020 100 4000 7.2 130 15:39 09.08.2019
3936 Rain 10 1020 100 4000 7.2 130 15:20 09.08.2019
3937 Rain 10 1020 93 2000 7.2 140 14:55 09.08.2019
3938 Rain 10 1021 93 1000 5.7 130 14:37 09.08.2019
3939 Rain 10 1021 93 3000 6.7 130 14:19 09.08.2019
3940 Rain 10 1021 93 3000 6.7 130 13:43 09.08.2019
3941 Rain 10 1022 93 10000 5.1 130 13:20 09.08.2019
3942 Rain 10 1022 93 10000 5.1 130 12:47 09.08.2019
3943 Rain 10 1022 93 10000 5.1 130 12:24 09.08.2019
3944 Rain 10 1022 93 5000 4.6 140 11:59 09.08.2019
3945 Rain 10 1022 93 5000 4.6 140 11:59 09.08.2019
3946 Rain 10 1022 93 5000 4.6 140 11:37 09.08.2019
3947 Rain 10 1022 93 5000 4.6 140 11:19 09.08.2019
3948 Rain 10 1023 87 6000 4.1 140 10:41 09.08.2019
3949 Rain 10 1023 87 6000 4.1 140 10:22 09.08.2019
3950 Rain 10 1023 81 10000 6.2 130 09:46 09.08.2019
3951 Rain 10 1023 81 10000 6.2 130 09:20 09.08.2019
3952 Clouds 10 1024 76 10000 6.2 140 08:59 09.08.2019
3953 Clouds 10 1024 76 10000 6.2 140 08:41 09.08.2019
3954 Clouds 10 1024 76 10000 6.2 140 08:21 09.08.2019
3955 Clear 10 1025 76 10000 5.7 140 07:53 09.08.2019
3956 Clear 10 1025 76 10000 5.7 140 07:24 09.08.2019
3957 Clear 11 1025 66 10000 5.1 140 06:57 09.08.2019
3958 Clear 11 1025 66 10000 5.1 140 06:36 09.08.2019
3959 Clear 11 1025 62 10000 6.7 130 06:18 09.08.2019
3960 Clear 11 1026 62 10000 5.7 130 04:37 09.08.2019
3961 Clear 11 1026 57 10000 7.2 130 02:26 09.08.2019
3962 Clear 11 1027 66 10000 5.1 150 00:58 09.08.2019
3963 Clear 11 1027 66 10000 5.1 150 00:40 09.08.2019
3964 Clear 11 1027 66 10000 5.1 150 00:22 09.08.2019
3965 Clear 11 1028 66 10000 4.1 150 23:39 08.08.2019
3966 Clear 11 1028 66 10000 4.1 150 23:20 08.08.2019
3967 Clear 11 1026 62 10000 5.7 150 22:59 08.08.2019
3968 Clear 11 1026 62 10000 5.7 150 22:37 08.08.2019
3969 Clear 12 1026 62 10000 5.7 150 22:19 08.08.2019
3970 Clear 12 1026 58 10000 8.2 150 21:59 08.08.2019
3971 Clear 12 1026 58 10000 8.2 150 21:41 08.08.2019
3972 Clear 12 1026 58 10000 8.2 150 21:22 08.08.2019
3973 Clear 13 1026 54 10000 5.1 150 20:56 08.08.2019
3974 Clear 13 1026 54 10000 5.1 150 20:38 08.08.2019
3975 Clear 12 1026 54 10000 5.1 150 20:19 08.08.2019
3976 Rain 12 1026 66 10000 5.1 150 19:44 08.08.2019
3977 Rain 12 1026 66 10000 5.1 150 19:24 08.08.2019
3978 Clear 11 1027 76 10000 5.7 150 18:45 08.08.2019
3979 Clear 11 1027 76 10000 5.7 150 18:24 08.08.2019
3980 Clear 12 1027 76 10000 5.1 160 17:59 08.08.2019
3981 Clear 12 1027 76 10000 5.1 160 17:41 08.08.2019
3982 Clear 12 1027 76 10000 5.1 160 17:22 08.08.2019
3983 Clear 12 1027 62 10000 4.6 150 16:56 08.08.2019
3984 Clear 12 1027 62 10000 4.6 150 16:37 08.08.2019
3985 Clear 12 1027 62 10000 4.6 150 16:19 08.08.2019
3986 Clear 12 1027 66 10000 3.6 130 15:56 08.08.2019
3987 Clear 12 1027 66 10000 3.6 130 15:36 08.08.2019
3988 Clear 12 1026 58 10000 5.1 150 15:18 08.08.2019
3989 Clear 12 1026 58 10000 5.1 150 14:37 08.08.2019
3990 Clear 12 1026 58 10000 5.1 150 14:18 08.08.2019
3991 Clear 12 1025 66 10000 5.1 150 13:40 08.08.2019
3992 Clear 12 1025 66 10000 5.1 150 13:22 08.08.2019
3993 Clear 11 1024 66 10000 5.1 150 12:57 08.08.2019
3994 Clear 11 1024 66 10000 5.1 150 12:37 08.08.2019
3995 Clear 11 1024 66 10000 5.1 150 12:37 08.08.2019
3996 Clear 12 1024 66 10000 5.7 130 12:18 08.08.2019
3997 Clear 12 1024 66 10000 5.7 130 11:41 08.08.2019
3998 Clear 12 1024 66 10000 5.7 130 11:23 08.08.2019
3999 Clear 12 1024 71 10000 5.1 130 10:41 08.08.2019
4000 Clear 11 1024 71 10000 5.1 130 10:22 08.08.2019
4001 Clear 11 1024 66 10000 4.1 120 09:54 08.08.2019
4002 Clear 11 1024 66 10000 4.1 120 09:32 08.08.2019
4003 Clear 11 1025 66 10000 5.1 130 08:59 08.08.2019
4004 Clear 11 1025 66 10000 5.1 130 08:40 08.08.2019
4005 Clear 11 1025 66 10000 5.1 130 08:20 08.08.2019
4006 Clear 11 1025 71 10000 5.1 140 07:41 08.08.2019
4007 Clear 11 1025 71 10000 5.1 140 07:20 08.08.2019
4008 Clear 11 1025 71 10000 3.6 130 06:56 08.08.2019
4009 Clear 11 1025 71 10000 3.6 130 06:38 08.08.2019
4010 Clear 11 1024 62 10000 4.6 130 05:54 08.08.2019
4011 Clear 11 1024 62 10000 4.6 130 05:20 08.08.2019
4012 Clear 11 1024 53 10000 4.1 130 03:54 08.08.2019
4013 Clear 11 1024 57 10000 4.1 130 02:58 08.08.2019
4014 Clear 11 1023 61 10000 4.6 140 01:38 08.08.2019
4015 Clear 10 1022 66 10000 5.7 130 00:27 08.08.2019
4016 Clear 11 1022 66 10000 6.2 140 23:59 07.08.2019
4017 Clear 11 1022 66 10000 6.2 140 23:22 07.08.2019
4018 Clear 12 1022 66 10000 3.6 150 22:59 07.08.2019
4019 Clear 12 1022 66 10000 3.6 150 22:40 07.08.2019
4020 Clear 12 1022 66 10000 3.6 150 22:20 07.08.2019
4021 Clear 12 1021 62 10000 6.2 180 21:56 07.08.2019
4022 Clear 12 1021 62 10000 6.2 180 21:38 07.08.2019
4023 Clear 12 1021 62 10000 6.2 180 21:19 07.08.2019
4024 Clear 12 1021 66 10000 6.7 170 20:56 07.08.2019
4025 Clear 12 1021 66 10000 6.7 170 20:37 07.08.2019
4026 Clear 12 1021 66 10000 6.7 170 20:19 07.08.2019
4027 Clear 13 1021 62 10000 5.7 160 19:40 07.08.2019
4028 Clear 13 1021 62 10000 5.7 160 19:22 07.08.2019
4029 Clear 13 1021 58 10000 5.7 160 18:59 07.08.2019
4030 Clear 13 1021 58 10000 5.7 160 18:39 07.08.2019
4031 Clear 13 1021 58 10000 7.7 180 18:19 07.08.2019
4032 Clear 13 1021 58 10000 7.7 180 17:54 07.08.2019
4033 Clear 13 1021 58 10000 7.7 180 17:36 07.08.2019
4034 Clear 13 1021 58 10000 7.7 180 17:18 07.08.2019
4035 Clear 13 1021 58 10000 7.7 180 17:18 07.08.2019
4036 Clear 13 1021 50 10000 7.7 160 16:55 07.08.2019
4037 Clear 13 1021 50 10000 7.7 160 16:37 07.08.2019
4038 Clear 13 1020 58 10000 7.2 160 16:18 07.08.2019
4039 Clear 14 1020 58 10000 7.2 160 15:42 07.08.2019
4040 Clear 14 1020 58 10000 7.2 160 15:20 07.08.2019
4041 Clear 13 1019 71 10000 6.7 160 14:49 07.08.2019
4042 Clear 13 1019 71 10000 6.7 160 14:30 07.08.2019
4043 Clear 13 1019 71 10000 6.7 160 14:30 07.08.2019
4044 Clear 12 1018 76 10000 4.6 160 13:57 07.08.2019
4045 Clear 12 1018 76 10000 4.6 160 13:38 07.08.2019
4046 Clear 12 1018 76 10000 4.6 160 13:19 07.08.2019
4047 Clear 12 1018 81 10000 3.1 180 12:56 07.08.2019
4048 Clear 12 1018 81 10000 3.1 180 12:37 07.08.2019
4049 Clear 12 1018 81 10000 3.1 180 12:19 07.08.2019
4050 Clouds 13 1017 87 10000 3.1 200 11:55 07.08.2019
4051 Clouds 13 1017 87 10000 3.1 200 11:36 07.08.2019
4052 Clouds 13 1017 87 10000 3.1 200 11:18 07.08.2019
4053 Clouds 14 1016 93 10000 7.01 178.978 10:40 07.08.2019
4054 Clouds 14 1016 93 10000 7.01 178.978 10:19 07.08.2019
4055 Clouds 14 1016 93 10000 2.1 270 09:46 07.08.2019
4056 Clouds 15 1016 93 10000 2.1 270 09:24 07.08.2019
4057 Clouds 14 1016 93 10000 4.01 283.648 08:59 07.08.2019
4058 Clouds 14 1016 93 10000 5.15 302.031 08:41 07.08.2019
4059 Clouds 14 1016 93 10000 5.15 302.031 08:23 07.08.2019
4060 Clouds 15 1017 93 10000 5.15 302.031 07:50 07.08.2019
4061 Clouds 15 1017 93 10000 5.15 302.031 07:29 07.08.2019
4062 Clouds 15 1017 87 10000 5.15 302.031 06:43 07.08.2019
4063 Clouds 15 1017 87 10000 5.97 327.797 06:21 07.08.2019
4064 Clear 15 1017 87 10000 5.97 327.797 05:40 07.08.2019
4065 Clear 14 1016 87 10000 5.97 327.797 04:29 07.08.2019
4066 Clear 17 1015 72 10000 6.23 331.07 02:54 07.08.2019
4067 Clear 18 1015 72 10000 6.23 331.07 02:36 07.08.2019
4068 Clear 17 1015 67 10000 6.23 331.07 01:49 07.08.2019
4069 Clear 16 1013 72 10000 2.1 360 00:54 07.08.2019
4070 Clear 16 1013 72 10000 2.1 360 00:24 07.08.2019
4071 Clear 17 1013 59 10000 2.6 360 23:57 06.08.2019
4072 Clear 17 1013 59 10000 2.6 360 23:36 06.08.2019
4073 Clear 18 1013 59 10000 2.6 360 23:18 06.08.2019
4074 Clear 22 1014 49 10000 5.1 350 22:40 06.08.2019
4075 Clear 22 1014 49 10000 5.1 350 22:21 06.08.2019
4076 Clear 23 1014 46 10000 7.7 350 21:57 06.08.2019
4077 Clear 23 1014 46 10000 7.7 350 21:38 06.08.2019
4078 Clear 23 1014 46 10000 7.7 350 21:19 06.08.2019
4079 Clear 23 1014 49 10000 8.7 350 20:43 06.08.2019
4080 Clear 23 1014 49 10000 8.7 350 20:24 06.08.2019
4081 Clear 22 1014 49 10000 7.7 350 19:49 06.08.2019
4082 Clear 22 1014 49 10000 7.7 350 19:29 06.08.2019
4083 Clear 21 1015 49 10000 8.2 330 18:57 06.08.2019
4084 Clear 21 1015 49 10000 8.2 330 18:38 06.08.2019
4085 Clear 21 1015 49 10000 8.2 330 18:20 06.08.2019
4086 Clear 19 1017 52 10000 7.7 360 17:56 06.08.2019
4087 Clear 19 1017 52 10000 7.7 360 17:37 06.08.2019
4088 Clear 19 1017 52 10000 7.7 360 17:19 06.08.2019
4089 Clear 17 1017 59 10000 7.7 360 16:43 06.08.2019
4090 Clear 17 1017 59 10000 7.7 360 16:25 06.08.2019
4091 Clear 15 1018 62 10000 7.7 360 15:58 06.08.2019
4092 Clear 14 1018 62 10000 7.7 360 15:39 06.08.2019
4093 Clear 14 1018 62 10000 7.7 360 15:21 06.08.2019
4094 Clear 12 1017 76 10000 7.7 360 14:54 06.08.2019
4095 Clear 12 1017 76 10000 7.7 360 14:36 06.08.2019
4096 Clear 10 1017 81 10000 7.7 360 14:18 06.08.2019
4097 Clear 10 1017 81 10000 7.7 360 13:45 06.08.2019
4098 Clear 10 1017 81 10000 7.7 360 13:26 06.08.2019
4099 Clear 10 1017 81 10000 7.7 360 12:59 06.08.2019
4100 Clear 10 1017 81 10000 7.7 360 12:39 06.08.2019
4101 Clear 10 1017 81 10000 7.7 360 12:21 06.08.2019
4102 Clear 10 1017 81 10000 7.7 360 12:21 06.08.2019
4103 Clear 10 1017 81 10000 6.2 10 11:45 06.08.2019
4104 Clear 10 1017 81 10000 6.2 10 11:20 06.08.2019
4105 Clear 10 1018 81 10000 3.6 10 10:56 06.08.2019
4106 Clear 10 1018 81 10000 3.6 10 10:38 06.08.2019
4107 Clear 10 1018 81 10000 3.6 10 10:20 06.08.2019
4108 Clear 11 1018 81 10000 5.1 10 09:41 06.08.2019
4109 Clear 11 1018 81 10000 5.1 10 09:21 06.08.2019
4110 Clear 11 1018 81 10000 5.1 10 09:21 06.08.2019
4111 Clear 10 1019 87 10000 3.6 360 08:49 06.08.2019
4112 Clear 10 1019 87 10000 3.6 360 08:28 06.08.2019
4113 Clear 10 1019 76 10000 3.1 20 07:59 06.08.2019
4114 Clear 10 1019 76 10000 3.1 20 07:29 06.08.2019
4115 Clear 10 1020 76 10000 5.1 20 06:44 06.08.2019
4116 Clear 11 1020 76 10000 5.1 20 06:21 06.08.2019
4117 Clear 11 1020 71 10000 3.1 20 05:21 06.08.2019
4118 Clear 13 1022 54 10000 2.6 30 02:00 06.08.2019
4119 Clear 14 1022 54 10000 2.6 30 01:25 06.08.2019
4120 Clear 14 1022 54 10000 5.1 70 00:39 06.08.2019
4121 Clear 16 1022 44 10000 4.6 50 23:59 05.08.2019
4122 Clear 16 1022 44 10000 4.6 50 23:20 05.08.2019
4123 Clear 18 1022 31 10000 5.1 20 22:42 05.08.2019
4124 Clear 18 1022 31 10000 5.1 20 22:23 05.08.2019
4125 Clear 18 1022 36 10000 6.7 20 21:58 05.08.2019
4126 Clear 18 1022 36 10000 6.7 20 21:40 05.08.2019
4127 Clear 18 1022 36 10000 6.7 20 21:19 05.08.2019
4128 Clear 18 1023 34 10000 7.7 30 20:56 05.08.2019
4129 Clear 18 1023 34 10000 7.7 30 20:38 05.08.2019
4130 Clear 18 1023 34 10000 7.7 30 20:20 05.08.2019
4131 Clear 17 1024 73 10000 6.2 10 19:43 05.08.2019
4132 Clear 17 1024 73 10000 6.2 10 19:25 05.08.2019
4133 Clear 16 1026 41 10000 6.2 40 18:59 05.08.2019
4134 Clear 16 1026 41 10000 6.2 40 18:40 05.08.2019
4135 Clear 15 1026 44 10000 6.7 40 18:19 05.08.2019
4136 Clear 15 1026 44 10000 6.7 40 18:19 05.08.2019
4137 Clear 15 1026 44 10000 6.7 40 17:46 05.08.2019
4138 Clear 15 1026 44 10000 6.7 40 17:27 05.08.2019
4139 Clear 13 1027 100 10000 5.7 20 16:47 05.08.2019
4140 Clear 13 1027 100 10000 5.7 20 16:27 05.08.2019
4141 Clear 11 1027 93 10000 5.1 30 15:57 05.08.2019
4142 Clear 10 1027 93 10000 5.1 30 15:39 05.08.2019
4143 Clear 10 1027 93 10000 5.1 30 15:39 05.08.2019
4144 Clear 10 1027 93 10000 5.1 30 15:20 05.08.2019
4145 Clear 8 1026 93 10000 4.6 40 14:39 05.08.2019
4146 Clear 8 1026 93 10000 4.6 40 14:19 05.08.2019
4147 Clear 6 1026 93 10000 4.1 40 13:45 05.08.2019
4148 Clear 6 1026 93 10000 4.1 40 13:23 05.08.2019
4149 Clear 5 1027 69 10000 3.6 40 12:49 05.08.2019
4150 Clear 5 1027 69 10000 3.6 40 12:21 05.08.2019
4151 Clear 6 1027 64 10000 1.5 10 11:54 05.08.2019
4152 Clear 6 1027 64 10000 1.5 10 11:36 05.08.2019
4153 Clear 6 1027 64 10000 1.5 10 11:18 05.08.2019
4154 Clear 7 1026 56 10000 2.1 350 10:43 05.08.2019
4155 Clear 7 1026 56 10000 2.1 350 10:22 05.08.2019
4156 Clear 7 1027 56 10000 3.1 360 09:44 05.08.2019
4157 Clear 8 1027 56 10000 3.1 360 09:26 05.08.2019
4158 Clear 8 1027 56 10000 2.1 10 08:59 05.08.2019
4159 Clear 8 1027 56 10000 2.1 10 08:41 05.08.2019
4160 Clear 8 1027 56 10000 2.1 10 08:20 05.08.2019
4161 Clear 8 1028 56 10000 4.1 360 07:45 05.08.2019
4162 Clear 8 1028 56 10000 4.1 360 07:26 05.08.2019
4163 Clear 9 1028 52 10000 3.6 10 06:35 05.08.2019
4164 Clear 9 1027 61 10000 4.6 20 05:52 05.08.2019
4165 Clear 10 1027 61 10000 4.6 20 05:20 05.08.2019
4166 Clear 10 1028 65 10000 1.5 30 04:28 05.08.2019
4167 Clear 11 1028 61 10000 9.35 345.229 03:38 05.08.2019
4168 Clear 11 1028 61 10000 1 20 02:37 05.08.2019
4169 Clear 12 1028 61 10000 1.5 20 01:35 05.08.2019
4170 Clear 12 1029 53 10000 7.72 350.599 00:43 05.08.2019
4171 Clear 12 1029 53 10000 6 344.251 00:24 05.08.2019
4172 Clear 14 1028 47 10000 6 344.251 23:59 04.08.2019
4173 Clear 14 1028 47 10000 6 344.251 23:40 04.08.2019
4174 Clear 14 1028 47 10000 6 344.251 23:20 04.08.2019
4175 Clear 16 1029 44 10000 5.1 10 22:56 04.08.2019
4176 Clear 16 1029 44 10000 5.1 10 22:37 04.08.2019
4177 Clear 16 1029 44 10000 5.1 10 22:19 04.08.2019
4178 Clear 17 1029 44 10000 5.1 360 21:43 04.08.2019
4179 Clear 17 1029 44 10000 5.1 360 21:20 04.08.2019
4180 Clear 17 1030 45 10000 5.1 360 20:55 04.08.2019
4181 Clear 17 1030 45 10000 5.1 360 20:37 04.08.2019
4182 Clear 17 1030 48 10000 5.1 360 20:18 04.08.2019
4183 Clear 17 1030 48 10000 5.1 360 19:42 04.08.2019
4184 Clear 17 1030 48 10000 5.1 360 19:24 04.08.2019
4185 Clear 16 1031 54 10000 4.6 360 18:42 04.08.2019
4186 Clear 16 1031 54 10000 4.6 360 18:21 04.08.2019
4187 Clear 14 1031 62 10000 6.2 30 17:54 04.08.2019
4188 Clear 14 1031 62 10000 6.2 30 17:36 04.08.2019
4189 Clear 14 1031 62 10000 6.2 30 17:18 04.08.2019
4190 Clear 12 1031 71 10000 3.6 360 16:41 04.08.2019
4191 Clear 12 1031 71 10000 3.6 360 16:22 04.08.2019
4192 Clear 9 1031 81 10000 3.1 10 15:45 04.08.2019
4193 Clear 9 1031 81 10000 3.1 10 15:23 04.08.2019
4194 Clear 5 1031 86 10000 3.6 10 14:46 04.08.2019
4195 Clear 5 1031 86 10000 3.6 10 14:27 04.08.2019
4196 Clear 2 1030 93 10000 3.1 30 13:59 04.08.2019
4197 Clear 2 1030 93 10000 3.1 30 13:41 04.08.2019
4198 Clear 2 1030 93 10000 3.1 30 13:22 04.08.2019
4199 Clear 3 1030 93 10000 7.66 340.25 12:44 04.08.2019
4200 Clear 3 1030 93 10000 7.38 341.388 12:25 04.08.2019
4201 Clear 4 1029 80 10000 1 360 11:56 04.08.2019
4202 Clear 4 1029 80 10000 1 360 11:37 04.08.2019
4203 Clear 4 1029 80 10000 1 360 11:19 04.08.2019
4204 Clear 3 1029 74 10000 7.38 341.388 10:40 04.08.2019
4205 Clear 3 1029 74 10000 7.38 341.388 10:20 04.08.2019
4206 Clear 2 1029 74 10000 7.38 341.388 09:44 04.08.2019
4207 Clear 2 1029 73 10000 6.71 344.287 09:22 04.08.2019
4208 Clear 3 1029 86 10000 0.5 10 08:45 04.08.2019
4209 Clear 3 1029 86 10000 0.5 10 08:26 04.08.2019
4210 Clear 4 1029 80 10000 1 30 07:52 04.08.2019
4211 Clear 4 1029 80 8000 7.04 341.426 06:57 04.08.2019
4212 Clear 4 1029 80 8000 7.04 341.426 06:28 04.08.2019
4213 Clear 7 1029 70 8000 5.51 334.146 04:26 04.08.2019
4214 Clear 5 1029 80 6000 3.66 351.772 02:41 04.08.2019
4215 Clear 7 1028 70 9000 3.66 351.772 01:39 04.08.2019
4216 Clear 7 1028 70 9000 3.72 357.057 01:18 04.08.2019
4217 Clear 8 1028 70 10000 3.72 357.057 00:41 04.08.2019
4218 Clear 9 1028 57 10000 3.6 220 00:19 04.08.2019
4219 Clear 9 1028 57 10000 3.6 220 23:40 03.08.2019
4220 Clear 9 1028 57 10000 3.6 220 23:18 03.08.2019
4221 Clouds 10 1028 66 10000 3.6 220 22:44 03.08.2019
4222 Clouds 10 1028 66 10000 3.6 220 22:22 03.08.2019
4223 Clouds 11 1027 66 10000 3.6 250 21:59 03.08.2019
4224 Clouds 11 1027 66 10000 3.6 250 21:37 03.08.2019
4225 Clouds 11 1027 66 10000 3.6 250 21:19 03.08.2019
4226 Clouds 12 1028 62 10000 5.1 250 20:42 03.08.2019
4227 Clouds 12 1028 62 10000 5.1 250 20:22 03.08.2019
4228 Clouds 12 1028 62 10000 5.1 210 19:42 03.08.2019
4229 Clouds 12 1028 62 10000 5.1 210 19:24 03.08.2019
4230 Clouds 12 1028 58 10000 5.1 220 18:53 03.08.2019
4231 Clouds 12 1028 58 10000 5.1 220 18:27 03.08.2019
4232 Clouds 11 1027 66 10000 7.7 240 17:49 03.08.2019
4233 Clouds 11 1027 66 10000 7.7 240 17:22 03.08.2019
4234 Clouds 11 1027 71 10000 6.2 220 16:56 03.08.2019
4235 Clouds 11 1027 71 10000 6.2 220 16:37 03.08.2019
4236 Clouds 11 1027 71 10000 6.2 220 16:19 03.08.2019
4237 Clouds 10 1026 66 10000 6.7 220 15:43 03.08.2019
4238 Clouds 10 1026 66 10000 6.7 220 15:23 03.08.2019
4239 Clouds 9 1026 75 10000 3.6 240 14:41 03.08.2019
4240 Clouds 9 1026 75 10000 3.6 240 14:21 03.08.2019
4241 Clear 8 1025 75 10000 2.1 250 13:52 03.08.2019
4242 Clear 8 1025 75 10000 2.1 250 13:25 03.08.2019
4243 Clear 7 1024 81 10000 2.1 260 12:58 03.08.2019
4244 Clear 7 1024 81 10000 2.1 260 12:39 03.08.2019
4245 Clear 7 1024 81 10000 2.1 260 12:21 03.08.2019
4246 Clear 9 1023 66 10000 5.1 240 11:49 03.08.2019
4247 Clear 9 1023 66 10000 5.1 240 11:27 03.08.2019
4248 Clear 9 1023 66 10000 4.6 240 10:42 03.08.2019
4249 Clear 9 1023 66 10000 4.6 240 10:22 03.08.2019
4250 Clear 8 1024 65 10000 5.1 270 09:44 03.08.2019
4251 Clear 8 1024 65 10000 5.1 270 09:22 03.08.2019
4252 Clear 9 1024 61 10000 5.7 250 08:52 03.08.2019
4253 Clear 10 1024 61 10000 5.7 250 07:56 03.08.2019
4254 Clear 10 1024 61 10000 5.7 250 07:36 03.08.2019
4255 Clear 10 1024 61 10000 6.2 240 06:39 03.08.2019
4256 Clear 9 1023 66 10000 3.1 270 04:52 03.08.2019
4257 Clear 9 1023 70 10000 2.6 280 02:40 03.08.2019
4258 Clouds 9 1023 76 10000 2.6 290 01:50 03.08.2019
4259 Clouds 9 1023 76 10000 2.6 290 01:50 03.08.2019
4260 Clouds 10 1023 71 10000 4.1 260 00:49 03.08.2019
4261 Clouds 10 1023 71 10000 4.1 260 00:28 03.08.2019
4262 Clouds 11 1022 66 10000 4.6 260 23:41 02.08.2019
4263 Clouds 11 1022 66 10000 4.6 260 23:19 02.08.2019
4264 Clouds 11 1022 66 10000 6.2 260 22:57 02.08.2019
4265 Clouds 11 1022 66 10000 6.2 260 22:38 02.08.2019
4266 Clouds 11 1022 66 10000 6.2 260 22:20 02.08.2019
4267 Clouds 11 1021 66 10000 7.7 260 21:44 02.08.2019
4268 Clouds 11 1021 66 10000 7.7 260 21:25 02.08.2019
4269 Clouds 11 1021 66 10000 7.7 260 20:59 02.08.2019
4270 Clouds 11 1021 66 10000 7.7 260 20:41 02.08.2019
4271 Clouds 11 1020 62 10000 7.2 250 20:20 02.08.2019
4272 Clouds 11 1020 62 10000 7.2 250 19:48 02.08.2019
4273 Clouds 10 1020 62 10000 7.2 250 19:28 02.08.2019
4274 Clouds 11 1021 71 10000 8.2 270 18:45 02.08.2019
4275 Clouds 11 1021 71 10000 8.2 270 18:26 02.08.2019
4276 Clouds 10 1021 76 10000 7.7 260 17:48 02.08.2019
4277 Clouds 10 1021 76 10000 7.7 260 17:25 02.08.2019
4278 Clouds 9 1021 76 10000 8.2 260 16:59 02.08.2019
4279 Clouds 9 1021 76 10000 8.2 260 16:38 02.08.2019
4280 Clouds 9 1021 76 10000 8.2 260 16:19 02.08.2019
4281 Clouds 9 1020 70 10000 9.3 260 15:40 02.08.2019
4282 Clouds 9 1020 70 10000 9.3 260 15:20 02.08.2019
4283 Clouds 9 1019 75 10000 5.1 260 14:46 02.08.2019
4284 Clouds 9 1019 75 10000 5.1 260 14:19 02.08.2019
4285 Clouds 8 1018 75 10000 5.7 260 13:50 02.08.2019
4286 Clouds 8 1018 75 10000 5.7 260 13:28 02.08.2019
4287 Clouds 8 1018 75 10000 5.7 250 12:47 02.08.2019
4288 Clouds 8 1018 75 10000 5.7 250 12:23 02.08.2019
4289 Clouds 9 1017 66 10000 7.7 250 11:56 02.08.2019
4290 Clouds 9 1017 66 10000 7.7 250 11:37 02.08.2019
4291 Clouds 9 1017 66 10000 7.7 250 11:18 02.08.2019
4292 Clouds 9 1016 61 10000 8.7 250 10:42 02.08.2019
4293 Clouds 9 1016 61 10000 8.7 250 10:23 02.08.2019
4294 Clear 10 1016 57 10000 10.3 260 09:52 02.08.2019
4295 Clear 10 1016 57 10000 10.3 260 09:28 02.08.2019
4296 Clear 9 1016 61 10000 4.1 280 08:52 02.08.2019
4297 Clear 9 1016 61 10000 4.1 280 08:23 02.08.2019
4298 Clear 10 1016 57 10000 4.6 260 07:52 02.08.2019
4299 Clear 10 1016 57 10000 4.6 260 07:32 02.08.2019
4300 Clear 11 1016 62 10000 4.1 250 06:54 02.08.2019
4301 Clear 11 1016 62 10000 4.1 250 06:24 02.08.2019
4302 Clear 7 1016 81 10000 3.6 270 05:37 02.08.2019
4303 Clear 11 1015 57 10000 4.1 260 03:31 02.08.2019
4304 Clear 11 1014 57 10000 5.1 260 02:35 02.08.2019
4305 Clear 10 1012 76 10000 4.1 280 00:47 02.08.2019
4306 Clear 10 1012 76 10000 4.1 280 00:20 02.08.2019
4307 Clear 12 1011 66 10000 5.1 290 23:43 01.08.2019
4308 Clear 12 1011 66 10000 5.1 290 23:19 01.08.2019
4309 Clear 13 1011 58 10000 6.7 290 22:41 01.08.2019
4310 Clear 13 1011 58 10000 6.7 290 22:21 01.08.2019
4311 Clear 14 1010 58 10000 7.2 290 21:54 01.08.2019
4312 Clear 14 1010 58 10000 7.2 290 21:36 01.08.2019
4313 Clear 14 1010 58 10000 7.2 290 21:18 01.08.2019
4314 Clear 14 1010 58 10000 5.1 280 20:41 01.08.2019
4315 Clear 14 1010 58 10000 5.1 280 20:22 01.08.2019
4316 Clear 15 1010 62 10000 7.2 280 19:45 01.08.2019
4317 Clear 15 1010 62 10000 7.2 280 19:23 01.08.2019
4318 Clear 15 1010 58 10000 6.2 290 18:55 01.08.2019
4319 Clear 15 1010 58 10000 6.2 290 18:36 01.08.2019
4320 Clear 14 1010 58 10000 6.2 290 18:18 01.08.2019
4321 Clear 14 1010 71 10000 3.6 300 17:44 01.08.2019
4322 Clear 14 1010 71 10000 3.6 300 17:26 01.08.2019
4323 Clear 13 1010 76 10000 1.5 290 16:44 01.08.2019
4324 Clear 13 1010 76 10000 1.5 290 16:22 01.08.2019
4325 Clear 11 1010 81 10000 1 350 15:46 01.08.2019
4326 Clear 11 1010 81 10000 1 350 15:20 01.08.2019
4327 Clear 12 1010 76 10000 1.5 260 14:55 01.08.2019
4328 Clear 12 1010 76 10000 1.5 260 14:37 01.08.2019
4329 Clear 12 1010 76 10000 1.5 260 14:18 01.08.2019
4330 Clouds 12 1008 76 10000 3.6 190 13:41 01.08.2019
4331 Clouds 12 1008 76 10000 3.6 190 13:22 01.08.2019
4332 Clear 12 1009 76 10000 5.1 210 12:58 01.08.2019
4333 Clear 12 1009 76 10000 5.1 210 12:40 01.08.2019
4334 Clear 12 1009 76 10000 5.1 210 12:21 01.08.2019
4335 Clear 12 1008 81 10000 3.1 210 11:41 01.08.2019
4336 Clear 12 1008 81 10000 3.1 210 11:22 01.08.2019
4337 Clear 13 1008 87 10000 5.1 220 10:45 01.08.2019
4338 Clear 13 1008 87 10000 5.1 220 10:27 01.08.2019
4339 Clouds 14 1007 93 10000 5.1 240 09:56 01.08.2019
4340 Clouds 14 1007 93 10000 5.1 240 09:38 01.08.2019
4341 Clouds 14 1007 93 10000 5.1 240 09:20 01.08.2019
4342 Clouds 13 1007 93 10000 6.37 232.417 08:42 01.08.2019
4343 Clouds 13 1007 93 10000 6.37 232.417 08:19 01.08.2019
4344 Clouds 13 1007 93 8000 6.37 232.417 07:46 01.08.2019
4345 Clouds 13 1007 93 8000 6.37 232.417 07:22 01.08.2019
4346 Clouds 13 1007 93 7000 6.37 232.417 06:45 01.08.2019
4347 Clouds 14 1007 82 10000 4.3 276.616 05:37 01.08.2019
4348 Clear 14 1007 82 10000 4.3 276.616 03:53 01.08.2019
4349 Clear 13 1007 87 10000 5.31 292.767 02:26 01.08.2019
4350 Clear 16 1007 67 10000 1.5 340 00:41 01.08.2019
4351 Clear 16 1007 67 10000 1.5 340 00:19 01.08.2019
4352 Clear 18 1007 68 10000 4.1 330 23:42 31.07.2019
4353 Clear 18 1007 68 10000 4.1 330 23:20 31.07.2019
4354 Clear 20 1007 56 10000 4.1 340 22:47 31.07.2019
4355 Clear 20 1007 56 10000 4.1 340 22:29 31.07.2019
4356 Clear 20 1007 60 10000 7.7 340 21:45 31.07.2019
4357 Clear 20 1007 60 10000 7.7 340 21:24 31.07.2019
4358 Clouds 20 1008 60 10000 6.7 330 20:58 31.07.2019
4359 Clouds 20 1008 60 10000 6.7 330 20:39 31.07.2019
4360 Clouds 20 1008 60 10000 6.7 330 20:21 31.07.2019
4361 Clouds 19 1009 68 10000 5.7 340 19:41 31.07.2019
4362 Clouds 19 1009 68 10000 5.7 340 19:23 31.07.2019
4363 Clouds 19 1011 68 10000 6.2 360 18:42 31.07.2019
4364 Clouds 19 1011 68 10000 6.2 360 18:23 31.07.2019
4365 Clear 17 1012 67 10000 5.1 360 17:56 31.07.2019
4366 Clear 17 1012 67 10000 5.1 360 17:37 31.07.2019
4367 Clear 17 1012 67 10000 5.1 360 17:19 31.07.2019
4368 Clear 15 1012 82 10000 6.7 360 16:42 31.07.2019
4369 Clear 15 1012 82 10000 6.7 360 16:19 31.07.2019
4370 Clear 12 1012 87 10000 6.2 20 15:44 31.07.2019
4371 Clear 12 1012 87 10000 6.2 20 15:24 31.07.2019
4372 Clear 11 1013 93 10000 4.1 20 14:43 31.07.2019
4373 Clear 11 1013 93 10000 4.1 20 14:21 31.07.2019
4374 Clouds 9 1013 93 8000 3.6 20 13:57 31.07.2019
4375 Clouds 9 1013 93 8000 3.6 20 13:57 31.07.2019
4376 Clouds 9 1013 93 8000 3.6 20 13:38 31.07.2019
4377 Clouds 9 1013 93 8000 3.6 20 13:19 31.07.2019
4378 Clear 8 1013 100 10000 3.6 360 12:45 31.07.2019
4379 Clear 8 1013 100 10000 3.6 360 12:45 31.07.2019
4380 Clear 8 1013 100 10000 3.6 360 12:26 31.07.2019
4381 Clear 8 1013 100 10000 3.1 360 11:55 31.07.2019
4382 Clear 8 1013 100 10000 3.1 360 11:36 31.07.2019
4383 Clear 8 1013 100 10000 3.1 360 11:18 31.07.2019
4384 Clear 8 1013 100 10000 3.1 360 10:41 31.07.2019
4385 Clear 8 1013 100 10000 3.1 360 10:20 31.07.2019
4386 Clear 8 1014 100 10000 3.1 360 09:43 31.07.2019
4387 Clear 8 1014 100 10000 3.1 360 09:24 31.07.2019
4388 Clear 8 1014 100 10000 3.1 360 09:24 31.07.2019
4389 Clouds 8 1014 93 8000 3.1 350 08:44 31.07.2019
4390 Clouds 8 1014 93 8000 3.1 350 08:26 31.07.2019
4391 Clouds 8 1014 100 8000 3.1 350 07:57 31.07.2019
4392 Clouds 8 1014 100 8000 3.1 350 07:34 31.07.2019
4393 Clear 9 1015 93 10000 3.1 360 06:18 31.07.2019
4394 Clear 10 1016 93 10000 2.1 10 04:42 31.07.2019
4395 Clear 11 1016 93 10000 5.77 309.979 01:21 31.07.2019
4396 Clear 13 1016 82 10000 2.1 330 23:57 30.07.2019
4397 Clear 13 1016 82 10000 2.1 330 23:39 30.07.2019
4398 Clear 13 1016 82 10000 2.1 330 23:18 30.07.2019
4399 Clear 14 1016 67 10000 3.6 330 22:42 30.07.2019
4400 Clear 14 1016 67 10000 3.6 330 22:23 30.07.2019
4401 Clear 14 1017 67 10000 3.1 340 21:38 30.07.2019
4402 Clear 14 1017 67 10000 3.1 340 21:20 30.07.2019
4403 Clear 14 1017 76 10000 4.6 300 20:58 30.07.2019
4404 Clear 14 1017 76 10000 4.6 300 20:39 30.07.2019
4405 Clear 14 1017 76 10000 4.6 300 20:20 30.07.2019
4406 Clouds 14 1017 82 10000 4.6 300 19:49 30.07.2019
4407 Clouds 14 1017 82 10000 4.6 300 19:30 30.07.2019
4408 Clouds 14 1018 82 10000 5.1 300 18:48 30.07.2019
4409 Clouds 14 1018 82 10000 5.1 300 18:27 30.07.2019
4410 Clouds 14 1018 71 10000 4.6 270 17:59 30.07.2019
4411 Clouds 14 1018 71 10000 4.6 270 17:41 30.07.2019
4412 Clouds 13 1018 71 10000 4.6 270 17:19 30.07.2019
4413 Clouds 12 1018 81 10000 3.1 300 16:46 30.07.2019
4414 Clouds 12 1018 81 10000 3.1 300 16:20 30.07.2019
4415 Clouds 11 1018 93 10000 2.1 270 15:44 30.07.2019
4416 Clouds 11 1018 93 10000 2.1 270 15:23 30.07.2019
4417 Mist 11 1018 100 5000 2.1 300 14:59 30.07.2019
4418 Mist 11 1018 93 2500 2.1 300 14:40 30.07.2019
4419 Mist 11 1018 93 2500 2.1 300 14:18 30.07.2019
4420 Fog 10 1017 93 100 1.5 320 13:41 30.07.2019
4421 Fog 10 1017 93 100 1.5 320 13:23 30.07.2019
4422 Fog 10 1017 100 2000 2.1 300 12:55 30.07.2019
4423 Fog 10 1017 100 50 2.6 200 12:37 30.07.2019
4424 Mist 9 1017 100 1800 3.1 320 12:18 30.07.2019
4425 Mist 9 1017 100 1800 3.1 320 11:38 30.07.2019
4426 Mist 9 1017 100 1800 3.1 320 11:19 30.07.2019
4427 Fog 8 1016 100 50 2.1 320 10:42 30.07.2019
4428 Fog 8 1016 100 50 2.1 320 10:23 30.07.2019
4429 Fog 8 1017 100 50 1.5 330 09:49 30.07.2019
4430 Fog 8 1017 100 50 1.5 330 09:31 30.07.2019
4431 Fog 8 1017 100 50 1.5 320 08:49 30.07.2019
4432 Fog 8 1017 100 50 1.5 320 08:31 30.07.2019
4433 Fog 8 1017 100 50 1.5 300 07:47 30.07.2019
4434 Fog 8 1017 100 50 1.5 300 07:28 30.07.2019
4435 Fog 9 1017 100 100 4.71 269.27 06:48 30.07.2019
4436 Fog 9 1017 100 800 3.73 273.285 05:56 30.07.2019
4437 Fog 9 1017 100 800 3.73 273.285 05:32 30.07.2019
4438 Clouds 11 1017 93 10000 3.1 260 01:41 30.07.2019
4439 Clouds 11 1017 93 10000 3.1 260 01:19 30.07.2019
4440 Clouds 11 1017 100 10000 1.5 240 00:21 30.07.2019
4441 Mist 12 1017 93 5000 2.6 230 23:45 29.07.2019
4442 Mist 12 1017 93 5000 2.6 230 23:26 29.07.2019
4443 Mist 12 1017 93 5000 2.6 230 23:26 29.07.2019
4444 Clouds 13 1017 93 10000 3.1 260 22:57 29.07.2019
4445 Clouds 13 1017 93 10000 3.1 260 22:38 29.07.2019
4446 Clouds 13 1017 93 10000 3.1 260 22:20 29.07.2019
4447 Clouds 14 1017 76 10000 3.6 230 21:56 29.07.2019
4448 Clouds 14 1017 76 10000 3.6 230 21:37 29.07.2019
4449 Clouds 14 1017 76 10000 3.6 230 21:18 29.07.2019
4450 Clouds 14 1016 72 10000 2.6 250 20:48 29.07.2019
4451 Clouds 14 1016 72 10000 2.6 250 20:24 29.07.2019
4452 Clouds 15 1017 82 10000 1.5 0 19:56 29.07.2019
4453 Clouds 15 1017 82 10000 1.5 0 19:37 29.07.2019
4454 Clouds 15 1017 82 10000 1.5 0 19:19 29.07.2019
4455 Clouds 15 1018 77 10000 1 0 18:42 29.07.2019
4456 Clouds 15 1018 77 10000 1 0 18:22 29.07.2019
4457 Clouds 13 1019 87 10000 2.1 10 17:51 29.07.2019
4458 Clouds 13 1019 87 10000 2.1 10 17:33 29.07.2019
4459 Clouds 13 1019 87 6000 0.5 20 16:58 29.07.2019
4460 Clouds 13 1019 87 6000 0.5 20 16:39 29.07.2019
4461 Clouds 11 1019 87 6000 0.5 20 16:21 29.07.2019
4462 Mist 11 1020 93 5000 0.29 121.067 15:50 29.07.2019
4463 Mist 11 1020 100 7000 1.5 60 15:31 29.07.2019
4464 Mist 9 1020 100 3000 2.72 356.018 14:46 29.07.2019
4465 Mist 9 1020 100 3000 2.72 356.018 14:22 29.07.2019
4466 Fog 10 1020 93 0 2.1 100 13:59 29.07.2019
4467 Fog 10 1020 93 0 2.1 100 13:41 29.07.2019
4468 Fog 10 1020 93 0 2.1 100 13:23 29.07.2019
4469 Clouds 10 1019 93 0 3.6 70 12:42 29.07.2019
4470 Clouds 10 1019 93 0 3.6 70 12:22 29.07.2019
4471 Clear 8 1020 93 10000 1.5 90 11:43 29.07.2019
4472 Clear 8 1020 93 10000 1.5 90 11:22 29.07.2019
4473 Clear 8 1020 93 10000 2.1 80 10:45 29.07.2019
4474 Clear 8 1020 93 10000 2.1 80 10:24 29.07.2019
4475 Clear 7 1020 100 10000 2.1 70 09:48 29.07.2019
4476 Clear 7 1020 100 10000 2.1 70 09:28 29.07.2019
4477 Clear 8 1021 93 10000 1.5 100 08:57 29.07.2019
4478 Clear 8 1021 93 10000 1.5 100 08:31 29.07.2019
4479 Clear 8 1021 93 10000 6.83 24.397 07:58 29.07.2019
4480 Clear 8 1021 93 10000 6.83 24.397 07:36 29.07.2019
4481 Clear 8 1022 93 10000 6.83 24.397 06:45 29.07.2019
4482 Clear 9 1021 93 10000 6.5 32.231 05:46 29.07.2019
4483 Clear 10 1022 81 10000 6.5 32.231 04:50 29.07.2019
4484 Clear 11 1022 81 10000 3.1 80 01:59 29.07.2019
4485 Clear 11 1022 81 10000 3.1 80 01:41 29.07.2019
4486 Clear 10 1022 81 10000 3.1 80 01:21 29.07.2019
4487 Clear 10 1022 81 10000 3.1 80 01:21 29.07.2019
4488 Clear 11 1022 87 10000 2.1 90 00:41 29.07.2019
4489 Clear 12 1022 71 10000 2.6 60 00:19 29.07.2019
4490 Clear 12 1022 71 10000 2.6 60 23:40 28.07.2019
4491 Clear 12 1022 71 10000 2.6 60 23:18 28.07.2019
4492 Clear 13 1023 62 10000 3.1 60 22:38 28.07.2019
4493 Clear 13 1023 62 10000 3.1 60 22:38 28.07.2019
4494 Clear 13 1023 71 10000 3.1 120 22:19 28.07.2019
4495 Clear 12 1023 71 10000 3.1 120 21:46 28.07.2019
4496 Clear 13 1023 71 10000 3.1 120 21:18 28.07.2019
4497 Clear 13 1024 54 10000 5.1 80 20:45 28.07.2019
4498 Clear 13 1024 54 10000 5.1 80 20:27 28.07.2019
4499 Clear 14 1025 62 10000 3.6 60 19:42 28.07.2019
4500 Clear 13 1025 62 10000 3.6 60 19:22 28.07.2019
4501 Clear 12 1026 62 10000 3.6 40 18:51 28.07.2019
4502 Clear 12 1026 62 10000 3.6 40 18:32 28.07.2019
4503 Clear 12 1026 62 10000 3.6 40 18:32 28.07.2019
4504 Clear 11 1027 76 10000 5.1 40 17:59 28.07.2019
4505 Clear 11 1027 76 10000 5.1 40 17:41 28.07.2019
4506 Clear 11 1027 76 10000 5.1 40 17:21 28.07.2019
4507 Clear 10 1027 81 10000 2.6 90 16:47 28.07.2019
4508 Clear 9 1027 81 10000 2.6 90 16:28 28.07.2019
4509 Clear 8 1027 87 10000 2.6 90 15:59 28.07.2019
4510 Clear 8 1027 87 10000 2.6 90 15:41 28.07.2019
4511 Clear 8 1027 87 10000 2.6 90 15:21 28.07.2019
4512 Clear 6 1027 93 10000 3.6 90 14:37 28.07.2019
4513 Clear 6 1027 93 10000 3.6 90 14:37 28.07.2019
4514 Clear 6 1027 93 10000 3.6 90 14:19 28.07.2019
4515 Mist 5 1027 93 3000 4.1 60 13:44 28.07.2019
4516 Mist 5 1027 93 3000 4.1 60 13:23 28.07.2019
4517 Fog 4 1027 100 3000 4.95 45.213 12:59 28.07.2019
4518 Fog 4 1027 100 50 1 0 12:40 28.07.2019
4519 Fog 4 1027 100 50 1 0 12:22 28.07.2019
4520 Fog 5 1027 100 500 3.99 42.489 11:47 28.07.2019
4521 Fog 5 1027 100 200 3.99 42.489 11:27 28.07.2019
4522 Mist 6 1027 100 4000 1 60 10:41 28.07.2019
4523 Mist 7 1027 100 4000 1 60 10:22 28.07.2019
4524 Mist 7 1027 93 4000 3.99 42.489 09:47 28.07.2019
4525 Fog 7 1027 100 2000 3.99 42.489 09:29 28.07.2019
4526 Fog 8 1028 93 0 3.65 41.122 08:52 28.07.2019
4527 Fog 8 1028 93 0 3.65 41.122 08:30 28.07.2019
4528 Clouds 9 1028 93 10000 3.65 41.122 07:59 28.07.2019
4529 Clouds 9 1028 93 10000 3.65 41.122 07:37 28.07.2019
4530 Clouds 10 1028 87 10000 1.5 70 06:45 28.07.2019
4531 Clouds 10 1028 93 10000 1.5 90 05:53 28.07.2019
4532 Clouds 10 1028 93 10000 3.6 150 03:39 28.07.2019
4533 Clouds 10 1028 87 10000 1.5 170 02:24 28.07.2019
4534 Clouds 9 1028 93 10000 1.5 180 01:20 28.07.2019
4535 Clear 9 1027 93 10000 2.1 190 00:45 28.07.2019
4536 Clear 9 1027 93 10000 2.1 190 00:22 28.07.2019
4537 Clear 10 1027 87 10000 2.1 210 23:46 27.07.2019
4538 Clear 10 1027 87 10000 2.1 210 23:22 27.07.2019
4539 Clear 12 1027 87 10000 2.1 250 22:42 27.07.2019
4540 Clear 12 1027 87 10000 2.1 250 22:22 27.07.2019
4541 Clouds 13 1026 82 10000 3.1 190 21:43 27.07.2019
4542 Rain 12 1026 82 10000 3.1 190 21:20 27.07.2019
4543 Rain 13 1026 67 10000 3.1 270 20:53 27.07.2019
4544 Clouds 13 1026 67 10000 3.1 270 20:26 27.07.2019
4545 Clouds 13 1026 71 10000 2.6 280 19:58 27.07.2019
4546 Clouds 13 1026 71 10000 2.6 280 19:38 27.07.2019
4547 Clouds 13 1026 71 10000 2.6 280 19:19 27.07.2019
4548 Rain 13 1027 82 10000 3.6 290 18:45 27.07.2019
4549 Rain 13 1027 82 10000 3.6 290 18:27 27.07.2019
4550 Clouds 12 1028 93 10000 4.6 270 17:42 27.07.2019
4551 Clouds 12 1028 93 10000 4.6 270 17:24 27.07.2019
4552 Clouds 11 1028 93 10000 3.1 260 16:51 27.07.2019
4553 Mist 11 1028 93 5000 3.1 260 16:32 27.07.2019
4554 Mist 10 1027 100 2000 2.6 270 15:55 27.07.2019
4555 Fog 10 1027 100 600 2.6 360 15:25 27.07.2019
4556 Fog 11 1027 100 2000 3.6 240 14:53 27.07.2019
4557 Fog 11 1026 100 100 3.1 270 14:34 27.07.2019
4558 Fog 10 1025 100 400 2.6 270 13:59 27.07.2019
4559 Mist 10 1025 100 3000 3.6 270 13:41 27.07.2019
4560 Mist 10 1025 100 3000 3.6 270 13:21 27.07.2019
4561 Fog 10 1025 100 6000 2.1 310 12:49 27.07.2019
4562 Fog 10 1025 100 800 1.5 300 12:26 27.07.2019
4563 Fog 10 1024 100 10000 2.1 300 11:46 27.07.2019
4564 Fog 10 1024 100 10000 2.1 300 11:25 27.07.2019
4565 Rain 10 1024 93 10000 2.1 290 10:57 27.07.2019
4566 Rain 10 1024 93 10000 2.1 290 10:39 27.07.2019
4567 Rain 10 1024 93 10000 2.1 290 10:19 27.07.2019
4568 Clouds 11 1024 87 10000 2.1 280 09:40 27.07.2019
4569 Clouds 11 1024 87 10000 2.1 280 09:22 27.07.2019
4570 Clouds 12 1024 93 10000 3.1 250 08:47 27.07.2019
4571 Clouds 12 1024 93 10000 3.1 250 08:27 27.07.2019
4572 Clouds 12 1024 87 10000 4.1 250 07:47 27.07.2019
4573 Clouds 12 1024 87 10000 4.1 250 07:27 27.07.2019
4574 Clouds 12 1023 87 10000 3.6 260 06:55 27.07.2019
4575 Clouds 12 1023 87 10000 3.6 260 06:29 27.07.2019
4576 Rain 12 1023 87 10000 4.1 230 05:43 27.07.2019
4577 Clouds 12 1022 93 10000 4.1 240 04:59 27.07.2019
4578 Clouds 12 1022 93 10000 4.1 240 04:21 27.07.2019
4579 Clouds 12 1020 93 10000 5.7 240 02:44 27.07.2019
4580 Clouds 12 1020 93 10000 5.7 240 02:25 27.07.2019
4581 Clouds 12 1019 93 10000 6.2 240 01:43 27.07.2019
4582 Drizzle 12 1018 93 10000 3.1 270 00:57 27.07.2019
4583 Drizzle 12 1018 93 10000 3.1 270 00:32 27.07.2019
4584 Rain 12 1017 100 2500 6.2 240 23:51 26.07.2019
4585 Rain 12 1017 100 2500 6.2 240 23:32 26.07.2019
4586 Drizzle 12 1016 100 3000 7.2 220 22:46 26.07.2019
4587 Drizzle 12 1015 100 1100 6.2 240 22:27 26.07.2019
4588 Drizzle 12 1014 100 2500 6.2 270 21:59 26.07.2019
4589 Drizzle 12 1014 100 2500 6.2 270 21:37 26.07.2019
4590 Rain 12 1014 100 2500 6.2 270 21:18 26.07.2019
4591 Rain 12 1014 100 1200 3.1 300 20:42 26.07.2019
4592 Rain 12 1014 100 1200 3.1 300 20:22 26.07.2019
4593 Drizzle 12 1014 100 2500 4.6 300 19:43 26.07.2019
4594 Drizzle 12 1014 100 2500 4.6 300 19:24 26.07.2019
4595 Rain 13 1015 93 6000 2.6 300 18:56 26.07.2019
4596 Rain 13 1015 93 6000 2.6 300 18:36 26.07.2019
4597 Rain 13 1014 100 8000 5.1 310 18:18 26.07.2019
4598 Rain 13 1014 100 8000 5.1 310 17:42 26.07.2019
4599 Rain 13 1014 100 8000 5.1 310 17:19 26.07.2019
4600 Rain 13 1014 100 3500 1.5 330 16:57 26.07.2019
4601 Rain 13 1014 100 3500 1.5 330 16:38 26.07.2019
4602 Rain 13 1014 100 3500 1.5 330 16:19 26.07.2019
4603 Rain 12 1014 100 5000 3.1 310 15:55 26.07.2019
4604 Rain 12 1014 100 1200 2.6 290 15:36 26.07.2019
4605 Rain 12 1014 100 1200 2.6 290 15:18 26.07.2019
4606 Rain 12 1015 100 700 1 200 14:42 26.07.2019
4607 Rain 12 1015 100 700 1 200 14:22 26.07.2019
4608 Rain 12 1014 100 1200 1 200 13:42 26.07.2019
4609 Rain 12 1014 100 1200 1 200 13:24 26.07.2019
4610 Rain 12 1014 100 400 1 220 12:49 26.07.2019
4611 Rain 12 1014 100 3000 1.5 150 12:20 26.07.2019
4612 Rain 12 1014 100 3000 1.5 150 11:47 26.07.2019
4613 Rain 12 1014 100 3000 1.5 150 11:22 26.07.2019
4614 Rain 12 1015 100 3000 1.5 130 10:58 26.07.2019
4615 Rain 12 1015 100 5000 2.6 150 10:38 26.07.2019
4616 Rain 12 1015 100 5000 2.6 150 10:18 26.07.2019
4617 Rain 12 1016 100 3000 2.1 130 09:42 26.07.2019
4618 Rain 12 1016 100 3000 2.1 130 09:24 26.07.2019
4619 Rain 12 1016 100 4000 3.6 120 08:40 26.07.2019
4620 Rain 12 1017 100 4000 5.1 110 08:20 26.07.2019
4621 Rain 12 1017 100 4000 5.1 110 07:39 26.07.2019
4622 Rain 12 1018 100 4000 5.1 100 07:18 26.07.2019
4623 Rain 12 1018 100 4000 5.1 100 06:21 26.07.2019
4624 Rain 12 1020 100 3000 7.7 110 04:30 26.07.2019
4625 Rain 12 1020 100 3000 7.7 110 03:50 26.07.2019
4626 Rain 12 1022 100 3000 6.7 120 01:46 26.07.2019
4627 Rain 12 1022 100 3000 6.7 120 01:18 26.07.2019
4628 Rain 12 1022 93 1500 6.2 130 00:28 26.07.2019
4629 Rain 11 1022 100 10000 6.2 120 23:46 25.07.2019
4630 Rain 12 1022 93 4000 6.2 140 23:20 25.07.2019
4631 Rain 12 1023 93 4000 7.2 140 22:41 25.07.2019
4632 Rain 12 1023 93 4000 7.2 140 22:21 25.07.2019
4633 Rain 12 1023 87 4000 5.1 130 21:48 25.07.2019
4634 Rain 12 1023 87 4000 5.1 130 21:23 25.07.2019
4635 Rain 12 1023 87 4000 3.6 130 20:58 25.07.2019
4636 Rain 12 1023 76 10000 6.2 140 20:38 25.07.2019
4637 Rain 12 1023 76 10000 6.2 140 20:18 25.07.2019
4638 Clouds 13 1024 76 10000 7.2 120 19:40 25.07.2019
4639 Clouds 13 1024 76 10000 7.2 120 19:22 25.07.2019
4640 Clouds 12 1025 76 10000 6.2 130 18:42 25.07.2019
4641 Clouds 12 1025 76 10000 6.2 130 18:23 25.07.2019
4642 Clear 13 1026 71 10000 5.1 120 17:50 25.07.2019
4643 Clear 13 1026 71 10000 5.1 120 17:32 25.07.2019
4644 Clouds 13 1027 71 10000 5.7 130 16:57 25.07.2019
4645 Clouds 13 1027 71 10000 5.7 130 16:57 25.07.2019
4646 Clouds 12 1027 71 10000 5.7 130 16:38 25.07.2019
4647 Clouds 12 1027 71 10000 5.7 130 16:19 25.07.2019
4648 Clear 12 1027 71 10000 5.1 120 15:44 25.07.2019
4649 Clear 12 1027 71 10000 5.1 120 15:19 25.07.2019
4650 Clear 11 1027 76 10000 4.1 140 14:43 25.07.2019
4651 Clear 11 1027 76 10000 4.1 140 14:23 25.07.2019
4652 Clear 11 1027 81 10000 6.7 140 13:55 25.07.2019
4653 Clear 11 1027 81 10000 6.7 140 13:36 25.07.2019
4654 Rain 11 1027 81 10000 6.7 140 13:18 25.07.2019
4655 Rain 11 1027 81 10000 6.7 140 13:18 25.07.2019
4656 Clouds 11 1027 76 10000 4.1 140 12:30 25.07.2019
4657 Clear 11 1028 71 10000 6.7 120 11:54 25.07.2019
4658 Clear 11 1028 71 10000 6.7 120 11:36 25.07.2019
4659 Clear 11 1028 71 10000 6.7 120 11:18 25.07.2019
4660 Clear 11 1027 76 10000 4.6 120 10:42 25.07.2019
4661 Clear 11 1027 76 10000 4.6 120 10:23 25.07.2019
4662 Clear 11 1028 81 10000 4.6 120 09:44 25.07.2019
4663 Clear 11 1028 81 10000 4.6 120 09:25 25.07.2019
4664 Clear 11 1028 76 10000 3.6 130 08:44 25.07.2019
4665 Clear 11 1028 76 10000 3.6 130 08:20 25.07.2019
4666 Clear 11 1029 81 10000 1.5 130 07:36 25.07.2019
4667 Clouds 11 1029 81 10000 3.6 130 06:44 25.07.2019
4668 Clouds 11 1029 81 10000 3.6 140 05:48 25.07.2019
4669 Clouds 11 1029 81 10000 3.6 140 05:30 25.07.2019
4670 Clouds 10 1030 76 10000 3.6 140 04:38 25.07.2019
4671 Clouds 9 1030 70 10000 3.1 150 02:21 25.07.2019
4672 Clouds 10 1030 70 10000 3.6 150 01:21 25.07.2019
4673 Clouds 10 1029 70 10000 2.6 150 00:22 25.07.2019
4674 Clouds 10 1029 66 10000 3.6 160 23:52 24.07.2019
4675 Clouds 10 1029 66 10000 3.6 160 23:31 24.07.2019
4676 Clouds 11 1029 71 10000 3.6 170 22:58 24.07.2019
4677 Clouds 11 1029 71 10000 3.6 170 22:39 24.07.2019
4678 Rain 11 1029 71 10000 3.6 170 22:20 24.07.2019
4679 Rain 11 1029 62 10000 4.1 170 21:43 24.07.2019
4680 Clouds 11 1029 62 10000 4.1 170 21:22 24.07.2019
4681 Clouds 12 1029 62 10000 4.1 180 20:58 24.07.2019
4682 Clouds 12 1029 62 10000 4.1 180 20:38 24.07.2019
4683 Clouds 12 1029 62 10000 4.1 180 20:20 24.07.2019
4684 Clouds 12 1028 66 10000 5.1 180 19:54 24.07.2019
4685 Clouds 12 1028 66 10000 5.1 180 19:36 24.07.2019
4686 Clouds 12 1028 66 10000 5.1 180 19:18 24.07.2019
4687 Clouds 12 1029 66 10000 56.1 160 18:40 24.07.2019
4688 Clouds 12 1029 66 10000 56.1 160 18:22 24.07.2019
4689 Clouds 13 1029 62 10000 4.6 180 17:42 24.07.2019
4690 Clouds 12 1029 62 10000 4.6 180 17:20 24.07.2019
4691 Clouds 12 1029 62 10000 5.1 180 16:42 24.07.2019
4692 Clouds 11 1029 62 10000 5.1 180 16:22 24.07.2019
4693 Clouds 11 1028 66 10000 5.1 180 15:41 24.07.2019
4694 Clouds 11 1028 66 10000 5.1 180 15:23 24.07.2019
4695 Clear 11 1027 71 10000 4.1 180 14:57 24.07.2019
4696 Clear 11 1027 71 10000 4.1 180 14:38 24.07.2019
4697 Clear 11 1027 71 10000 4.1 180 14:38 24.07.2019
4698 Clear 11 1027 71 10000 4.1 180 14:19 24.07.2019
4699 Clear 9 1027 75 10000 3.1 190 13:37 24.07.2019
4700 Clear 9 1024 81 10000 3.6 170 13:18 24.07.2019
4701 Clear 9 1024 81 10000 3.6 170 12:50 24.07.2019
4702 Clear 9 1024 81 10000 3.6 170 12:30 24.07.2019
4703 Clear 10 1026 70 10000 6.7 170 11:40 24.07.2019
4704 Clear 10 1026 70 10000 6.7 170 11:20 24.07.2019
4705 Clear 10 1026 76 10000 5.7 180 10:44 24.07.2019
4706 Clear 10 1026 76 10000 5.7 180 10:25 24.07.2019
4707 Clouds 10 1026 76 10000 4.1 150 09:48 24.07.2019
4708 Clouds 10 1026 76 10000 4.1 150 09:25 24.07.2019
4709 Clouds 10 1026 76 10000 4.1 150 09:25 24.07.2019
4710 Clouds 10 1027 87 10000 4.6 170 08:58 24.07.2019
4711 Clouds 10 1027 87 10000 4.6 170 08:32 24.07.2019
4712 Clouds 10 1027 81 10000 2.6 170 07:52 24.07.2019
4713 Clouds 10 1027 81 10000 2.6 170 07:24 24.07.2019
4714 Clouds 9 1028 81 10000 1.5 180 06:33 24.07.2019
4715 Rain 9 1027 76 9000 4.1 140 05:56 24.07.2019
4716 Clouds 11 1026 71 10000 5.7 170 02:54 24.07.2019
4717 Clouds 11 1025 71 10000 5.7 160 01:31 24.07.2019
4718 Clear 11 1026 81 10000 5.1 170 00:57 24.07.2019
4719 Clear 11 1026 81 10000 5.1 170 00:23 24.07.2019
4720 Clear 11 1025 81 10000 6.2 170 23:45 23.07.2019
4721 Clear 11 1025 81 10000 6.2 170 23:25 23.07.2019
4722 Clear 11 1024 76 10000 6.7 170 22:55 23.07.2019
4723 Clear 11 1024 76 10000 6.7 170 22:36 23.07.2019
4724 Clear 11 1024 76 10000 6.7 170 22:18 23.07.2019
4725 Rain 11 1024 76 10000 7.2 170 21:42 23.07.2019
4726 Rain 11 1024 76 10000 7.2 170 21:23 23.07.2019
4727 Clear 12 1024 71 10000 5.7 180 20:48 23.07.2019
4728 Clear 12 1024 71 10000 5.7 180 20:27 23.07.2019
4729 Clear 12 1024 76 10000 6.2 160 19:43 23.07.2019
4730 Clear 12 1024 76 10000 6.2 160 19:24 23.07.2019
4731 Clear 12 1024 76 10000 6.2 160 19:24 23.07.2019
4732 Clear 12 1025 66 10000 6.7 180 18:55 23.07.2019
4733 Clear 12 1025 66 10000 6.7 180 18:37 23.07.2019
4734 Clear 12 1025 66 10000 6.7 180 18:18 23.07.2019
4735 Clear 13 1025 71 10000 6.7 160 17:41 23.07.2019
4736 Clear 13 1025 71 10000 6.7 160 17:20 23.07.2019
4737 Clear 12 1024 76 10000 5.1 160 16:42 23.07.2019
4738 Clear 12 1024 76 10000 5.1 160 16:24 23.07.2019
4739 Clear 11 1024 76 10000 5.7 160 15:48 23.07.2019
4740 Clear 11 1024 76 10000 5.7 160 15:29 23.07.2019
4741 Clear 11 1024 76 10000 4.6 170 14:41 23.07.2019
4742 Clear 11 1024 76 10000 4.6 170 14:23 23.07.2019
4743 Clear 10 1024 93 10000 5.1 160 14:00 23.07.2019
4744 Rain 10 1024 93 10000 5.1 160 13:41 23.07.2019
4745 Rain 10 1024 93 10000 5.1 160 13:23 23.07.2019
4746 Rain 10 1023 93 10000 6.2 170 12:49 23.07.2019
4747 Clear 10 1023 93 10000 6.2 170 12:28 23.07.2019
4748 Clear 11 1023 81 10000 6.2 170 11:59 23.07.2019
4749 Clear 11 1023 81 10000 6.2 170 11:40 23.07.2019
4750 Clear 11 1023 81 10000 6.2 170 11:20 23.07.2019
4751 Clouds 11 1023 87 10000 6.7 180 10:42 23.07.2019
4752 Clouds 11 1023 87 10000 6.7 180 10:22 23.07.2019
4753 Clear 11 1024 81 10000 5.1 170 09:42 23.07.2019
4754 Clear 11 1024 81 10000 5.1 170 09:22 23.07.2019
4755 Clear 11 1024 81 10000 3.6 160 08:44 23.07.2019
4756 Clear 11 1023 81 10000 4.1 170 08:20 23.07.2019
4757 Clear 11 1023 81 10000 4.1 170 07:57 23.07.2019
4758 Clear 11 1023 81 10000 4.1 170 07:37 23.07.2019
4759 Clear 11 1023 76 10000 5.7 160 06:52 23.07.2019
4760 Clear 11 1023 76 10000 5.7 160 06:34 23.07.2019
4761 Clear 11 1022 81 10000 4.6 160 04:26 23.07.2019
4762 Clouds 11 1020 81 10000 5.1 180 01:37 23.07.2019
4763 Clouds 11 1020 93 10000 4.1 180 00:41 23.07.2019
4764 Clouds 11 1020 93 10000 4.1 180 00:19 23.07.2019
4765 Clouds 11 1019 87 10000 5.7 180 23:39 22.07.2019
4766 Clouds 12 1019 81 10000 3.1 180 23:19 22.07.2019
4767 Clouds 12 1019 81 10000 3.1 180 22:45 22.07.2019
4768 Clouds 12 1019 81 10000 3.1 180 22:23 22.07.2019
4769 Clouds 12 1020 81 10000 4.6 200 21:44 22.07.2019
4770 Clouds 12 1020 81 10000 4.6 200 21:24 22.07.2019
4771 Clouds 13 1017 71 10000 6.7 190 20:59 22.07.2019
4772 Clouds 13 1017 71 10000 6.7 190 20:41 22.07.2019
4773 Clouds 13 1017 71 10000 6.7 190 20:21 22.07.2019
4774 Clouds 13 1017 71 10000 7.2 190 19:42 22.07.2019
4775 Clouds 13 1017 71 10000 7.2 190 19:22 22.07.2019
4776 Clouds 13 1017 76 10000 6.7 190 18:48 22.07.2019
4777 Clouds 13 1017 76 10000 6.7 190 18:28 22.07.2019
4778 Clear 13 1017 76 10000 6.7 190 17:59 22.07.2019
4779 Clear 13 1017 76 10000 6.7 190 17:38 22.07.2019
4780 Clear 13 1017 76 10000 6.7 190 17:20 22.07.2019
4781 Clouds 13 1017 81 10000 5.7 180 16:40 22.07.2019
4782 Clouds 13 1017 81 10000 5.7 180 16:21 22.07.2019
4783 Clouds 13 1016 87 10000 6.2 190 15:46 22.07.2019
4784 Clouds 13 1016 87 10000 6.2 190 15:21 22.07.2019
4785 Clouds 12 1015 87 10000 6.2 180 14:59 22.07.2019
4786 Clouds 12 1015 87 10000 6.2 180 14:40 22.07.2019
4787 Clouds 12 1015 87 10000 6.2 180 14:18 22.07.2019
4788 Clouds 12 1015 87 10000 4.6 180 13:40 22.07.2019
4789 Clouds 12 1015 87 10000 4.6 180 13:22 22.07.2019
4790 Clouds 12 1013 100 10000 6.2 180 12:36 22.07.2019
4791 Clouds 12 1013 93 10000 6.2 190 11:59 22.07.2019
4792 Clouds 12 1013 93 10000 6.2 190 11:41 22.07.2019
4793 Clouds 12 1013 93 10000 6.2 190 11:20 22.07.2019
4794 Rain 12 1011 93 10000 6.7 190 10:43 22.07.2019
4795 Rain 12 1011 93 10000 6.7 190 10:24 22.07.2019
4796 Clouds 12 1011 100 10000 6.2 190 09:42 22.07.2019
4797 Clouds 12 1011 100 10000 6.2 190 09:23 22.07.2019
4798 Thunderstorm 12 1011 93 5000 7.7 190 08:44 22.07.2019
4799 Thunderstorm 12 1011 93 5000 7.7 190 08:24 22.07.2019
4800 Thunderstorm 12 1011 93 3000 7.2 200 07:54 22.07.2019
4801 Thunderstorm 12 1011 93 3000 7.2 200 07:31 22.07.2019
4802 Rain 12 1010 93 6000 7.2 190 06:42 22.07.2019
4803 Thunderstorm 15 1005 100 3000 6.2 200 03:50 22.07.2019
4804 Thunderstorm 19 1003 68 10000 3.6 310 01:51 22.07.2019
4805 Thunderstorm 24 1001 69 10000 6.2 10 00:50 22.07.2019
4806 Thunderstorm 24 1001 69 10000 6.2 10 00:24 22.07.2019
4807 Thunderstorm 25 1001 57 10000 6.2 340 23:54 21.07.2019
4808 Thunderstorm 24 1001 57 10000 6.2 340 23:27 21.07.2019
4809 Thunderstorm 25 1001 69 10000 5.1 360 22:41 21.07.2019
4810 Thunderstorm 25 1001 69 10000 5.1 360 22:22 21.07.2019
4811 Thunderstorm 25 1000 54 10000 8.2 10 21:57 21.07.2019
4812 Thunderstorm 26 1000 54 10000 9.3 10 21:37 21.07.2019
4813 Clouds 27 1000 54 10000 7.7 10 21:18 21.07.2019
4814 Clouds 27 1000 54 10000 7.7 10 20:44 21.07.2019
4815 Clouds 27 1000 54 10000 7.7 10 20:25 21.07.2019
4816 Clouds 27 1000 54 10000 7.7 10 20:25 21.07.2019
4817 Clouds 25 1001 53 10000 11.3 20 19:55 21.07.2019
4818 Clouds 25 1001 53 10000 11.3 20 19:36 21.07.2019
4819 Clouds 25 1001 53 10000 11.3 20 19:18 21.07.2019
4820 Clouds 26 1002 50 10000 9.3 20 18:44 21.07.2019
4821 Clouds 25 1002 50 10000 9.3 20 18:24 21.07.2019
4822 Rain 24 1003 56 10000 7.2 20 17:42 21.07.2019
4823 Rain 24 1003 56 10000 7.2 20 17:20 21.07.2019
4824 Rain 23 1004 56 10000 7.7 20 16:45 21.07.2019
4825 Rain 23 1004 56 10000 7.7 20 16:25 21.07.2019
4826 Thunderstorm 22 1004 68 10000 8.7 20 15:54 21.07.2019
4827 Thunderstorm 22 1004 68 10000 8.7 20 15:36 21.07.2019
4828 Thunderstorm 22 1004 68 10000 8.7 20 15:18 21.07.2019
4829 Rain 20 1004 72 10000 8.7 30 14:41 21.07.2019
4830 Rain 20 1004 72 10000 8.7 30 14:20 21.07.2019
4831 Thunderstorm 20 1004 77 10000 7.2 10 13:44 21.07.2019
4832 Rain 20 1004 77 10000 7.2 10 13:25 21.07.2019
4833 Rain 20 1004 72 10000 7.7 30 12:42 21.07.2019
4834 Clouds 20 1004 72 10000 7.7 30 12:24 21.07.2019
4835 Clear 21 1004 68 10000 7.7 10 11:47 21.07.2019
4836 Clear 21 1004 68 10000 7.7 10 11:28 21.07.2019
4837 Clear 21 1004 68 10000 7.2 20 10:56 21.07.2019
4838 Clear 21 1004 68 10000 7.2 20 10:38 21.07.2019
4839 Clear 22 1004 68 10000 7.2 20 10:19 21.07.2019
4840 Clear 21 1005 72 10000 7.2 20 09:37 21.07.2019
4841 Clear 21 1005 72 10000 7.2 20 09:19 21.07.2019
4842 Rain 20 1005 72 10000 7.2 30 08:40 21.07.2019
4843 Rain 20 1005 72 10000 7.2 30 08:22 21.07.2019
4844 Clear 20 1006 72 10000 7.2 40 07:32 21.07.2019
4845 Clear 20 1006 72 10000 6.2 40 06:42 21.07.2019
4846 Clear 20 1007 72 10000 7.2 40 05:27 21.07.2019
4847 Clear 17 1009 88 10000 4.1 60 02:20 21.07.2019
4848 Clouds 18 1010 93 10000 3.1 70 00:51 21.07.2019
4849 Clouds 18 1010 93 10000 3.1 70 00:24 21.07.2019
4850 Clouds 18 1010 82 10000 3.6 70 23:57 20.07.2019
4851 Clouds 18 1010 82 10000 3.6 70 23:37 20.07.2019
4852 Clouds 18 1010 82 10000 3.6 70 23:18 20.07.2019
4853 Clouds 18 1011 82 10000 5.1 50 23:18 20.07.2019
4854 Clouds 18 1011 82 10000 5.1 50 22:42 20.07.2019
4855 Clouds 18 1011 82 10000 5.1 50 22:20 20.07.2019
4856 Clouds 19 1011 82 10000 5.7 30 21:45 20.07.2019
4857 Clouds 19 1011 82 10000 5.7 30 21:24 20.07.2019
4858 Clouds 20 1012 72 10000 6.2 30 20:44 20.07.2019
4859 Clouds 20 1012 72 10000 6.2 30 20:23 20.07.2019
4860 Clouds 21 1013 68 0 6.2 30 19:59 20.07.2019
4861 Clouds 21 1013 68 0 6.2 30 19:38 20.07.2019
4862 Clouds 21 1013 68 0 6.2 30 19:19 20.07.2019
4863 Clouds 20 1014 72 0 6.7 10 18:40 20.07.2019
4864 Clear 19 1015 72 10000 5.7 40 18:19 20.07.2019
4865 Clear 19 1015 72 10000 5.7 40 17:48 20.07.2019
4866 Clear 17 1016 82 10000 5.1 30 17:20 20.07.2019
4867 Clear 17 1016 82 10000 5.1 30 16:43 20.07.2019
4868 Clear 16 1016 82 10000 5.1 30 16:24 20.07.2019
4869 Clear 15 1015 87 10000 4.6 30 15:56 20.07.2019
4870 Clear 15 1015 87 10000 4.6 30 15:37 20.07.2019
4871 Clear 15 1015 87 10000 4.6 30 15:18 20.07.2019
4872 Mist 13 1016 93 10000 4.1 30 14:43 20.07.2019
4873 Mist 13 1016 93 10000 4.1 30 14:20 20.07.2019
4874 Mist 12 1016 100 8000 4.1 30 13:38 20.07.2019
4875 Mist 12 1016 100 8000 4.1 30 13:19 20.07.2019
4876 Mist 12 1016 100 2000 0.5 20 12:52 20.07.2019
4877 Clouds 12 1016 100 8000 1.5 10 12:20 20.07.2019
4878 Clear 12 1015 100 10000 3.6 10 11:55 20.07.2019
4879 Clear 13 1015 100 10000 3.6 10 11:23 20.07.2019
4880 Clear 12 1015 100 10000 3.1 20 10:55 20.07.2019
4881 Clear 13 1015 100 10000 3.1 20 10:36 20.07.2019
4882 Clear 13 1015 100 10000 3.1 20 10:18 20.07.2019
4883 Clear 12 1016 100 10000 2.1 20 09:43 20.07.2019
4884 Clear 13 1016 100 10000 2.1 20 09:18 20.07.2019
4885 Clear 14 1016 93 10000 2.1 20 08:39 20.07.2019
4886 Clear 14 1016 93 10000 2.1 20 08:19 20.07.2019
4887 Clear 14 1016 93 10000 2.6 20 07:18 20.07.2019
4888 Clear 14 1016 93 10000 2.6 20 06:35 20.07.2019
4889 Mist 14 1016 100 3000 4.3 342.198 04:31 20.07.2019
4890 Fog 13 1015 100 1500 5.55 356.757 02:38 20.07.2019
4891 Fog 13 1015 100 3000 5.55 356.757 01:21 20.07.2019
4892 Mist 13 1015 93 8000 1.5 0 00:46 20.07.2019
4893 Mist 13 1015 93 8000 1.5 0 00:19 20.07.2019
4894 Mist 15 1015 72 10000 1.5 0 23:43 19.07.2019
4895 Mist 15 1015 72 10000 1.5 0 23:24 19.07.2019
4896 Clouds 17 1015 68 10000 2.1 20 22:45 19.07.2019
4897 Clouds 17 1015 68 10000 2.1 20 22:26 19.07.2019
4898 Clouds 18 1016 60 10000 4.1 360 21:49 19.07.2019
4899 Clouds 18 1016 60 10000 4.1 360 21:31 19.07.2019
4900 Clear 18 1016 68 10000 3.1 10 20:58 19.07.2019
4901 Clear 18 1016 68 10000 3.1 10 20:37 19.07.2019
4902 Clear 19 1016 63 10000 4.1 30 20:18 19.07.2019
4903 Clear 20 1016 63 10000 4.1 30 19:35 19.07.2019
4904 Clear 19 1018 63 10000 3.1 40 18:43 19.07.2019
4905 Clear 19 1018 63 10000 3.1 40 18:23 19.07.2019
4906 Clear 17 1019 67 10000 1.5 30 17:55 19.07.2019
4907 Clear 17 1019 67 10000 1.5 30 17:29 19.07.2019
4908 Clear 14 1019 77 10000 4.6 30 16:50 19.07.2019
4909 Clear 14 1019 77 10000 4.6 30 16:29 19.07.2019
4910 Clear 12 1020 93 8000 3.8 7.791 15:56 19.07.2019
4911 Mist 12 1019 87 10000 2.1 30 15:38 19.07.2019
4912 Mist 12 1019 87 10000 2.1 30 15:20 19.07.2019
4913 Mist 11 1019 93 10000 2.1 30 14:44 19.07.2019
4914 Mist 11 1019 93 10000 2.1 30 14:25 19.07.2019
4915 Fog 11 1019 100 2500 1.03 85.537 13:46 19.07.2019
4916 Fog 11 1019 100 2500 1.06 92.44 13:27 19.07.2019
4917 Clear 11 1019 93 10000 1.5 100 12:57 19.07.2019
4918 Clear 11 1019 93 10000 1.5 100 12:38 19.07.2019
4919 Clear 11 1019 93 10000 1.5 100 12:19 19.07.2019
4920 Clear 11 1019 93 10000 2.1 40 11:45 19.07.2019
4921 Clear 12 1019 93 10000 2.1 40 11:18 19.07.2019
4922 Clear 12 1019 93 10000 2.1 40 11:18 19.07.2019
4923 Clear 12 1020 93 10000 0.44 45 10:48 19.07.2019
4924 Clear 12 1020 93 10000 0.44 45 10:23 19.07.2019
4925 Clear 12 1020 93 10000 2.1 70 09:59 19.07.2019
4926 Clear 12 1020 93 10000 2.1 70 09:41 19.07.2019
4927 Clear 12 1020 93 10000 2.1 70 09:22 19.07.2019
4928 Clear 12 1021 93 10000 2.6 90 08:49 19.07.2019
4929 Clear 12 1021 93 10000 2.6 90 08:22 19.07.2019
4930 Clear 12 1022 93 10000 4.6 100 07:29 19.07.2019
4931 Clear 11 1022 93 10000 3.6 130 06:26 19.07.2019
4932 Mist 12 1021 87 5000 1.5 210 02:56 19.07.2019
4933 Clouds 13 1021 82 8000 3.68 167.534 01:21 19.07.2019
4934 Clear 13 1021 87 10000 1.5 0 00:46 19.07.2019
4935 Clear 14 1020 82 10000 1.5 0 23:59 18.07.2019
4936 Clear 15 1020 82 10000 1.5 0 23:40 18.07.2019
4937 Clear 15 1020 82 10000 1.5 0 23:22 18.07.2019
4938 Clear 15 1020 72 10000 2.1 10 22:42 18.07.2019
4939 Clear 15 1020 72 10000 2.1 10 22:20 18.07.2019
4940 Clear 16 1020 63 10000 2.6 350 21:52 18.07.2019
4941 Clear 17 1020 63 10000 2.6 350 21:34 18.07.2019
4942 Clear 17 1021 63 10000 2.1 350 20:57 18.07.2019
4943 Clear 17 1021 63 10000 2.1 350 20:38 18.07.2019
4944 Clear 17 1021 63 10000 2.1 350 20:18 18.07.2019
4945 Clear 17 1022 67 10000 3.6 360 19:46 18.07.2019
4946 Clear 17 1022 67 10000 3.6 360 19:21 18.07.2019
4947 Clear 16 1022 67 10000 4.1 360 18:49 18.07.2019
4948 Clear 16 1022 67 10000 4.1 360 18:21 18.07.2019
4949 Clear 15 1022 71 10000 5.1 360 17:45 18.07.2019
4950 Clear 15 1022 71 10000 5.1 360 17:45 18.07.2019
4951 Clear 15 1022 71 10000 5.1 360 17:45 18.07.2019
4952 Clear 15 1022 71 10000 5.1 360 17:26 18.07.2019
4953 Clear 14 1022 76 10000 7.7 10 16:58 18.07.2019
4954 Clear 14 1022 76 10000 7.7 10 16:40 18.07.2019
4955 Clear 14 1022 76 10000 7.7 10 16:21 18.07.2019
4956 Clear 13 1022 81 10000 5.1 20 15:55 18.07.2019
4957 Clear 12 1022 81 10000 5.1 20 15:35 18.07.2019
4958 Clear 11 1021 87 10000 6.7 20 14:55 18.07.2019
4959 Clear 11 1021 87 10000 6.7 20 14:37 18.07.2019
4960 Clear 10 1021 93 10000 3.1 30 13:54 18.07.2019
4961 Clear 10 1021 93 10000 5.7 30 13:36 18.07.2019
4962 Clear 10 1021 93 10000 5.7 30 13:18 18.07.2019
4963 Clear 10 1020 87 10000 4.1 30 12:42 18.07.2019
4964 Clear 10 1021 93 10000 1.5 360 12:18 18.07.2019
4965 Clear 10 1020 93 10000 1 350 11:48 18.07.2019
4966 Clear 10 1020 93 10000 1 350 11:27 18.07.2019
4967 Clear 11 1019 87 10000 3.1 20 10:52 18.07.2019
4968 Clear 12 1019 87 10000 3.6 40 09:52 18.07.2019
4969 Clear 12 1019 87 10000 3.6 40 09:27 18.07.2019
4970 Clear 12 1020 87 10000 1.5 10 08:59 18.07.2019
4971 Clear 12 1020 87 10000 1.5 10 08:41 18.07.2019
4972 Clear 12 1020 87 10000 1.5 10 08:18 18.07.2019
4973 Clear 12 1020 81 10000 3.1 40 07:37 18.07.2019
4974 Clear 12 1020 87 10000 3.6 30 06:58 18.07.2019
4975 Clear 12 1020 87 10000 3.6 30 06:34 18.07.2019
4976 Clear 12 1020 81 10000 5.1 40 04:19 18.07.2019
4977 Clear 13 1021 71 10000 4.6 50 02:52 18.07.2019
4978 Clear 14 1022 62 10000 2.1 30 01:37 18.07.2019
4979 Clear 15 1022 58 10000 4.1 30 00:24 18.07.2019
4980 Clear 15 1022 58 10000 4.1 30 23:49 17.07.2019
4981 Clear 16 1022 55 10000 6.7 20 23:18 17.07.2019
4982 Clear 16 1022 55 10000 6.7 20 22:43 17.07.2019
4983 Clear 16 1022 55 10000 6.7 20 22:23 17.07.2019
4984 Clear 17 1022 55 10000 4.6 20 21:58 17.07.2019
4985 Clear 17 1022 51 10000 5.1 10 21:39 17.07.2019
4986 Clear 17 1022 51 10000 5.1 10 21:21 17.07.2019
4987 Clear 17 1022 48 10000 6.2 20 20:57 17.07.2019
4988 Clear 17 1022 48 10000 7.7 10 20:39 17.07.2019
4989 Clear 17 1023 48 10000 6.7 10 20:20 17.07.2019
4990 Clear 17 1023 51 10000 7.2 10 19:43 17.07.2019
4991 Clear 17 1023 51 10000 7.2 10 19:21 17.07.2019
4992 Clear 16 1024 55 10000 8.2 20 18:56 17.07.2019
4993 Clear 16 1024 55 10000 8.2 20 18:37 17.07.2019
4994 Clear 15 1026 62 10000 7.2 10 18:18 17.07.2019
4995 Clear 15 1026 62 10000 7.2 10 17:43 17.07.2019
4996 Clear 15 1026 62 10000 7.2 10 17:22 17.07.2019
4997 Clear 13 1026 66 10000 7.2 20 16:42 17.07.2019
4998 Clear 13 1026 66 10000 7.2 20 16:22 17.07.2019
4999 Clear 12 1026 71 10000 4.6 20 15:51 17.07.2019
5000 Clear 10 1026 81 10000 6.7 30 15:31 17.07.2019
5001 Clear 8 1027 87 10000 5.1 30 14:57 17.07.2019
5002 Clear 8 1027 87 10000 5.1 30 14:39 17.07.2019
5003 Clear 8 1027 87 10000 5.1 30 14:21 17.07.2019
5004 Clear 8 1027 87 10000 5.1 30 14:20 17.07.2019
5005 Clear 6 1026 87 10000 3.1 30 13:51 17.07.2019
5006 Clear 6 1026 87 10000 3.1 30 13:31 17.07.2019
5007 Clear 6 1027 93 10000 2.6 30 13:00 17.07.2019
5008 Clear 6 1026 93 10000 2.1 30 12:38 17.07.2019
5009 Clear 6 1026 93 10000 1 20 12:19 17.07.2019
5010 Clear 7 1026 87 10000 1.5 30 11:41 17.07.2019
5011 Clear 6 1026 93 10000 1.5 10 11:19 17.07.2019
5012 Clear 6 1026 93 10000 1.5 10 10:48 17.07.2019
5013 Clear 7 1026 93 10000 1.5 10 10:24 17.07.2019
5014 Clear 7 1026 81 10000 1.5 40 09:45 17.07.2019
5015 Clear 7 1026 81 10000 1.5 40 09:27 17.07.2019
5016 Clear 8 1026 75 10000 1.5 30 08:45 17.07.2019
5017 Clear 7 1026 75 10000 1.5 30 08:25 17.07.2019
5018 Clear 7 1026 75 10000 1.5 30 07:59 17.07.2019
5019 Clear 7 1026 80 10000 2.1 30 07:41 17.07.2019
5020 Clear 7 1026 81 10000 2.1 20 07:21 17.07.2019
5021 Clear 7 1026 81 10000 2.1 20 06:45 17.07.2019
5022 Clear 7 1026 81 10000 2.1 20 06:45 17.07.2019
5023 Clear 8 1026 81 10000 2.1 20 06:27 17.07.2019
5024 Clear 9 1025 75 10000 2.1 40 05:41 17.07.2019
5025 Rain 9 1025 81 8000 6.48 11.449 04:59 17.07.2019
5026 Fog 8 1026 100 3500 6.48 11.449 03:57 17.07.2019
5027 Fog 8 1026 100 1500 5.48 13.91 02:44 17.07.2019
5028 Fog 8 1025 100 2000 1.5 120 01:42 17.07.2019
5029 Fog 9 1025 100 2000 1.5 120 01:23 17.07.2019
5030 Fog 9 1025 100 400 2.6 110 00:43 17.07.2019
5031 Fog 9 1025 100 400 2.6 110 00:23 17.07.2019
5032 Clear 10 1024 62 10000 2.1 50 23:46 16.07.2019
5033 Clear 10 1024 62 10000 2.1 50 23:25 16.07.2019
5034 Clear 11 1024 54 10000 2.6 40 22:57 16.07.2019
5035 Clear 11 1024 54 10000 2.6 40 22:39 16.07.2019
5036 Clear 12 1024 54 10000 4.1 20 22:18 16.07.2019
5037 Clear 12 1024 54 10000 4.1 20 21:41 16.07.2019
5038 Clear 13 1024 50 10000 3.1 50 21:20 16.07.2019
5039 Clear 13 1024 50 10000 3.1 50 20:41 16.07.2019
5040 Clear 13 1024 50 10000 3.1 50 20:23 16.07.2019
5041 Clear 12 1025 58 10000 3.1 60 19:55 16.07.2019
5042 Clear 12 1025 58 10000 3.1 60 19:37 16.07.2019
5043 Clear 12 1025 62 10000 3.1 40 19:19 16.07.2019
5044 Clear 11 1025 62 10000 3.1 40 18:44 16.07.2019
5045 Clear 10 1025 76 10000 3.41 343.317 18:21 16.07.2019
5046 Clear 10 1025 76 10000 3.41 343.317 17:54 16.07.2019
5047 Clear 9 1026 87 10000 1 40 17:36 16.07.2019
5048 Mist 9 1026 100 9000 3.41 343.317 16:53 16.07.2019
5049 Mist 9 1027 100 900 3.41 343.317 16:28 16.07.2019
5050 Mist 7 1026 100 3000 1.5 20 15:58 16.07.2019
5051 Mist 7 1026 100 1400 1 360 15:39 16.07.2019
5052 Fog 5 1025 100 1200 0.5 50 15:20 16.07.2019
5053 Rain 5 1025 100 1200 0.5 50 14:56 16.07.2019
5054 Rain 6 1025 100 200 1 40 14:38 16.07.2019
5055 Rain 4 1024 100 100 1.96 337.706 14:19 16.07.2019
5056 Fog 4 1024 100 100 1.96 337.706 13:44 16.07.2019
5057 Fog 3 1024 100 50 2.75 348.211 13:19 16.07.2019
5058 Fog 4 1024 100 50 2.75 348.211 12:44 16.07.2019
5059 Fog 5 1024 100 50 0.85 312.801 12:20 16.07.2019
5060 Fog 5 1024 100 50 0.85 312.801 11:55 16.07.2019
5061 Fog 6 1023 100 50 0.85 312.801 11:37 16.07.2019
5062 Fog 4 1023 100 50 0.85 312.801 11:19 16.07.2019
5063 Fog 5 1023 100 50 0.85 312.801 10:45 16.07.2019
5064 Fog 5 1023 100 50 0.85 312.801 10:22 16.07.2019
5065 Fog 5 1023 100 50 0.85 312.801 09:44 16.07.2019
5066 Fog 6 1023 100 50 2.15 201.181 09:22 16.07.2019
5067 Fog 7 1023 100 50 2.15 201.181 08:58 16.07.2019
5068 Fog 7 1023 100 50 2.24 202.484 08:40 16.07.2019
5069 Fog 8 1023 100 100 2.24 202.484 08:18 16.07.2019
5070 Fog 8 1023 100 100 2.24 202.484 07:41 16.07.2019
5071 Fog 8 1023 100 100 2.24 202.484 07:22 16.07.2019
5072 Fog 8 1023 100 50 2.24 202.484 06:45 16.07.2019
5073 Fog 8 1023 100 800 3.19 219.523 05:59 16.07.2019
5074 Fog 8 1023 100 300 3.19 219.523 05:32 16.07.2019
5075 Fog 9 1023 100 800 3.19 219.523 04:54 16.07.2019
5076 Fog 9 1022 100 300 3.19 219.523 03:52 16.07.2019
5077 Fog 9 1022 100 800 3.94 203.777 02:55 16.07.2019
5078 Mist 10 1022 93 3000 3.94 203.777 02:28 16.07.2019
5079 Mist 10 1022 87 5000 3.94 203.777 01:41 16.07.2019
5080 Clear 10 1021 93 7000 1 300 00:41 16.07.2019
5081 Clear 11 1021 81 8000 2.1 310 00:19 16.07.2019
5082 Clear 11 1020 81 8000 1.5 300 23:44 15.07.2019
5083 Clear 11 1020 81 8000 1.5 300 23:25 15.07.2019
5084 Clouds 13 1020 76 10000 3.6 290 22:47 15.07.2019
5085 Clouds 13 1020 76 10000 3.6 290 22:22 15.07.2019
5086 Clouds 13 1020 71 10000 4.1 270 21:58 15.07.2019
5087 Clouds 13 1020 71 10000 4.1 270 21:39 15.07.2019
5088 Clouds 13 1020 58 10000 4.1 250 21:19 15.07.2019
5089 Clouds 14 1020 58 10000 4.1 250 20:54 15.07.2019
5090 Clouds 13 1020 58 10000 4.1 250 20:36 15.07.2019
5091 Clouds 14 1020 62 10000 4.1 250 20:18 15.07.2019
5092 Clouds 14 1020 62 10000 4.1 250 19:39 15.07.2019
5093 Clouds 13 1020 67 10000 2.1 120 19:19 15.07.2019
5094 Clouds 13 1020 71 8000 1 0 18:49 15.07.2019
5095 Clouds 13 1020 71 8000 1 0 18:23 15.07.2019
5096 Clouds 12 1021 76 8000 1.5 0 17:58 15.07.2019
5097 Clouds 12 1021 76 8000 1.5 0 17:40 15.07.2019
5098 Clouds 12 1021 76 8000 1.5 0 17:22 15.07.2019
5099 Clouds 11 1022 93 7000 1.5 0 17:22 15.07.2019
5100 Clouds 11 1022 93 7000 1.5 0 16:58 15.07.2019
5101 Rain 11 1021 93 5000 1.5 0 16:37 15.07.2019
5102 Rain 11 1022 100 5000 1 0 16:19 15.07.2019
5103 Clouds 10 1022 93 7000 1 0 15:43 15.07.2019
5104 Clouds 10 1022 93 7000 1 0 15:25 15.07.2019
5105 Mist 9 1021 93 8000 2.1 330 14:59 15.07.2019
5106 Mist 9 1021 93 5000 1 0 14:38 15.07.2019
5107 Drizzle 8 1020 93 6000 1 330 14:19 15.07.2019
5108 Drizzle 8 1020 93 6000 1 330 13:48 15.07.2019
5109 Drizzle 8 1020 100 8000 1.5 0 13:20 15.07.2019
5110 Mist 8 1020 93 8000 1 0 12:48 15.07.2019
5111 Mist 8 1020 93 8000 1 0 12:27 15.07.2019
5112 Mist 8 1020 100 5000 4.6 340 11:58 15.07.2019
5113 Rain 8 1019 93 8000 1.5 310 11:40 15.07.2019
5114 Clouds 7 1019 100 8000 1.5 320 11:19 15.07.2019
5115 Clouds 8 1019 100 8000 1.5 320 10:42 15.07.2019
5116 Clouds 7 1019 100 8000 1.5 320 10:24 15.07.2019
5117 Mist 8 1019 100 5000 2.6 20 09:43 15.07.2019
5118 Mist 8 1019 100 5000 2.6 20 09:22 15.07.2019
5119 Mist 7 1020 100 5000 5.44 286.136 08:47 15.07.2019
5120 Mist 7 1020 100 5000 5.44 286.136 08:25 15.07.2019
5121 Mist 6 1020 100 1500 5.44 286.136 07:52 15.07.2019
5122 Mist 6 1020 100 1500 5.44 286.136 07:32 15.07.2019
5123 Mist 7 1020 100 5000 3.1 70 06:41 15.07.2019
5124 Mist 7 1020 100 5000 3.1 70 06:20 15.07.2019
5125 Mist 7 1021 100 4000 4.54 343.157 05:42 15.07.2019
5126 Mist 7 1021 100 4000 4.54 343.157 04:46 15.07.2019
5127 Mist 8 1021 100 4000 4.54 343.157 04:26 15.07.2019
5128 Mist 8 1020 100 5000 4.54 343.157 03:29 15.07.2019
5129 Mist 8 1020 100 4000 1.5 350 02:23 15.07.2019
5130 Mist 8 1020 93 7000 1.95 47.448 01:35 15.07.2019
5131 Mist 8 1020 93 7000 1.95 47.448 01:35 15.07.2019
5132 Mist 9 1019 93 6000 1 70 00:54 15.07.2019
5133 Mist 9 1019 93 6000 1 70 00:28 15.07.2019
5134 Mist 9 1019 87 10000 1.64 102.691 23:59 14.07.2019
5135 Mist 9 1019 87 6000 1 120 23:40 14.07.2019
5136 Clear 10 1019 76 10000 4.6 140 23:20 14.07.2019
5137 Clear 10 1019 76 10000 4.6 140 23:20 14.07.2019
5138 Clear 10 1019 76 10000 4.6 140 22:57 14.07.2019
5139 Clear 10 1019 76 10000 4.6 140 22:38 14.07.2019
5140 Clear 11 1019 71 10000 3.6 190 22:20 14.07.2019
5141 Clear 11 1019 71 10000 3.6 190 21:46 14.07.2019
5142 Clear 12 1019 66 10000 2.1 190 21:19 14.07.2019
5143 Clear 12 1019 66 10000 2.1 190 20:59 14.07.2019
5144 Clear 12 1019 66 10000 2.1 190 20:38 14.07.2019
5145 Clouds 12 1020 66 10000 2.1 180 20:20 14.07.2019
5146 Clouds 12 1020 66 10000 2.1 180 19:55 14.07.2019
5147 Clouds 12 1020 66 10000 2.1 180 19:36 14.07.2019
5148 Clouds 12 1020 66 10000 2.1 180 19:18 14.07.2019
5149 Clear 12 1020 66 10000 0.5 0 18:40 14.07.2019
5150 Clouds 11 1020 71 10000 1 0 18:22 14.07.2019
5151 Clouds 11 1020 71 10000 1 0 17:58 14.07.2019
5152 Clouds 11 1020 71 10000 1 0 17:23 14.07.2019
5153 Clouds 11 1020 76 10000 3.1 210 16:54 14.07.2019
5154 Clouds 11 1020 76 10000 3.1 210 16:26 14.07.2019
5155 Clouds 11 1020 76 10000 3.6 220 15:58 14.07.2019
5156 Clouds 11 1020 76 10000 3.6 220 15:38 14.07.2019
5157 Clouds 9 1020 93 10000 0.5 0 15:19 14.07.2019
5158 Clouds 9 1020 93 10000 0.5 0 14:44 14.07.2019
5159 Mist 8 1020 93 4000 1.5 280 14:20 14.07.2019
5160 Mist 9 1020 93 4000 1.5 280 13:45 14.07.2019
5161 Mist 8 1020 93 4000 1.5 280 13:23 14.07.2019
5162 Clouds 9 1019 87 10000 2.7 210.311 12:56 14.07.2019
5163 Clouds 9 1019 87 10000 2.7 210.311 12:37 14.07.2019
5164 Clouds 9 1019 87 10000 3.28 216.122 12:18 14.07.2019
5165 Clouds 10 1019 81 10000 3.28 216.122 11:45 14.07.2019
5166 Clouds 9 1019 81 10000 3.28 216.122 11:20 14.07.2019
5167 Clouds 9 1019 81 10000 3.28 216.122 10:42 14.07.2019
5168 Clouds 9 1019 81 10000 3.28 216.122 10:20 14.07.2019
5169 Clouds 10 1019 76 8000 3.28 216.122 09:45 14.07.2019
5170 Clouds 10 1019 76 8000 3.28 216.122 09:27 14.07.2019
5171 Mist 9 1019 100 5000 3.2 251.508 08:46 14.07.2019
5172 Mist 9 1019 100 5000 3.2 251.508 08:24 14.07.2019
5173 Mist 9 1020 100 3000 3.2 251.508 07:41 14.07.2019
5174 Mist 9 1019 93 5000 3.2 251.508 07:19 14.07.2019
5175 Mist 8 1020 100 2000 2.79 271.58 05:45 14.07.2019
5176 Mist 8 1020 100 2000 2.79 271.58 05:45 14.07.2019
5177 Clouds 11 1019 89 0 1.79 181 03:51 14.07.2019
5178 Clouds 11 1019 89 0 1.79 181 03:33 14.07.2019
5179 Rain 9 1019 100 100 1.57 212.757 02:52 14.07.2019
5180 Fog 8 1019 100 100 1.5 310 02:22 14.07.2019
5181 Mist 8 1018 93 5000 1 230 01:34 14.07.2019
5182 Clouds 8 1018 93 8000 1 200 00:59 14.07.2019
5183 Clouds 8 1018 93 8000 1 200 00:40 14.07.2019
5184 Clouds 8 1018 93 10000 2.1 220 00:20 14.07.2019
5185 Clouds 8 1018 100 10000 2.1 240 23:45 13.07.2019
5186 Clouds 9 1018 100 10000 2.1 240 23:26 13.07.2019
5187 Clouds 10 1017 87 10000 3.6 240 22:59 13.07.2019
5188 Clouds 10 1017 87 10000 3.6 240 22:39 13.07.2019
5189 Clouds 11 1017 71 10000 2.6 270 22:20 13.07.2019
5190 Clouds 11 1017 71 10000 2.6 270 21:43 13.07.2019
5191 Clouds 11 1017 71 10000 2.6 210 21:19 13.07.2019
5192 Clouds 11 1017 71 10000 2.6 210 20:46 13.07.2019
5193 Clouds 11 1017 71 10000 2.6 210 20:27 13.07.2019
5194 Clouds 11 1017 76 10000 4.6 230 19:47 13.07.2019
5195 Clouds 11 1017 76 10000 4.6 230 19:29 13.07.2019
5196 Clouds 12 1018 81 9000 1.5 300 18:45 13.07.2019
5197 Clouds 11 1019 93 7000 3.1 310 18:22 13.07.2019
5198 Clouds 11 1019 93 7000 3.1 310 17:42 13.07.2019
5199 Clouds 11 1019 93 7000 3.1 310 17:21 13.07.2019
5200 Mist 10 1018 93 4000 1.5 300 16:58 13.07.2019
5201 Mist 10 1018 93 4000 1.5 300 16:38 13.07.2019
5202 Mist 10 1018 100 4000 1 190 16:19 13.07.2019
5203 Mist 10 1018 100 4000 1 190 16:19 13.07.2019
5204 Mist 10 1018 100 4000 1 190 15:44 13.07.2019
5205 Mist 10 1018 100 4000 1 190 15:21 13.07.2019
5206 Mist 9 1018 100 4000 1 220 14:45 13.07.2019
5207 Mist 9 1018 100 4000 1 220 14:24 13.07.2019
5208 Mist 9 1018 100 4000 1.5 240 13:46 13.07.2019
5209 Mist 9 1018 100 4000 1.5 240 13:26 13.07.2019
5210 Clouds 9 1018 93 10000 2.6 210 12:59 13.07.2019
5211 Clouds 9 1017 100 10000 5.51 194.387 12:39 13.07.2019
5212 Clouds 9 1017 100 10000 5.31 201.675 12:20 13.07.2019
5213 Mist 9 1017 100 5000 3.1 230 11:41 13.07.2019
5214 Clouds 10 1017 100 10000 3.1 220 11:19 13.07.2019
5215 Clouds 10 1017 100 10000 3.1 220 10:44 13.07.2019
5216 Clouds 10 1017 100 10000 3.1 220 10:23 13.07.2019
5217 Clouds 10 1016 100 8000 2.1 210 09:54 13.07.2019
5218 Clouds 10 1016 100 8000 2.1 210 09:54 13.07.2019
5219 Clouds 10 1016 100 8000 2.1 210 09:31 13.07.2019
5220 Clouds 10 1016 100 8000 3.6 190 08:58 13.07.2019
5221 Rain 10 1016 100 8000 3.6 190 08:33 13.07.2019
5222 Clouds 10 1016 100 8000 3.6 190 07:58 13.07.2019
5223 Mist 10 1016 100 2500 2.6 190 07:30 13.07.2019
5224 Mist 10 1016 100 5000 1.5 210 06:39 13.07.2019
5225 Mist 10 1016 100 5000 2.1 210 05:58 13.07.2019
5226 Clouds 10 1016 100 1500 3.6 200 04:49 13.07.2019
5227 Clouds 10 1016 100 1500 3.6 200 04:22 13.07.2019
5228 Mist 11 1015 100 5000 1.5 270 03:55 13.07.2019
5229 Mist 11 1015 100 5000 1.5 270 03:37 13.07.2019
5230 Mist 11 1014 100 3000 1.5 220 01:55 13.07.2019
5231 Mist 11 1014 100 3000 1.5 220 01:36 13.07.2019
5232 Mist 11 1014 100 1200 3.1 210 01:18 13.07.2019
5233 Mist 11 1014 100 1200 3.1 210 00:50 13.07.2019
5234 Fog 11 1013 100 100 2.6 250 00:18 13.07.2019
5235 Fog 11 1013 100 600 3.6 230 23:43 12.07.2019
5236 Fog 11 1013 100 600 3.6 230 23:24 12.07.2019
5237 Fog 13 1012 100 400 3.1 210 22:43 12.07.2019
5238 Fog 13 1012 100 400 3.1 210 22:23 12.07.2019
5239 Mist 13 1012 100 3000 5.92 193.733 21:42 12.07.2019
5240 Mist 13 1012 100 3000 7.49 186.382 21:22 12.07.2019
5241 Drizzle 14 1012 100 1500 1.5 240 20:54 12.07.2019
5242 Drizzle 14 1012 100 1500 1.5 240 20:54 12.07.2019
5243 Drizzle 14 1012 100 800 1.5 240 20:24 12.07.2019
5244 Mist 13 1012 100 800 3.1 240 19:45 12.07.2019
5245 Mist 13 1012 100 800 3.1 240 19:45 12.07.2019
5246 Mist 13 1012 100 800 3.1 240 19:27 12.07.2019
5247 Mist 13 1012 100 1000 3.6 230 18:59 12.07.2019
5248 Mist 13 1012 100 1000 3.6 230 18:39 12.07.2019
5249 Mist 15 1013 100 4000 4.06 155.065 18:20 12.07.2019
5250 Mist 15 1012 100 3000 1.5 320 17:48 12.07.2019
5251 Mist 15 1012 100 3000 1.5 320 17:28 12.07.2019
5252 Clouds 15 1013 100 10000 4.06 155.065 16:45 12.07.2019
5253 Clouds 15 1013 100 10000 4.06 155.065 16:21 12.07.2019
5254 Rain 15 1012 93 8000 4.06 155.065 15:41 12.07.2019
5255 Rain 15 1012 93 8000 6.15 109.661 15:22 12.07.2019
5256 Rain 15 1012 93 8000 4.1 50 14:57 12.07.2019
5257 Rain 15 1012 93 8000 4.1 50 14:38 12.07.2019
5258 Thunderstorm 14 1011 100 7000 2.1 30 14:20 12.07.2019
5259 Thunderstorm 14 1011 100 7000 2.1 30 13:42 12.07.2019
5260 Thunderstorm 14 1011 100 7000 3.6 80 13:20 12.07.2019
5261 Thunderstorm 14 1011 100 7000 3.6 80 12:40 12.07.2019
5262 Thunderstorm 14 1011 100 7000 6.2 90 12:20 12.07.2019
5263 Thunderstorm 13 1012 100 4000 4.1 90 11:45 12.07.2019
5264 Thunderstorm 13 1012 100 4000 4.1 90 11:23 12.07.2019
5265 Thunderstorm 13 1012 100 3000 4.1 100 10:44 12.07.2019
5266 Thunderstorm 13 1012 100 3000 4.1 100 10:25 12.07.2019
5267 Thunderstorm 13 1013 100 3000 3.6 100 09:55 12.07.2019
5268 Thunderstorm 13 1013 100 3000 3.6 100 09:31 12.07.2019
5269 Thunderstorm 13 1014 100 2000 3.6 170 09:00 12.07.2019
5270 Thunderstorm 13 1012 100 5000 3.6 100 08:41 12.07.2019
5271 Drizzle 12 1014 100 3000 3.6 100 08:19 12.07.2019
5272 Drizzle 13 1014 100 3000 3.6 100 07:46 12.07.2019
5273 Drizzle 12 1014 100 3000 3.6 100 07:27 12.07.2019
5274 Thunderstorm 12 1014 100 3000 2.1 170 06:29 12.07.2019
5275 Rain 13 1013 100 7000 5.1 190 05:48 12.07.2019
5276 Thunderstorm 14 1013 87 9000 5.1 250 03:23 12.07.2019
5277 Clouds 13 1012 87 10000 3.1 110 01:46 12.07.2019
5278 Mist 13 1012 87 10000 3.1 110 01:26 12.07.2019
5279 Mist 12 1013 87 2000 4.1 120 00:31 12.07.2019
5280 Mist 13 1013 76 3000 4.1 120 23:50 11.07.2019
5281 Mist 13 1013 76 3000 4.1 120 23:27 11.07.2019
5282 Clear 14 1012 63 10000 4.1 110 22:59 11.07.2019
5283 Clear 14 1012 63 10000 4.1 110 22:39 11.07.2019
5284 Clear 15 1012 59 10000 3.6 120 22:21 11.07.2019
5285 Clear 15 1012 59 10000 3.6 120 21:42 11.07.2019
5286 Clear 16 1013 56 10000 3.6 120 21:19 11.07.2019
5287 Clear 16 1013 56 10000 3.6 120 20:56 11.07.2019
5288 Clear 16 1013 56 10000 3.6 120 20:37 11.07.2019
5289 Clear 17 1014 55 10000 3.1 100 20:18 11.07.2019
5290 Clear 17 1014 55 10000 3.1 100 20:18 11.07.2019
5291 Clear 17 1014 55 10000 3.1 100 19:45 11.07.2019
5292 Clear 17 1014 55 10000 3.1 100 19:25 11.07.2019
5293 Clear 17 1014 63 10000 2.6 90 18:53 11.07.2019
5294 Clear 17 1014 63 10000 2.6 90 18:33 11.07.2019
5295 Clear 16 1014 55 10000 1.5 90 17:59 11.07.2019
5296 Clear 16 1015 67 10000 2.6 90 17:40 11.07.2019
5297 Clear 16 1015 67 10000 2.6 90 17:22 11.07.2019
5298 Clear 15 1015 72 10000 3.1 90 16:49 11.07.2019
5299 Clear 15 1015 72 10000 3.1 90 16:23 11.07.2019
5300 Clear 13 1015 82 10000 2.1 90 15:49 11.07.2019
5301 Clear 13 1015 82 10000 2.1 90 15:30 11.07.2019
5302 Fog 11 1015 87 10000 3.1 80 14:59 11.07.2019
5303 Fog 11 1015 87 10000 3.1 80 14:40 11.07.2019
5304 Mist 10 1015 93 3000 2.6 120 14:21 11.07.2019
5305 Mist 10 1015 93 3000 2.6 120 13:46 11.07.2019
5306 Mist 10 1015 93 3000 2.6 120 13:26 11.07.2019
5307 Mist 9 1015 100 3000 2.1 100 12:45 11.07.2019
5308 Mist 9 1015 100 3000 2.1 100 12:27 11.07.2019
5309 Clouds 10 1015 100 8000 1.24 66.765 11:55 11.07.2019
5310 Fog 10 1015 100 5000 1.24 66.765 11:37 11.07.2019
5311 Fog 10 1015 93 3000 1.24 66.765 11:18 11.07.2019
5312 Fog 11 1015 93 3000 1.24 66.765 10:45 11.07.2019
5313 Fog 10 1015 93 3000 1.24 66.765 10:19 11.07.2019
5314 Mist 10 1015 93 5000 1.24 66.765 09:44 11.07.2019
5315 Mist 10 1015 93 5000 1.62 337.168 09:24 11.07.2019
5316 Mist 10 1015 93 5000 1.64 8.86 08:51 11.07.2019
5317 Mist 10 1015 93 5000 1.64 8.86 08:24 11.07.2019
5318 Clouds 10 1016 93 6000 1.64 8.86 07:52 11.07.2019
5319 Clouds 10 1016 93 6000 1.64 8.86 07:34 11.07.2019
5320 Clouds 10 1016 93 6000 1.64 8.86 06:35 11.07.2019
5321 Clouds 11 1015 87 6000 3.49 359.344 05:48 11.07.2019
5322 Clouds 11 1015 87 6000 3.49 359.344 05:29 11.07.2019
5323 Clouds 11 1015 87 8000 3.49 359.344 04:53 11.07.2019
5324 Clear 12 1016 81 10000 3.7 22.546 02:40 11.07.2019
5325 Clear 13 1015 81 10000 1.5 110 01:27 11.07.2019
5326 Clouds 13 1016 76 8000 1 140 00:27 11.07.2019
5327 Clouds 13 1016 76 10000 4.03 28.314 23:37 10.07.2019
5328 Mist 14 1015 71 5000 4.03 28.314 23:18 10.07.2019
5329 Clear 14 1016 67 10000 1 120 22:44 10.07.2019
5330 Clear 14 1015 67 10000 1.5 80 22:20 10.07.2019
5331 Clear 14 1015 67 10000 1.5 80 21:45 10.07.2019
5332 Clear 14 1015 67 10000 1.5 80 21:26 10.07.2019
5333 Clear 14 1016 72 10000 3.1 50 20:56 10.07.2019
5334 Clear 15 1016 72 10000 3.1 50 20:38 10.07.2019
5335 Clear 16 1016 67 10000 3.1 50 20:18 10.07.2019
5336 Clear 15 1016 67 10000 3.1 50 19:45 10.07.2019
5337 Clear 15 1017 59 10000 1.59 43.092 19:22 10.07.2019
5338 Clear 15 1017 59 10000 1.59 43.092 18:55 10.07.2019
5339 Clear 15 1017 59 10000 3.6 40 18:37 10.07.2019
5340 Clear 14 1017 62 10000 3.47 49.46 18:19 10.07.2019
5341 Clear 14 1018 67 10000 4.1 50 17:40 10.07.2019
5342 Clear 13 1019 67 10000 2.1 60 17:19 10.07.2019
5343 Clear 13 1019 67 10000 2.1 60 16:22 10.07.2019
5344 Clear 13 1019 71 10000 3.1 110 15:59 10.07.2019
5345 Clear 13 1019 71 10000 3.1 110 15:41 10.07.2019
5346 Clear 12 1019 81 10000 4.1 110 15:19 10.07.2019
5347 Clear 12 1019 81 10000 4.1 110 15:19 10.07.2019
5348 Clear 12 1019 81 10000 4.1 110 14:40 10.07.2019
5349 Clear 12 1019 81 10000 4.1 110 14:22 10.07.2019
5350 Clouds 11 1019 81 8000 2.1 120 13:44 10.07.2019
5351 Clear 11 1019 81 10000 1.56 41.349 13:19 10.07.2019
5352 Clear 11 1019 81 10000 1.56 41.349 12:55 10.07.2019
5353 Clear 11 1019 87 10000 2.1 160 12:37 10.07.2019
5354 Clear 12 1019 76 10000 1.75 14.29 12:18 10.07.2019
5355 Clear 12 1019 76 10000 1.75 14.29 11:43 10.07.2019
5356 Clear 11 1019 81 10000 1.75 14.29 11:21 10.07.2019
5357 Clear 11 1019 81 10000 1.75 14.29 10:44 10.07.2019
5358 Clear 12 1019 76 10000 1.75 14.29 10:20 10.07.2019
5359 Clear 12 1019 76 10000 1.75 14.29 09:44 10.07.2019
5360 Clear 13 1019 76 10000 2.59 1.414 09:21 10.07.2019
5361 Clear 13 1019 76 10000 1.5 10 08:50 10.07.2019
5362 Clear 13 1019 76 10000 1.5 10 08:29 10.07.2019
5363 Clear 13 1019 71 10000 1 20 07:54 10.07.2019
5364 Clear 13 1019 71 10000 1 20 07:32 10.07.2019
5365 Clear 13 1020 71 10000 1 20 06:44 10.07.2019
5366 Clear 13 1020 71 10000 1.5 30 05:59 10.07.2019
5367 Clear 12 1020 71 10000 3.17 0.741 04:38 10.07.2019
5368 Clear 14 1021 62 10000 3.17 0.741 03:40 10.07.2019
5369 Smoke 13 1021 71 5000 1.5 0 00:47 10.07.2019
5370 Smoke 13 1021 71 5000 1.5 0 00:26 10.07.2019
5371 Smoke 13 1020 62 5000 1 0 23:41 09.07.2019
5372 Smoke 14 1021 62 5000 1.5 0 23:21 09.07.2019
5373 Clear 15 1021 51 10000 1 0 22:41 09.07.2019
5374 Clear 14 1021 51 10000 1 0 22:22 09.07.2019
5375 Clear 16 1021 42 10000 1 0 21:56 09.07.2019
5376 Clear 17 1021 42 10000 1 0 21:37 09.07.2019
5377 Clear 16 1021 45 10000 3.26 347.85 21:19 09.07.2019
5378 Clear 16 1021 48 10000 1 0 20:43 09.07.2019
5379 Clear 16 1021 48 10000 1 0 20:24 09.07.2019
5380 Clear 16 1021 48 10000 1.5 360 19:40 09.07.2019
5381 Clear 15 1022 51 10000 3.1 10 19:21 09.07.2019
5382 Clear 15 1022 51 10000 3.1 10 18:45 09.07.2019
5383 Clear 15 1022 51 10000 3.1 10 18:45 09.07.2019
5384 Clear 16 1022 51 10000 3.1 10 18:23 09.07.2019
5385 Clear 14 1022 55 10000 2.1 20 17:55 09.07.2019
5386 Clear 13 1023 62 10000 3.1 10 17:37 09.07.2019
5387 Clear 13 1024 62 10000 3.6 20 17:18 09.07.2019
5388 Clear 13 1024 62 10000 3.6 20 17:18 09.07.2019
5389 Clear 12 1024 62 10000 3.6 20 16:46 09.07.2019
5390 Clear 12 1024 62 10000 3.6 20 16:24 09.07.2019
5391 Clear 10 1024 76 10000 3.1 20 15:49 09.07.2019
5392 Clear 10 1024 76 10000 3.1 20 15:29 09.07.2019
5393 Clear 9 1023 75 10000 3.6 20 14:47 09.07.2019
5394 Clear 9 1023 75 10000 3.6 20 14:47 09.07.2019
5395 Clear 9 1023 75 10000 3.6 20 14:25 09.07.2019
5396 Clear 8 1023 81 10000 4.1 30 13:59 09.07.2019
5397 Clear 8 1023 81 10000 4.1 30 13:40 09.07.2019
5398 Clear 8 1023 81 10000 4.1 30 13:21 09.07.2019
5399 Clear 8 1022 75 10000 5.1 30 12:40 09.07.2019
5400 Clear 8 1023 75 10000 2.6 10 12:19 09.07.2019
5401 Clear 8 1023 75 10000 2.6 10 11:57 09.07.2019
5402 Clear 8 1022 75 10000 2.1 10 11:38 09.07.2019
5403 Clear 8 1022 81 10000 3.1 20 11:20 09.07.2019
5404 Clear 8 1022 81 10000 3.1 20 10:49 09.07.2019
5405 Clear 8 1022 81 10000 3.1 20 10:27 09.07.2019
5406 Clear 7 1023 81 10000 1.5 30 09:41 09.07.2019
5407 Clear 7 1023 81 10000 1.5 30 09:21 09.07.2019
5408 Clear 7 1023 81 10000 1.5 30 09:21 09.07.2019
5409 Clear 8 1023 75 10000 1.5 50 08:45 09.07.2019
5410 Clear 8 1023 75 10000 1.5 50 08:23 09.07.2019
5411 Clouds 7 1019 65 10000 9.3 250 03:57 05.07.2019
5412 Clouds 8 1019 65 10000 9.3 250 03:37 05.07.2019
5413 Clouds 8 1019 65 10000 8.2 250 03:18 05.07.2019
5414 Clouds 8 1019 65 10000 8.2 250 02:37 05.07.2019
5415 Clouds 8 1018 69 10000 6.2 250 01:38 05.07.2019
5416 Clouds 7 1018 68 10000 6.2 250 01:19 05.07.2019
5417 Clouds 7 1019 65 10000 6.7 270 00:46 05.07.2019
5418 Rain 8 1018 65 10000 6.7 270 23:53 04.07.2019
5419 Clouds 8 1018 61 10000 5.1 270 23:21 04.07.2019
5420 Clouds 8 1018 61 10000 5.1 270 22:45 04.07.2019
5421 Clouds 8 1018 61 10000 5.1 270 22:25 04.07.2019
5422 Clouds 9 1017 65 10000 6.7 270 21:57 04.07.2019
5423 Clouds 9 1017 65 10000 6.7 270 21:39 04.07.2019
5424 Clouds 9 1017 65 10000 6.7 270 21:21 04.07.2019
5425 Clouds 8 1018 65 10000 8.2 270 20:40 04.07.2019
5426 Clouds 8 1018 65 10000 7.2 270 20:22 04.07.2019
5427 Clouds 8 1018 65 10000 7.2 270 19:57 04.07.2019
5428 Clouds 8 1018 65 10000 7.2 270 19:38 04.07.2019
5429 Clouds 8 1017 61 10000 7.2 260 19:20 04.07.2019
5430 Clouds 8 1018 70 10000 6.7 270 18:43 04.07.2019
5431 Clouds 8 1018 70 10000 6.7 270 18:25 04.07.2019
5432 Clouds 8 1018 75 10000 5.7 270 17:46 04.07.2019
5433 Clouds 7 1017 75 10000 6.2 260 17:19 04.07.2019
5434 Clouds 7 1016 107 10000 6.2 240 15:59 04.07.2019
5435 Clouds 7 1016 107 10000 6.2 240 15:41 04.07.2019
5436 Clouds 7 1016 107 10000 6.2 240 15:22 04.07.2019
5437 Clouds 6 1016 75 10000 5.1 260 14:56 04.07.2019
5438 Clouds 6 1016 75 10000 5.1 260 14:37 04.07.2019
5439 Clouds 6 1015 80 10000 5.7 240 14:18 04.07.2019
5440 Clouds 6 1015 80 10000 5.7 240 13:54 04.07.2019
5441 Clouds 6 1015 80 10000 5.7 240 13:36 04.07.2019
5442 Clouds 6 1014 70 10000 5.7 250 13:18 04.07.2019
5443 Clouds 6 1014 70 10000 5.7 250 12:37 04.07.2019
5444 Clouds 6 1014 70 10000 6.7 250 12:19 04.07.2019
5445 Clouds 7 1014 70 10000 6.7 250 11:39 04.07.2019
5446 Clouds 7 1013 70 10000 6.2 250 11:20 04.07.2019
5447 Clouds 7 1013 70 10000 6.2 250 10:41 04.07.2019
5448 Clouds 7 1013 70 10000 6.2 250 10:23 04.07.2019
5449 Clouds 7 1013 72 10000 8.2 250 09:45 04.07.2019
5450 Clouds 7 1013 66 10000 8.2 250 09:26 04.07.2019
5451 Clouds 7 1013 66 10000 8.2 250 08:57 04.07.2019
5452 Clouds 7 1013 66 10000 8.2 250 08:28 04.07.2019
5453 Clouds 8 1013 56 10000 6.7 250 07:46 04.07.2019
5454 Clouds 8 1013 56 10000 6.7 250 07:23 04.07.2019
5455 Clouds 8 1013 66 10000 7.7 240 06:56 04.07.2019
5456 Clouds 8 1013 65 10000 7.7 250 05:55 04.07.2019
5457 Clouds 8 1013 65 10000 7.7 250 05:36 04.07.2019
5458 Clouds 8 1012 65 10000 4.6 290 03:30 04.07.2019
5459 Clouds 9 1012 62 10000 5.7 260 01:45 04.07.2019
5460 Clouds 8 1012 61 10000 5.7 260 01:25 04.07.2019
5461 Clouds 8 1012 65 10000 6.2 250 00:37 04.07.2019
5462 Clouds 8 1011 65 10000 7.7 270 23:48 03.07.2019
5463 Clouds 8 1011 61 10000 6.2 270 23:20 03.07.2019
5464 Clouds 8 1011 61 10000 6.2 270 22:55 03.07.2019
5465 Clouds 9 1011 61 10000 6.2 270 22:36 03.07.2019
5466 Clouds 9 1010 65 10000 7.7 270 22:18 03.07.2019
5467 Clouds 9 1010 65 10000 7.7 270 21:46 03.07.2019
5468 Clouds 9 1010 65 10000 7.7 270 21:28 03.07.2019
5469 Clouds 9 1010 66 10000 7.2 270 20:46 03.07.2019
5470 Clouds 9 1010 66 10000 7.2 270 20:27 03.07.2019
5471 Clouds 9 1010 75 10000 6.2 270 19:53 03.07.2019
5472 Clouds 9 1010 75 10000 6.2 270 19:33 03.07.2019
5473 Clouds 9 1010 66 10000 7.7 260 18:54 03.07.2019
5474 Clouds 9 1010 70 10000 6.2 260 18:36 03.07.2019
5475 Clouds 8 1010 66 10000 7.7 250 18:18 03.07.2019
5476 Clouds 8 1011 70 10000 7.7 260 17:41 03.07.2019
5477 Clouds 8 1010 75 10000 7.7 270 17:18 03.07.2019
5478 Clouds 8 1010 75 10000 7.7 270 17:18 03.07.2019
5479 Clouds 8 1010 75 10000 7.7 270 16:44 03.07.2019
5480 Clouds 8 1010 75 10000 7.7 270 16:23 03.07.2019
5481 Clouds 8 1010 75 10000 7.7 270 16:23 03.07.2019
5482 Clouds 8 1010 75 10000 7.7 260 15:50 03.07.2019
5483 Clouds 8 1010 75 10000 7.7 260 15:31 03.07.2019
5484 Rain 7 1009 81 10000 5.1 270 14:59 03.07.2019
5485 Rain 7 1009 81 10000 5.1 270 14:41 03.07.2019
5486 Rain 7 1008 75 10000 5.7 260 14:19 03.07.2019
5487 Clouds 7 1008 75 10000 5.7 260 13:43 03.07.2019
5488 Clouds 7 1008 75 10000 5.7 260 13:24 03.07.2019
5489 Clouds 6 1008 75 10000 6.2 270 12:45 03.07.2019
5490 Clouds 7 1007 70 10000 6.2 270 12:18 03.07.2019
5491 Clouds 7 1007 65 10000 8.7 250 11:43 03.07.2019
5492 Clouds 7 1007 65 10000 8.7 250 11:22 03.07.2019
5493 Clouds 7 1007 56 10000 7.7 260 10:44 03.07.2019
5494 Clouds 8 1007 56 10000 7.7 260 10:25 03.07.2019
5495 Clouds 8 1007 56 10000 7.7 260 09:57 03.07.2019
5496 Clouds 8 1007 52 10000 8.2 260 09:38 03.07.2019
5497 Clouds 8 1007 52 10000 8.2 260 09:19 03.07.2019
5498 Clouds 8 1007 52 10000 8.2 250 08:50 03.07.2019
5499 Clouds 8 1007 52 10000 8.2 250 08:26 03.07.2019
5500 Clear 9 1007 52 10000 7.7 240 07:39 03.07.2019
5501 Clear 9 1007 52 10000 7.7 240 07:19 03.07.2019
5502 Clear 10 1007 58 10000 6.7 260 06:20 03.07.2019
5503 Clear 10 1006 58 10000 8.2 250 05:30 03.07.2019
5504 Clear 11 1006 53 10000 6.7 250 04:34 03.07.2019
5505 Clear 11 1005 50 10000 7.2 260 03:23 03.07.2019
5506 Clouds 12 1004 50 10000 7.7 270 01:46 03.07.2019
5507 Clouds 12 1004 50 10000 7.7 270 01:21 03.07.2019
5508 Clear 12 1004 62 10000 7.7 280 00:42 03.07.2019
5509 Clear 12 1003 71 10000 5.1 320 23:59 02.07.2019
5510 Clear 12 1003 71 10000 5.1 320 23:37 02.07.2019
5511 Clear 13 1003 58 10000 8.2 300 23:19 02.07.2019
5512 Clear 13 1003 62 10000 5.1 310 22:55 02.07.2019
5513 Clear 13 1003 62 10000 5.1 310 22:37 02.07.2019
5514 Clear 12 1003 62 10000 5.1 310 22:18 02.07.2019
5515 Clear 13 1003 71 10000 5.1 330 21:42 02.07.2019
5516 Clear 13 1003 71 10000 5.1 330 21:21 02.07.2019
5517 Clear 13 1004 71 10000 5.1 310 20:57 02.07.2019
5518 Clear 13 1004 71 10000 5.1 310 20:39 02.07.2019
5519 Clear 13 1004 71 10000 5.1 310 20:20 02.07.2019
5520 Clear 12 1004 71 10000 6.7 300 19:42 02.07.2019
5521 Clear 12 1005 71 10000 5.1 320 19:23 02.07.2019
5522 Clear 12 1005 71 10000 5.1 320 18:48 02.07.2019
5523 Clear 12 1005 71 10000 5.1 320 18:18 02.07.2019
5524 Clear 11 1005 76 10000 5.1 330 17:43 02.07.2019
5525 Clear 11 1005 66 10000 7.7 310 17:23 02.07.2019
5526 Clear 11 1006 71 10000 6.7 320 16:53 02.07.2019
5527 Clear 10 1006 71 10000 6.7 320 16:34 02.07.2019
5528 Rain 9 1006 76 10000 4.6 330 15:47 02.07.2019
5529 Rain 9 1006 76 10000 4.6 330 15:27 02.07.2019
5530 Clear 9 1006 70 10000 6.7 310 14:57 02.07.2019
5531 Clouds 9 1005 75 10000 5.7 340 14:39 02.07.2019
5532 Clear 9 1006 70 10000 6.2 320 14:20 02.07.2019
5533 Clouds 8 1006 81 10000 5.7 350 13:40 02.07.2019
5534 Clouds 8 1006 81 10000 5.7 350 13:18 02.07.2019
5535 Clouds 8 1006 75 10000 5.1 350 12:44 02.07.2019
5536 Clouds 8 1006 75 10000 5.1 350 12:22 02.07.2019
5537 Clear 8 1006 75 10000 6.7 330 11:44 02.07.2019
5538 Clear 8 1006 75 10000 6.7 330 11:44 02.07.2019
5539 Clear 7 1007 75 10000 5.7 330 11:23 02.07.2019
5540 Clear 7 1007 75 10000 5.7 330 10:55 02.07.2019
5541 Clear 7 1007 75 10000 5.7 330 10:27 02.07.2019
5542 Clear 7 1007 75 10000 5.7 330 09:57 02.07.2019
5543 Clear 7 1008 75 10000 4.6 330 09:22 02.07.2019
5544 Clear 7 1008 75 10000 4.6 330 08:57 02.07.2019
5545 Clear 7 1008 75 10000 4.6 330 08:37 02.07.2019
5546 Clear 7 1008 75 10000 4.6 330 07:59 02.07.2019
5547 Clear 7 1009 75 10000 5.1 330 07:38 02.07.2019
5548 Clear 7 1009 75 10000 5.1 330 07:18 02.07.2019
5549 Clear 7 1009 75 10000 5.1 340 06:37 02.07.2019
5550 Clear 8 1010 75 10000 5.7 340 05:27 02.07.2019
5551 Clear 7 1012 80 10000 1 360 02:41 02.07.2019
5552 Clear 8 1014 66 10000 10.37 319.118 00:28 02.07.2019
5553 Clear 8 1014 61 10000 3.1 310 23:38 01.07.2019
5554 Clear 9 1014 56 10000 2.6 310 23:18 01.07.2019
5555 Clouds 9 1015 61 10000 6.2 300 22:42 01.07.2019
5556 Clouds 9 1015 56 10000 4.6 290 22:23 01.07.2019
5557 Clouds 10 1015 57 10000 5.7 300 21:44 01.07.2019
5558 Clouds 10 1015 57 10000 5.7 300 21:25 01.07.2019
5559 Clouds 10 1016 56 10000 6.2 280 20:47 01.07.2019
5560 Clouds 10 1016 56 10000 6.2 280 20:21 01.07.2019
5561 Clouds 10 1017 57 10000 5.7 280 19:55 01.07.2019
5562 Clouds 10 1017 57 10000 5.7 280 19:36 01.07.2019
5563 Clouds 9 1019 57 10000 6.7 280 19:18 01.07.2019
5564 Clouds 9 1019 57 10000 6.7 280 18:43 01.07.2019
5565 Clouds 9 1019 57 10000 6.7 280 18:25 01.07.2019
5566 Clouds 9 1020 61 10000 6.2 270 17:46 01.07.2019
5567 Clouds 8 1020 61 10000 6.2 270 17:26 01.07.2019
5568 Clouds 8 1021 56 10000 7.2 270 16:57 01.07.2019
5569 Clouds 8 1021 56 10000 7.2 270 16:39 01.07.2019
5570 Clouds 8 1020 65 10000 7.2 250 16:20 01.07.2019
5571 Clouds 8 1020 65 10000 7.2 250 15:43 01.07.2019
5572 Clouds 8 1020 65 10000 7.2 250 15:23 01.07.2019
5573 Clouds 7 1020 75 10000 3.1 260 14:44 01.07.2019
5574 Clouds 6 1020 80 10000 2.6 260 14:20 01.07.2019
5575 Clouds 6 1020 80 10000 2.6 260 13:48 01.07.2019
5576 Clouds 7 1020 80 10000 2.6 260 13:24 01.07.2019
5577 Clouds 6 1020 75 10000 2.6 260 12:58 01.07.2019
5578 Clouds 6 1020 80 10000 3.1 260 12:38 01.07.2019
5579 Clouds 8 1019 65 10000 4.1 250 12:19 01.07.2019
5580 Clouds 8 1019 65 10000 4.1 250 11:44 01.07.2019
5581 Clouds 8 1019 65 10000 4.1 250 11:22 01.07.2019
5582 Clouds 8 1019 61 10000 5.7 240 10:48 01.07.2019
5583 Clouds 9 1019 61 10000 5.7 240 10:25 01.07.2019
5584 Clouds 8 1019 65 10000 4.6 240 09:59 01.07.2019
5585 Clouds 9 1019 65 10000 4.6 240 09:40 01.07.2019
5586 Clouds 9 1019 65 10000 4.6 240 09:21 01.07.2019
5587 Clouds 9 1019 65 10000 4.6 240 08:38 01.07.2019
5588 Clouds 9 1019 61 10000 6.2 230 08:19 01.07.2019
5589 Clouds 10 1019 61 10000 6.2 230 07:28 01.07.2019
5590 Clouds 11 1019 66 10000 4.6 240 06:30 01.07.2019
5591 Clouds 11 1018 81 10000 4.1 260 02:21 01.07.2019
5592 Clouds 11 1018 81 10000 4.1 270 00:50 01.07.2019
5593 Clouds 11 1018 81 10000 4.1 270 00:29 01.07.2019
5594 Clouds 11 1018 81 10000 5.1 260 23:56 30.06.2019
5595 Clouds 11 1018 81 10000 5.1 260 23:22 30.06.2019
5596 Clouds 11 1017 81 10000 5.1 270 22:52 30.06.2019
5597 Clouds 11 1017 81 10000 5.1 270 22:21 30.06.2019
5598 Clouds 11 1016 81 10000 5.7 260 21:42 30.06.2019
5599 Clouds 11 1016 81 10000 5.7 260 21:22 30.06.2019
5600 Clouds 12 1016 81 10000 5.7 250 20:58 30.06.2019
5601 Clouds 12 1016 81 10000 5.7 250 20:39 30.06.2019
5602 Clouds 12 1016 81 10000 5.7 250 20:21 30.06.2019
5603 Clouds 11 1017 87 10000 5.1 250 19:46 30.06.2019
5604 Clouds 11 1017 87 10000 5.1 250 19:25 30.06.2019
5605 Clouds 12 1017 87 10000 6.2 250 18:39 30.06.2019
5606 Rain 12 1017 100 8000 4.6 260 18:20 30.06.2019
5607 Rain 12 1017 100 8000 4.6 260 18:20 30.06.2019
5608 Rain 12 1017 87 8000 5.7 260 17:40 30.06.2019
5609 Rain 12 1016 93 9000 4.6 250 17:19 30.06.2019
5610 Drizzle 12 1016 87 1500 4.1 250 16:51 30.06.2019
5611 Drizzle 12 1016 87 1500 4.1 250 16:32 30.06.2019
5612 Clouds 12 1015 93 10000 4.6 240 15:38 30.06.2019
5613 Clouds 12 1015 93 8000 3.6 240 15:19 30.06.2019
5614 Clouds 12 1015 93 8000 3.6 240 14:57 30.06.2019
5615 Clouds 12 1015 93 8000 3.6 240 14:57 30.06.2019
5616 Clouds 12 1015 93 8000 3.6 240 14:38 30.06.2019
5617 Mist 12 1014 100 10000 5.7 220 13:57 30.06.2019
5618 Mist 12 1014 100 10000 5.7 220 13:38 30.06.2019
5619 Drizzle 12 1013 100 3000 6.2 230 13:19 30.06.2019
5620 Drizzle 12 1013 100 3000 6.2 230 12:45 30.06.2019
5621 Drizzle 12 1013 100 3000 6.2 230 12:23 30.06.2019
5622 Drizzle 13 1012 100 3000 6.2 230 11:47 30.06.2019
5623 Drizzle 13 1012 100 3000 6.2 230 11:22 30.06.2019
5624 Drizzle 13 1011 100 6000 7.2 230 10:56 30.06.2019
5625 Drizzle 13 1011 100 6000 7.2 230 10:37 30.06.2019
5626 Drizzle 13 1010 100 6000 6.2 220 10:18 30.06.2019
5627 Drizzle 13 1010 100 6000 6.2 220 09:43 30.06.2019
5628 Drizzle 13 1010 100 6000 6.2 220 09:22 30.06.2019
5629 Drizzle 13 1009 100 2000 5.7 220 08:47 30.06.2019
5630 Drizzle 13 1009 100 2000 5.7 220 08:27 30.06.2019
5631 Drizzle 13 1009 100 3500 3.6 220 07:56 30.06.2019
5632 Drizzle 13 1009 100 3500 3.6 220 07:28 30.06.2019
5633 Drizzle 13 1008 100 3000 6.2 220 06:40 30.06.2019
5634 Drizzle 13 1007 100 1800 3.1 230 05:33 30.06.2019
5635 Drizzle 14 1006 100 800 4.54 167.456 02:52 30.06.2019
5636 Fog 14 1006 100 300 2.1 130 01:28 30.06.2019
5637 Fog 14 1006 100 300 3.1 140 00:32 30.06.2019
5638 Drizzle 14 1006 100 1000 5.1 160 23:55 29.06.2019
5639 Drizzle 14 1006 100 1000 5.1 160 23:25 29.06.2019
5640 Drizzle 14 1006 100 600 3.1 150 22:57 29.06.2019
5641 Drizzle 14 1006 100 2500 4.1 150 22:38 29.06.2019
5642 Rain 14 1005 100 700 5.1 170 22:19 29.06.2019
5643 Rain 14 1005 100 700 5.1 170 21:42 29.06.2019
5644 Rain 14 1005 100 700 5.1 170 21:22 29.06.2019
5645 Drizzle 15 1006 100 500 3.1 150 20:41 29.06.2019
5646 Drizzle 15 1006 100 500 3.1 150 20:23 29.06.2019
5647 Mist 15 1006 100 1300 4.1 140 19:48 29.06.2019
5648 Mist 15 1006 100 1300 4.1 140 19:23 29.06.2019
5649 Mist 14 1007 100 700 3.1 120 18:51 29.06.2019
5650 Mist 14 1007 100 700 3.1 120 18:26 29.06.2019
5651 Mist 14 1007 100 2000 5.7 140 17:42 29.06.2019
5652 Mist 14 1007 100 2000 5.7 140 17:23 29.06.2019
5653 Mist 14 1008 100 2000 4.6 150 16:58 29.06.2019
5654 Mist 14 1009 93 2500 6.2 160 16:39 29.06.2019
5655 Mist 14 1009 93 2000 4.6 150 15:53 29.06.2019
5656 Mist 14 1010 100 1300 2.6 140 15:30 29.06.2019
5657 Mist 14 1009 100 1000 3.6 150 14:44 29.06.2019
5658 Mist 14 1009 100 1000 3.6 150 14:26 29.06.2019
5659 Drizzle 13 1008 100 1000 3.1 160 13:47 29.06.2019
5660 -273 0 0 0 0 0 13:26 29.06.2019
5661 Rain 13 1009 100 4000 3.6 160 12:52 29.06.2019
5662 Rain 13 1008 100 4000 2.6 180 12:34 29.06.2019
5663 Clouds 14 1008 93 10000 3.6 160 11:55 29.06.2019
5664 Clouds 14 1008 93 10000 3.6 160 11:37 29.06.2019
5665 Clouds 14 1007 93 10000 4.1 150 11:19 29.06.2019
5666 Clouds 14 1007 93 10000 4.1 150 10:39 29.06.2019
5667 Clouds 14 1007 93 10000 4.1 150 10:20 29.06.2019
5668 Clouds 14 1008 93 10000 4.1 140 09:45 29.06.2019
5669 Clouds 14 1008 100 10000 4.1 150 08:51 29.06.2019
5670 Clouds 14 1008 100 10000 4.1 150 08:25 29.06.2019
5671 Clouds 14 1008 100 10000 4.6 150 07:44 29.06.2019
5672 Mist 13 1008 100 5000 5.7 150 06:47 29.06.2019
5673 Mist 13 1008 100 5000 5.7 150 06:24 29.06.2019
5674 Mist 14 1008 100 4000 7.62 134.814 02:52 29.06.2019
5675 Fog 14 1008 100 4000 1.5 120 01:32 29.06.2019
5676 Fog 14 1007 100 300 3.1 120 00:31 29.06.2019
5677 Fog 14 1007 100 2000 2.6 110 23:37 28.06.2019
5678 Fog 14 1007 100 2000 2.6 110 23:37 28.06.2019
5679 Fog 14 1007 100 1500 3.1 185 23:19 28.06.2019
5680 Fog 14 1007 100 800 2.1 180 22:45 28.06.2019
5681 Fog 15 1007 100 1000 2.1 180 21:58 28.06.2019
5682 Fog 15 1007 100 1000 2.1 180 21:27 28.06.2019
5683 -273 0 0 0 0 0 21:26 28.06.2019
5684 Mist 15 1008 100 2000 1.5 120 20:55 28.06.2019
5685 Mist 15 1008 100 2000 1.5 120 20:37 28.06.2019
5686 Drizzle 15 1008 100 7000 2.6 50 20:18 28.06.2019
5687 Mist 14 1008 100 7000 2.6 50 19:37 28.06.2019
5688 Mist 14 1009 100 1500 2.6 100 19:19 28.06.2019
5689 Mist 14 1009 100 5000 2.6 50 18:41 28.06.2019
5690 Drizzle 14 1010 100 1000 2.6 50 18:21 28.06.2019
5691 Drizzle 14 1010 100 1500 2.6 60 17:38 28.06.2019
5692 Drizzle 13 1011 100 1500 2.1 40 17:18 28.06.2019
5693 Drizzle 12 1011 93 600 2.6 60 16:41 28.06.2019
5694 Drizzle 12 1011 93 1000 2.6 30 16:18 28.06.2019
5695 Drizzle 12 1011 87 4000 2.6 90 15:39 28.06.2019
5696 Clouds 12 1010 87 10000 3.1 60 15:18 28.06.2019
5697 Clouds 11 1010 87 10000 3.1 60 14:39 28.06.2019
5698 Clouds 11 1010 87 10000 3.1 60 14:20 28.06.2019
5699 Clear 10 1011 87 10000 3.1 60 13:45 28.06.2019
5700 Clear 10 1011 87 10000 3.1 60 13:25 28.06.2019
5701 Clouds 10 1016 81 10000 2.1 90 12:50 28.06.2019
5702 Clouds 10 1016 81 10000 2.1 90 12:31 28.06.2019
5703 Clear 9 1011 81 10000 2.6 30 11:29 28.06.2019
5704 Clear 9 1011 81 10000 3.1 10 10:47 28.06.2019
5705 Clear 9 1011 81 10000 3.1 10 10:23 28.06.2019
5706 Clear 9 1011 76 10000 3.1 20 10:00 28.06.2019
5707 Clear 10 1011 76 10000 3.1 20 09:41 28.06.2019
5708 Clear 10 1011 70 10000 3.6 30 09:22 28.06.2019
5709 Clear 10 1011 70 10000 3.6 30 08:42 28.06.2019
5710 Clear 10 1011 70 10000 3.6 30 08:23 28.06.2019
5711 Clear 10 1012 70 10000 3.6 20 07:42 28.06.2019
5712 Clear 10 1012 70 10000 5.1 30 06:52 28.06.2019
5713 Clear 10 1013 66 10000 3.1 30 03:57 28.06.2019
5714 Clear 11 1012 66 10000 3.1 60 00:46 28.06.2019
5715 Clear 12 1012 62 10000 3.6 60 00:19 28.06.2019
5716 Clear 13 1012 62 10000 3.6 60 23:43 27.06.2019
5717 Clear 13 1012 62 10000 3.6 60 23:22 27.06.2019
5718 Clear 14 1012 54 10000 4.6 40 22:43 27.06.2019
5719 Clear 15 1013 44 10000 6.7 30 22:25 27.06.2019
5720 Clear 15 1013 44 10000 6.7 30 21:58 27.06.2019
5721 Clear 15 1013 44 10000 6.7 30 21:39 27.06.2019
5722 Clear 15 1013 44 10000 6.7 30 21:20 27.06.2019
5723 Clear 15 1013 47 10000 4.6 20 20:46 27.06.2019
5724 Clear 14 1013 47 10000 4.6 20 20:28 27.06.2019
5725 Clear 14 1014 50 10000 5.7 50 19:49 27.06.2019
5726 Clear 14 1014 50 10000 5.7 50 19:29 27.06.2019
5727 Clear 13 1016 47 10000 5.1 10 18:52 27.06.2019
5728 Clear 13 1016 47 10000 5.1 10 18:30 27.06.2019
5729 Clear 13 1016 50 10000 5.7 10 17:55 27.06.2019
5730 Clear 13 1016 50 10000 5.7 10 17:36 27.06.2019
5731 Clear 11 1016 57 10000 6.7 360 17:18 27.06.2019
5732 Clear 11 1016 57 10000 6.7 360 16:38 27.06.2019
5733 Clear 10 1016 65 10000 6.2 360 16:19 27.06.2019
5734 Clear 9 1016 65 10000 6.2 360 15:45 27.06.2019
5735 Clear 9 1016 65 10000 6.2 360 15:24 27.06.2019
5736 Clear 8 1015 70 10000 6.2 10 14:47 27.06.2019
5737 Clear 7 1015 70 10000 6.2 10 14:28 27.06.2019
5738 Clear 5 1015 80 10000 3.1 40 13:50 27.06.2019
5739 Clear 5 1015 80 10000 3.1 40 13:31 27.06.2019
5740 Clear 6 1014 75 10000 3.6 10 12:57 27.06.2019
5741 Clear 6 1014 75 10000 3.6 10 12:38 27.06.2019
5742 Clear 6 1014 75 10000 3.6 10 12:18 27.06.2019
5743 Clear 6 1014 75 10000 3.1 10 11:42 27.06.2019
5744 Clear 6 1014 75 10000 3.1 10 11:21 27.06.2019
5745 Clear 6 1014 75 10000 3.6 360 10:46 27.06.2019
5746 Clear 6 1014 75 10000 3.6 360 10:22 27.06.2019
5747 Clear 6 1015 75 10000 3.6 350 09:55 27.06.2019
5748 Clear 6 1015 75 10000 3.6 350 09:22 27.06.2019
5749 Clear 6 1015 75 10000 3.1 10 08:55 27.06.2019
5750 Clear 6 1015 75 10000 3.1 10 08:37 27.06.2019
5751 Clear 7 1015 70 10000 3.6 20 08:19 27.06.2019
5752 Clear 7 1015 70 10000 3.6 20 07:38 27.06.2019
5753 Clear 7 1015 75 10000 3.1 10 06:54 27.06.2019
5754 Clear 8 1015 70 10000 2.6 350 06:24 27.06.2019
5755 Clear 9 1015 61 10000 3.6 350 03:22 27.06.2019
5756 Clear 9 1015 70 10000 4.1 360 02:39 27.06.2019
5757 Clear 10 1015 70 10000 3.1 350 01:18 27.06.2019
5758 Clear 10 1015 70 10000 3.1 350 00:42 27.06.2019
5759 Clear 10 1015 66 10000 3.1 340 00:19 27.06.2019
5760 Clear 10 1015 66 10000 3.1 340 23:42 26.06.2019
5761 Clear 10 1015 66 10000 3.1 340 23:22 26.06.2019
5762 Clear 12 1015 62 10000 3.6 320 22:46 26.06.2019
5763 Clear 12 1015 62 10000 3.6 320 22:27 26.06.2019
5764 Clouds 13 1009 51 0 2.24 7 21:59 26.06.2019
5765 Clouds 13 1014 51 0 2.68 323 21:39 26.06.2019
5766 Clear 14 1015 47 10000 6.2 300 21:19 26.06.2019
5767 Clear 14 1015 47 10000 6.2 300 21:19 26.06.2019
5768 Clear 14 1015 47 10000 6.2 300 20:49 26.06.2019
5769 Clear 14 1015 47 10000 6.2 300 20:30 26.06.2019
5770 Clear 13 1015 47 10000 5.1 300 19:50 26.06.2019
5771 Clear 13 1015 47 10000 5.1 300 19:31 26.06.2019
5772 Clear 13 1015 47 10000 5.7 300 18:58 26.06.2019
5773 Clear 13 1015 47 10000 5.7 300 18:39 26.06.2019
5774 Clouds 12 1016 57 10000 3.6 310 18:19 26.06.2019
5775 Clouds 12 1016 57 10000 3.6 310 18:19 26.06.2019
5776 Clouds 12 1016 57 10000 3.6 310 17:46 26.06.2019
5777 Clouds 12 1016 57 10000 3.6 310 17:27 26.06.2019
5778 Clouds 12 1016 57 10000 3.6 310 17:27 26.06.2019
5779 Clouds 11 1016 66 10000 4.1 320 16:51 26.06.2019
5780 Clouds 11 1016 66 10000 4.1 320 16:29 26.06.2019
5781 Clouds 9 1015 70 10000 4.1 330 15:52 26.06.2019
5782 Clouds 9 1015 70 10000 4.1 330 15:28 26.06.2019
5783 Clear 6 1015 86 10000 2.1 360 14:43 26.06.2019
5784 Clear 6 1015 86 10000 2.1 360 14:23 26.06.2019
5785 Clear 4 1014 50 10000 2.1 360 13:46 26.06.2019
5786 Clear 4 1014 50 10000 2.1 360 13:23 26.06.2019
5787 Clear 6 1014 69 10000 2.1 360 12:57 26.06.2019
5788 Clear 6 1014 69 10000 2.1 360 12:57 26.06.2019
5789 Clear 7 1014 69 10000 2.1 360 12:39 26.06.2019
5790 Clear 7 1013 56 10000 2.1 330 12:19 26.06.2019
5791 Clear 8 1013 56 10000 2.1 330 11:25 26.06.2019
5792 Clear 9 1013 42 10000 5.1 260 10:56 26.06.2019
5793 Clear 9 1013 42 10000 5.1 260 10:38 26.06.2019
5794 Clear 9 1013 39 10000 6.2 250 10:19 26.06.2019
5795 Clear 9 1013 39 10000 6.2 250 09:30 26.06.2019
5796 Clouds 9 1013 42 10000 5.1 250 08:57 26.06.2019
5797 Clouds 10 1013 42 10000 5.1 250 08:23 26.06.2019
5798 Clouds 10 1013 49 10000 5.7 260 07:59 26.06.2019
5799 Clouds 10 1013 49 10000 5.7 260 07:40 26.06.2019
5800 Clouds 10 1013 51 10000 6.7 260 06:33 26.06.2019
5801 Clouds 10 1012 54 10000 6.2 270 02:18 26.06.2019
5802 Clouds 10 1011 54 10000 6.2 260 00:36 26.06.2019
5803 Clouds 10 1010 57 10000 6.2 260 23:57 25.06.2019
5804 Clouds 10 1010 57 10000 6.2 260 23:38 25.06.2019
5805 Clouds 10 1010 57 10000 6.2 260 23:19 25.06.2019
5806 Clouds 10 1009 57 10000 6.2 260 22:41 25.06.2019
5807 Clouds 10 1009 57 10000 6.2 260 22:22 25.06.2019
5808 Clouds 11 1008 57 10000 9.3 260 21:46 25.06.2019
5809 Clouds 11 1008 54 10000 9.3 260 21:26 25.06.2019
5810 Clouds 11 1008 54 10000 8.2 250 20:50 25.06.2019
5811 Clouds 10 1008 54 10000 8.2 250 20:24 25.06.2019
5812 Clouds 10 1008 54 10000 8.2 240 19:57 25.06.2019
5813 Clouds 10 1008 54 10000 8.2 240 19:38 25.06.2019
5814 Clouds 10 1007 54 10000 10.8 250 19:20 25.06.2019
5815 Clouds 10 1007 54 10000 10.8 250 18:42 25.06.2019
5816 Clouds 10 1007 59 10000 10.8 250 18:24 25.06.2019
5817 -273 0 0 0 0 0 17:46 25.06.2019
5818 -273 0 0 0 0 0 17:26 25.06.2019
5819 -273 0 0 0 0 0 17:26 25.06.2019
5820 -273 0 0 0 0 0 17:26 25.06.2019
5821 Clouds 10 1007 76 10000 12.3 240 16:44 25.06.2019
5822 Clouds 10 1007 76 10000 12.3 240 16:26 25.06.2019
5823 Clouds 11 1005 76 10000 10.8 250 15:59 25.06.2019
5824 Clouds 11 1005 71 10000 10.8 250 15:38 25.06.2019
5825 Clouds 11 1004 76 10000 7.7 240 15:18 25.06.2019
5826 Clouds 12 1004 76 10000 7.7 240 14:45 25.06.2019
5827 Clouds 12 1004 76 10000 7.7 240 14:26 25.06.2019
5828 Rain 12 1003 100 10000 7.7 250 13:42 25.06.2019
5829 Rain 12 1003 100 10000 7.7 250 13:23 25.06.2019
5830 Rain 12 1002 93 10000 8.2 240 12:42 25.06.2019
5831 Rain 12 1002 93 10000 8.2 240 12:24 25.06.2019
5832 Drizzle 13 999 100 5000 10.8 240 11:45 25.06.2019
5833 Drizzle 13 999 100 5000 10.8 240 11:24 25.06.2019
5834 Drizzle 13 999 93 3000 8.7 230 10:57 25.06.2019
5835 Drizzle 13 999 93 3000 8.7 230 10:36 25.06.2019
5836 Rain 13 996 93 10000 4.1 190 10:18 25.06.2019
5837 Rain 14 996 93 10000 4.1 190 09:39 25.06.2019
5838 Rain 14 996 93 10000 4.1 190 09:21 25.06.2019
5839 Rain 14 996 93 10000 4.1 190 09:21 25.06.2019
5840 Rain 14 997 93 8000 4.6 190 08:52 25.06.2019
5841 Rain 14 997 93 4000 7.7 220 08:31 25.06.2019
5842 Clouds 17 995 82 10000 7.7 330 07:44 25.06.2019
5843 Clouds 17 995 82 10000 7.7 330 07:24 25.06.2019
5844 Clouds 19 995 82 10000 8.2 10 06:44 25.06.2019
5845 Clouds 18 996 93 10000 7.2 10 05:56 25.06.2019
5846 Clouds 16 1000 93 10000 2.6 50 02:43 25.06.2019
5847 Mist 15 1001 93 3000 3.6 90 00:39 25.06.2019
5848 Mist 15 1002 100 10000 2.6 100 00:19 25.06.2019
5849 Mist 15 1002 100 10000 2.6 100 23:51 24.06.2019
5850 Mist 16 1003 93 3000 3.6 110 23:32 24.06.2019
5851 Mist 16 1004 87 3000 2.1 170 22:48 24.06.2019
5852 Mist 16 1004 87 3000 2.1 170 22:21 24.06.2019
5853 Rain 16 1004 87 4000 3.1 100 21:56 24.06.2019
5854 Rain 16 1004 87 4000 3.1 100 21:37 24.06.2019
5855 Mist 16 1004 87 8000 5.7 110 21:18 24.06.2019
5856 Mist 16 1005 82 5000 2.6 90 20:42 24.06.2019
5857 Mist 16 1005 82 5000 2.6 90 20:22 24.06.2019
5858 Clouds 16 1006 82 7000 4.1 80 19:49 24.06.2019
5859 Clouds 16 1006 82 7000 4.1 80 19:26 24.06.2019
5860 Mist 16 1007 82 5000 3.6 60 18:56 24.06.2019
5861 Mist 16 1007 82 5000 3.6 60 18:37 24.06.2019
5862 Mist 16 1007 82 10000 3.1 80 18:18 24.06.2019
5863 Mist 15 1009 93 4000 3.6 80 17:37 24.06.2019
5864 Mist 15 1009 87 10000 3.1 100 17:18 24.06.2019
5865 Mist 15 1009 87 4000 2.6 90 16:40 24.06.2019
5866 Mist 15 1010 87 8000 2.1 90 16:19 24.06.2019
5867 Mist 14 1010 93 2500 1.5 80 15:41 24.06.2019
5868 Mist 14 1010 93 2500 1.5 80 15:22 24.06.2019
5869 Mist 13 1011 82 2500 2.1 70 14:35 24.06.2019
5870 Fog 13 1011 87 10000 3.47 84.614 13:59 24.06.2019
5871 Fog 13 1010 93 3000 0.5 120 13:32 24.06.2019
5872 Clouds 13 1010 93 8000 1 90 12:57 24.06.2019
5873 Clouds 13 1010 93 8000 1 90 12:38 24.06.2019
5874 Clouds 13 1010 87 10000 2.64 141.072 12:20 24.06.2019
5875 Clouds 13 1010 87 10000 2.64 141.072 11:43 24.06.2019
5876 Clouds 13 1010 93 9000 1.5 200 11:24 24.06.2019
5877 Clouds 14 1010 93 9000 1.5 200 10:51 24.06.2019
5878 Clouds 14 1010 93 9000 1.5 200 10:31 24.06.2019
5879 Clouds 14 1010 93 9000 1 240 09:51 24.06.2019
5880 Clouds 14 1010 93 9000 1 240 09:23 24.06.2019
5881 Clouds 14 1011 93 8000 2.1 240 08:55 24.06.2019
5882 Clouds 14 1011 93 8000 2.1 240 08:34 24.06.2019
5883 Clouds 14 1011 93 8000 2.6 210 07:49 24.06.2019
5884 Clouds 14 1011 93 8000 2.6 210 07:27 24.06.2019
5885 Mist 14 1011 100 4000 3.1 220 06:56 24.06.2019
5886 Mist 14 1011 100 4000 3.1 220 06:23 24.06.2019
5887 Mist 15 1011 100 1500 4.1 230 05:29 24.06.2019
5888 Mist 15 1010 100 1500 3.6 220 04:31 24.06.2019
5889 Mist 15 1010 100 3000 3.6 220 03:32 24.06.2019
5890 Rain 16 1010 100 5000 4.1 220 02:33 24.06.2019
5891 Rain 16 1009 100 5000 1 10 01:54 24.06.2019
5892 Fog 16 1009 100 5000 1 10 01:27 24.06.2019
5893 Fog 16 1009 100 7000 1.5 360 00:42 24.06.2019
5894 Rain 16 1009 93 1000 3.1 230 00:19 24.06.2019
5895 Rain 16 1009 93 1000 3.1 230 23:46 23.06.2019
5896 Rain 16 1009 93 1000 3.1 230 23:27 23.06.2019
5897 Rain 16 1009 93 1000 3.1 230 23:27 23.06.2019
5898 Clouds 20 1008 83 10000 5.1 280 22:44 23.06.2019
5899 Clouds 20 1008 83 10000 5.1 280 22:21 23.06.2019
5900 Clear 21 1008 83 10000 5.1 350 21:58 23.06.2019
5901 Clear 22 1008 83 10000 5.1 350 21:40 23.06.2019
5902 Clear 23 1008 78 10000 5.1 340 21:21 23.06.2019
5903 Clear 22 1008 78 10000 5.1 340 20:43 23.06.2019
5904 Clear 23 1008 78 10000 5.1 340 20:25 23.06.2019
5905 Rain 23 1009 78 10000 7.2 350 19:45 23.06.2019
5906 Rain 23 1009 78 10000 7.2 350 19:21 23.06.2019
5907 Clear 23 1010 78 10000 5.1 350 18:54 23.06.2019
5908 Clear 23 1010 78 10000 5.1 350 18:24 23.06.2019
5909 Clear 22 1011 83 10000 6.2 350 17:53 23.06.2019
5910 Clear 22 1011 83 10000 6.2 350 17:27 23.06.2019
5911 Clear 21 1012 88 10000 4.6 350 16:59 23.06.2019
5912 Clear 21 1012 88 10000 4.6 350 16:40 23.06.2019
5913 Rain 20 1012 88 9000 2.1 350 16:21 23.06.2019
5914 Rain 19 1012 88 9000 2.1 350 15:41 23.06.2019
5915 Clouds 19 1012 88 9000 2.1 350 15:22 23.06.2019
5916 Clouds 18 1012 93 8000 4.99 324 14:42 23.06.2019
5917 Clouds 18 1012 93 8000 4.99 324 14:23 23.06.2019
5918 Clouds 17 1012 93 8000 2.1 60 13:58 23.06.2019
5919 Clouds 17 1012 93 8000 2.1 60 13:40 23.06.2019
5920 Clear 17 1012 100 10000 5.68 312.118 13:19 23.06.2019
5921 Clear 17 1012 100 10000 5.68 312.118 13:19 23.06.2019
5922 Clouds 17 1013 93 6000 5.68 312.118 12:44 23.06.2019
5923 Clouds 17 1013 93 6000 4.67 296.785 12:22 23.06.2019
5924 Clear 18 1013 100 10000 2.6 350 11:55 23.06.2019
5925 Clear 18 1013 100 10000 2.6 350 11:37 23.06.2019
5926 Clouds 18 1013 100 10000 4.67 296.785 11:19 23.06.2019
5927 Clouds 18 1013 100 10000 4.67 296.785 10:43 23.06.2019
5928 Clouds 18 1013 100 10000 0.5 360 10:18 23.06.2019
5929 Clouds 18 1013 100 10000 0.5 360 09:39 23.06.2019
5930 Clouds 18 1013 100 10000 0.5 360 09:20 23.06.2019
5931 Clouds 18 1014 100 10000 2.6 10 08:44 23.06.2019
5932 Clouds 18 1014 100 10000 2.6 10 08:26 23.06.2019
5933 Clouds 18 1015 100 8000 3.1 10 07:53 23.06.2019
5934 Mist 17 1015 100 5000 1.5 360 07:21 23.06.2019
5935 Mist 17 1015 100 5000 1.5 360 06:54 23.06.2019
5936 Mist 17 1016 100 4000 1.95 40.786 05:55 23.06.2019
5937 Mist 16 1016 100 4000 1.95 40.786 04:30 23.06.2019
5938 Clouds 16 1017 82 6000 2.1 130 01:54 23.06.2019
5939 Clouds 16 1017 82 6000 2.1 130 01:35 23.06.2019
5940 Clouds 16 1017 88 10000 2.1 60 00:36 23.06.2019
5941 Clear 17 1017 87 10000 1.04 60.351 23:54 22.06.2019
5942 Clouds 18 1018 82 10000 1.04 60.351 23:27 22.06.2019
5943 Clouds 19 1018 72 10000 2.1 90 22:50 22.06.2019
5944 Clouds 19 1018 72 10000 2.1 90 22:31 22.06.2019
5945 Clouds 19 1018 72 10000 2.1 60 21:59 22.06.2019
5946 Clouds 19 1018 72 10000 2.1 60 21:37 22.06.2019
5947 Clouds 19 1018 77 10000 2.1 60 21:19 22.06.2019
5948 Clouds 19 1018 77 10000 2.1 60 20:50 22.06.2019
5949 Clouds 19 1018 77 10000 2.1 60 20:50 22.06.2019
5950 Clouds 19 1018 77 10000 2.1 60 20:25 22.06.2019
5951 Rain 19 1019 77 10000 0.81 161.857 19:47 22.06.2019
5952 Rain 19 1019 77 10000 0.81 161.857 19:23 22.06.2019
5953 Clouds 18 1020 82 10000 2.1 60 18:48 22.06.2019
5954 Clouds 18 1020 82 10000 2.1 60 18:30 22.06.2019
5955 Clouds 18 1020 77 10000 1.98 223.093 17:57 22.06.2019
5956 Clouds 18 1020 77 10000 1.98 223.093 17:35 22.06.2019
5957 Clouds 18 1020 82 10000 1.98 223.093 16:51 22.06.2019
5958 Clouds 18 1020 82 10000 1.98 223.093 16:25 22.06.2019
5959 Clouds 17 1020 88 10000 1.98 223.093 15:58 22.06.2019
5960 Clouds 17 1020 88 10000 1.98 223.093 15:39 22.06.2019
5961 Clouds 16 1021 93 10000 1.22 239.94 15:21 22.06.2019
5962 Clouds 16 1021 93 10000 1.22 239.94 14:37 22.06.2019
5963 Clouds 15 1020 100 10000 1.22 239.94 14:18 22.06.2019
5964 Clouds 15 1020 100 10000 1.22 239.94 13:42 22.06.2019
5965 Clouds 15 1020 100 10000 2.22 274.367 13:22 22.06.2019
5966 Clouds 15 1020 93 9000 0.5 20 12:52 22.06.2019
5967 Clouds 15 1020 93 10000 2.22 274.367 12:33 22.06.2019
5968 Clear 15 1019 87 10000 2.9 258.039 11:58 22.06.2019
5969 Clear 15 1019 87 10000 2.9 258.039 11:33 22.06.2019
5970 Clear 15 1019 87 10000 2.9 258.039 10:50 22.06.2019
5971 Clear 15 1019 87 10000 2.9 258.039 10:21 22.06.2019
5972 Clear 15 1020 87 10000 2.9 258.039 09:49 22.06.2019
5973 Clear 15 1020 87 10000 4.83 283.156 09:22 22.06.2019
5974 Clear 16 1020 87 10000 2.6 270 08:43 22.06.2019
5975 Clear 16 1019 82 10000 3.6 350 08:22 22.06.2019
5976 Clear 16 1019 82 10000 3.6 350 07:31 22.06.2019
5977 Clear 16 1019 87 10000 2.6 340 06:47 22.06.2019
5978 Clear 16 1019 87 10000 3.1 10 05:22 22.06.2019
5979 Rain 17 1020 82 10000 1.5 20 02:33 22.06.2019
5980 Clouds 16 1019 77 10000 4.1 40 01:19 22.06.2019
5981 Clouds 16 1019 77 10000 4.1 40 00:39 22.06.2019
5982 Clouds 16 1019 77 10000 4.1 40 00:19 22.06.2019
5983 Clouds 16 1019 77 10000 4.1 40 23:42 21.06.2019
5984 Clouds 17 1019 82 10000 4.1 20 23:21 21.06.2019
5985 Clouds 17 1019 82 10000 4.1 20 22:47 21.06.2019
5986 Clouds 17 1019 82 10000 4.1 20 22:47 21.06.2019
5987 Clouds 17 1019 82 10000 4.1 20 22:23 21.06.2019
5988 Clear 17 1019 77 10000 6.2 40 21:40 21.06.2019
5989 Clear 17 1019 77 10000 6.2 40 21:22 21.06.2019
5990 Rain 18 1020 72 10000 6.2 10 20:53 21.06.2019
5991 Rain 18 1020 72 10000 6.2 10 20:28 21.06.2019
5992 Clear 17 1020 77 10000 5.1 10 19:59 21.06.2019
5993 Clear 17 1020 77 10000 5.1 10 19:31 21.06.2019
5994 Clear 16 1021 72 10000 5.1 20 18:48 21.06.2019
5995 Clear 16 1021 72 10000 5.1 20 18:28 21.06.2019
5996 Clear 15 1022 76 10000 5.7 10 17:46 21.06.2019
5997 Clear 15 1022 76 10000 5.7 10 17:27 21.06.2019
5998 Clear 14 1022 81 10000 6.2 30 16:40 21.06.2019
5999 Clear 13 1022 81 10000 6.2 30 16:21 21.06.2019
6000 Clear 12 1022 81 10000 6.2 30 15:39 21.06.2019
6001 Clear 12 1022 81 10000 6.2 30 15:20 21.06.2019
6002 Clear 10 1022 87 10000 5.1 30 14:47 21.06.2019
6003 Rain 10 1022 87 10000 5.1 30 14:28 21.06.2019
6004 Rain 9 1022 87 10000 3.1 30 13:53 21.06.2019
6005 Clear 9 1022 87 10000 3.1 30 13:33 21.06.2019
6006 Clear 9 1022 93 10000 3.6 30 12:58 21.06.2019
6007 Clear 9 1022 93 10000 3.6 30 12:38 21.06.2019
6008 Clear 9 1021 93 10000 3.6 20 12:18 21.06.2019
6009 Clear 9 1021 93 10000 3.6 20 12:18 21.06.2019
6010 Clear 9 1021 93 10000 2.6 20 11:46 21.06.2019
6011 Clear 9 1021 93 10000 2.6 20 11:24 21.06.2019
6012 Clear 8 1021 93 10000 6.48 3.567 10:49 21.06.2019
6013 Clear 8 1021 93 10000 6.48 3.567 10:21 21.06.2019
6014 Clear 9 1021 93 10000 6.48 3.567 09:56 21.06.2019
6015 Clear 9 1021 93 10000 6.48 3.567 09:38 21.06.2019
6016 Clouds 9 1022 93 8000 6.42 5.61 09:18 21.06.2019
6017 Clouds 9 1022 93 8000 6.42 5.61 08:42 21.06.2019
6018 Clouds 9 1022 93 8000 6.31 356.304 08:22 21.06.2019
6019 Clouds 10 1022 87 8000 0.5 0 07:46 21.06.2019
6020 Clouds 10 1022 87 8000 0.5 0 07:26 21.06.2019
6021 Clouds 10 1022 93 6000 6.31 356.304 06:51 21.06.2019
6022 Clouds 10 1022 87 7000 6.23 354.529 06:19 21.06.2019
6023 Fog 10 1022 87 3000 6.23 354.529 04:57 21.06.2019
6024 Mist 11 1022 87 3000 6.23 354.529 03:58 21.06.2019
6025 Mist 11 1022 87 3000 6.23 354.529 03:32 21.06.2019
6026 Clouds 11 1022 87 6000 3.1 70 02:44 21.06.2019
6027 Mist 11 1023 93 5000 3.3 9.143 01:38 21.06.2019
6028 Clouds 12 1023 100 8000 1 0 00:53 21.06.2019
6029 Clear 12 1022 87 10000 2.03 304.262 00:19 21.06.2019
6030 Clear 13 1022 82 10000 2.6 90 23:42 20.06.2019
6031 Clear 14 1022 72 10000 2.03 304.262 23:21 20.06.2019
6032 Clear 14 1022 72 10000 2.03 304.262 22:46 20.06.2019
6033 Clear 14 1022 72 10000 2.03 304.262 22:27 20.06.2019
6034 Clear 14 1022 72 10000 2.1 300 21:57 20.06.2019
6035 Clear 14 1022 72 10000 2.1 300 21:39 20.06.2019
6036 Clouds 15 1022 72 10000 3.1 320 21:19 20.06.2019
6037 Clouds 15 1022 72 10000 3.1 320 20:46 20.06.2019
6038 Clouds 15 1022 72 10000 3.1 320 20:26 20.06.2019
6039 Rain 15 1022 67 10000 1.5 0 19:55 20.06.2019
6040 Rain 15 1022 67 10000 1.5 0 19:37 20.06.2019
6041 Rain 15 1023 72 10000 1.5 0 19:18 20.06.2019
6042 Clouds 15 1023 72 10000 1.5 0 18:42 20.06.2019
6043 Clouds 15 1023 72 10000 1.5 0 18:23 20.06.2019
6044 Clouds 15 1023 71 10000 1.5 0 17:51 20.06.2019
6045 Clouds 15 1023 71 10000 1.5 0 17:51 20.06.2019
6046 Clouds 15 1023 71 10000 1.5 0 17:32 20.06.2019
6047 Clouds 15 1023 76 10000 1 0 16:48 20.06.2019
6048 Clouds 14 1023 76 10000 1 0 16:20 20.06.2019
6049 Clouds 14 1022 76 10000 1 0 15:59 20.06.2019
6050 Clouds 13 1022 76 10000 1 0 15:40 20.06.2019
6051 Clouds 13 1022 76 10000 1 0 15:22 20.06.2019
6052 Clouds 12 1023 87 10000 1 250 14:46 20.06.2019
6053 Clouds 12 1023 87 10000 1 250 14:23 20.06.2019
6054 Rain 11 1022 93 10000 2.1 290 13:41 20.06.2019
6055 Rain 11 1022 93 10000 2.1 290 13:20 20.06.2019
6056 Rain 11 1021 93 10000 1.5 250 12:49 20.06.2019
6057 Clouds 11 1021 93 10000 1.5 250 12:24 20.06.2019
6058 Clouds 12 1020 76 10000 1.5 280 11:49 20.06.2019
6059 Clouds 12 1020 76 10000 1.5 280 11:30 20.06.2019
6060 Clouds 12 1020 76 10000 3.1 260 10:58 20.06.2019
6061 Clouds 12 1020 76 10000 3.1 260 10:39 20.06.2019
6062 Clouds 12 1020 71 10000 4.1 240 10:20 20.06.2019
6063 Clouds 12 1020 71 10000 4.1 240 09:40 20.06.2019
6064 Clouds 12 1020 71 10000 4.1 240 09:22 20.06.2019
6065 Clouds 12 1019 71 10000 2.6 250 08:46 20.06.2019
6066 Clouds 12 1019 71 10000 2.6 250 08:27 20.06.2019
6067 Clouds 12 1019 71 10000 4.1 250 07:54 20.06.2019
6068 Clouds 12 1019 71 10000 4.1 250 07:30 20.06.2019
6069 Clouds 12 1019 71 10000 4.6 250 06:30 20.06.2019
6070 Clouds 12 1019 71 10000 5.1 270 05:54 20.06.2019
6071 Clouds 13 1017 66 10000 6.2 270 03:37 20.06.2019
6072 Clear 14 1016 71 10000 5.7 270 00:34 20.06.2019
6073 Clear 14 1014 71 10000 6.2 270 23:59 19.06.2019
6074 Clear 14 1014 71 10000 6.2 270 23:41 19.06.2019
6075 Clear 14 1014 71 10000 6.2 270 23:23 19.06.2019
6076 Clear 15 1014 76 10000 7.2 270 22:47 19.06.2019
6077 Clear 15 1014 76 10000 7.2 270 22:20 19.06.2019
6078 Clouds 16 1013 62 10000 10.3 280 21:47 19.06.2019
6079 Clouds 16 1013 62 10000 10.3 280 21:26 19.06.2019
6080 Clouds 16 1012 67 10000 7.7 270 20:57 19.06.2019
6081 Clouds 16 1012 67 10000 7.7 270 20:37 19.06.2019
6082 Clouds 16 1012 62 10000 8.7 270 20:19 19.06.2019
6083 Clouds 15 1012 62 10000 8.7 270 19:41 19.06.2019
6084 Clouds 15 1013 67 10000 7.7 270 19:21 19.06.2019
6085 Clouds 14 1013 67 10000 7.7 270 18:49 19.06.2019
6086 Clouds 14 1013 67 10000 7.7 270 18:21 19.06.2019
6087 Clouds 13 1012 71 10000 7.7 270 17:41 19.06.2019
6088 Clouds 13 1012 71 10000 7.7 270 17:22 19.06.2019
6089 Clouds 13 1012 71 10000 7.7 280 16:40 19.06.2019
6090 Squall 13 1011 76 10000 10.3 280 16:21 19.06.2019
6091 Squall 14 1011 76 10000 10.3 280 15:55 19.06.2019
6092 Squall 14 1011 76 10000 10.3 280 15:28 19.06.2019
6093 -273 0 0 0 0 0 15:28 19.06.2019
6094 -273 0 0 0 0 0 14:57 19.06.2019
6095 Clouds 14 1011 76 10000 7.7 280 14:57 19.06.2019
6096 Clouds 13 1011 76 10000 7.7 280 14:38 19.06.2019
6097 Clouds 13 1010 71 10000 7.7 280 14:20 19.06.2019
6098 Clouds 13 1010 71 10000 7.7 280 13:43 19.06.2019
6099 Clouds 13 1010 71 10000 7.7 280 13:24 19.06.2019
6100 Clouds 13 1009 76 10000 6.2 330 12:44 19.06.2019
6101 Clouds 13 1009 76 10000 6.2 330 12:22 19.06.2019
6102 Clouds 12 1009 71 10000 8.7 320 11:56 19.06.2019
6103 Clouds 12 1008 71 10000 9.3 330 11:38 19.06.2019
6104 Clouds 12 1008 71 10000 9.3 330 11:19 19.06.2019
6105 Rain 12 1008 71 10000 9.3 330 10:45 19.06.2019
6106 Rain 12 1008 71 10000 9.3 330 10:26 19.06.2019
6107 Clear 12 1009 71 10000 6.2 330 09:43 19.06.2019
6108 Clear 12 1009 71 10000 6.2 330 09:22 19.06.2019
6109 Clear 12 1010 66 10000 9.8 330 08:51 19.06.2019
6110 Clear 12 1010 66 10000 9.8 330 08:29 19.06.2019
6111 Clear 11 1010 76 10000 6.7 350 07:49 19.06.2019
6112 Clear 11 1010 76 10000 6.7 350 07:30 19.06.2019
6113 Clear 11 1010 81 10000 7.7 340 06:55 19.06.2019
6114 Rain 11 1010 81 10000 7.7 340 06:30 19.06.2019
6115 Rain 11 1010 81 10000 8.2 340 05:50 19.06.2019
6116 Clear 11 1010 87 10000 6.7 350 04:41 19.06.2019
6117 Clear 12 1011 87 10000 5.1 330 03:37 19.06.2019
6118 Clear 13 1011 81 10000 6.2 340 02:30 19.06.2019
6119 Clouds 13 1011 76 10000 7.2 330 01:29 19.06.2019
6120 Clouds 13 1010 76 10000 6.2 330 00:52 19.06.2019
6121 Clouds 13 1010 76 10000 6.2 330 00:34 19.06.2019
6122 Clouds 13 1010 87 10000 7.7 330 23:58 18.06.2019
6123 Clouds 13 1010 87 10000 7.7 330 23:58 18.06.2019
6124 Clouds 13 1010 87 10000 7.7 330 23:30 18.06.2019
6125 Clouds 14 1009 76 10000 6.7 330 22:55 18.06.2019
6126 Clouds 14 1009 76 10000 6.7 330 22:37 18.06.2019
6127 Clouds 14 1009 87 10000 5.1 340 22:18 18.06.2019
6128 Clouds 14 1009 87 10000 5.1 340 21:43 18.06.2019
6129 Clouds 14 1009 87 10000 5.1 340 21:21 18.06.2019
6130 Clouds 14 1009 87 10000 5.1 340 20:55 18.06.2019
6131 Clouds 14 1009 87 10000 5.1 340 20:37 18.06.2019
6132 Clouds 14 1010 87 10000 5.1 330 20:18 18.06.2019
6133 Clouds 14 1010 87 10000 5.1 330 20:18 18.06.2019
6134 Clouds 13 1010 87 10000 5.1 330 19:39 18.06.2019
6135 Rain 13 1010 93 7000 5.7 320 19:20 18.06.2019
6136 Rain 13 1011 100 10000 3.6 350 18:46 18.06.2019
6137 Rain 13 1011 100 10000 3.6 350 18:24 18.06.2019
6138 Rain 13 1012 100 10000 5.1 330 17:42 18.06.2019
6139 Rain 13 1011 100 3000 4.6 310 17:21 18.06.2019
6140 Rain 14 1012 100 5000 4.6 320 16:47 18.06.2019
6141 Drizzle 14 1012 100 5000 4.6 320 16:28 18.06.2019
6142 Rain 14 1011 100 2000 5.7 320 15:58 18.06.2019
6143 Rain 14 1011 100 2000 5.7 320 15:38 18.06.2019
6144 Drizzle 14 1011 100 2000 5.7 290 15:19 18.06.2019
6145 Drizzle 14 1011 100 2000 5.7 290 14:45 18.06.2019
6146 Drizzle 15 1011 100 2000 5.7 290 14:22 18.06.2019
6147 Drizzle 16 1010 93 1500 5.1 280 13:58 18.06.2019
6148 Rain 16 1010 93 1500 5.1 280 13:38 18.06.2019
6149 Rain 18 1010 88 10000 5.7 30 13:20 18.06.2019
6150 Rain 19 1010 88 10000 5.7 30 12:43 18.06.2019
6151 Clouds 19 1010 88 10000 5.7 30 12:25 18.06.2019
6152 Clouds 19 1010 88 10000 6.7 40 11:45 18.06.2019
6153 Clouds 20 1010 88 10000 6.7 40 11:23 18.06.2019
6154 Clouds 19 1010 93 10000 4.6 40 10:57 18.06.2019
6155 Clouds 19 1010 93 10000 4.6 40 10:38 18.06.2019
6156 Clouds 19 1011 93 10000 5.7 50 10:19 18.06.2019
6157 Clouds 19 1011 93 10000 5.7 50 09:49 18.06.2019
6158 Clouds 20 1011 93 10000 5.7 50 09:24 18.06.2019
6159 Clouds 19 1012 100 10000 4.1 50 08:46 18.06.2019
6160 Clouds 19 1012 100 10000 4.1 50 08:21 18.06.2019
6161 Clouds 19 1012 100 10000 4.1 50 08:21 18.06.2019
6162 Rain 19 1013 100 7000 3.6 50 07:41 18.06.2019
6163 Rain 19 1013 100 7000 3.6 50 07:23 18.06.2019
6164 Clouds 19 1014 100 7000 5.1 70 06:45 18.06.2019
6165 Rain 19 1015 100 3000 4.1 70 05:21 18.06.2019
6166 Rain 18 1017 100 3000 3.1 50 03:59 18.06.2019
6167 Rain 19 1017 100 5000 3.1 50 01:59 18.06.2019
6168 Rain 18 1017 100 5000 3.1 50 01:25 18.06.2019
6169 Rain 19 1016 100 4000 5.1 80 00:57 18.06.2019
6170 Rain 19 1016 100 4000 5.1 80 00:30 18.06.2019
6171 Rain 19 1017 100 5000 3.6 50 23:42 17.06.2019
6172 Rain 19 1017 100 6000 4.1 80 23:22 17.06.2019
6173 Rain 19 1017 100 6000 4.1 80 22:58 17.06.2019
6174 Rain 19 1017 100 6000 4.1 80 22:38 17.06.2019
6175 Thunderstorm 19 1017 93 4000 2.6 350 22:20 17.06.2019
6176 Thunderstorm 19 1017 93 8000 2.6 50 21:42 17.06.2019
6177 Thunderstorm 19 1017 93 6000 5.1 60 21:22 17.06.2019
6178 Clouds 19 1017 93 9000 6.2 70 20:39 17.06.2019
6179 Clouds 19 1017 93 9000 6.2 70 20:20 17.06.2019
6180 Clouds 20 1017 93 9000 6.7 90 19:56 17.06.2019
6181 Clouds 20 1017 93 9000 6.7 90 19:38 17.06.2019
6182 Clouds 20 1018 88 10000 6.2 70 19:19 17.06.2019
6183 Clouds 20 1019 88 10000 5.1 90 18:39 17.06.2019
6184 Clouds 19 1020 94 10000 5.7 90 18:18 17.06.2019
6185 Clouds 20 1020 94 10000 5.7 90 17:48 17.06.2019
6186 Clouds 20 1020 94 10000 5.7 90 17:48 17.06.2019
6187 Clouds 20 1020 94 10000 5.7 90 17:29 17.06.2019
6188 Clouds 19 1021 93 10000 6.2 70 16:56 17.06.2019
6189 Clouds 19 1021 93 10000 6.2 70 16:38 17.06.2019
6190 Clouds 18 1021 100 8000 3.1 90 16:20 17.06.2019
6191 Rain 17 1021 100 8000 3.1 90 15:43 17.06.2019
6192 Rain 18 1022 100 6000 3.1 90 15:20 17.06.2019
6193 Drizzle 17 1022 100 6000 3.1 90 14:56 17.06.2019
6194 Drizzle 17 1022 100 6000 3.1 90 14:36 17.06.2019
6195 Drizzle 17 1022 100 6000 3.1 90 14:36 17.06.2019
6196 Clouds 17 1022 100 8000 4.6 100 14:18 17.06.2019
6197 Clouds 17 1021 100 8000 5.1 80 13:40 17.06.2019
6198 Clouds 17 1021 100 10000 5.1 110 13:20 17.06.2019
6199 Clouds 17 1022 100 10000 5.1 110 12:40 17.06.2019
6200 Clouds 17 1022 100 10000 5.1 110 12:19 17.06.2019
6201 Clouds 17 1022 100 10000 5.1 110 12:19 17.06.2019
6202 Clouds 16 1022 100 10000 4.6 110 11:43 17.06.2019
6203 Clouds 16 1022 100 10000 4.6 110 11:25 17.06.2019
6204 Rain 16 1022 100 10000 5.1 100 10:47 17.06.2019
6205 Rain 16 1022 100 10000 5.1 100 10:29 17.06.2019
6206 Rain 16 1022 100 9000 5.1 110 09:56 17.06.2019
6207 Rain 16 1022 100 9000 5.1 110 09:34 17.06.2019
6208 Rain 16 1022 100 9000 5.1 110 08:55 17.06.2019
6209 Rain 16 1023 100 9000 5.1 110 08:36 17.06.2019
6210 Rain 16 1023 100 9000 5.1 110 08:18 17.06.2019
6211 Rain 16 1023 100 9000 5.7 120 07:38 17.06.2019
6212 Rain 16 1023 100 9000 5.7 120 07:18 17.06.2019
6213 Rain 16 1023 100 8000 5.1 120 06:23 17.06.2019
6214 Rain 16 1023 100 8000 6.7 120 05:31 17.06.2019
6215 Clouds 16 1023 100 10000 5.7 130 04:32 17.06.2019
6216 Clouds 16 1022 100 10000 4.1 120 03:32 17.06.2019
6217 Drizzle 16 1022 100 9000 3.1 80 02:49 17.06.2019
6218 Drizzle 16 1022 100 9000 3.1 80 02:31 17.06.2019
6219 Clouds 16 1023 100 10000 2.6 110 01:38 17.06.2019
6220 Rain 16 1023 100 10000 2.6 110 00:58 17.06.2019
6221 Rain 16 1022 100 3500 3.6 90 00:38 17.06.2019
6222 Rain 16 1021 100 10000 6.2 110 00:20 17.06.2019
6223 Rain 16 1022 100 10000 5.7 110 23:40 16.06.2019
6224 Rain 16 1022 100 5000 4.6 110 23:20 16.06.2019
6225 Rain 15 1022 100 2000 4.6 150 22:47 16.06.2019
6226 Rain 15 1022 100 5000 4.1 130 22:21 16.06.2019
6227 Rain 15 1022 100 5000 4.1 130 21:59 16.06.2019
6228 Rain 15 1022 100 7000 4.6 150 21:40 16.06.2019
6229 Rain 15 1021 100 4000 2.6 140 21:21 16.06.2019
6230 Rain 15 1021 100 4000 2.6 140 20:55 16.06.2019
6231 Rain 15 1021 100 5000 7.2 90 20:37 16.06.2019
6232 Rain 15 1021 100 4000 7.7 100 20:18 16.06.2019
6233 Rain 15 1021 100 4000 7.7 100 20:18 16.06.2019
6234 Rain 15 1022 100 1500 11.07 99.974 19:40 16.06.2019
6235 Rain 15 1022 100 2000 8.2 100 19:22 16.06.2019
6236 Rain 15 1022 100 2000 8.2 100 18:58 16.06.2019
6237 Rain 15 1022 100 1500 6.7 90 18:39 16.06.2019
6238 Rain 16 1023 100 2000 7.7 110 18:20 16.06.2019
6239 Rain 16 1023 100 1500 6.7 120 17:46 16.06.2019
6240 Rain 16 1024 100 2000 7.7 110 17:22 16.06.2019
6241 Rain 16 1024 100 2000 7.7 110 16:57 16.06.2019
6242 Rain 16 1024 100 2000 7.7 110 16:38 16.06.2019
6243 Rain 13 1024 95 0 11.17 98.69 16:20 16.06.2019
6244 Rain 16 1024 100 5000 8.7 110 15:42 16.06.2019
6245 Rain 16 1024 100 6000 7.2 110 15:23 16.06.2019
6246 Rain 16 1023 100 5000 9.3 100 14:44 16.06.2019
6247 Rain 16 1023 100 5000 9.3 100 14:23 16.06.2019
6248 Rain 16 1021 100 2500 7.2 120 13:52 16.06.2019
6249 Rain 15 1021 100 2500 7.2 120 13:27 16.06.2019
6250 Clouds 15 1022 100 10000 7.7 120 12:57 16.06.2019
6251 Clouds 15 1021 100 10000 8.7 100 12:38 16.06.2019
6252 Clouds 15 1021 100 10000 8.7 100 12:19 16.06.2019
6253 Drizzle 15 1021 100 7000 8.7 130 11:45 16.06.2019
6254 Drizzle 15 1021 100 7000 8.7 130 11:20 16.06.2019
6255 Rain 15 1021 100 5000 8.2 120 10:45 16.06.2019
6256 Rain 15 1021 100 5000 8.2 120 10:21 16.06.2019
6257 Drizzle 15 1021 100 5000 6.7 110 09:48 16.06.2019
6258 Drizzle 15 1021 100 5000 6.7 110 09:26 16.06.2019
6259 Rain 15 1021 100 5000 7.7 120 08:59 16.06.2019
6260 Rain 15 1021 100 5000 7.7 120 08:38 16.06.2019
6261 Rain 15 1021 100 5000 7.7 120 08:18 16.06.2019
6262 Rain 15 1022 100 3000 7.2 140 07:44 16.06.2019
6263 Drizzle 15 1022 100 3000 7.2 140 06:59 16.06.2019
6264 Drizzle 15 1021 100 5000 8.2 120 06:37 16.06.2019
6265 Rain 15 1021 100 5000 8.7 140 05:47 16.06.2019
6266 Rain 15 1021 100 3000 9.8 130 04:49 16.06.2019
6267 Rain 15 1021 100 3000 9.8 130 03:57 16.06.2019
6268 Rain 15 1021 100 3000 9.8 130 03:57 16.06.2019
6269 Rain 15 1021 100 3000 9.8 130 03:57 16.06.2019
6270 Rain 14 1021 100 3000 8.7 140 03:32 16.06.2019
6271 Rain 15 1021 100 3000 8.2 130 02:26 16.06.2019
6272 Rain 14 1020 100 3000 9.8 160 01:42 16.06.2019
6273 Rain 14 1020 100 3000 9.8 160 01:24 16.06.2019
6274 Rain 14 1019 100 1200 8.7 170 00:40 16.06.2019
6275 Rain 14 1019 100 1200 8.7 170 00:40 16.06.2019
6276 Rain 14 1019 100 1200 8.7 170 00:20 16.06.2019
6277 Rain 14 1019 100 1200 6.7 170 23:43 15.06.2019
6278 Rain 14 1019 100 1200 6.7 170 23:25 15.06.2019
6279 Rain 14 1019 100 3000 8.7 150 22:50 15.06.2019
6280 Rain 14 1019 100 3000 8.7 150 22:27 15.06.2019
6281 Rain 14 1019 100 3000 7.7 150 21:50 15.06.2019
6282 Rain 14 1019 100 3000 7.7 150 21:29 15.06.2019
6283 Rain 14 1019 100 3000 7.7 150 20:59 15.06.2019
6284 Rain 14 1018 100 2000 5.1 150 20:40 15.06.2019
6285 Rain 14 1018 100 5000 8.2 140 20:19 15.06.2019
6286 Rain 14 1018 100 5000 8.2 140 19:42 15.06.2019
6287 Rain 14 1019 100 2000 7.2 150 19:23 15.06.2019
6288 Rain 14 1018 100 3000 8.2 140 18:40 15.06.2019
6289 Thunderstorm 14 1019 100 5000 6.7 150 18:21 15.06.2019
6290 Thunderstorm 14 1020 100 1500 5.7 150 17:43 15.06.2019
6291 Thunderstorm 14 1020 100 1500 5.7 150 17:43 15.06.2019
6292 Rain 13 1019 93 2500 4.6 150 17:23 15.06.2019
6293 Rain 13 1019 93 2500 4.6 150 16:48 15.06.2019
6294 Rain 13 1019 100 5000 8.2 130 16:20 15.06.2019
6295 Rain 13 1019 93 2000 8.7 150 15:44 15.06.2019
6296 Rain 13 1019 93 2000 8.7 150 15:24 15.06.2019
6297 Thunderstorm 13 1019 100 2000 5.1 150 14:43 15.06.2019
6298 Thunderstorm 13 1019 100 3500 4.6 150 14:19 15.06.2019
6299 Thunderstorm 13 1019 100 3500 4.6 150 13:58 15.06.2019
6300 Thunderstorm 13 1019 100 3500 4.6 150 13:40 15.06.2019
6301 Rain 13 1018 100 5000 8.2 140 13:18 15.06.2019
6302 Rain 13 1019 100 4000 6.2 140 12:47 15.06.2019
6303 Rain 13 1019 100 4000 6.2 140 12:26 15.06.2019
6304 Thunderstorm 13 1019 100 8000 5.7 160 11:52 15.06.2019
6305 Thunderstorm 13 1019 100 8000 5.7 160 11:32 15.06.2019
6306 Clouds 13 1018 100 8000 7.2 160 10:49 15.06.2019
6307 Clouds 13 1018 100 8000 7.2 160 10:27 15.06.2019
6308 Clouds 13 1018 100 7000 5.7 150 09:59 15.06.2019
6309 Clouds 13 1018 100 7000 5.7 150 09:39 15.06.2019
6310 Clouds 13 1019 100 7000 3.6 150 09:20 15.06.2019
6311 Clouds 13 1019 100 7000 3.6 150 08:44 15.06.2019
6312 Clouds 13 1019 100 7000 3.6 150 08:25 15.06.2019
6313 Clouds 14 1019 100 6000 2.1 140 07:41 15.06.2019
6314 Clouds 14 1019 100 6000 2.1 140 07:21 15.06.2019
6315 Clouds 14 1019 100 6000 2.1 140 07:20 15.06.2019
6316 Drizzle 14 1019 100 3000 2.1 150 06:38 15.06.2019
6317 Drizzle 13 1019 100 3000 2.6 170 05:46 15.06.2019
6318 -273 0 0 0 0 0 05:19 15.06.2019
6319 Drizzle 14 1018 100 3000 2.1 170 04:34 15.06.2019
6320 Drizzle 14 1018 100 3000 2.6 170 03:38 15.06.2019
6321 Clouds 14 1018 100 10000 4.1 160 02:47 15.06.2019
6322 Clouds 15 1017 93 10000 3.1 190 01:59 15.06.2019
6323 Drizzle 14 1017 93 10000 3.1 190 01:28 15.06.2019
6324 Drizzle 15 1016 100 3000 1.5 220 00:44 15.06.2019
6325 Drizzle 15 1016 100 3000 1.5 220 00:44 15.06.2019
6326 Drizzle 15 1016 100 3000 1.5 220 00:26 15.06.2019
6327 Drizzle 15 1016 100 3000 3.1 240 23:52 14.06.2019
6328 Drizzle 15 1016 93 6000 4.1 200 23:25 14.06.2019
6329 Mist 15 1015 93 5000 4.1 220 22:43 14.06.2019
6330 Mist 15 1015 93 10000 4.6 220 22:23 14.06.2019
6331 Mist 15 1015 93 10000 4.6 220 22:23 14.06.2019
6332 Mist 15 1015 93 10000 4.6 220 22:23 14.06.2019
6333 Mist 15 1015 93 10000 4.6 220 21:57 14.06.2019
6334 Clouds 16 1015 93 8000 3.6 240 21:38 14.06.2019
6335 Clouds 15 1015 100 7000 3.6 240 21:20 14.06.2019
6336 Clouds 15 1015 100 7000 3.6 240 20:41 14.06.2019
6337 Clouds 15 1015 100 10000 3.1 220 20:18 14.06.2019
6338 Clouds 15 1015 100 7000 2.1 240 19:44 14.06.2019
6339 Drizzle 15 1015 100 10000 2.6 250 19:23 14.06.2019
6340 Drizzle 15 1015 100 10000 2.6 250 18:58 14.06.2019
6341 Drizzle 15 1015 100 600 3.1 240 18:40 14.06.2019
6342 Fog 16 1015 100 2000 3.1 220 18:22 14.06.2019
6343 Fog 16 1015 100 1500 4.6 230 17:46 14.06.2019
6344 Fog 16 1015 100 1500 4.6 230 17:27 14.06.2019
6345 Mist 16 1014 100 6000 6.7 240 16:56 14.06.2019
6346 Mist 16 1014 100 6000 6.7 240 16:56 14.06.2019
6347 Mist 16 1014 100 6000 6.7 240 16:38 14.06.2019
6348 Mist 17 1013 100 6000 4.6 250 16:18 14.06.2019
6349 Mist 17 1013 100 6000 4.6 250 15:39 14.06.2019
6350 Fog 18 1012 100 800 4.1 260 15:21 14.06.2019
6351 Fog 18 1012 100 800 4.1 270 14:54 14.06.2019
6352 Fog 18 1012 100 800 4.1 270 14:33 14.06.2019
6353 Fog 18 1012 100 800 4.1 270 14:33 14.06.2019
6354 Mist 19 1011 100 2500 3.6 280 13:56 14.06.2019
6355 Mist 19 1011 100 2500 3.6 280 13:56 14.06.2019
6356 Mist 19 1011 100 2500 3.6 280 13:56 14.06.2019
6357 Mist 19 1011 100 2500 3.6 280 13:56 14.06.2019
6358 Mist 19 1011 93 8000 2.6 330 13:37 14.06.2019
6359 Clouds 19 1011 100 9000 2.6 330 13:19 14.06.2019
6360 Clouds 20 1011 100 10000 3.1 340 12:41 14.06.2019
6361 Clouds 20 1011 100 10000 3.1 340 12:23 14.06.2019
6362 Clouds 20 1010 100 10000 3.1 300 11:47 14.06.2019
6363 Clouds 20 1010 100 10000 3.1 300 11:24 14.06.2019
6364 Clouds 20 1010 100 10000 3.1 340 10:58 14.06.2019
6365 Clouds 20 1010 100 10000 3.1 340 10:40 14.06.2019
6366 Thunderstorm 20 1010 100 5000 3.6 350 10:18 14.06.2019
6367 Thunderstorm 20 1010 100 5000 3.6 350 09:40 14.06.2019
6368 Thunderstorm 19 1010 100 10000 4.6 20 09:21 14.06.2019
6369 Thunderstorm 19 1010 100 10000 4.6 20 09:21 14.06.2019
6370 Thunderstorm 19 1010 100 10000 4.6 20 08:45 14.06.2019
6371 Clouds 19 1010 93 10000 4.6 30 08:19 14.06.2019
6372 Clouds 19 1010 93 10000 4.6 30 07:48 14.06.2019
6373 Thunderstorm 19 1009 93 10000 5.7 30 07:20 14.06.2019
6374 Thunderstorm 19 1009 93 10000 5.7 30 06:33 14.06.2019
6375 Thunderstorm 19 1010 93 10000 4.6 30 05:55 14.06.2019
6376 Clouds 19 1010 93 10000 4.6 40 05:00 14.06.2019
6377 Clouds 19 1010 93 10000 4.6 40 04:39 14.06.2019
6378 Clouds 18 1010 93 10000 5.1 50 03:51 14.06.2019
6379 Thunderstorm 18 1010 93 10000 6.2 60 03:25 14.06.2019
6380 Thunderstorm 18 1010 93 10000 6.2 60 03:25 14.06.2019
6381 Thunderstorm 18 1010 93 10000 6.2 60 02:48 14.06.2019
6382 Thunderstorm 18 1010 93 10000 6.2 60 02:25 14.06.2019
6383 Thunderstorm 18 1010 88 10000 8.2 50 00:51 14.06.2019
6384 Thunderstorm 18 1011 93 10000 6.2 70 00:23 14.06.2019
6385 Thunderstorm 18 1010 72 10000 9.3 50 23:56 13.06.2019
6386 Thunderstorm 18 1010 72 10000 9.3 50 23:27 13.06.2019
6387 Thunderstorm 19 1010 82 3000 6.7 40 22:59 13.06.2019
6388 Thunderstorm 19 1010 72 10000 7.2 50 22:39 13.06.2019
6389 Clear 19 1010 82 10000 8.2 60 22:21 13.06.2019
6390 Rain 19 1010 82 10000 8.2 60 21:40 13.06.2019
6391 Rain 19 1010 77 10000 7.7 60 21:20 13.06.2019
6392 Rain 19 1010 77 10000 7.7 60 21:20 13.06.2019
6393 Rain 19 1010 77 10000 7.7 60 20:55 13.06.2019
6394 Rain 19 1010 77 10000 7.7 60 20:36 13.06.2019
6395 Clouds 19 1012 88 10000 7.2 50 20:18 13.06.2019
6396 Rain 19 1012 88 10000 7.2 50 19:41 13.06.2019
6397 Rain 19 1012 88 10000 7.2 50 19:22 13.06.2019
6398 Rain 19 1012 88 10000 7.2 50 18:56 13.06.2019
6399 Rain 18 1013 88 10000 6.2 60 18:38 13.06.2019
6400 Rain 18 1013 100 10000 7.7 50 18:20 13.06.2019
6401 Rain 18 1012 93 8000 7.2 60 17:41 13.06.2019
6402 Rain 18 1013 100 5000 5.1 70 17:20 13.06.2019
6403 Rain 17 1013 100 5000 5.1 70 16:48 13.06.2019
6404 Rain 17 1014 100 3000 4.6 90 16:22 13.06.2019
6405 Rain 17 1014 100 3000 4.6 90 15:57 13.06.2019
6406 Rain 17 1016 100 4000 3.1 310 15:38 13.06.2019
6407 Rain 17 1013 100 8000 8.2 100 15:18 13.06.2019
6408 Rain 16 1013 100 500 7.2 120 14:44 13.06.2019
6409 Rain 16 1013 100 500 7.2 120 14:25 13.06.2019
6410 Fog 16 1014 100 500 8.2 120 13:46 13.06.2019
6411 Rain 16 1014 100 2000 5.1 130 13:21 13.06.2019
6412 Rain 16 1014 100 2000 5.1 130 12:58 13.06.2019
6413 Rain 16 1012 100 500 7.7 150 12:38 13.06.2019
6414 Fog 15 1011 100 400 9.3 90 12:19 13.06.2019
6415 Fog 15 1013 100 400 5.1 140 11:41 13.06.2019
6416 Fog 15 1014 100 500 4.6 140 11:22 13.06.2019
6417 Fog 15 1014 100 500 4.6 140 10:46 13.06.2019
6418 Fog 15 1014 100 500 4.6 140 10:28 13.06.2019
6419 Fog 16 1014 100 300 2.1 160 09:49 13.06.2019
6420 Fog 16 1014 100 300 2.1 160 09:25 13.06.2019
6421 Fog 16 1014 100 550 3.1 170 08:51 13.06.2019
6422 Fog 16 1014 100 550 3.1 170 08:30 13.06.2019
6423 Fog 17 1013 100 300 2.38 148.718 07:59 13.06.2019
6424 Fog 17 1013 100 300 2.38 148.718 07:31 13.06.2019
6425 Fog 17 1013 100 50 2.38 148.718 06:54 13.06.2019
6426 Fog 17 1013 100 50 2.38 148.718 06:36 13.06.2019
6427 Fog 18 1013 100 50 2.43 252.222 06:18 13.06.2019
6428 Fog 17 1013 100 800 2.43 252.222 05:38 13.06.2019
6429 Fog 17 1013 100 200 2.43 252.222 05:18 13.06.2019
6430 Rain 18 1012 100 5000 2.43 252.222 03:45 13.06.2019
6431 Clouds 18 1012 93 7000 3.59 297.873 01:55 13.06.2019
6432 Rain 19 1011 100 10000 1.5 200 00:31 13.06.2019
6433 Clouds 19 1011 93 6000 4.74 325.05 23:37 12.06.2019
6434 Mist 19 1010 100 4000 0.5 110 23:18 12.06.2019
6435 Clouds 20 1010 93 10000 1.5 340 22:41 12.06.2019
6436 Clouds 20 1010 94 10000 4.74 325.05 22:21 12.06.2019
6437 Clouds 21 1009 94 10000 2.1 270 21:43 12.06.2019
6438 Clouds 21 1009 94 10000 2.1 270 21:25 12.06.2019
6439 Clouds 21 1009 94 10000 2.6 350 20:49 12.06.2019
6440 Clouds 21 1009 94 10000 2.6 350 20:30 12.06.2019
6441 Clouds 21 1009 88 10000 3.6 340 19:57 12.06.2019
6442 Clouds 21 1009 88 10000 3.6 340 19:39 12.06.2019
6443 Clouds 21 1009 88 10000 2.1 330 19:21 12.06.2019
6444 Clouds 21 1009 88 10000 2.1 330 18:48 12.06.2019
6445 Clouds 21 1009 88 10000 2.1 330 18:28 12.06.2019
6446 Rain 20 1010 93 5000 5.1 360 17:48 12.06.2019
6447 Rain 20 1010 93 5000 5.1 360 17:23 12.06.2019
6448 Clouds 19 1010 93 10000 4.1 360 16:57 12.06.2019
6449 Rain 19 1010 93 3000 3.6 10 16:37 12.06.2019
6450 Clouds 19 1010 88 10000 2.1 20 16:19 12.06.2019
6451 Clouds 18 1010 88 10000 2.1 20 15:46 12.06.2019
6452 Clouds 18 1010 88 10000 2.1 20 15:25 12.06.2019
6453 Clouds 18 1010 88 10000 3.1 40 14:36 12.06.2019
6454 Clouds 17 1010 100 7000 2.6 40 14:18 12.06.2019
6455 Rain 17 1009 93 10000 3.6 70 13:41 12.06.2019
6456 Rain 17 1010 100 10000 2.6 70 13:19 12.06.2019
6457 Rain 17 1010 100 10000 2.6 70 12:56 12.06.2019
6458 Rain 17 1010 100 10000 4.6 80 12:37 12.06.2019
6459 Thunderstorm 17 1010 100 8000 4.1 80 12:18 12.06.2019
6460 Thunderstorm 16 1010 100 4000 4.6 110 11:43 12.06.2019
6461 Thunderstorm 16 1010 100 4000 4.6 110 11:43 12.06.2019
6462 Thunderstorm 16 1010 93 10000 3.6 160 11:25 12.06.2019
6463 Thunderstorm 16 1010 93 10000 3.6 160 10:46 12.06.2019
6464 Thunderstorm 17 1010 88 10000 4.1 30 10:23 12.06.2019
6465 Thunderstorm 17 1010 88 10000 4.1 30 09:43 12.06.2019
6466 Thunderstorm 17 1010 88 10000 4.1 30 09:23 12.06.2019
6467 Clouds 17 1011 93 8000 5.1 340 08:47 12.06.2019
6468 Thunderstorm 17 1011 93 10000 5.1 20 08:20 12.06.2019
6469 Thunderstorm 16 1011 93 10000 5.1 20 07:37 12.06.2019
6470 Thunderstorm 16 1012 93 10000 3.6 50 06:53 12.06.2019
6471 Thunderstorm 16 1013 100 10000 2.1 60 05:27 12.06.2019
6472 Rain 16 1012 93 0 3.13 47 04:29 12.06.2019
6473 Rain 15 1014 100 10000 2.6 150 01:27 12.06.2019
6474 Rain 16 1015 93 7000 2.6 80 00:38 12.06.2019
6475 Thunderstorm 16 1015 93 7000 4.1 60 23:47 11.06.2019
6476 Thunderstorm 16 1015 93 7000 4.1 60 23:29 11.06.2019
6477 Thunderstorm 15 1015 100 6000 4.1 80 22:44 11.06.2019
6478 Thunderstorm 16 1015 100 10000 3.1 90 22:19 11.06.2019
6479 Thunderstorm 16 1015 100 10000 3.1 90 21:57 11.06.2019
6480 Rain 16 1015 82 9000 5.1 100 21:38 11.06.2019
6481 Clouds 16 1016 82 10000 3.1 90 21:20 11.06.2019
6482 Clouds 16 1016 82 10000 3.1 90 20:48 11.06.2019
6483 Clouds 16 1016 82 10000 3.1 90 20:26 11.06.2019
6484 Clouds 16 1016 82 10000 5.7 90 19:55 11.06.2019
6485 Clouds 16 1016 82 10000 5.7 90 19:33 11.06.2019
6486 Clouds 16 1018 82 10000 5.1 80 18:58 11.06.2019
6487 Clouds 16 1018 87 10000 4.6 110 18:23 11.06.2019
6488 Clouds 16 1018 87 10000 4.6 110 18:23 11.06.2019
6489 Clouds 16 1019 87 10000 5.7 100 17:42 11.06.2019
6490 Clouds 15 1020 87 10000 5.7 100 17:24 11.06.2019
6491 Clouds 15 1020 87 10000 5.7 100 16:59 11.06.2019
6492 Clouds 15 1020 87 10000 5.7 100 16:40 11.06.2019
6493 Clouds 15 1020 87 10000 5.7 100 16:22 11.06.2019
6494 Clouds 15 1019 82 10000 6.7 120 15:42 11.06.2019
6495 Clouds 15 1019 82 10000 6.7 120 15:24 11.06.2019
6496 Clouds 14 1019 114 10000 6.7 130 14:54 11.06.2019
6497 Clouds 14 1019 114 10000 6.7 130 14:23 11.06.2019
6498 Clouds 14 1019 100 10000 5.1 140 13:56 11.06.2019
6499 Clouds 14 1019 100 10000 5.1 140 13:36 11.06.2019
6500 Clouds 14 1018 93 10000 6.7 130 13:18 11.06.2019
6501 Clouds 13 1018 93 10000 6.7 130 12:40 11.06.2019
6502 Clouds 14 1019 100 10000 5.7 120 12:21 11.06.2019
6503 Clouds 14 1019 100 10000 6.2 120 11:40 11.06.2019
6504 Clouds 14 1019 100 10000 5.7 130 11:21 11.06.2019
6505 Clouds 14 1019 100 10000 5.7 130 10:50 11.06.2019
6506 Clouds 14 1019 100 10000 5.7 130 10:26 11.06.2019
6507 Clouds 13 1018 100 10000 5.7 130 09:50 11.06.2019
6508 Clouds 13 1018 100 10000 5.7 130 09:25 11.06.2019
6509 Mist 14 1018 100 5000 4.1 140 08:49 11.06.2019
6510 Mist 14 1018 100 5000 4.1 140 08:30 11.06.2019
6511 Mist 14 1018 100 3000 2.6 160 07:55 11.06.2019
6512 Mist 14 1018 100 3000 2.1 190 07:31 11.06.2019
6513 Mist 14 1018 100 3000 2.1 190 06:51 11.06.2019
6514 Fog 14 1018 100 300 7.38 128.962 05:00 11.06.2019
6515 Fog 14 1018 100 50 7.38 128.962 03:55 11.06.2019
6516 Fog 15 1018 100 50 2.13 149.732 01:43 11.06.2019
6517 Fog 14 1017 100 100 2.13 149.732 00:49 11.06.2019
6518 Fog 15 1016 93 3000 2.26 268.962 00:23 11.06.2019
6519 Fog 15 1015 100 200 1 290 23:41 10.06.2019
6520 Mist 16 1015 93 5000 3.1 270 23:19 10.06.2019
6521 Mist 17 1015 93 5000 3.1 270 22:42 10.06.2019
6522 Mist 17 1015 93 5000 3.1 270 22:24 10.06.2019
6523 Clouds 17 1015 93 5000 4.1 270 21:41 10.06.2019
6524 Clouds 17 1015 88 8000 3.6 270 21:23 10.06.2019
6525 Clouds 17 1015 88 8000 3.6 270 20:59 10.06.2019
6526 Clouds 18 1015 88 8000 3.6 270 20:40 10.06.2019
6527 Clouds 18 1015 82 8000 3.6 300 20:20 10.06.2019
6528 Clouds 18 1015 93 8000 4.1 290 19:43 10.06.2019
6529 Clouds 18 1015 88 8000 4.1 280 19:22 10.06.2019
6530 Clouds 18 1015 88 8000 4.1 280 18:56 10.06.2019
6531 Clouds 18 1015 93 8000 4.1 280 18:38 10.06.2019
6532 Mist 18 1015 88 8000 5.1 280 18:19 10.06.2019
6533 Mist 17 1016 100 4000 3.1 310 17:43 10.06.2019
6534 Mist 17 1016 100 4000 3.1 310 17:23 10.06.2019
6535 Clouds 17 1016 100 7000 4.1 330 16:48 10.06.2019
6536 Clouds 17 1016 100 7000 4.1 330 16:30 10.06.2019
6537 Clouds 17 1016 93 7000 4.1 310 15:57 10.06.2019
6538 Clouds 16 1016 100 10000 1.5 310 15:38 10.06.2019
6539 Mist 16 1016 100 10000 1.5 310 15:20 10.06.2019
6540 Mist 16 1015 100 2000 2.6 340 14:41 10.06.2019
6541 Mist 16 1015 100 2000 2.6 340 14:23 10.06.2019
6542 Mist 15 1014 100 5000 1.5 330 13:46 10.06.2019
6543 Clouds 15 1015 100 7000 2.6 340 13:26 10.06.2019
6544 Clouds 16 1014 100 10000 2.1 350 12:54 10.06.2019
6545 Clouds 16 1014 100 10000 2.1 350 12:30 10.06.2019
6546 Clouds 16 1014 93 10000 2.1 340 11:54 10.06.2019
6547 Clouds 16 1014 93 10000 2.1 340 11:30 10.06.2019
6548 Clouds 16 1014 93 10000 2.1 340 10:59 10.06.2019
6549 Clouds 16 1014 93 10000 1.5 340 10:41 10.06.2019
6550 Clouds 16 1014 93 10000 1.5 340 10:19 10.06.2019
6551 Clouds 16 1014 87 10000 2.1 320 09:51 10.06.2019
6552 Clouds 16 1014 87 10000 2.1 320 09:29 10.06.2019
6553 Clouds 16 1014 87 10000 4.1 10 08:49 10.06.2019
6554 Clouds 17 1014 87 10000 4.1 10 08:26 10.06.2019
6555 Clouds 17 1014 82 10000 3.6 10 07:41 10.06.2019
6556 Clear 16 1014 62 10000 3.6 20 04:43 10.06.2019
6557 Clear 17 1015 51 10000 3.6 50 02:35 10.06.2019
6558 Clear 17 1015 51 10000 4.1 70 01:50 10.06.2019
6559 Clear 17 1015 51 10000 4.1 70 01:19 10.06.2019
6560 Clear 17 1015 51 10000 3.1 80 00:47 10.06.2019
6561 Clear 17 1015 42 10000 2.1 90 23:47 09.06.2019
6562 Clear 17 1015 42 10000 2.1 90 23:47 09.06.2019
6563 Clear 18 1016 48 10000 2.6 80 23:22 09.06.2019
6564 Clear 19 1016 37 10000 2.1 60 22:48 09.06.2019
6565 Clear 19 1016 37 10000 2.1 60 22:26 09.06.2019
6566 Clear 21 1016 37 10000 3.6 30 21:57 09.06.2019
6567 Clear 21 1016 37 10000 3.6 30 21:37 09.06.2019
6568 Clear 21 1016 37 10000 3.6 30 21:18 09.06.2019
6569 Clear 21 1016 37 10000 3.6 30 20:41 09.06.2019
6570 Clear 20 1017 45 10000 6.7 30 20:22 09.06.2019
6571 Clear 21 1017 45 10000 6.7 30 19:45 09.06.2019
6572 Clear 20 1018 48 10000 6.7 50 19:18 09.06.2019
6573 Clear 20 1018 48 10000 6.7 50 19:18 09.06.2019
6574 Clear 20 1018 48 10000 6.7 50 19:18 09.06.2019
6575 Clear 19 1018 48 10000 6.7 50 18:44 09.06.2019
6576 Clear 19 1018 48 10000 6.7 50 18:25 09.06.2019
6577 Clear 17 1019 59 10000 6.7 50 17:56 09.06.2019
6578 Clear 17 1019 59 10000 6.7 50 17:32 09.06.2019
6579 Clear 16 1019 48 10000 5.1 20 16:59 09.06.2019
6580 Clear 15 1020 62 10000 5.1 30 16:40 09.06.2019
6581 Clear 13 1020 76 10000 4.6 30 16:20 09.06.2019
6582 Clear 13 1020 76 10000 4.6 30 15:50 09.06.2019
6583 Clear 12 1020 76 10000 4.6 30 15:29 09.06.2019
6584 Clear 11 1020 71 10000 2.6 20 14:56 09.06.2019
6585 Clear 10 1020 87 10000 4.1 60 14:38 09.06.2019
6586 Clear 8 1019 86 10000 2.6 60 14:19 09.06.2019
6587 Clear 7 1019 86 10000 2.6 60 13:48 09.06.2019
6588 Clear 7 1019 80 10000 2.1 20 12:58 09.06.2019
6589 Clear 7 1019 93 10000 2.1 30 12:38 09.06.2019
6590 Clear 9 1019 80 10000 2.1 20 12:19 09.06.2019
6591 Clear 9 1019 80 10000 2.1 20 11:38 09.06.2019
6592 Clear 8 1019 81 10000 2.1 20 11:19 09.06.2019
6593 Clear 9 1019 81 10000 2.1 20 10:43 09.06.2019
6594 Clear 9 1019 81 10000 2.1 20 10:22 09.06.2019
6595 Clear 8 1019 81 10000 2.1 10 09:40 09.06.2019
6596 Clear 8 1019 75 10000 2.6 10 09:21 09.06.2019
6597 Clear 10 1019 75 10000 2.6 10 08:45 09.06.2019
6598 Clear 10 1019 75 10000 2.6 10 08:20 09.06.2019
6599 Clear 10 1020 75 10000 3.1 20 06:55 09.06.2019
6600 Clear 10 1020 75 10000 3.1 20 06:30 09.06.2019
6601 Clear 11 1020 70 10000 2.1 360 03:26 09.06.2019
6602 Clear 12 1019 62 10000 2.1 360 01:38 09.06.2019
6603 Clear 13 1020 62 10000 2.6 330 01:19 09.06.2019
6604 Clear 13 1020 62 10000 2.6 330 00:45 09.06.2019
6605 Clear 14 1019 58 10000 2.1 330 23:43 08.06.2019
6606 Clear 14 1019 58 10000 2.1 330 23:24 08.06.2019
6607 Clear 16 1019 50 10000 2.1 320 22:56 08.06.2019
6608 Clear 16 1019 48 10000 3.6 330 22:38 08.06.2019
6609 Clear 17 1019 44 10000 3.1 310 22:19 08.06.2019
6610 Clear 17 1019 44 10000 3.1 310 22:19 08.06.2019
6611 Clear 17 1019 51 10000 3.6 300 21:50 08.06.2019
6612 Clear 17 1019 51 10000 3.6 300 21:26 08.06.2019
6613 Clear 18 1019 55 10000 4.6 300 20:47 08.06.2019
6614 Clear 18 1019 55 10000 4.6 300 20:26 08.06.2019
6615 Clear 17 1018 36 10000 6.2 300 19:59 08.06.2019
6616 Clear 17 1019 55 10000 5.1 300 19:39 08.06.2019
6617 Clear 17 1019 42 10000 8.2 280 19:19 08.06.2019
6618 Clear 17 1020 51 10000 7.7 300 18:51 08.06.2019
6619 Clear 17 1020 51 10000 7.7 300 18:33 08.06.2019
6620 Clear 16 1021 72 10000 5.1 330 17:49 08.06.2019
6621 Clear 15 1020 58 10000 6.2 300 17:23 08.06.2019
6622 Clear 14 1020 58 10000 6.2 300 16:57 08.06.2019
6623 Clear 14 1021 76 10000 4.1 330 16:38 08.06.2019
6624 Clear 12 1020 87 10000 3.6 330 15:56 08.06.2019
6625 Clear 10 1020 87 10000 3.6 330 15:36 08.06.2019
6626 Clear 10 1020 87 10000 3.6 330 15:36 08.06.2019
6627 Clear 9 1020 93 10000 3.6 30 14:50 08.06.2019
6628 Clear 9 1020 93 10000 3.6 30 14:31 08.06.2019
6629 Clear 8 1020 87 10000 3.6 340 13:54 08.06.2019
6630 Clear 9 1019 93 10000 2.6 350 13:22 08.06.2019
6631 Clear 10 1019 93 10000 2.6 350 12:42 08.06.2019
6632 Clear 10 1019 93 10000 2.6 350 11:59 08.06.2019
6633 Clear 10 1018 93 10000 3.1 320 11:40 08.06.2019
6634 Clear 10 1018 93 10000 3.1 320 11:20 08.06.2019
6635 Clear 10 1018 93 10000 1.5 300 10:43 08.06.2019
6636 Clear 10 1018 93 10000 1.5 300 10:22 08.06.2019
6637 Clear 10 1018 93 10000 2.1 300 09:40 08.06.2019
6638 Clear 10 1018 93 10000 2.1 300 08:59 08.06.2019
6639 Clear 10 1018 93 10000 1.5 310 08:25 08.06.2019
6640 Clear 10 1018 87 10000 2.6 320 07:46 08.06.2019
6641 Clear 10 1018 87 10000 1.5 330 06:45 08.06.2019
6642 Clear 10 1018 87 10000 1.5 330 06:45 08.06.2019
6643 Clear 11 1017 81 10000 2.1 330 03:41 08.06.2019
6644 Clear 10 1017 81 10000 1.5 360 02:21 08.06.2019
6645 Clear 11 1017 81 10000 2.6 310 00:45 08.06.2019
6646 Clear 12 1017 76 10000 2.1 330 00:24 08.06.2019
6647 Clear 12 1017 81 10000 2.1 330 23:39 07.06.2019
6648 Clear 13 1017 71 10000 2.6 320 23:19 07.06.2019
6649 Clear 15 1017 67 10000 4.1 300 22:35 07.06.2019
6650 Clear 15 1017 58 10000 3.1 290 21:57 07.06.2019
6651 Clear 16 1017 67 10000 5.1 310 21:39 07.06.2019
6652 Clear 16 1016 48 10000 5.1 280 21:20 07.06.2019
6653 Clear 16 1016 48 10000 5.1 280 20:53 07.06.2019
6654 Clear 16 1017 62 10000 5.7 290 20:35 07.06.2019
6655 Clear 17 1016 59 10000 5.7 300 19:46 07.06.2019
6656 Clear 17 1016 59 10000 3.6 280 19:20 07.06.2019
6657 Clear 17 1016 59 10000 3.6 280 18:47 07.06.2019
6658 Clear 17 1016 59 10000 3.6 280 18:28 07.06.2019
6659 Clear 16 1017 63 10000 4.6 240 17:47 07.06.2019
6660 Clear 16 1017 63 10000 4.6 240 17:26 07.06.2019
6661 Clear 16 1016 82 10000 5.1 230 16:48 07.06.2019
6662 Clear 16 1016 82 10000 5.1 230 16:30 07.06.2019
6663 Clouds 15 1016 93 8000 4.1 260 15:50 07.06.2019
6664 Clouds 14 1016 100 8000 3.1 240 15:21 07.06.2019
6665 Clouds 14 1016 100 8000 3.1 240 14:47 07.06.2019
6666 Clouds 14 1016 100 8000 3.1 240 14:23 07.06.2019
6667 Drizzle 14 1014 100 3000 1.5 240 13:42 07.06.2019
6668 Drizzle 14 1014 100 6000 3.1 230 13:22 07.06.2019
6669 Drizzle 15 1014 100 4000 4.1 200 12:44 07.06.2019
6670 Clouds 15 1014 93 7000 4.1 220 12:20 07.06.2019
6671 Rain 15 1013 100 6000 3.6 230 11:43 07.06.2019
6672 Drizzle 15 1013 100 3000 9.65 214.069 11:22 07.06.2019
6673 Drizzle 15 1013 100 3000 9.65 214.069 10:49 07.06.2019
6674